<?xml version="1.0" encoding="UTF-8" standalone="no" ?>
<gpx xmlns="http://www.topografix.com/GPX/1/1" xmlns:xsi="http://www.w3.org/2001/XMLSchema-instance" xsi:schemaLocation="http://www.topografix.com/GPX/1/1 http://www.topografix.com/GPX/1/1/gpx.xsd" version="1.1" creator="VisuGPX - https://www.visugpx.com">
  <metadata>
    <name>3000 Luchonnais</name>
  </metadata>
  <trk>
    <name><![CDATA[3000 luchonnais 2020]]></name>
    <extensions>
      <line xmlns="http://www.topografix.com/GPX/gpx_style/0/2">
        <color>0000FF</color>
        <width>4</width>
      </line>
    </extensions>
    <trkseg>
      <trkpt lat="42.73565" lon="0.55722">
        <ele>1139</ele>
        <time>2020-09-13T09:29:47Z</time>
      </trkpt>
      <trkpt lat="42.73564" lon="0.55722">
        <ele>1138.8000488281</ele>
        <time>2020-09-13T09:29:48Z</time>
      </trkpt>
      <trkpt lat="42.73574" lon="0.55757">
        <ele>1139.1999511719</ele>
        <time>2020-09-13T09:59:45Z</time>
      </trkpt>
      <trkpt lat="42.73521" lon="0.55657">
        <ele>1143.1999511719</ele>
        <time>2020-09-13T10:04:01Z</time>
      </trkpt>
      <trkpt lat="42.73486" lon="0.55644">
        <ele>1148.8000488281</ele>
        <time>2020-09-13T10:04:49Z</time>
      </trkpt>
      <trkpt lat="42.7346" lon="0.55644">
        <ele>1153.5999755859</ele>
        <time>2020-09-13T10:05:25Z</time>
      </trkpt>
      <trkpt lat="42.73433" lon="0.55647">
        <ele>1158</ele>
        <time>2020-09-13T10:05:59Z</time>
      </trkpt>
      <trkpt lat="42.73394" lon="0.55667">
        <ele>1162.8000488281</ele>
        <time>2020-09-13T10:06:49Z</time>
      </trkpt>
      <trkpt lat="42.73375" lon="0.55683">
        <ele>1168</ele>
        <time>2020-09-13T10:07:29Z</time>
      </trkpt>
      <trkpt lat="42.73365" lon="0.55693">
        <ele>1171.1999511719</ele>
        <time>2020-09-13T10:07:51Z</time>
      </trkpt>
      <trkpt lat="42.73347" lon="0.557">
        <ele>1174.1999511719</ele>
        <time>2020-09-13T10:08:16Z</time>
      </trkpt>
      <trkpt lat="42.73335" lon="0.55699">
        <ele>1177.1999511719</ele>
        <time>2020-09-13T10:08:34Z</time>
      </trkpt>
      <trkpt lat="42.73337" lon="0.55703">
        <ele>1180.4000244141</ele>
        <time>2020-09-13T10:08:53Z</time>
      </trkpt>
      <trkpt lat="42.73339" lon="0.55704">
        <ele>1183.5999755859</ele>
        <time>2020-09-13T10:09:17Z</time>
      </trkpt>
      <trkpt lat="42.73307" lon="0.55726">
        <ele>1188.4000244141</ele>
        <time>2020-09-13T10:10:06Z</time>
      </trkpt>
      <trkpt lat="42.73277" lon="0.5574">
        <ele>1194</ele>
        <time>2020-09-13T10:10:54Z</time>
      </trkpt>
      <trkpt lat="42.73268" lon="0.55752">
        <ele>1197</ele>
        <time>2020-09-13T10:11:14Z</time>
      </trkpt>
      <trkpt lat="42.73261" lon="0.55766">
        <ele>1200.1999511719</ele>
        <time>2020-09-13T10:11:36Z</time>
      </trkpt>
      <trkpt lat="42.73252" lon="0.55783">
        <ele>1203.1999511719</ele>
        <time>2020-09-13T10:11:58Z</time>
      </trkpt>
      <trkpt lat="42.73239" lon="0.55798">
        <ele>1206.1999511719</ele>
        <time>2020-09-13T10:12:22Z</time>
      </trkpt>
      <trkpt lat="42.73238" lon="0.558">
        <ele>1211.5999755859</ele>
        <time>2020-09-13T10:13:04Z</time>
      </trkpt>
      <trkpt lat="42.73238" lon="0.55805">
        <ele>1214.5999755859</ele>
        <time>2020-09-13T10:13:24Z</time>
      </trkpt>
      <trkpt lat="42.73236" lon="0.55816">
        <ele>1217.8000488281</ele>
        <time>2020-09-13T10:13:44Z</time>
      </trkpt>
      <trkpt lat="42.73244" lon="0.55813">
        <ele>1220.8000488281</ele>
        <time>2020-09-13T10:14:04Z</time>
      </trkpt>
      <trkpt lat="42.73257" lon="0.5581">
        <ele>1223.8000488281</ele>
        <time>2020-09-13T10:14:24Z</time>
      </trkpt>
      <trkpt lat="42.73272" lon="0.55812">
        <ele>1227</ele>
        <time>2020-09-13T10:14:46Z</time>
      </trkpt>
      <trkpt lat="42.73286" lon="0.55824">
        <ele>1230</ele>
        <time>2020-09-13T10:15:05Z</time>
      </trkpt>
      <trkpt lat="42.73298" lon="0.55829">
        <ele>1233</ele>
        <time>2020-09-13T10:15:23Z</time>
      </trkpt>
      <trkpt lat="42.73303" lon="0.55839">
        <ele>1236</ele>
        <time>2020-09-13T10:15:43Z</time>
      </trkpt>
      <trkpt lat="42.73288" lon="0.55852">
        <ele>1239.1999511719</ele>
        <time>2020-09-13T10:16:05Z</time>
      </trkpt>
      <trkpt lat="42.73277" lon="0.55863">
        <ele>1242.1999511719</ele>
        <time>2020-09-13T10:16:24Z</time>
      </trkpt>
      <trkpt lat="42.73265" lon="0.55874">
        <ele>1245.1999511719</ele>
        <time>2020-09-13T10:16:44Z</time>
      </trkpt>
      <trkpt lat="42.73266" lon="0.55875">
        <ele>1248.4000244141</ele>
        <time>2020-09-13T10:17:03Z</time>
      </trkpt>
      <trkpt lat="42.73279" lon="0.55873">
        <ele>1251.4000244141</ele>
        <time>2020-09-13T10:17:21Z</time>
      </trkpt>
      <trkpt lat="42.73291" lon="0.55874">
        <ele>1254.4000244141</ele>
        <time>2020-09-13T10:17:38Z</time>
      </trkpt>
      <trkpt lat="42.73303" lon="0.55876">
        <ele>1257.4000244141</ele>
        <time>2020-09-13T10:17:57Z</time>
      </trkpt>
      <trkpt lat="42.73313" lon="0.5588">
        <ele>1260.5999755859</ele>
        <time>2020-09-13T10:18:16Z</time>
      </trkpt>
      <trkpt lat="42.73323" lon="0.55892">
        <ele>1263.5999755859</ele>
        <time>2020-09-13T10:18:36Z</time>
      </trkpt>
      <trkpt lat="42.73334" lon="0.55897">
        <ele>1266.8000488281</ele>
        <time>2020-09-13T10:18:53Z</time>
      </trkpt>
      <trkpt lat="42.73335" lon="0.55904">
        <ele>1270</ele>
        <time>2020-09-13T10:19:12Z</time>
      </trkpt>
      <trkpt lat="42.73321" lon="0.55909">
        <ele>1273.1999511719</ele>
        <time>2020-09-13T10:19:34Z</time>
      </trkpt>
      <trkpt lat="42.73303" lon="0.55913">
        <ele>1276.1999511719</ele>
        <time>2020-09-13T10:19:57Z</time>
      </trkpt>
      <trkpt lat="42.73292" lon="0.55926">
        <ele>1279.4000244141</ele>
        <time>2020-09-13T10:20:18Z</time>
      </trkpt>
      <trkpt lat="42.73284" lon="0.55942">
        <ele>1282.4000244141</ele>
        <time>2020-09-13T10:20:37Z</time>
      </trkpt>
      <trkpt lat="42.73284" lon="0.5595">
        <ele>1285.8000488281</ele>
        <time>2020-09-13T10:20:55Z</time>
      </trkpt>
      <trkpt lat="42.73291" lon="0.55936">
        <ele>1288.8000488281</ele>
        <time>2020-09-13T10:21:14Z</time>
      </trkpt>
      <trkpt lat="42.73303" lon="0.55938">
        <ele>1292</ele>
        <time>2020-09-13T10:21:33Z</time>
      </trkpt>
      <trkpt lat="42.73326" lon="0.55948">
        <ele>1298</ele>
        <time>2020-09-13T10:22:10Z</time>
      </trkpt>
      <trkpt lat="42.73338" lon="0.55953">
        <ele>1301.4000244141</ele>
        <time>2020-09-13T10:22:29Z</time>
      </trkpt>
      <trkpt lat="42.73349" lon="0.55961">
        <ele>1304.4000244141</ele>
        <time>2020-09-13T10:22:48Z</time>
      </trkpt>
      <trkpt lat="42.73361" lon="0.55968">
        <ele>1307.5999755859</ele>
        <time>2020-09-13T10:23:09Z</time>
      </trkpt>
      <trkpt lat="42.73348" lon="0.55975">
        <ele>1310.5999755859</ele>
        <time>2020-09-13T10:23:30Z</time>
      </trkpt>
      <trkpt lat="42.73338" lon="0.5598">
        <ele>1313.8000488281</ele>
        <time>2020-09-13T10:23:46Z</time>
      </trkpt>
      <trkpt lat="42.73327" lon="0.55982">
        <ele>1317</ele>
        <time>2020-09-13T10:24:05Z</time>
      </trkpt>
      <trkpt lat="42.73316" lon="0.55989">
        <ele>1320</ele>
        <time>2020-09-13T10:24:25Z</time>
      </trkpt>
      <trkpt lat="42.73305" lon="0.56001">
        <ele>1323.1999511719</ele>
        <time>2020-09-13T10:24:43Z</time>
      </trkpt>
      <trkpt lat="42.73303" lon="0.56015">
        <ele>1326.1999511719</ele>
        <time>2020-09-13T10:25:02Z</time>
      </trkpt>
      <trkpt lat="42.73297" lon="0.5603">
        <ele>1329.1999511719</ele>
        <time>2020-09-13T10:25:21Z</time>
      </trkpt>
      <trkpt lat="42.73292" lon="0.56042">
        <ele>1332.1999511719</ele>
        <time>2020-09-13T10:25:36Z</time>
      </trkpt>
      <trkpt lat="42.73277" lon="0.5605">
        <ele>1335.4000244141</ele>
        <time>2020-09-13T10:26:00Z</time>
      </trkpt>
      <trkpt lat="42.7325" lon="0.56069">
        <ele>1341.1999511719</ele>
        <time>2020-09-13T10:26:42Z</time>
      </trkpt>
      <trkpt lat="42.7324" lon="0.56076">
        <ele>1344.1999511719</ele>
        <time>2020-09-13T10:26:59Z</time>
      </trkpt>
      <trkpt lat="42.73206" lon="0.5609">
        <ele>1350</ele>
        <time>2020-09-13T10:27:45Z</time>
      </trkpt>
      <trkpt lat="42.73195" lon="0.56095">
        <ele>1353.1999511719</ele>
        <time>2020-09-13T10:28:00Z</time>
      </trkpt>
      <trkpt lat="42.73183" lon="0.56104">
        <ele>1356.1999511719</ele>
        <time>2020-09-13T10:28:19Z</time>
      </trkpt>
      <trkpt lat="42.73172" lon="0.561">
        <ele>1359.1999511719</ele>
        <time>2020-09-13T10:28:34Z</time>
      </trkpt>
      <trkpt lat="42.73159" lon="0.56095">
        <ele>1362.1999511719</ele>
        <time>2020-09-13T10:28:53Z</time>
      </trkpt>
      <trkpt lat="42.73154" lon="0.56101">
        <ele>1365.4000244141</ele>
        <time>2020-09-13T10:29:08Z</time>
      </trkpt>
      <trkpt lat="42.7314" lon="0.561">
        <ele>1368.4000244141</ele>
        <time>2020-09-13T10:29:27Z</time>
      </trkpt>
      <trkpt lat="42.73128" lon="0.56109">
        <ele>1371.4000244141</ele>
        <time>2020-09-13T10:29:46Z</time>
      </trkpt>
      <trkpt lat="42.73116" lon="0.56122">
        <ele>1374.8000488281</ele>
        <time>2020-09-13T10:30:07Z</time>
      </trkpt>
      <trkpt lat="42.73096" lon="0.56135">
        <ele>1376.8000488281</ele>
        <time>2020-09-13T10:30:32Z</time>
      </trkpt>
      <trkpt lat="42.73053" lon="0.56176">
        <ele>1382.1999511719</ele>
        <time>2020-09-13T10:31:21Z</time>
      </trkpt>
      <trkpt lat="42.72965" lon="0.56235">
        <ele>1387.5999755859</ele>
        <time>2020-09-13T10:32:43Z</time>
      </trkpt>
      <trkpt lat="42.72925" lon="0.56247">
        <ele>1390.8000488281</ele>
        <time>2020-09-13T10:33:21Z</time>
      </trkpt>
      <trkpt lat="42.72923" lon="0.56243">
        <ele>1391</ele>
        <time>2020-09-13T10:33:24Z</time>
      </trkpt>
      <trkpt lat="42.72912" lon="0.56225">
        <ele>1401.8000488281</ele>
        <time>2020-09-13T10:33:40Z</time>
      </trkpt>
      <trkpt lat="42.7291" lon="0.56225">
        <ele>1401.8000488281</ele>
        <time>2020-09-13T10:33:41Z</time>
      </trkpt>
      <trkpt lat="42.72883" lon="0.562">
        <ele>1405.5999755859</ele>
        <time>2020-09-13T10:34:18Z</time>
      </trkpt>
      <trkpt lat="42.72864" lon="0.56214">
        <ele>1410.8000488281</ele>
        <time>2020-09-13T10:34:54Z</time>
      </trkpt>
      <trkpt lat="42.72857" lon="0.56225">
        <ele>1413.8000488281</ele>
        <time>2020-09-13T10:35:12Z</time>
      </trkpt>
      <trkpt lat="42.72847" lon="0.56234">
        <ele>1416.8000488281</ele>
        <time>2020-09-13T10:35:31Z</time>
      </trkpt>
      <trkpt lat="42.72829" lon="0.56256">
        <ele>1422.4000244141</ele>
        <time>2020-09-13T10:36:09Z</time>
      </trkpt>
      <trkpt lat="42.72822" lon="0.56266">
        <ele>1425.4000244141</ele>
        <time>2020-09-13T10:36:26Z</time>
      </trkpt>
      <trkpt lat="42.72812" lon="0.56278">
        <ele>1428.4000244141</ele>
        <time>2020-09-13T10:36:45Z</time>
      </trkpt>
      <trkpt lat="42.72804" lon="0.5629">
        <ele>1431.5999755859</ele>
        <time>2020-09-13T10:37:02Z</time>
      </trkpt>
      <trkpt lat="42.72794" lon="0.56298">
        <ele>1434.5999755859</ele>
        <time>2020-09-13T10:37:19Z</time>
      </trkpt>
      <trkpt lat="42.72785" lon="0.56314">
        <ele>1437.8000488281</ele>
        <time>2020-09-13T10:37:39Z</time>
      </trkpt>
      <trkpt lat="42.72776" lon="0.56326">
        <ele>1441</ele>
        <time>2020-09-13T10:37:56Z</time>
      </trkpt>
      <trkpt lat="42.72766" lon="0.56339">
        <ele>1444</ele>
        <time>2020-09-13T10:38:14Z</time>
      </trkpt>
      <trkpt lat="42.7276" lon="0.56352">
        <ele>1447.1999511719</ele>
        <time>2020-09-13T10:38:31Z</time>
      </trkpt>
      <trkpt lat="42.72747" lon="0.56374">
        <ele>1453.1999511719</ele>
        <time>2020-09-13T10:39:04Z</time>
      </trkpt>
      <trkpt lat="42.72732" lon="0.56388">
        <ele>1458.5999755859</ele>
        <time>2020-09-13T10:39:30Z</time>
      </trkpt>
      <trkpt lat="42.72725" lon="0.56402">
        <ele>1461.5999755859</ele>
        <time>2020-09-13T10:39:47Z</time>
      </trkpt>
      <trkpt lat="42.72708" lon="0.56422">
        <ele>1467</ele>
        <time>2020-09-13T10:40:20Z</time>
      </trkpt>
      <trkpt lat="42.72704" lon="0.56425">
        <ele>1468.4000244141</ele>
        <time>2020-09-13T10:40:27Z</time>
      </trkpt>
      <trkpt lat="42.72702" lon="0.56427">
        <ele>1468.5999755859</ele>
        <time>2020-09-13T10:40:29Z</time>
      </trkpt>
      <trkpt lat="42.72567" lon="0.56538">
        <ele>1474.1999511719</ele>
        <time>2020-09-13T10:43:02Z</time>
      </trkpt>
      <trkpt lat="42.72538" lon="0.56562">
        <ele>1475.8000488281</ele>
        <time>2020-09-13T10:43:32Z</time>
      </trkpt>
      <trkpt lat="42.72531" lon="0.56561">
        <ele>1475.8000488281</ele>
        <time>2020-09-13T10:43:37Z</time>
      </trkpt>
      <trkpt lat="42.72505" lon="0.56586">
        <ele>1481.8000488281</ele>
        <time>2020-09-13T10:44:12Z</time>
      </trkpt>
      <trkpt lat="42.72502" lon="0.56597">
        <ele>1484.8000488281</ele>
        <time>2020-09-13T10:44:27Z</time>
      </trkpt>
      <trkpt lat="42.7249" lon="0.56611">
        <ele>1487.8000488281</ele>
        <time>2020-09-13T10:44:46Z</time>
      </trkpt>
      <trkpt lat="42.72476" lon="0.5663">
        <ele>1491</ele>
        <time>2020-09-13T10:45:11Z</time>
      </trkpt>
      <trkpt lat="42.72466" lon="0.56641">
        <ele>1494</ele>
        <time>2020-09-13T10:45:29Z</time>
      </trkpt>
      <trkpt lat="42.72458" lon="0.56654">
        <ele>1497</ele>
        <time>2020-09-13T10:45:47Z</time>
      </trkpt>
      <trkpt lat="42.7245" lon="0.5666">
        <ele>1500</ele>
        <time>2020-09-13T10:46:03Z</time>
      </trkpt>
      <trkpt lat="42.72438" lon="0.56666">
        <ele>1503.1999511719</ele>
        <time>2020-09-13T10:46:20Z</time>
      </trkpt>
      <trkpt lat="42.72432" lon="0.56672">
        <ele>1506.1999511719</ele>
        <time>2020-09-13T10:46:34Z</time>
      </trkpt>
      <trkpt lat="42.72426" lon="0.5668">
        <ele>1509.1999511719</ele>
        <time>2020-09-13T10:46:51Z</time>
      </trkpt>
      <trkpt lat="42.7242" lon="0.56689">
        <ele>1512.4000244141</ele>
        <time>2020-09-13T10:47:08Z</time>
      </trkpt>
      <trkpt lat="42.72414" lon="0.56698">
        <ele>1515.5999755859</ele>
        <time>2020-09-13T10:47:25Z</time>
      </trkpt>
      <trkpt lat="42.72397" lon="0.5672">
        <ele>1518.8000488281</ele>
        <time>2020-09-13T10:47:54Z</time>
      </trkpt>
      <trkpt lat="42.72348" lon="0.56749">
        <ele>1523</ele>
        <time>2020-09-13T10:48:57Z</time>
      </trkpt>
      <trkpt lat="42.72344" lon="0.56754">
        <ele>1526</ele>
        <time>2020-09-13T10:49:11Z</time>
      </trkpt>
      <trkpt lat="42.72338" lon="0.56756">
        <ele>1529.1999511719</ele>
        <time>2020-09-13T10:49:26Z</time>
      </trkpt>
      <trkpt lat="42.72331" lon="0.56758">
        <ele>1532.1999511719</ele>
        <time>2020-09-13T10:49:41Z</time>
      </trkpt>
      <trkpt lat="42.72314" lon="0.56768">
        <ele>1535.4000244141</ele>
        <time>2020-09-13T10:50:05Z</time>
      </trkpt>
      <trkpt lat="42.72299" lon="0.56772">
        <ele>1538.4000244141</ele>
        <time>2020-09-13T10:50:29Z</time>
      </trkpt>
      <trkpt lat="42.72289" lon="0.56775">
        <ele>1543.1999511719</ele>
        <time>2020-09-13T10:50:55Z</time>
      </trkpt>
      <trkpt lat="42.72281" lon="0.56781">
        <ele>1546.1999511719</ele>
        <time>2020-09-13T10:51:12Z</time>
      </trkpt>
      <trkpt lat="42.72271" lon="0.56788">
        <ele>1549.4000244141</ele>
        <time>2020-09-13T10:51:31Z</time>
      </trkpt>
      <trkpt lat="42.72264" lon="0.56801">
        <ele>1552.5999755859</ele>
        <time>2020-09-13T10:51:50Z</time>
      </trkpt>
      <trkpt lat="42.72253" lon="0.56816">
        <ele>1555.8000488281</ele>
        <time>2020-09-13T10:52:14Z</time>
      </trkpt>
      <trkpt lat="42.72247" lon="0.56819">
        <ele>1559</ele>
        <time>2020-09-13T10:52:28Z</time>
      </trkpt>
      <trkpt lat="42.72242" lon="0.56826">
        <ele>1562.1999511719</ele>
        <time>2020-09-13T10:52:43Z</time>
      </trkpt>
      <trkpt lat="42.72251" lon="0.56828">
        <ele>1565.4000244141</ele>
        <time>2020-09-13T10:53:02Z</time>
      </trkpt>
      <trkpt lat="42.72246" lon="0.56836">
        <ele>1568.4000244141</ele>
        <time>2020-09-13T10:53:20Z</time>
      </trkpt>
      <trkpt lat="42.72237" lon="0.56845">
        <ele>1571.5999755859</ele>
        <time>2020-09-13T10:53:39Z</time>
      </trkpt>
      <trkpt lat="42.72234" lon="0.56861">
        <ele>1574.5999755859</ele>
        <time>2020-09-13T10:53:57Z</time>
      </trkpt>
      <trkpt lat="42.72224" lon="0.56862">
        <ele>1577.8000488281</ele>
        <time>2020-09-13T10:54:15Z</time>
      </trkpt>
      <trkpt lat="42.72217" lon="0.56864">
        <ele>1580.8000488281</ele>
        <time>2020-09-13T10:54:31Z</time>
      </trkpt>
      <trkpt lat="42.72214" lon="0.56868">
        <ele>1583.8000488281</ele>
        <time>2020-09-13T10:54:48Z</time>
      </trkpt>
      <trkpt lat="42.72219" lon="0.56873">
        <ele>1586.8000488281</ele>
        <time>2020-09-13T10:55:05Z</time>
      </trkpt>
      <trkpt lat="42.72218" lon="0.56882">
        <ele>1589.8000488281</ele>
        <time>2020-09-13T10:55:25Z</time>
      </trkpt>
      <trkpt lat="42.72212" lon="0.56886">
        <ele>1593</ele>
        <time>2020-09-13T10:55:41Z</time>
      </trkpt>
      <trkpt lat="42.72203" lon="0.56889">
        <ele>1596</ele>
        <time>2020-09-13T10:55:58Z</time>
      </trkpt>
      <trkpt lat="42.72191" lon="0.56891">
        <ele>1599.1999511719</ele>
        <time>2020-09-13T10:56:16Z</time>
      </trkpt>
      <trkpt lat="42.72174" lon="0.56919">
        <ele>1604</ele>
        <time>2020-09-13T10:56:56Z</time>
      </trkpt>
      <trkpt lat="42.72169" lon="0.56928">
        <ele>1607</ele>
        <time>2020-09-13T10:57:12Z</time>
      </trkpt>
      <trkpt lat="42.7217" lon="0.56938">
        <ele>1610.1999511719</ele>
        <time>2020-09-13T10:57:27Z</time>
      </trkpt>
      <trkpt lat="42.72171" lon="0.56947">
        <ele>1613.4000244141</ele>
        <time>2020-09-13T10:57:43Z</time>
      </trkpt>
      <trkpt lat="42.72167" lon="0.5696">
        <ele>1616.4000244141</ele>
        <time>2020-09-13T10:58:03Z</time>
      </trkpt>
      <trkpt lat="42.72164" lon="0.5697">
        <ele>1619.8000488281</ele>
        <time>2020-09-13T10:58:19Z</time>
      </trkpt>
      <trkpt lat="42.72161" lon="0.56977">
        <ele>1622.8000488281</ele>
        <time>2020-09-13T10:58:35Z</time>
      </trkpt>
      <trkpt lat="42.72157" lon="0.56986">
        <ele>1625.8000488281</ele>
        <time>2020-09-13T10:58:50Z</time>
      </trkpt>
      <trkpt lat="42.72149" lon="0.56991">
        <ele>1629</ele>
        <time>2020-09-13T10:59:05Z</time>
      </trkpt>
      <trkpt lat="42.72141" lon="0.57008">
        <ele>1632</ele>
        <time>2020-09-13T10:59:25Z</time>
      </trkpt>
      <trkpt lat="42.72121" lon="0.57033">
        <ele>1636.5999755859</ele>
        <time>2020-09-13T11:00:05Z</time>
      </trkpt>
      <trkpt lat="42.72103" lon="0.57053">
        <ele>1641</ele>
        <time>2020-09-13T11:00:40Z</time>
      </trkpt>
      <trkpt lat="42.72086" lon="0.57076">
        <ele>1646.5999755859</ele>
        <time>2020-09-13T11:01:17Z</time>
      </trkpt>
      <trkpt lat="42.72077" lon="0.57083">
        <ele>1649.5999755859</ele>
        <time>2020-09-13T11:01:34Z</time>
      </trkpt>
      <trkpt lat="42.72069" lon="0.57093">
        <ele>1652.8000488281</ele>
        <time>2020-09-13T11:01:52Z</time>
      </trkpt>
      <trkpt lat="42.72062" lon="0.57104">
        <ele>1655.8000488281</ele>
        <time>2020-09-13T11:02:08Z</time>
      </trkpt>
      <trkpt lat="42.7206" lon="0.57114">
        <ele>1658.8000488281</ele>
        <time>2020-09-13T11:02:22Z</time>
      </trkpt>
      <trkpt lat="42.72055" lon="0.5712">
        <ele>1662</ele>
        <time>2020-09-13T11:02:38Z</time>
      </trkpt>
      <trkpt lat="42.7205" lon="0.57126">
        <ele>1665.1999511719</ele>
        <time>2020-09-13T11:02:55Z</time>
      </trkpt>
      <trkpt lat="42.72045" lon="0.57138">
        <ele>1668.4000244141</ele>
        <time>2020-09-13T11:03:14Z</time>
      </trkpt>
      <trkpt lat="42.7204" lon="0.57147">
        <ele>1671.4000244141</ele>
        <time>2020-09-13T11:03:30Z</time>
      </trkpt>
      <trkpt lat="42.72028" lon="0.57153">
        <ele>1674.5999755859</ele>
        <time>2020-09-13T11:03:49Z</time>
      </trkpt>
      <trkpt lat="42.72031" lon="0.57116">
        <ele>1679.1999511719</ele>
        <time>2020-09-13T11:06:19Z</time>
      </trkpt>
      <trkpt lat="42.72024" lon="0.57028">
        <ele>1677.1999511719</ele>
        <time>2020-09-13T11:07:37Z</time>
      </trkpt>
      <trkpt lat="42.72032" lon="0.56774">
        <ele>1680.8000488281</ele>
        <time>2020-09-13T11:11:11Z</time>
      </trkpt>
      <trkpt lat="42.72034" lon="0.56768">
        <ele>1681.8000488281</ele>
        <time>2020-09-13T11:11:16Z</time>
      </trkpt>
      <trkpt lat="42.72057" lon="0.56739">
        <ele>1684.8000488281</ele>
        <time>2020-09-13T11:11:47Z</time>
      </trkpt>
      <trkpt lat="42.72057" lon="0.56718">
        <ele>1688.5999755859</ele>
        <time>2020-09-13T11:12:13Z</time>
      </trkpt>
      <trkpt lat="42.72078" lon="0.56676">
        <ele>1693.5999755859</ele>
        <time>2020-09-13T11:12:55Z</time>
      </trkpt>
      <trkpt lat="42.72089" lon="0.56635">
        <ele>1699.1999511719</ele>
        <time>2020-09-13T11:13:37Z</time>
      </trkpt>
      <trkpt lat="42.72096" lon="0.56585">
        <ele>1703</ele>
        <time>2020-09-13T11:14:20Z</time>
      </trkpt>
      <trkpt lat="42.72122" lon="0.5646">
        <ele>1710</ele>
        <time>2020-09-13T11:16:03Z</time>
      </trkpt>
      <trkpt lat="42.72123" lon="0.56459">
        <ele>1710.1999511719</ele>
        <time>2020-09-13T11:16:04Z</time>
      </trkpt>
      <trkpt lat="42.72126" lon="0.56399">
        <ele>1715</ele>
        <time>2020-09-13T11:16:48Z</time>
      </trkpt>
      <trkpt lat="42.72122" lon="0.56365">
        <ele>1718.8000488281</ele>
        <time>2020-09-13T11:17:15Z</time>
      </trkpt>
      <trkpt lat="42.72108" lon="0.56332">
        <ele>1724.4000244141</ele>
        <time>2020-09-13T11:17:55Z</time>
      </trkpt>
      <trkpt lat="42.72098" lon="0.56303">
        <ele>1729.4000244141</ele>
        <time>2020-09-13T11:18:36Z</time>
      </trkpt>
      <trkpt lat="42.72095" lon="0.56291">
        <ele>1732.5999755859</ele>
        <time>2020-09-13T11:18:53Z</time>
      </trkpt>
      <trkpt lat="42.72092" lon="0.5627">
        <ele>1738</ele>
        <time>2020-09-13T11:19:32Z</time>
      </trkpt>
      <trkpt lat="42.72102" lon="0.56271">
        <ele>1741.1999511719</ele>
        <time>2020-09-13T11:19:52Z</time>
      </trkpt>
      <trkpt lat="42.72118" lon="0.56283">
        <ele>1747.1999511719</ele>
        <time>2020-09-13T11:20:31Z</time>
      </trkpt>
      <trkpt lat="42.72124" lon="0.56275">
        <ele>1750.1999511719</ele>
        <time>2020-09-13T11:20:50Z</time>
      </trkpt>
      <trkpt lat="42.72137" lon="0.56274">
        <ele>1755.5999755859</ele>
        <time>2020-09-13T11:21:31Z</time>
      </trkpt>
      <trkpt lat="42.72147" lon="0.56274">
        <ele>1758.8000488281</ele>
        <time>2020-09-13T11:21:50Z</time>
      </trkpt>
      <trkpt lat="42.72154" lon="0.5628">
        <ele>1761.8000488281</ele>
        <time>2020-09-13T11:22:09Z</time>
      </trkpt>
      <trkpt lat="42.72177" lon="0.5624">
        <ele>1769.8000488281</ele>
        <time>2020-09-13T11:32:34Z</time>
      </trkpt>
      <trkpt lat="42.72195" lon="0.56181">
        <ele>1776.4000244141</ele>
        <time>2020-09-13T11:33:28Z</time>
      </trkpt>
      <trkpt lat="42.72203" lon="0.56163">
        <ele>1781.1999511719</ele>
        <time>2020-09-13T11:33:53Z</time>
      </trkpt>
      <trkpt lat="42.72216" lon="0.56114">
        <ele>1787</ele>
        <time>2020-09-13T11:34:38Z</time>
      </trkpt>
      <trkpt lat="42.72219" lon="0.56091">
        <ele>1790.1999511719</ele>
        <time>2020-09-13T11:34:58Z</time>
      </trkpt>
      <trkpt lat="42.72235" lon="0.56066">
        <ele>1792.8000488281</ele>
        <time>2020-09-13T11:35:28Z</time>
      </trkpt>
      <trkpt lat="42.72239" lon="0.56063">
        <ele>1793</ele>
        <time>2020-09-13T11:35:32Z</time>
      </trkpt>
      <trkpt lat="42.72274" lon="0.56014">
        <ele>1798.1999511719</ele>
        <time>2020-09-13T11:36:28Z</time>
      </trkpt>
      <trkpt lat="42.72282" lon="0.55996">
        <ele>1801.1999511719</ele>
        <time>2020-09-13T11:36:50Z</time>
      </trkpt>
      <trkpt lat="42.72287" lon="0.55984">
        <ele>1804.4000244141</ele>
        <time>2020-09-13T11:37:07Z</time>
      </trkpt>
      <trkpt lat="42.72289" lon="0.55968">
        <ele>1807.4000244141</ele>
        <time>2020-09-13T11:37:24Z</time>
      </trkpt>
      <trkpt lat="42.72322" lon="0.55921">
        <ele>1813.8000488281</ele>
        <time>2020-09-13T11:38:24Z</time>
      </trkpt>
      <trkpt lat="42.72315" lon="0.55915">
        <ele>1816.8000488281</ele>
        <time>2020-09-13T11:38:41Z</time>
      </trkpt>
      <trkpt lat="42.72324" lon="0.55897">
        <ele>1821.1999511719</ele>
        <time>2020-09-13T11:39:06Z</time>
      </trkpt>
      <trkpt lat="42.72332" lon="0.55885">
        <ele>1824.4000244141</ele>
        <time>2020-09-13T11:39:20Z</time>
      </trkpt>
      <trkpt lat="42.72341" lon="0.55848">
        <ele>1830.4000244141</ele>
        <time>2020-09-13T11:40:01Z</time>
      </trkpt>
      <trkpt lat="42.72349" lon="0.55809">
        <ele>1835.4000244141</ele>
        <time>2020-09-13T11:40:42Z</time>
      </trkpt>
      <trkpt lat="42.72357" lon="0.55792">
        <ele>1838.5999755859</ele>
        <time>2020-09-13T11:41:01Z</time>
      </trkpt>
      <trkpt lat="42.72362" lon="0.5577">
        <ele>1842.4000244141</ele>
        <time>2020-09-13T11:41:24Z</time>
      </trkpt>
      <trkpt lat="42.72368" lon="0.5575">
        <ele>1846.8000488281</ele>
        <time>2020-09-13T11:41:48Z</time>
      </trkpt>
      <trkpt lat="42.7237" lon="0.55735">
        <ele>1850</ele>
        <time>2020-09-13T11:42:04Z</time>
      </trkpt>
      <trkpt lat="42.72377" lon="0.55707">
        <ele>1854</ele>
        <time>2020-09-13T11:42:30Z</time>
      </trkpt>
      <trkpt lat="42.7238" lon="0.55692">
        <ele>1857</ele>
        <time>2020-09-13T11:42:47Z</time>
      </trkpt>
      <trkpt lat="42.72381" lon="0.55679">
        <ele>1860.1999511719</ele>
        <time>2020-09-13T11:43:02Z</time>
      </trkpt>
      <trkpt lat="42.72371" lon="0.55687">
        <ele>1863.4000244141</ele>
        <time>2020-09-13T11:43:21Z</time>
      </trkpt>
      <trkpt lat="42.72356" lon="0.55701">
        <ele>1866.4000244141</ele>
        <time>2020-09-13T11:43:42Z</time>
      </trkpt>
      <trkpt lat="42.72346" lon="0.55702">
        <ele>1869.5999755859</ele>
        <time>2020-09-13T11:44:01Z</time>
      </trkpt>
      <trkpt lat="42.72337" lon="0.55694">
        <ele>1872</ele>
        <time>2020-09-13T11:44:14Z</time>
      </trkpt>
      <trkpt lat="42.72334" lon="0.55688">
        <ele>1872.1999511719</ele>
        <time>2020-09-13T11:44:18Z</time>
      </trkpt>
      <trkpt lat="42.72306" lon="0.55579">
        <ele>1867.5999755859</ele>
        <time>2020-09-13T11:45:26Z</time>
      </trkpt>
      <trkpt lat="42.72284" lon="0.55529">
        <ele>1870.5999755859</ele>
        <time>2020-09-13T11:46:17Z</time>
      </trkpt>
      <trkpt lat="42.72274" lon="0.55529">
        <ele>1873.8000488281</ele>
        <time>2020-09-13T11:46:34Z</time>
      </trkpt>
      <trkpt lat="42.72267" lon="0.55517">
        <ele>1879.1999511719</ele>
        <time>2020-09-13T11:47:04Z</time>
      </trkpt>
      <trkpt lat="42.72265" lon="0.55507">
        <ele>1882.4000244141</ele>
        <time>2020-09-13T11:47:18Z</time>
      </trkpt>
      <trkpt lat="42.72263" lon="0.55495">
        <ele>1885.5999755859</ele>
        <time>2020-09-13T11:47:35Z</time>
      </trkpt>
      <trkpt lat="42.72268" lon="0.55482">
        <ele>1888.8000488281</ele>
        <time>2020-09-13T11:47:53Z</time>
      </trkpt>
      <trkpt lat="42.72264" lon="0.55472">
        <ele>1892.4000244141</ele>
        <time>2020-09-13T11:48:14Z</time>
      </trkpt>
      <trkpt lat="42.72256" lon="0.55472">
        <ele>1895.5999755859</ele>
        <time>2020-09-13T11:48:31Z</time>
      </trkpt>
      <trkpt lat="42.72226" lon="0.55466">
        <ele>1903.1999511719</ele>
        <time>2020-09-13T11:49:23Z</time>
      </trkpt>
      <trkpt lat="42.72214" lon="0.55495">
        <ele>1908</ele>
        <time>2020-09-13T11:49:53Z</time>
      </trkpt>
      <trkpt lat="42.722" lon="0.55523">
        <ele>1912.5999755859</ele>
        <time>2020-09-13T11:50:26Z</time>
      </trkpt>
      <trkpt lat="42.72193" lon="0.55532">
        <ele>1915.5999755859</ele>
        <time>2020-09-13T11:50:40Z</time>
      </trkpt>
      <trkpt lat="42.72184" lon="0.55542">
        <ele>1918.5999755859</ele>
        <time>2020-09-13T11:50:57Z</time>
      </trkpt>
      <trkpt lat="42.7218" lon="0.55519">
        <ele>1922.1999511719</ele>
        <time>2020-09-13T11:51:22Z</time>
      </trkpt>
      <trkpt lat="42.72183" lon="0.55494">
        <ele>1927.4000244141</ele>
        <time>2020-09-13T11:51:50Z</time>
      </trkpt>
      <trkpt lat="42.7219" lon="0.55472">
        <ele>1931.4000244141</ele>
        <time>2020-09-13T11:52:14Z</time>
      </trkpt>
      <trkpt lat="42.72192" lon="0.55441">
        <ele>1934.8000488281</ele>
        <time>2020-09-13T11:52:40Z</time>
      </trkpt>
      <trkpt lat="42.72195" lon="0.55354">
        <ele>1940.8000488281</ele>
        <time>2020-09-13T11:53:55Z</time>
      </trkpt>
      <trkpt lat="42.72188" lon="0.55341">
        <ele>1943.8000488281</ele>
        <time>2020-09-13T11:54:13Z</time>
      </trkpt>
      <trkpt lat="42.72179" lon="0.55316">
        <ele>1949.1999511719</ele>
        <time>2020-09-13T11:54:48Z</time>
      </trkpt>
      <trkpt lat="42.7217" lon="0.55316">
        <ele>1954.4000244141</ele>
        <time>2020-09-13T11:55:18Z</time>
      </trkpt>
      <trkpt lat="42.72168" lon="0.55328">
        <ele>1957.5999755859</ele>
        <time>2020-09-13T11:55:30Z</time>
      </trkpt>
      <trkpt lat="42.72165" lon="0.5535">
        <ele>1960.5999755859</ele>
        <time>2020-09-13T11:55:47Z</time>
      </trkpt>
      <trkpt lat="42.72161" lon="0.55365">
        <ele>1964.1999511719</ele>
        <time>2020-09-13T11:56:26Z</time>
      </trkpt>
      <trkpt lat="42.72148" lon="0.55391">
        <ele>1969</ele>
        <time>2020-09-13T12:02:37Z</time>
      </trkpt>
      <trkpt lat="42.72136" lon="0.55409">
        <ele>1973.8000488281</ele>
        <time>2020-09-13T12:03:09Z</time>
      </trkpt>
      <trkpt lat="42.72133" lon="0.55395">
        <ele>1978</ele>
        <time>2020-09-13T12:03:39Z</time>
      </trkpt>
      <trkpt lat="42.72128" lon="0.55382">
        <ele>1983.1999511719</ele>
        <time>2020-09-13T12:04:10Z</time>
      </trkpt>
      <trkpt lat="42.72115" lon="0.55384">
        <ele>1987.8000488281</ele>
        <time>2020-09-13T12:04:38Z</time>
      </trkpt>
      <trkpt lat="42.721" lon="0.55401">
        <ele>1993.1999511719</ele>
        <time>2020-09-13T12:05:04Z</time>
      </trkpt>
      <trkpt lat="42.72093" lon="0.55406">
        <ele>1992.5999755859</ele>
        <time>2020-09-13T12:05:16Z</time>
      </trkpt>
      <trkpt lat="42.72081" lon="0.55431">
        <ele>1996.1999511719</ele>
        <time>2020-09-13T12:05:42Z</time>
      </trkpt>
      <trkpt lat="42.72054" lon="0.55476">
        <ele>2004.8000488281</ele>
        <time>2020-09-13T12:06:50Z</time>
      </trkpt>
      <trkpt lat="42.72044" lon="0.5548">
        <ele>2009.5999755859</ele>
        <time>2020-09-13T12:07:22Z</time>
      </trkpt>
      <trkpt lat="42.72046" lon="0.55455">
        <ele>2014.1999511719</ele>
        <time>2020-09-13T12:07:53Z</time>
      </trkpt>
      <trkpt lat="42.72037" lon="0.55444">
        <ele>2018.5999755859</ele>
        <time>2020-09-13T12:08:27Z</time>
      </trkpt>
      <trkpt lat="42.7203" lon="0.55457">
        <ele>2023.4000244141</ele>
        <time>2020-09-13T12:08:56Z</time>
      </trkpt>
      <trkpt lat="42.72026" lon="0.5547">
        <ele>2026.4000244141</ele>
        <time>2020-09-13T12:09:11Z</time>
      </trkpt>
      <trkpt lat="42.72011" lon="0.55509">
        <ele>2030.8000488281</ele>
        <time>2020-09-13T12:09:54Z</time>
      </trkpt>
      <trkpt lat="42.72005" lon="0.55501">
        <ele>2034.5999755859</ele>
        <time>2020-09-13T12:10:30Z</time>
      </trkpt>
      <trkpt lat="42.71987" lon="0.55539">
        <ele>2039.4000244141</ele>
        <time>2020-09-13T12:11:08Z</time>
      </trkpt>
      <trkpt lat="42.71987" lon="0.55501">
        <ele>2045.8000488281</ele>
        <time>2020-09-13T12:11:59Z</time>
      </trkpt>
      <trkpt lat="42.7199" lon="0.55469">
        <ele>2050.1999511719</ele>
        <time>2020-09-13T12:12:32Z</time>
      </trkpt>
      <trkpt lat="42.71989" lon="0.55448">
        <ele>2054.3999023438</ele>
        <time>2020-09-13T12:12:56Z</time>
      </trkpt>
      <trkpt lat="42.71982" lon="0.55453">
        <ele>2057.6000976562</ele>
        <time>2020-09-13T12:13:16Z</time>
      </trkpt>
      <trkpt lat="42.71974" lon="0.55468">
        <ele>2060.8000488281</ele>
        <time>2020-09-13T12:13:32Z</time>
      </trkpt>
      <trkpt lat="42.71974" lon="0.5547">
        <ele>2061</ele>
        <time>2020-09-13T12:13:34Z</time>
      </trkpt>
      <trkpt lat="42.71956" lon="0.55503">
        <ele>2065.8000488281</ele>
        <time>2020-09-13T12:14:05Z</time>
      </trkpt>
      <trkpt lat="42.71932" lon="0.55537">
        <ele>2072</ele>
        <time>2020-09-13T12:14:45Z</time>
      </trkpt>
      <trkpt lat="42.71934" lon="0.55507">
        <ele>2076</ele>
        <time>2020-09-13T12:15:12Z</time>
      </trkpt>
      <trkpt lat="42.7194" lon="0.55455">
        <ele>2082.8000488281</ele>
        <time>2020-09-13T12:16:01Z</time>
      </trkpt>
      <trkpt lat="42.71941" lon="0.55415">
        <ele>2087.6000976562</ele>
        <time>2020-09-13T12:16:36Z</time>
      </trkpt>
      <trkpt lat="42.71941" lon="0.55401">
        <ele>2090.6000976562</ele>
        <time>2020-09-13T12:16:55Z</time>
      </trkpt>
      <trkpt lat="42.7194" lon="0.55375">
        <ele>2094.8000488281</ele>
        <time>2020-09-13T12:17:19Z</time>
      </trkpt>
      <trkpt lat="42.7193" lon="0.55397">
        <ele>2098.3999023438</ele>
        <time>2020-09-13T12:17:42Z</time>
      </trkpt>
      <trkpt lat="42.71923" lon="0.55416">
        <ele>2100.8000488281</ele>
        <time>2020-09-13T12:18:00Z</time>
      </trkpt>
      <trkpt lat="42.71922" lon="0.55419">
        <ele>2100.6000976562</ele>
        <time>2020-09-13T12:18:02Z</time>
      </trkpt>
      <trkpt lat="42.719" lon="0.55459">
        <ele>2104.3999023438</ele>
        <time>2020-09-13T12:18:53Z</time>
      </trkpt>
      <trkpt lat="42.71897" lon="0.55458">
        <ele>2107.3999023438</ele>
        <time>2020-09-13T12:19:09Z</time>
      </trkpt>
      <trkpt lat="42.71887" lon="0.55459">
        <ele>2112.1999511719</ele>
        <time>2020-09-13T12:19:38Z</time>
      </trkpt>
      <trkpt lat="42.71889" lon="0.5544">
        <ele>2116.6000976562</ele>
        <time>2020-09-13T12:20:07Z</time>
      </trkpt>
      <trkpt lat="42.71888" lon="0.55424">
        <ele>2119.6000976562</ele>
        <time>2020-09-13T12:20:25Z</time>
      </trkpt>
      <trkpt lat="42.71881" lon="0.55401">
        <ele>2124.6000976562</ele>
        <time>2020-09-13T12:20:58Z</time>
      </trkpt>
      <trkpt lat="42.71867" lon="0.55424">
        <ele>2130</ele>
        <time>2020-09-13T12:21:29Z</time>
      </trkpt>
      <trkpt lat="42.71849" lon="0.55443">
        <ele>2136</ele>
        <time>2020-09-13T12:22:05Z</time>
      </trkpt>
      <trkpt lat="42.71847" lon="0.55424">
        <ele>2140.1999511719</ele>
        <time>2020-09-13T12:22:33Z</time>
      </trkpt>
      <trkpt lat="42.71849" lon="0.55412">
        <ele>2143.1999511719</ele>
        <time>2020-09-13T12:22:50Z</time>
      </trkpt>
      <trkpt lat="42.71847" lon="0.55401">
        <ele>2146.1999511719</ele>
        <time>2020-09-13T12:23:07Z</time>
      </trkpt>
      <trkpt lat="42.71831" lon="0.55422">
        <ele>2150</ele>
        <time>2020-09-13T12:23:39Z</time>
      </trkpt>
      <trkpt lat="42.71817" lon="0.55444">
        <ele>2154.8000488281</ele>
        <time>2020-09-13T12:24:15Z</time>
      </trkpt>
      <trkpt lat="42.71801" lon="0.55465">
        <ele>2160.3999023438</ele>
        <time>2020-09-13T12:24:51Z</time>
      </trkpt>
      <trkpt lat="42.71797" lon="0.55465">
        <ele>2163.3999023438</ele>
        <time>2020-09-13T12:25:05Z</time>
      </trkpt>
      <trkpt lat="42.71798" lon="0.55437">
        <ele>2168</ele>
        <time>2020-09-13T12:25:37Z</time>
      </trkpt>
      <trkpt lat="42.71804" lon="0.5541">
        <ele>2171.8000488281</ele>
        <time>2020-09-13T12:26:03Z</time>
      </trkpt>
      <trkpt lat="42.71806" lon="0.55396">
        <ele>2174.6000976562</ele>
        <time>2020-09-13T12:26:19Z</time>
      </trkpt>
      <trkpt lat="42.71812" lon="0.55333">
        <ele>2177.8000488281</ele>
        <time>2020-09-13T12:27:01Z</time>
      </trkpt>
      <trkpt lat="42.71815" lon="0.55313">
        <ele>2181</ele>
        <time>2020-09-13T12:27:18Z</time>
      </trkpt>
      <trkpt lat="42.7182" lon="0.55258">
        <ele>2186.6000976562</ele>
        <time>2020-09-13T12:28:09Z</time>
      </trkpt>
      <trkpt lat="42.71818" lon="0.55248">
        <ele>2189.8000488281</ele>
        <time>2020-09-13T12:28:25Z</time>
      </trkpt>
      <trkpt lat="42.71814" lon="0.55245">
        <ele>2192.8000488281</ele>
        <time>2020-09-13T12:28:40Z</time>
      </trkpt>
      <trkpt lat="42.71805" lon="0.55256">
        <ele>2195.8000488281</ele>
        <time>2020-09-13T12:28:57Z</time>
      </trkpt>
      <trkpt lat="42.71797" lon="0.55259">
        <ele>2198.8000488281</ele>
        <time>2020-09-13T12:29:14Z</time>
      </trkpt>
      <trkpt lat="42.71785" lon="0.55263">
        <ele>2203.1999511719</ele>
        <time>2020-09-13T12:29:48Z</time>
      </trkpt>
      <trkpt lat="42.71772" lon="0.55267">
        <ele>2208.3999023438</ele>
        <time>2020-09-13T12:30:28Z</time>
      </trkpt>
      <trkpt lat="42.71775" lon="0.55245">
        <ele>2213.6000976562</ele>
        <time>2020-09-13T12:30:59Z</time>
      </trkpt>
      <trkpt lat="42.71775" lon="0.55236">
        <ele>2216.8000488281</ele>
        <time>2020-09-13T12:31:12Z</time>
      </trkpt>
      <trkpt lat="42.71763" lon="0.55247">
        <ele>2220.8000488281</ele>
        <time>2020-09-13T12:31:41Z</time>
      </trkpt>
      <trkpt lat="42.71753" lon="0.55265">
        <ele>2225</ele>
        <time>2020-09-13T12:32:11Z</time>
      </trkpt>
      <trkpt lat="42.71743" lon="0.55288">
        <ele>2230</ele>
        <time>2020-09-13T12:32:44Z</time>
      </trkpt>
      <trkpt lat="42.71731" lon="0.55301">
        <ele>2234.3999023438</ele>
        <time>2020-09-13T12:33:09Z</time>
      </trkpt>
      <trkpt lat="42.71724" lon="0.55277">
        <ele>2239.1999511719</ele>
        <time>2020-09-13T12:33:37Z</time>
      </trkpt>
      <trkpt lat="42.71715" lon="0.55238">
        <ele>2243.1999511719</ele>
        <time>2020-09-13T12:34:12Z</time>
      </trkpt>
      <trkpt lat="42.71722" lon="0.55186">
        <ele>2249.1999511719</ele>
        <time>2020-09-13T12:34:57Z</time>
      </trkpt>
      <trkpt lat="42.71714" lon="0.55186">
        <ele>2254</ele>
        <time>2020-09-13T12:35:26Z</time>
      </trkpt>
      <trkpt lat="42.71711" lon="0.55189">
        <ele>2257</ele>
        <time>2020-09-13T12:35:42Z</time>
      </trkpt>
      <trkpt lat="42.71705" lon="0.55193">
        <ele>2260.1999511719</ele>
        <time>2020-09-13T12:35:57Z</time>
      </trkpt>
      <trkpt lat="42.7169" lon="0.5521">
        <ele>2264.6000976562</ele>
        <time>2020-09-13T12:36:30Z</time>
      </trkpt>
      <trkpt lat="42.71679" lon="0.5521">
        <ele>2269.3999023438</ele>
        <time>2020-09-13T12:37:03Z</time>
      </trkpt>
      <trkpt lat="42.71675" lon="0.5519">
        <ele>2273.6000976562</ele>
        <time>2020-09-13T12:37:35Z</time>
      </trkpt>
      <trkpt lat="42.71662" lon="0.5521">
        <ele>2279.6000976562</ele>
        <time>2020-09-13T12:38:07Z</time>
      </trkpt>
      <trkpt lat="42.71652" lon="0.5522">
        <ele>2285</ele>
        <time>2020-09-13T12:38:40Z</time>
      </trkpt>
      <trkpt lat="42.71646" lon="0.55191">
        <ele>2290.3999023438</ele>
        <time>2020-09-13T12:39:17Z</time>
      </trkpt>
      <trkpt lat="42.71642" lon="0.55204">
        <ele>2293.3999023438</ele>
        <time>2020-09-13T12:39:35Z</time>
      </trkpt>
      <trkpt lat="42.71631" lon="0.5522">
        <ele>2298.6000976562</ele>
        <time>2020-09-13T12:40:09Z</time>
      </trkpt>
      <trkpt lat="42.71618" lon="0.55243">
        <ele>2304</ele>
        <time>2020-09-13T12:40:44Z</time>
      </trkpt>
      <trkpt lat="42.71605" lon="0.55242">
        <ele>2308.8000488281</ele>
        <time>2020-09-13T12:41:15Z</time>
      </trkpt>
      <trkpt lat="42.7161" lon="0.55216">
        <ele>2314</ele>
        <time>2020-09-13T12:41:48Z</time>
      </trkpt>
      <trkpt lat="42.71603" lon="0.5522">
        <ele>2318.3999023438</ele>
        <time>2020-09-13T12:42:18Z</time>
      </trkpt>
      <trkpt lat="42.71593" lon="0.5523">
        <ele>2321.3999023438</ele>
        <time>2020-09-13T12:42:36Z</time>
      </trkpt>
      <trkpt lat="42.71592" lon="0.55211">
        <ele>2326.6000976562</ele>
        <time>2020-09-13T12:43:07Z</time>
      </trkpt>
      <trkpt lat="42.71589" lon="0.55194">
        <ele>2331.3999023438</ele>
        <time>2020-09-13T12:43:35Z</time>
      </trkpt>
      <trkpt lat="42.71582" lon="0.55173">
        <ele>2336</ele>
        <time>2020-09-13T12:44:06Z</time>
      </trkpt>
      <trkpt lat="42.71592" lon="0.55161">
        <ele>2340.3999023438</ele>
        <time>2020-09-13T12:44:38Z</time>
      </trkpt>
      <trkpt lat="42.71602" lon="0.55147">
        <ele>2345.1999511719</ele>
        <time>2020-09-13T12:45:12Z</time>
      </trkpt>
      <trkpt lat="42.71602" lon="0.55135">
        <ele>2350.6000976562</ele>
        <time>2020-09-13T12:45:42Z</time>
      </trkpt>
      <trkpt lat="42.71588" lon="0.55138">
        <ele>2350.6000976562</ele>
        <time>2020-09-13T12:46:01Z</time>
      </trkpt>
      <trkpt lat="42.71584" lon="0.55139">
        <ele>2354.1999511719</ele>
        <time>2020-09-13T12:46:08Z</time>
      </trkpt>
      <trkpt lat="42.71576" lon="0.55117">
        <ele>2360</ele>
        <time>2020-09-13T12:46:42Z</time>
      </trkpt>
      <trkpt lat="42.71567" lon="0.55089">
        <ele>2364.3999023438</ele>
        <time>2020-09-13T12:47:14Z</time>
      </trkpt>
      <trkpt lat="42.71552" lon="0.55062">
        <ele>2368</ele>
        <time>2020-09-13T12:47:58Z</time>
      </trkpt>
      <trkpt lat="42.71543" lon="0.55061">
        <ele>2372.8000488281</ele>
        <time>2020-09-13T12:48:23Z</time>
      </trkpt>
      <trkpt lat="42.71528" lon="0.55028">
        <ele>2376.8000488281</ele>
        <time>2020-09-13T12:49:01Z</time>
      </trkpt>
      <trkpt lat="42.71521" lon="0.55023">
        <ele>2377.1999511719</ele>
        <time>2020-09-13T12:49:16Z</time>
      </trkpt>
      <trkpt lat="42.71497" lon="0.54969">
        <ele>2374.1999511719</ele>
        <time>2020-09-13T12:50:00Z</time>
      </trkpt>
      <trkpt lat="42.71491" lon="0.54909">
        <ele>2379.1999511719</ele>
        <time>2020-09-13T12:51:32Z</time>
      </trkpt>
      <trkpt lat="42.71495" lon="0.54913">
        <ele>2421.6000976562</ele>
        <time>2020-09-14T04:10:24Z</time>
      </trkpt>
      <trkpt lat="42.71495" lon="0.54913">
        <ele>2421.6000976562</ele>
        <time>2020-09-14T04:10:25Z</time>
      </trkpt>
      <trkpt lat="42.71462" lon="0.54936">
        <ele>2424.6000976562</ele>
        <time>2020-09-14T04:13:05Z</time>
      </trkpt>
      <trkpt lat="42.7144" lon="0.54967">
        <ele>2428.3999023438</ele>
        <time>2020-09-14T04:13:48Z</time>
      </trkpt>
      <trkpt lat="42.71384" lon="0.55053">
        <ele>2432.6000976562</ele>
        <time>2020-09-14T04:16:35Z</time>
      </trkpt>
      <trkpt lat="42.71377" lon="0.5507">
        <ele>2436.6000976562</ele>
        <time>2020-09-14T04:17:06Z</time>
      </trkpt>
      <trkpt lat="42.71377" lon="0.55085">
        <ele>2441.8000488281</ele>
        <time>2020-09-14T04:17:35Z</time>
      </trkpt>
      <trkpt lat="42.7137" lon="0.55092">
        <ele>2445.3999023438</ele>
        <time>2020-09-14T04:18:01Z</time>
      </trkpt>
      <trkpt lat="42.71361" lon="0.55089">
        <ele>2449.1999511719</ele>
        <time>2020-09-14T04:18:29Z</time>
      </trkpt>
      <trkpt lat="42.71357" lon="0.55088">
        <ele>2453.6000976562</ele>
        <time>2020-09-14T04:18:58Z</time>
      </trkpt>
      <trkpt lat="42.71351" lon="0.55087">
        <ele>2458</ele>
        <time>2020-09-14T04:19:27Z</time>
      </trkpt>
      <trkpt lat="42.71345" lon="0.55098">
        <ele>2463</ele>
        <time>2020-09-14T04:19:55Z</time>
      </trkpt>
      <trkpt lat="42.71348" lon="0.55101">
        <ele>2465.3999023438</ele>
        <time>2020-09-14T04:20:32Z</time>
      </trkpt>
      <trkpt lat="42.71348" lon="0.55103">
        <ele>2465.6000976562</ele>
        <time>2020-09-14T04:20:33Z</time>
      </trkpt>
      <trkpt lat="42.7134" lon="0.55136">
        <ele>2469.6000976562</ele>
        <time>2020-09-14T04:21:52Z</time>
      </trkpt>
      <trkpt lat="42.71336" lon="0.55142">
        <ele>2472.6000976562</ele>
        <time>2020-09-14T04:22:09Z</time>
      </trkpt>
      <trkpt lat="42.71334" lon="0.55152">
        <ele>2475.6000976562</ele>
        <time>2020-09-14T04:22:23Z</time>
      </trkpt>
      <trkpt lat="42.71329" lon="0.55169">
        <ele>2480.6000976562</ele>
        <time>2020-09-14T04:22:55Z</time>
      </trkpt>
      <trkpt lat="42.71321" lon="0.55169">
        <ele>2485.8000488281</ele>
        <time>2020-09-14T04:23:23Z</time>
      </trkpt>
      <trkpt lat="42.71318" lon="0.55176">
        <ele>2488.8000488281</ele>
        <time>2020-09-14T04:23:34Z</time>
      </trkpt>
      <trkpt lat="42.7131" lon="0.55186">
        <ele>2492.3999023438</ele>
        <time>2020-09-14T04:24:04Z</time>
      </trkpt>
      <trkpt lat="42.71297" lon="0.55196">
        <ele>2497.6000976562</ele>
        <time>2020-09-14T04:25:04Z</time>
      </trkpt>
      <trkpt lat="42.71292" lon="0.55192">
        <ele>2500.8000488281</ele>
        <time>2020-09-14T04:25:23Z</time>
      </trkpt>
      <trkpt lat="42.71285" lon="0.55191">
        <ele>2503.8000488281</ele>
        <time>2020-09-14T04:25:43Z</time>
      </trkpt>
      <trkpt lat="42.71281" lon="0.55192">
        <ele>2506.8000488281</ele>
        <time>2020-09-14T04:25:54Z</time>
      </trkpt>
      <trkpt lat="42.71275" lon="0.55197">
        <ele>2509.8000488281</ele>
        <time>2020-09-14T04:26:11Z</time>
      </trkpt>
      <trkpt lat="42.71267" lon="0.5519">
        <ele>2534.3999023438</ele>
        <time>2020-09-14T04:26:36Z</time>
      </trkpt>
      <trkpt lat="42.71261" lon="0.55188">
        <ele>2537.3999023438</ele>
        <time>2020-09-14T04:26:52Z</time>
      </trkpt>
      <trkpt lat="42.71255" lon="0.55194">
        <ele>2540.3999023438</ele>
        <time>2020-09-14T04:27:13Z</time>
      </trkpt>
      <trkpt lat="42.71251" lon="0.55192">
        <ele>2543.6000976562</ele>
        <time>2020-09-14T04:27:28Z</time>
      </trkpt>
      <trkpt lat="42.71245" lon="0.55188">
        <ele>2546.6000976562</ele>
        <time>2020-09-14T04:27:44Z</time>
      </trkpt>
      <trkpt lat="42.71233" lon="0.55184">
        <ele>2552.1999511719</ele>
        <time>2020-09-14T04:28:18Z</time>
      </trkpt>
      <trkpt lat="42.71218" lon="0.55187">
        <ele>2556.6000976562</ele>
        <time>2020-09-14T04:29:00Z</time>
      </trkpt>
      <trkpt lat="42.71211" lon="0.5518">
        <ele>2559.8000488281</ele>
        <time>2020-09-14T04:29:21Z</time>
      </trkpt>
      <trkpt lat="42.71206" lon="0.55178">
        <ele>2563</ele>
        <time>2020-09-14T04:29:31Z</time>
      </trkpt>
      <trkpt lat="42.71199" lon="0.55177">
        <ele>2566</ele>
        <time>2020-09-14T04:29:51Z</time>
      </trkpt>
      <trkpt lat="42.71188" lon="0.55183">
        <ele>2569.3999023438</ele>
        <time>2020-09-14T04:30:22Z</time>
      </trkpt>
      <trkpt lat="42.71186" lon="0.55187">
        <ele>2572.6000976562</ele>
        <time>2020-09-14T04:30:28Z</time>
      </trkpt>
      <trkpt lat="42.71177" lon="0.55189">
        <ele>2575.6000976562</ele>
        <time>2020-09-14T04:30:45Z</time>
      </trkpt>
      <trkpt lat="42.71168" lon="0.55181">
        <ele>2574.8000488281</ele>
        <time>2020-09-14T04:31:01Z</time>
      </trkpt>
      <trkpt lat="42.71156" lon="0.55186">
        <ele>2579.1999511719</ele>
        <time>2020-09-14T04:31:30Z</time>
      </trkpt>
      <trkpt lat="42.71141" lon="0.55188">
        <ele>2584</ele>
        <time>2020-09-14T04:32:04Z</time>
      </trkpt>
      <trkpt lat="42.7113" lon="0.55188">
        <ele>2589.8000488281</ele>
        <time>2020-09-14T04:32:34Z</time>
      </trkpt>
      <trkpt lat="42.71117" lon="0.55211">
        <ele>2594.6000976562</ele>
        <time>2020-09-14T04:33:09Z</time>
      </trkpt>
      <trkpt lat="42.71106" lon="0.55224">
        <ele>2598.8000488281</ele>
        <time>2020-09-14T04:33:40Z</time>
      </trkpt>
      <trkpt lat="42.711" lon="0.55232">
        <ele>2603</ele>
        <time>2020-09-14T04:33:54Z</time>
      </trkpt>
      <trkpt lat="42.71091" lon="0.55236">
        <ele>2602</ele>
        <time>2020-09-14T04:34:11Z</time>
      </trkpt>
      <trkpt lat="42.71083" lon="0.55242">
        <ele>2606</ele>
        <time>2020-09-14T04:34:30Z</time>
      </trkpt>
      <trkpt lat="42.71068" lon="0.55256">
        <ele>2609.8000488281</ele>
        <time>2020-09-14T04:35:03Z</time>
      </trkpt>
      <trkpt lat="42.71043" lon="0.55265">
        <ele>2614.3999023438</ele>
        <time>2020-09-14T04:35:54Z</time>
      </trkpt>
      <trkpt lat="42.71034" lon="0.5526">
        <ele>2614.1999511719</ele>
        <time>2020-09-14T04:36:07Z</time>
      </trkpt>
      <trkpt lat="42.70991" lon="0.55275">
        <ele>2618.6000976562</ele>
        <time>2020-09-14T04:37:47Z</time>
      </trkpt>
      <trkpt lat="42.70983" lon="0.55289">
        <ele>2622.6000976562</ele>
        <time>2020-09-14T04:38:15Z</time>
      </trkpt>
      <trkpt lat="42.70974" lon="0.55288">
        <ele>2627.6000976562</ele>
        <time>2020-09-14T04:38:44Z</time>
      </trkpt>
      <trkpt lat="42.7097" lon="0.55283">
        <ele>2630.6000976562</ele>
        <time>2020-09-14T04:38:56Z</time>
      </trkpt>
      <trkpt lat="42.70962" lon="0.55284">
        <ele>2634.6000976562</ele>
        <time>2020-09-14T04:39:34Z</time>
      </trkpt>
      <trkpt lat="42.70956" lon="0.55284">
        <ele>2637.6000976562</ele>
        <time>2020-09-14T04:39:47Z</time>
      </trkpt>
      <trkpt lat="42.70946" lon="0.55289">
        <ele>2643</ele>
        <time>2020-09-14T04:40:16Z</time>
      </trkpt>
      <trkpt lat="42.70942" lon="0.55297">
        <ele>2646</ele>
        <time>2020-09-14T04:40:31Z</time>
      </trkpt>
      <trkpt lat="42.70926" lon="0.55294">
        <ele>2649.1999511719</ele>
        <time>2020-09-14T04:41:01Z</time>
      </trkpt>
      <trkpt lat="42.70905" lon="0.55302">
        <ele>2652.1999511719</ele>
        <time>2020-09-14T04:41:38Z</time>
      </trkpt>
      <trkpt lat="42.70892" lon="0.55299">
        <ele>2655.8000488281</ele>
        <time>2020-09-14T04:42:15Z</time>
      </trkpt>
      <trkpt lat="42.70892" lon="0.553">
        <ele>2655.8000488281</ele>
        <time>2020-09-14T04:42:16Z</time>
      </trkpt>
      <trkpt lat="42.7087" lon="0.55304">
        <ele>2659.8000488281</ele>
        <time>2020-09-14T04:42:56Z</time>
      </trkpt>
      <trkpt lat="42.70867" lon="0.55301">
        <ele>2659.6000976562</ele>
        <time>2020-09-14T04:43:00Z</time>
      </trkpt>
      <trkpt lat="42.70808" lon="0.55341">
        <ele>2664.8000488281</ele>
        <time>2020-09-14T04:44:59Z</time>
      </trkpt>
      <trkpt lat="42.70799" lon="0.5534">
        <ele>2668</ele>
        <time>2020-09-14T04:45:26Z</time>
      </trkpt>
      <trkpt lat="42.70785" lon="0.5536">
        <ele>2671.6000976562</ele>
        <time>2020-09-14T04:46:04Z</time>
      </trkpt>
      <trkpt lat="42.70731" lon="0.55379">
        <ele>2677.1999511719</ele>
        <time>2020-09-14T04:47:58Z</time>
      </trkpt>
      <trkpt lat="42.70731" lon="0.55379">
        <ele>2677.1999511719</ele>
        <time>2020-09-14T04:47:59Z</time>
      </trkpt>
      <trkpt lat="42.70712" lon="0.55368">
        <ele>2682.6000976562</ele>
        <time>2020-09-14T04:49:02Z</time>
      </trkpt>
      <trkpt lat="42.7068" lon="0.55381">
        <ele>2685.6000976562</ele>
        <time>2020-09-14T04:50:34Z</time>
      </trkpt>
      <trkpt lat="42.70657" lon="0.55372">
        <ele>2689.1999511719</ele>
        <time>2020-09-14T04:51:17Z</time>
      </trkpt>
      <trkpt lat="42.70656" lon="0.55372">
        <ele>2689.3999023438</ele>
        <time>2020-09-14T04:51:18Z</time>
      </trkpt>
      <trkpt lat="42.70634" lon="0.55383">
        <ele>2695</ele>
        <time>2020-09-14T04:52:08Z</time>
      </trkpt>
      <trkpt lat="42.70599" lon="0.55368">
        <ele>2703.1999511719</ele>
        <time>2020-09-14T04:53:23Z</time>
      </trkpt>
      <trkpt lat="42.70599" lon="0.55368">
        <ele>2706.3999023438</ele>
        <time>2020-09-14T04:53:38Z</time>
      </trkpt>
      <trkpt lat="42.70589" lon="0.55364">
        <ele>2704</ele>
        <time>2020-09-14T04:53:53Z</time>
      </trkpt>
      <trkpt lat="42.70574" lon="0.55351">
        <ele>2707.1999511719</ele>
        <time>2020-09-14T04:54:24Z</time>
      </trkpt>
      <trkpt lat="42.70556" lon="0.55344">
        <ele>2712.3999023438</ele>
        <time>2020-09-14T04:54:57Z</time>
      </trkpt>
      <trkpt lat="42.70534" lon="0.55342">
        <ele>2716</ele>
        <time>2020-09-14T04:55:41Z</time>
      </trkpt>
      <trkpt lat="42.70521" lon="0.55338">
        <ele>2720.6000976562</ele>
        <time>2020-09-14T04:56:12Z</time>
      </trkpt>
      <trkpt lat="42.70469" lon="0.55347">
        <ele>2724.8000488281</ele>
        <time>2020-09-14T04:58:26Z</time>
      </trkpt>
      <trkpt lat="42.70471" lon="0.55364">
        <ele>2720.8000488281</ele>
        <time>2020-09-14T04:59:12Z</time>
      </trkpt>
      <trkpt lat="42.70465" lon="0.55393">
        <ele>2725.3999023438</ele>
        <time>2020-09-14T05:00:20Z</time>
      </trkpt>
      <trkpt lat="42.70454" lon="0.5541">
        <ele>2730.3999023438</ele>
        <time>2020-09-14T05:01:02Z</time>
      </trkpt>
      <trkpt lat="42.70451" lon="0.55415">
        <ele>2734</ele>
        <time>2020-09-14T05:01:09Z</time>
      </trkpt>
      <trkpt lat="42.70425" lon="0.55416">
        <ele>2738.1999511719</ele>
        <time>2020-09-14T05:02:11Z</time>
      </trkpt>
      <trkpt lat="42.70421" lon="0.55419">
        <ele>2744.1999511719</ele>
        <time>2020-09-14T05:02:29Z</time>
      </trkpt>
      <trkpt lat="42.70418" lon="0.55417">
        <ele>2742.6000976562</ele>
        <time>2020-09-14T05:03:08Z</time>
      </trkpt>
      <trkpt lat="42.70405" lon="0.55411">
        <ele>2747.8000488281</ele>
        <time>2020-09-14T05:03:34Z</time>
      </trkpt>
      <trkpt lat="42.70381" lon="0.55434">
        <ele>2751.8000488281</ele>
        <time>2020-09-14T05:04:54Z</time>
      </trkpt>
      <trkpt lat="42.7038" lon="0.55445">
        <ele>2755.3999023438</ele>
        <time>2020-09-14T05:05:16Z</time>
      </trkpt>
      <trkpt lat="42.70355" lon="0.55488">
        <ele>2749.1999511719</ele>
        <time>2020-09-14T05:06:34Z</time>
      </trkpt>
      <trkpt lat="42.70354" lon="0.55488">
        <ele>2755.1999511719</ele>
        <time>2020-09-14T05:06:36Z</time>
      </trkpt>
      <trkpt lat="42.70329" lon="0.55522">
        <ele>2759</ele>
        <time>2020-09-14T05:07:46Z</time>
      </trkpt>
      <trkpt lat="42.70327" lon="0.55526">
        <ele>2758.6000976562</ele>
        <time>2020-09-14T05:07:59Z</time>
      </trkpt>
      <trkpt lat="42.70319" lon="0.55535">
        <ele>2761.6000976562</ele>
        <time>2020-09-14T05:08:28Z</time>
      </trkpt>
      <trkpt lat="42.70311" lon="0.55544">
        <ele>2765.3999023438</ele>
        <time>2020-09-14T05:08:53Z</time>
      </trkpt>
      <trkpt lat="42.70307" lon="0.55548">
        <ele>2769.6000976562</ele>
        <time>2020-09-14T05:09:18Z</time>
      </trkpt>
      <trkpt lat="42.70304" lon="0.55547">
        <ele>2774</ele>
        <time>2020-09-14T05:09:57Z</time>
      </trkpt>
      <trkpt lat="42.70307" lon="0.55562">
        <ele>2769.8000488281</ele>
        <time>2020-09-14T05:10:42Z</time>
      </trkpt>
      <trkpt lat="42.70298" lon="0.55568">
        <ele>2766.1999511719</ele>
        <time>2020-09-14T05:11:02Z</time>
      </trkpt>
      <trkpt lat="42.70301" lon="0.5559">
        <ele>2758.6000976562</ele>
        <time>2020-09-14T05:12:06Z</time>
      </trkpt>
      <trkpt lat="42.70303" lon="0.55606">
        <ele>2754.6000976562</ele>
        <time>2020-09-14T05:12:35Z</time>
      </trkpt>
      <trkpt lat="42.70302" lon="0.55616">
        <ele>2754.6000976562</ele>
        <time>2020-09-14T05:12:50Z</time>
      </trkpt>
      <trkpt lat="42.70303" lon="0.55637">
        <ele>2750.8000488281</ele>
        <time>2020-09-14T05:13:21Z</time>
      </trkpt>
      <trkpt lat="42.70292" lon="0.55654">
        <ele>2747.1999511719</ele>
        <time>2020-09-14T05:14:01Z</time>
      </trkpt>
      <trkpt lat="42.70291" lon="0.55654">
        <ele>2747</ele>
        <time>2020-09-14T05:14:03Z</time>
      </trkpt>
      <trkpt lat="42.70281" lon="0.55663">
        <ele>2743.8000488281</ele>
        <time>2020-09-14T05:14:45Z</time>
      </trkpt>
      <trkpt lat="42.7025" lon="0.55683">
        <ele>2740.8000488281</ele>
        <time>2020-09-14T05:16:40Z</time>
      </trkpt>
      <trkpt lat="42.70249" lon="0.5569">
        <ele>2737.6000976562</ele>
        <time>2020-09-14T05:17:03Z</time>
      </trkpt>
      <trkpt lat="42.70251" lon="0.55695">
        <ele>2734.6000976562</ele>
        <time>2020-09-14T05:17:31Z</time>
      </trkpt>
      <trkpt lat="42.70249" lon="0.55712">
        <ele>2730.3999023438</ele>
        <time>2020-09-14T05:18:25Z</time>
      </trkpt>
      <trkpt lat="42.70249" lon="0.5572">
        <ele>2727</ele>
        <time>2020-09-14T05:18:51Z</time>
      </trkpt>
      <trkpt lat="42.70249" lon="0.55722">
        <ele>2726.8000488281</ele>
        <time>2020-09-14T05:19:01Z</time>
      </trkpt>
      <trkpt lat="42.70258" lon="0.55748">
        <ele>2732.1999511719</ele>
        <time>2020-09-14T05:20:19Z</time>
      </trkpt>
      <trkpt lat="42.70217" lon="0.55805">
        <ele>2730.3999023438</ele>
        <time>2020-09-14T05:28:46Z</time>
      </trkpt>
      <trkpt lat="42.70153" lon="0.55818">
        <ele>2724.8000488281</ele>
        <time>2020-09-14T05:32:00Z</time>
      </trkpt>
      <trkpt lat="42.70154" lon="0.55818">
        <ele>2724.8000488281</ele>
        <time>2020-09-14T05:32:01Z</time>
      </trkpt>
      <trkpt lat="42.70144" lon="0.55901">
        <ele>2720.8000488281</ele>
        <time>2020-09-14T05:34:10Z</time>
      </trkpt>
      <trkpt lat="42.70165" lon="0.55983">
        <ele>2725.8000488281</ele>
        <time>2020-09-14T05:37:59Z</time>
      </trkpt>
      <trkpt lat="42.70166" lon="0.55998">
        <ele>2731</ele>
        <time>2020-09-14T05:38:35Z</time>
      </trkpt>
      <trkpt lat="42.70175" lon="0.56017">
        <ele>2734.6000976562</ele>
        <time>2020-09-14T05:39:47Z</time>
      </trkpt>
      <trkpt lat="42.70195" lon="0.5607">
        <ele>2733.6000976562</ele>
        <time>2020-09-14T05:41:34Z</time>
      </trkpt>
      <trkpt lat="42.70181" lon="0.56086">
        <ele>2737.8000488281</ele>
        <time>2020-09-14T05:42:23Z</time>
      </trkpt>
      <trkpt lat="42.70168" lon="0.56096">
        <ele>2742.1999511719</ele>
        <time>2020-09-14T05:42:57Z</time>
      </trkpt>
      <trkpt lat="42.70166" lon="0.56114">
        <ele>2746.1999511719</ele>
        <time>2020-09-14T05:43:24Z</time>
      </trkpt>
      <trkpt lat="42.70153" lon="0.56129">
        <ele>2750.6000976562</ele>
        <time>2020-09-14T05:44:08Z</time>
      </trkpt>
      <trkpt lat="42.70146" lon="0.56133">
        <ele>2755.3999023438</ele>
        <time>2020-09-14T05:44:40Z</time>
      </trkpt>
      <trkpt lat="42.70135" lon="0.56136">
        <ele>2759.6000976562</ele>
        <time>2020-09-14T05:45:06Z</time>
      </trkpt>
      <trkpt lat="42.70124" lon="0.56134">
        <ele>2763</ele>
        <time>2020-09-14T05:45:53Z</time>
      </trkpt>
      <trkpt lat="42.70119" lon="0.56128">
        <ele>2766.1999511719</ele>
        <time>2020-09-14T05:46:12Z</time>
      </trkpt>
      <trkpt lat="42.70115" lon="0.56127">
        <ele>2769.1999511719</ele>
        <time>2020-09-14T05:46:26Z</time>
      </trkpt>
      <trkpt lat="42.70109" lon="0.5612">
        <ele>2774.1999511719</ele>
        <time>2020-09-14T05:46:58Z</time>
      </trkpt>
      <trkpt lat="42.70099" lon="0.56123">
        <ele>2779.3999023438</ele>
        <time>2020-09-14T05:47:31Z</time>
      </trkpt>
      <trkpt lat="42.7009" lon="0.56116">
        <ele>2783.8000488281</ele>
        <time>2020-09-14T05:48:02Z</time>
      </trkpt>
      <trkpt lat="42.70081" lon="0.56112">
        <ele>2788.3999023438</ele>
        <time>2020-09-14T05:48:34Z</time>
      </trkpt>
      <trkpt lat="42.70074" lon="0.56105">
        <ele>2793.3999023438</ele>
        <time>2020-09-14T05:49:10Z</time>
      </trkpt>
      <trkpt lat="42.70065" lon="0.56099">
        <ele>2798.1999511719</ele>
        <time>2020-09-14T05:49:41Z</time>
      </trkpt>
      <trkpt lat="42.70054" lon="0.56096">
        <ele>2802.6000976562</ele>
        <time>2020-09-14T05:50:10Z</time>
      </trkpt>
      <trkpt lat="42.70044" lon="0.56097">
        <ele>2807.3999023438</ele>
        <time>2020-09-14T05:50:44Z</time>
      </trkpt>
      <trkpt lat="42.70038" lon="0.56089">
        <ele>2811.3999023438</ele>
        <time>2020-09-14T05:51:15Z</time>
      </trkpt>
      <trkpt lat="42.70033" lon="0.56075">
        <ele>2815.6000976562</ele>
        <time>2020-09-14T05:52:06Z</time>
      </trkpt>
      <trkpt lat="42.7003" lon="0.56068">
        <ele>2818.8000488281</ele>
        <time>2020-09-14T05:52:19Z</time>
      </trkpt>
      <trkpt lat="42.70031" lon="0.56058">
        <ele>2823.8000488281</ele>
        <time>2020-09-14T05:52:48Z</time>
      </trkpt>
      <trkpt lat="42.70031" lon="0.56047">
        <ele>2829.1999511719</ele>
        <time>2020-09-14T05:53:15Z</time>
      </trkpt>
      <trkpt lat="42.70032" lon="0.5604">
        <ele>2832.1999511719</ele>
        <time>2020-09-14T05:53:32Z</time>
      </trkpt>
      <trkpt lat="42.70022" lon="0.56024">
        <ele>2835.3999023438</ele>
        <time>2020-09-14T05:54:01Z</time>
      </trkpt>
      <trkpt lat="42.70017" lon="0.56009">
        <ele>2839.3999023438</ele>
        <time>2020-09-14T05:54:31Z</time>
      </trkpt>
      <trkpt lat="42.70011" lon="0.55997">
        <ele>2842.8000488281</ele>
        <time>2020-09-14T05:54:59Z</time>
      </trkpt>
      <trkpt lat="42.7001" lon="0.55984">
        <ele>2847</ele>
        <time>2020-09-14T05:55:41Z</time>
      </trkpt>
      <trkpt lat="42.70007" lon="0.55973">
        <ele>2852.3999023438</ele>
        <time>2020-09-14T05:56:13Z</time>
      </trkpt>
      <trkpt lat="42.70006" lon="0.55967">
        <ele>2855.3999023438</ele>
        <time>2020-09-14T05:56:28Z</time>
      </trkpt>
      <trkpt lat="42.70002" lon="0.55962">
        <ele>2858.3999023438</ele>
        <time>2020-09-14T05:56:41Z</time>
      </trkpt>
      <trkpt lat="42.70001" lon="0.55953">
        <ele>2862.3999023438</ele>
        <time>2020-09-14T05:57:18Z</time>
      </trkpt>
      <trkpt lat="42.69998" lon="0.5594">
        <ele>2867.3999023438</ele>
        <time>2020-09-14T05:57:48Z</time>
      </trkpt>
      <trkpt lat="42.70001" lon="0.55934">
        <ele>2872.1999511719</ele>
        <time>2020-09-14T05:58:21Z</time>
      </trkpt>
      <trkpt lat="42.69997" lon="0.55924">
        <ele>2876</ele>
        <time>2020-09-14T05:58:50Z</time>
      </trkpt>
      <trkpt lat="42.70001" lon="0.55918">
        <ele>2880.6000976562</ele>
        <time>2020-09-14T05:59:17Z</time>
      </trkpt>
      <trkpt lat="42.70004" lon="0.55911">
        <ele>2886</ele>
        <time>2020-09-14T05:59:47Z</time>
      </trkpt>
      <trkpt lat="42.70006" lon="0.55905">
        <ele>2889.8000488281</ele>
        <time>2020-09-14T06:00:22Z</time>
      </trkpt>
      <trkpt lat="42.70009" lon="0.55897">
        <ele>2894.1999511719</ele>
        <time>2020-09-14T06:00:52Z</time>
      </trkpt>
      <trkpt lat="42.70003" lon="0.55887">
        <ele>2899.3999023438</ele>
        <time>2020-09-14T06:01:34Z</time>
      </trkpt>
      <trkpt lat="42.69995" lon="0.55881">
        <ele>2904.8000488281</ele>
        <time>2020-09-14T06:02:23Z</time>
      </trkpt>
      <trkpt lat="42.69993" lon="0.55877">
        <ele>2907.8000488281</ele>
        <time>2020-09-14T06:02:39Z</time>
      </trkpt>
      <trkpt lat="42.69991" lon="0.55874">
        <ele>2910.8000488281</ele>
        <time>2020-09-14T06:02:56Z</time>
      </trkpt>
      <trkpt lat="42.69989" lon="0.55866">
        <ele>2915.8000488281</ele>
        <time>2020-09-14T06:03:30Z</time>
      </trkpt>
      <trkpt lat="42.69983" lon="0.55859">
        <ele>2921.3999023438</ele>
        <time>2020-09-14T06:04:01Z</time>
      </trkpt>
      <trkpt lat="42.69986" lon="0.55852">
        <ele>2926.1999511719</ele>
        <time>2020-09-14T06:04:30Z</time>
      </trkpt>
      <trkpt lat="42.69982" lon="0.55843">
        <ele>2930.8000488281</ele>
        <time>2020-09-14T06:05:03Z</time>
      </trkpt>
      <trkpt lat="42.69985" lon="0.55833">
        <ele>2934.1999511719</ele>
        <time>2020-09-14T06:05:30Z</time>
      </trkpt>
      <trkpt lat="42.69976" lon="0.55831">
        <ele>2939.8000488281</ele>
        <time>2020-09-14T06:06:00Z</time>
      </trkpt>
      <trkpt lat="42.69978" lon="0.5582">
        <ele>2944.1999511719</ele>
        <time>2020-09-14T06:06:30Z</time>
      </trkpt>
      <trkpt lat="42.69978" lon="0.55813">
        <ele>2949.8000488281</ele>
        <time>2020-09-14T06:07:06Z</time>
      </trkpt>
      <trkpt lat="42.6997" lon="0.55812">
        <ele>2954</ele>
        <time>2020-09-14T06:07:45Z</time>
      </trkpt>
      <trkpt lat="42.69972" lon="0.55805">
        <ele>2957</ele>
        <time>2020-09-14T06:08:00Z</time>
      </trkpt>
      <trkpt lat="42.69971" lon="0.55802">
        <ele>2960.1999511719</ele>
        <time>2020-09-14T06:08:16Z</time>
      </trkpt>
      <trkpt lat="42.6997" lon="0.55796">
        <ele>2963.8000488281</ele>
        <time>2020-09-14T06:09:09Z</time>
      </trkpt>
      <trkpt lat="42.69967" lon="0.55795">
        <ele>2967.1999511719</ele>
        <time>2020-09-14T06:09:27Z</time>
      </trkpt>
      <trkpt lat="42.69967" lon="0.55794">
        <ele>2970.1999511719</ele>
        <time>2020-09-14T06:09:43Z</time>
      </trkpt>
      <trkpt lat="42.69959" lon="0.55789">
        <ele>2974.6000976562</ele>
        <time>2020-09-14T06:10:47Z</time>
      </trkpt>
      <trkpt lat="42.69955" lon="0.55785">
        <ele>2979.3999023438</ele>
        <time>2020-09-14T06:11:25Z</time>
      </trkpt>
      <trkpt lat="42.69954" lon="0.55782">
        <ele>2982.6000976562</ele>
        <time>2020-09-14T06:11:42Z</time>
      </trkpt>
      <trkpt lat="42.69954" lon="0.55782">
        <ele>2985.6000976562</ele>
        <time>2020-09-14T06:12:07Z</time>
      </trkpt>
      <trkpt lat="42.69949" lon="0.55781">
        <ele>2991</ele>
        <time>2020-09-14T06:12:36Z</time>
      </trkpt>
      <trkpt lat="42.6994" lon="0.55752">
        <ele>2994.1999511719</ele>
        <time>2020-09-14T06:31:34Z</time>
      </trkpt>
      <trkpt lat="42.69938" lon="0.55741">
        <ele>2994</ele>
        <time>2020-09-14T06:31:48Z</time>
      </trkpt>
      <trkpt lat="42.69932" lon="0.55723">
        <ele>2990.3999023438</ele>
        <time>2020-09-14T06:32:30Z</time>
      </trkpt>
      <trkpt lat="42.69932" lon="0.55722">
        <ele>2987.1999511719</ele>
        <time>2020-09-14T06:33:29Z</time>
      </trkpt>
      <trkpt lat="42.69931" lon="0.55716">
        <ele>2981.8000488281</ele>
        <time>2020-09-14T06:34:37Z</time>
      </trkpt>
      <trkpt lat="42.6993" lon="0.55709">
        <ele>2978.8000488281</ele>
        <time>2020-09-14T06:35:12Z</time>
      </trkpt>
      <trkpt lat="42.69922" lon="0.55671">
        <ele>2975.8000488281</ele>
        <time>2020-09-14T06:38:26Z</time>
      </trkpt>
      <trkpt lat="42.69928" lon="0.55644">
        <ele>2972</ele>
        <time>2020-09-14T06:39:48Z</time>
      </trkpt>
      <trkpt lat="42.69929" lon="0.55637">
        <ele>2968.8000488281</ele>
        <time>2020-09-14T06:40:45Z</time>
      </trkpt>
      <trkpt lat="42.69929" lon="0.55636">
        <ele>2963.8000488281</ele>
        <time>2020-09-14T06:57:02Z</time>
      </trkpt>
      <trkpt lat="42.69929" lon="0.55636">
        <ele>2963.6000976562</ele>
        <time>2020-09-14T06:57:03Z</time>
      </trkpt>
      <trkpt lat="42.69927" lon="0.5563">
        <ele>2959.1999511719</ele>
        <time>2020-09-14T06:57:29Z</time>
      </trkpt>
      <trkpt lat="42.69927" lon="0.55629">
        <ele>2956</ele>
        <time>2020-09-14T06:57:35Z</time>
      </trkpt>
      <trkpt lat="42.69927" lon="0.55629">
        <ele>2952.8000488281</ele>
        <time>2020-09-14T06:57:43Z</time>
      </trkpt>
      <trkpt lat="42.69927" lon="0.55627">
        <ele>2949.6000976562</ele>
        <time>2020-09-14T06:57:52Z</time>
      </trkpt>
      <trkpt lat="42.69927" lon="0.55627">
        <ele>2946.6000976562</ele>
        <time>2020-09-14T06:58:03Z</time>
      </trkpt>
      <trkpt lat="42.69924" lon="0.55623">
        <ele>2941.6000976562</ele>
        <time>2020-09-14T07:02:07Z</time>
      </trkpt>
      <trkpt lat="42.69928" lon="0.55619">
        <ele>2937</ele>
        <time>2020-09-14T07:02:39Z</time>
      </trkpt>
      <trkpt lat="42.69933" lon="0.55607">
        <ele>2940.8000488281</ele>
        <time>2020-09-14T07:04:22Z</time>
      </trkpt>
      <trkpt lat="42.69931" lon="0.5561">
        <ele>2937.6000976562</ele>
        <time>2020-09-14T07:04:40Z</time>
      </trkpt>
      <trkpt lat="42.69928" lon="0.55611">
        <ele>2932.6000976562</ele>
        <time>2020-09-14T07:05:11Z</time>
      </trkpt>
      <trkpt lat="42.69926" lon="0.55604">
        <ele>2929.1999511719</ele>
        <time>2020-09-14T07:05:41Z</time>
      </trkpt>
      <trkpt lat="42.69924" lon="0.556">
        <ele>2925.1999511719</ele>
        <time>2020-09-14T07:06:15Z</time>
      </trkpt>
      <trkpt lat="42.69924" lon="0.55598">
        <ele>2922.1999511719</ele>
        <time>2020-09-14T07:06:29Z</time>
      </trkpt>
      <trkpt lat="42.69923" lon="0.55594">
        <ele>2918.8000488281</ele>
        <time>2020-09-14T07:07:29Z</time>
      </trkpt>
      <trkpt lat="42.69913" lon="0.55595">
        <ele>2914</ele>
        <time>2020-09-14T07:10:57Z</time>
      </trkpt>
      <trkpt lat="42.69912" lon="0.55598">
        <ele>2913.8000488281</ele>
        <time>2020-09-14T07:11:15Z</time>
      </trkpt>
      <trkpt lat="42.69909" lon="0.55595">
        <ele>2910.8000488281</ele>
        <time>2020-09-14T07:11:38Z</time>
      </trkpt>
      <trkpt lat="42.69908" lon="0.55593">
        <ele>2907.8000488281</ele>
        <time>2020-09-14T07:11:55Z</time>
      </trkpt>
      <trkpt lat="42.69906" lon="0.5559">
        <ele>2904.6000976562</ele>
        <time>2020-09-14T07:13:37Z</time>
      </trkpt>
      <trkpt lat="42.69906" lon="0.55586">
        <ele>2901.1999511719</ele>
        <time>2020-09-14T07:14:09Z</time>
      </trkpt>
      <trkpt lat="42.69905" lon="0.55578">
        <ele>2882.8000488281</ele>
        <time>2020-09-14T07:25:01Z</time>
      </trkpt>
      <trkpt lat="42.69905" lon="0.55578">
        <ele>2882.8000488281</ele>
        <time>2020-09-14T07:25:02Z</time>
      </trkpt>
      <trkpt lat="42.69904" lon="0.55576">
        <ele>2875</ele>
        <time>2020-09-14T07:26:07Z</time>
      </trkpt>
      <trkpt lat="42.69908" lon="0.55571">
        <ele>2871.6000976562</ele>
        <time>2020-09-14T07:27:39Z</time>
      </trkpt>
      <trkpt lat="42.69907" lon="0.55567">
        <ele>2867.1999511719</ele>
        <time>2020-09-14T07:28:07Z</time>
      </trkpt>
      <trkpt lat="42.69907" lon="0.55557">
        <ele>2864.1999511719</ele>
        <time>2020-09-14T07:28:34Z</time>
      </trkpt>
      <trkpt lat="42.69903" lon="0.5556">
        <ele>2855.1999511719</ele>
        <time>2020-09-14T07:29:49Z</time>
      </trkpt>
      <trkpt lat="42.699" lon="0.55554">
        <ele>2851.3999023438</ele>
        <time>2020-09-14T07:30:24Z</time>
      </trkpt>
      <trkpt lat="42.69904" lon="0.55544">
        <ele>2848</ele>
        <time>2020-09-14T07:32:06Z</time>
      </trkpt>
      <trkpt lat="42.69894" lon="0.55538">
        <ele>2843.6000976562</ele>
        <time>2020-09-14T07:40:24Z</time>
      </trkpt>
      <trkpt lat="42.69893" lon="0.55537">
        <ele>2840.6000976562</ele>
        <time>2020-09-14T07:40:29Z</time>
      </trkpt>
      <trkpt lat="42.69891" lon="0.55527">
        <ele>2835.3999023438</ele>
        <time>2020-09-14T07:41:05Z</time>
      </trkpt>
      <trkpt lat="42.69888" lon="0.5552">
        <ele>2832.1999511719</ele>
        <time>2020-09-14T07:41:16Z</time>
      </trkpt>
      <trkpt lat="42.69886" lon="0.55518">
        <ele>2829.1999511719</ele>
        <time>2020-09-14T07:41:30Z</time>
      </trkpt>
      <trkpt lat="42.69886" lon="0.55524">
        <ele>2830.1999511719</ele>
        <time>2020-09-14T07:41:49Z</time>
      </trkpt>
      <trkpt lat="42.69887" lon="0.55526">
        <ele>2833.8000488281</ele>
        <time>2020-09-14T07:42:08Z</time>
      </trkpt>
      <trkpt lat="42.69892" lon="0.5554">
        <ele>2837.8000488281</ele>
        <time>2020-09-14T07:42:39Z</time>
      </trkpt>
      <trkpt lat="42.69895" lon="0.55549">
        <ele>2841.8000488281</ele>
        <time>2020-09-14T07:43:13Z</time>
      </trkpt>
      <trkpt lat="42.69898" lon="0.55556">
        <ele>2847.3999023438</ele>
        <time>2020-09-14T07:43:40Z</time>
      </trkpt>
      <trkpt lat="42.69899" lon="0.55566">
        <ele>2851</ele>
        <time>2020-09-14T07:44:18Z</time>
      </trkpt>
      <trkpt lat="42.69902" lon="0.55575">
        <ele>2864.3999023438</ele>
        <time>2020-09-14T07:46:34Z</time>
      </trkpt>
      <trkpt lat="42.69909" lon="0.55573">
        <ele>2867.3999023438</ele>
        <time>2020-09-14T07:47:23Z</time>
      </trkpt>
      <trkpt lat="42.6991" lon="0.55555">
        <ele>2863.1999511719</ele>
        <time>2020-09-14T07:48:48Z</time>
      </trkpt>
      <trkpt lat="42.69916" lon="0.5555">
        <ele>2867.3999023438</ele>
        <time>2020-09-14T08:00:48Z</time>
      </trkpt>
      <trkpt lat="42.69917" lon="0.55551">
        <ele>2871.6000976562</ele>
        <time>2020-09-14T08:02:52Z</time>
      </trkpt>
      <trkpt lat="42.69919" lon="0.55548">
        <ele>2877.1999511719</ele>
        <time>2020-09-14T08:04:53Z</time>
      </trkpt>
      <trkpt lat="42.69919" lon="0.55548">
        <ele>2877</ele>
        <time>2020-09-14T08:04:54Z</time>
      </trkpt>
      <trkpt lat="42.69922" lon="0.55544">
        <ele>2880.1999511719</ele>
        <time>2020-09-14T08:05:38Z</time>
      </trkpt>
      <trkpt lat="42.69921" lon="0.5554">
        <ele>2883.6000976562</ele>
        <time>2020-09-14T08:06:40Z</time>
      </trkpt>
      <trkpt lat="42.69922" lon="0.55538">
        <ele>2887.8000488281</ele>
        <time>2020-09-14T08:07:11Z</time>
      </trkpt>
      <trkpt lat="42.69923" lon="0.55528">
        <ele>2887</ele>
        <time>2020-09-14T08:09:02Z</time>
      </trkpt>
      <trkpt lat="42.69926" lon="0.5552">
        <ele>2892.1999511719</ele>
        <time>2020-09-14T08:09:40Z</time>
      </trkpt>
      <trkpt lat="42.69926" lon="0.55506">
        <ele>2896</ele>
        <time>2020-09-14T08:10:14Z</time>
      </trkpt>
      <trkpt lat="42.69926" lon="0.55499">
        <ele>2899.8000488281</ele>
        <time>2020-09-14T08:10:45Z</time>
      </trkpt>
      <trkpt lat="42.69928" lon="0.55497">
        <ele>2899.3999023438</ele>
        <time>2020-09-14T08:11:04Z</time>
      </trkpt>
      <trkpt lat="42.69934" lon="0.55475">
        <ele>2902.6000976562</ele>
        <time>2020-09-14T08:13:06Z</time>
      </trkpt>
      <trkpt lat="42.69937" lon="0.55468">
        <ele>2908</ele>
        <time>2020-09-14T08:14:03Z</time>
      </trkpt>
      <trkpt lat="42.69938" lon="0.55464">
        <ele>2911</ele>
        <time>2020-09-14T08:14:43Z</time>
      </trkpt>
      <trkpt lat="42.69943" lon="0.55456">
        <ele>2914.1999511719</ele>
        <time>2020-09-14T08:15:46Z</time>
      </trkpt>
      <trkpt lat="42.69948" lon="0.55444">
        <ele>2918.6000976562</ele>
        <time>2020-09-14T08:18:06Z</time>
      </trkpt>
      <trkpt lat="42.69948" lon="0.55444">
        <ele>2918.6000976562</ele>
        <time>2020-09-14T08:18:07Z</time>
      </trkpt>
      <trkpt lat="42.69951" lon="0.55439">
        <ele>2915</ele>
        <time>2020-09-14T08:19:02Z</time>
      </trkpt>
      <trkpt lat="42.69952" lon="0.55439">
        <ele>2915.3999023438</ele>
        <time>2020-09-14T08:19:29Z</time>
      </trkpt>
      <trkpt lat="42.69953" lon="0.55436">
        <ele>2911.6000976562</ele>
        <time>2020-09-14T08:21:21Z</time>
      </trkpt>
      <trkpt lat="42.6996" lon="0.554">
        <ele>2905.1999511719</ele>
        <time>2020-09-14T08:44:32Z</time>
      </trkpt>
      <trkpt lat="42.6996" lon="0.554">
        <ele>2905.1999511719</ele>
        <time>2020-09-14T08:44:33Z</time>
      </trkpt>
      <trkpt lat="42.6996" lon="0.55387">
        <ele>2908.6000976562</ele>
        <time>2020-09-14T08:48:36Z</time>
      </trkpt>
      <trkpt lat="42.6996" lon="0.55387">
        <ele>2908.8000488281</ele>
        <time>2020-09-14T08:48:37Z</time>
      </trkpt>
      <trkpt lat="42.69961" lon="0.55385">
        <ele>2914.3999023438</ele>
        <time>2020-09-14T08:49:55Z</time>
      </trkpt>
      <trkpt lat="42.69961" lon="0.55385">
        <ele>2914.6000976562</ele>
        <time>2020-09-14T08:49:56Z</time>
      </trkpt>
      <trkpt lat="42.69964" lon="0.55383">
        <ele>2917.6000976562</ele>
        <time>2020-09-14T08:50:35Z</time>
      </trkpt>
      <trkpt lat="42.69964" lon="0.55382">
        <ele>2917.6000976562</ele>
        <time>2020-09-14T08:51:02Z</time>
      </trkpt>
      <trkpt lat="42.6997" lon="0.55363">
        <ele>2921</ele>
        <time>2020-09-14T08:56:02Z</time>
      </trkpt>
      <trkpt lat="42.69977" lon="0.5534">
        <ele>2927</ele>
        <time>2020-09-14T08:58:23Z</time>
      </trkpt>
      <trkpt lat="42.69977" lon="0.55336">
        <ele>2927.1999511719</ele>
        <time>2020-09-14T08:58:35Z</time>
      </trkpt>
      <trkpt lat="42.69989" lon="0.55295">
        <ele>2923.1999511719</ele>
        <time>2020-09-14T09:06:53Z</time>
      </trkpt>
      <trkpt lat="42.69989" lon="0.55295">
        <ele>2923.3999023438</ele>
        <time>2020-09-14T09:06:54Z</time>
      </trkpt>
      <trkpt lat="42.69992" lon="0.5528">
        <ele>2926.8000488281</ele>
        <time>2020-09-14T09:09:10Z</time>
      </trkpt>
      <trkpt lat="42.69996" lon="0.55265">
        <ele>2926.3999023438</ele>
        <time>2020-09-14T09:20:06Z</time>
      </trkpt>
      <trkpt lat="42.70009" lon="0.55227">
        <ele>2929.6000976562</ele>
        <time>2020-09-14T09:26:13Z</time>
      </trkpt>
      <trkpt lat="42.70009" lon="0.55227">
        <ele>2929.8000488281</ele>
        <time>2020-09-14T09:26:14Z</time>
      </trkpt>
      <trkpt lat="42.70016" lon="0.55203">
        <ele>2937.6000976562</ele>
        <time>2020-09-14T09:32:04Z</time>
      </trkpt>
      <trkpt lat="42.70028" lon="0.55163">
        <ele>2946.8000488281</ele>
        <time>2020-09-14T09:38:25Z</time>
      </trkpt>
      <trkpt lat="42.70028" lon="0.55163">
        <ele>2947</ele>
        <time>2020-09-14T09:38:26Z</time>
      </trkpt>
      <trkpt lat="42.70032" lon="0.5513">
        <ele>2952</ele>
        <time>2020-09-14T09:42:28Z</time>
      </trkpt>
      <trkpt lat="42.70032" lon="0.5513">
        <ele>2951</ele>
        <time>2020-09-14T09:42:29Z</time>
      </trkpt>
      <trkpt lat="42.70034" lon="0.55117">
        <ele>2948</ele>
        <time>2020-09-14T09:43:25Z</time>
      </trkpt>
      <trkpt lat="42.70027" lon="0.55082">
        <ele>2942</ele>
        <time>2020-09-14T10:00:47Z</time>
      </trkpt>
      <trkpt lat="42.70027" lon="0.55082">
        <ele>2942.1999511719</ele>
        <time>2020-09-14T10:00:48Z</time>
      </trkpt>
      <trkpt lat="42.70017" lon="0.55069">
        <ele>2947.3999023438</ele>
        <time>2020-09-14T10:06:54Z</time>
      </trkpt>
      <trkpt lat="42.70016" lon="0.55049">
        <ele>2953.1999511719</ele>
        <time>2020-09-14T10:11:57Z</time>
      </trkpt>
      <trkpt lat="42.70016" lon="0.55028">
        <ele>2957</ele>
        <time>2020-09-14T10:18:04Z</time>
      </trkpt>
      <trkpt lat="42.70016" lon="0.55028">
        <ele>2957</ele>
        <time>2020-09-14T10:18:05Z</time>
      </trkpt>
      <trkpt lat="42.70019" lon="0.55006">
        <ele>2962</ele>
        <time>2020-09-14T10:25:16Z</time>
      </trkpt>
      <trkpt lat="42.70015" lon="0.54981">
        <ele>2965.3999023438</ele>
        <time>2020-09-14T10:28:15Z</time>
      </trkpt>
      <trkpt lat="42.70014" lon="0.54981">
        <ele>2965.1999511719</ele>
        <time>2020-09-14T10:28:38Z</time>
      </trkpt>
      <trkpt lat="42.70016" lon="0.54951">
        <ele>2979</ele>
        <time>2020-09-14T10:32:23Z</time>
      </trkpt>
      <trkpt lat="42.70016" lon="0.54944">
        <ele>2978.1999511719</ele>
        <time>2020-09-14T10:32:38Z</time>
      </trkpt>
      <trkpt lat="42.70019" lon="0.54935">
        <ele>2984</ele>
        <time>2020-09-14T10:33:49Z</time>
      </trkpt>
      <trkpt lat="42.70023" lon="0.549">
        <ele>2991.6000976562</ele>
        <time>2020-09-14T10:37:23Z</time>
      </trkpt>
      <trkpt lat="42.70022" lon="0.549">
        <ele>2991.1999511719</ele>
        <time>2020-09-14T10:37:24Z</time>
      </trkpt>
      <trkpt lat="42.70023" lon="0.5489">
        <ele>2995</ele>
        <time>2020-09-14T10:38:26Z</time>
      </trkpt>
      <trkpt lat="42.70023" lon="0.54889">
        <ele>2998.3999023438</ele>
        <time>2020-09-14T10:38:37Z</time>
      </trkpt>
      <trkpt lat="42.70023" lon="0.54888">
        <ele>2998.1999511719</ele>
        <time>2020-09-14T10:39:04Z</time>
      </trkpt>
      <trkpt lat="42.70023" lon="0.54881">
        <ele>3002.1999511719</ele>
        <time>2020-09-14T10:39:58Z</time>
      </trkpt>
      <trkpt lat="42.70025" lon="0.54878">
        <ele>3007</ele>
        <time>2020-09-14T10:40:30Z</time>
      </trkpt>
      <trkpt lat="42.70024" lon="0.54873">
        <ele>3005.8000488281</ele>
        <time>2020-09-14T10:40:45Z</time>
      </trkpt>
      <trkpt lat="42.70025" lon="0.54864">
        <ele>3009.1999511719</ele>
        <time>2020-09-14T10:42:11Z</time>
      </trkpt>
      <trkpt lat="42.70028" lon="0.54849">
        <ele>3014.3999023438</ele>
        <time>2020-09-14T10:43:35Z</time>
      </trkpt>
      <trkpt lat="42.7003" lon="0.54847">
        <ele>3017.6000976562</ele>
        <time>2020-09-14T10:43:43Z</time>
      </trkpt>
      <trkpt lat="42.70031" lon="0.5484">
        <ele>3022.3999023438</ele>
        <time>2020-09-14T10:44:10Z</time>
      </trkpt>
      <trkpt lat="42.70036" lon="0.54827">
        <ele>3026.1999511719</ele>
        <time>2020-09-14T10:44:38Z</time>
      </trkpt>
      <trkpt lat="42.70044" lon="0.54808">
        <ele>3030</ele>
        <time>2020-09-14T10:45:06Z</time>
      </trkpt>
      <trkpt lat="42.70047" lon="0.54801">
        <ele>3030</ele>
        <time>2020-09-14T10:45:20Z</time>
      </trkpt>
      <trkpt lat="42.70055" lon="0.54787">
        <ele>3034.6000976562</ele>
        <time>2020-09-14T10:45:45Z</time>
      </trkpt>
      <trkpt lat="42.70063" lon="0.54773">
        <ele>3039.1999511719</ele>
        <time>2020-09-14T10:46:10Z</time>
      </trkpt>
      <trkpt lat="42.70073" lon="0.54757">
        <ele>3043</ele>
        <time>2020-09-14T10:46:39Z</time>
      </trkpt>
      <trkpt lat="42.70075" lon="0.5475">
        <ele>3043</ele>
        <time>2020-09-14T10:46:53Z</time>
      </trkpt>
      <trkpt lat="42.70088" lon="0.54709">
        <ele>3046.6000976562</ele>
        <time>2020-09-14T10:47:57Z</time>
      </trkpt>
      <trkpt lat="42.70089" lon="0.54697">
        <ele>3046.3999023438</ele>
        <time>2020-09-14T10:48:11Z</time>
      </trkpt>
      <trkpt lat="42.70101" lon="0.54668">
        <ele>3050.8000488281</ele>
        <time>2020-09-14T10:49:04Z</time>
      </trkpt>
      <trkpt lat="42.70106" lon="0.54649">
        <ele>3056</ele>
        <time>2020-09-14T10:49:30Z</time>
      </trkpt>
      <trkpt lat="42.70108" lon="0.54644">
        <ele>3059.3999023438</ele>
        <time>2020-09-14T10:49:36Z</time>
      </trkpt>
      <trkpt lat="42.70111" lon="0.54631">
        <ele>3059.3999023438</ele>
        <time>2020-09-14T11:07:27Z</time>
      </trkpt>
      <trkpt lat="42.70118" lon="0.5462">
        <ele>3063.1999511719</ele>
        <time>2020-09-14T11:08:05Z</time>
      </trkpt>
      <trkpt lat="42.70144" lon="0.5458">
        <ele>3083</ele>
        <time>2020-09-14T11:10:39Z</time>
      </trkpt>
      <trkpt lat="42.70115" lon="0.54499">
        <ele>3077.6000976562</ele>
        <time>2020-09-14T11:15:29Z</time>
      </trkpt>
      <trkpt lat="42.70104" lon="0.5448">
        <ele>3074.3999023438</ele>
        <time>2020-09-14T11:16:13Z</time>
      </trkpt>
      <trkpt lat="42.70086" lon="0.54451">
        <ele>3070</ele>
        <time>2020-09-14T11:17:47Z</time>
      </trkpt>
      <trkpt lat="42.7008" lon="0.5443">
        <ele>3066</ele>
        <time>2020-09-14T11:19:10Z</time>
      </trkpt>
      <trkpt lat="42.70069" lon="0.54389">
        <ele>3058.3999023438</ele>
        <time>2020-09-14T11:27:41Z</time>
      </trkpt>
      <trkpt lat="42.70069" lon="0.54385">
        <ele>3054.1999511719</ele>
        <time>2020-09-14T11:28:21Z</time>
      </trkpt>
      <trkpt lat="42.70069" lon="0.54385">
        <ele>3054.1999511719</ele>
        <time>2020-09-14T11:28:22Z</time>
      </trkpt>
      <trkpt lat="42.70064" lon="0.5437">
        <ele>3050.3999023438</ele>
        <time>2020-09-14T11:29:35Z</time>
      </trkpt>
      <trkpt lat="42.70061" lon="0.54358">
        <ele>3047</ele>
        <time>2020-09-14T11:30:24Z</time>
      </trkpt>
      <trkpt lat="42.70056" lon="0.54345">
        <ele>3042.8000488281</ele>
        <time>2020-09-14T11:31:24Z</time>
      </trkpt>
      <trkpt lat="42.70051" lon="0.54337">
        <ele>3038.1999511719</ele>
        <time>2020-09-14T11:32:30Z</time>
      </trkpt>
      <trkpt lat="42.70052" lon="0.54329">
        <ele>3038.8000488281</ele>
        <time>2020-09-14T11:33:56Z</time>
      </trkpt>
      <trkpt lat="42.7005" lon="0.54322">
        <ele>3035.3999023438</ele>
        <time>2020-09-14T11:34:28Z</time>
      </trkpt>
      <trkpt lat="42.7005" lon="0.54322">
        <ele>3035.6000976562</ele>
        <time>2020-09-14T11:34:29Z</time>
      </trkpt>
      <trkpt lat="42.70049" lon="0.54317">
        <ele>3031.8000488281</ele>
        <time>2020-09-14T11:35:29Z</time>
      </trkpt>
      <trkpt lat="42.70049" lon="0.54317">
        <ele>3035.6000976562</ele>
        <time>2020-09-14T11:35:51Z</time>
      </trkpt>
      <trkpt lat="42.70049" lon="0.54312">
        <ele>3032.3999023438</ele>
        <time>2020-09-14T11:36:45Z</time>
      </trkpt>
      <trkpt lat="42.70048" lon="0.54309">
        <ele>3028.8000488281</ele>
        <time>2020-09-14T11:41:07Z</time>
      </trkpt>
      <trkpt lat="42.70046" lon="0.54296">
        <ele>3025</ele>
        <time>2020-09-14T11:44:22Z</time>
      </trkpt>
      <trkpt lat="42.70043" lon="0.54281">
        <ele>3021.6000976562</ele>
        <time>2020-09-14T11:45:37Z</time>
      </trkpt>
      <trkpt lat="42.7004" lon="0.54268">
        <ele>3023.6000976562</ele>
        <time>2020-09-14T11:46:26Z</time>
      </trkpt>
      <trkpt lat="42.70033" lon="0.54229">
        <ele>3017.3999023438</ele>
        <time>2020-09-14T11:49:33Z</time>
      </trkpt>
      <trkpt lat="42.70033" lon="0.54226">
        <ele>3017.8000488281</ele>
        <time>2020-09-14T11:49:51Z</time>
      </trkpt>
      <trkpt lat="42.7002" lon="0.54189">
        <ele>3014.1999511719</ele>
        <time>2020-09-14T11:52:46Z</time>
      </trkpt>
      <trkpt lat="42.7002" lon="0.54188">
        <ele>3014.1999511719</ele>
        <time>2020-09-14T11:52:47Z</time>
      </trkpt>
      <trkpt lat="42.70016" lon="0.54165">
        <ele>3010.1999511719</ele>
        <time>2020-09-14T11:55:49Z</time>
      </trkpt>
      <trkpt lat="42.70016" lon="0.54165">
        <ele>3010.1999511719</ele>
        <time>2020-09-14T11:55:50Z</time>
      </trkpt>
      <trkpt lat="42.70016" lon="0.54159">
        <ele>3007</ele>
        <time>2020-09-14T11:56:47Z</time>
      </trkpt>
      <trkpt lat="42.70022" lon="0.54128">
        <ele>3010.1999511719</ele>
        <time>2020-09-14T12:04:58Z</time>
      </trkpt>
      <trkpt lat="42.70024" lon="0.54104">
        <ele>3014</ele>
        <time>2020-09-14T12:07:08Z</time>
      </trkpt>
      <trkpt lat="42.70026" lon="0.5408">
        <ele>3018.1999511719</ele>
        <time>2020-09-14T12:09:12Z</time>
      </trkpt>
      <trkpt lat="42.70026" lon="0.54049">
        <ele>3014.3999023438</ele>
        <time>2020-09-14T12:12:06Z</time>
      </trkpt>
      <trkpt lat="42.70027" lon="0.54033">
        <ele>3018</ele>
        <time>2020-09-14T12:13:43Z</time>
      </trkpt>
      <trkpt lat="42.70025" lon="0.5402">
        <ele>3021.3999023438</ele>
        <time>2020-09-14T12:14:27Z</time>
      </trkpt>
      <trkpt lat="42.70024" lon="0.54017">
        <ele>3021.1999511719</ele>
        <time>2020-09-14T12:14:43Z</time>
      </trkpt>
      <trkpt lat="42.70021" lon="0.53923">
        <ele>3018</ele>
        <time>2020-09-14T12:21:29Z</time>
      </trkpt>
      <trkpt lat="42.70021" lon="0.53922">
        <ele>3018</ele>
        <time>2020-09-14T12:21:51Z</time>
      </trkpt>
      <trkpt lat="42.70021" lon="0.53911">
        <ele>3015</ele>
        <time>2020-09-14T12:22:50Z</time>
      </trkpt>
      <trkpt lat="42.70022" lon="0.53906">
        <ele>3012</ele>
        <time>2020-09-14T12:23:20Z</time>
      </trkpt>
      <trkpt lat="42.70021" lon="0.53898">
        <ele>3008.3999023438</ele>
        <time>2020-09-14T12:24:16Z</time>
      </trkpt>
      <trkpt lat="42.70019" lon="0.53894">
        <ele>3004.8000488281</ele>
        <time>2020-09-14T12:25:34Z</time>
      </trkpt>
      <trkpt lat="42.70017" lon="0.53888">
        <ele>3001.6000976562</ele>
        <time>2020-09-14T12:27:28Z</time>
      </trkpt>
      <trkpt lat="42.70018" lon="0.53879">
        <ele>2997</ele>
        <time>2020-09-14T12:31:24Z</time>
      </trkpt>
      <trkpt lat="42.70018" lon="0.53879">
        <ele>2997</ele>
        <time>2020-09-14T12:31:25Z</time>
      </trkpt>
      <trkpt lat="42.70018" lon="0.53864">
        <ele>2993.8000488281</ele>
        <time>2020-09-14T12:32:18Z</time>
      </trkpt>
      <trkpt lat="42.70017" lon="0.53853">
        <ele>2990</ele>
        <time>2020-09-14T12:33:34Z</time>
      </trkpt>
      <trkpt lat="42.70015" lon="0.53833">
        <ele>2985.8000488281</ele>
        <time>2020-09-14T12:35:45Z</time>
      </trkpt>
      <trkpt lat="42.70015" lon="0.5383">
        <ele>2985.8000488281</ele>
        <time>2020-09-14T12:36:02Z</time>
      </trkpt>
      <trkpt lat="42.70011" lon="0.53789">
        <ele>2990.6000976562</ele>
        <time>2020-09-14T12:40:33Z</time>
      </trkpt>
      <trkpt lat="42.70011" lon="0.53789">
        <ele>2990.3999023438</ele>
        <time>2020-09-14T12:40:34Z</time>
      </trkpt>
      <trkpt lat="42.70013" lon="0.53771">
        <ele>2993.8000488281</ele>
        <time>2020-09-14T12:42:51Z</time>
      </trkpt>
      <trkpt lat="42.70013" lon="0.53759">
        <ele>2997.8000488281</ele>
        <time>2020-09-14T12:43:20Z</time>
      </trkpt>
      <trkpt lat="42.70013" lon="0.53754">
        <ele>3001.1999511719</ele>
        <time>2020-09-14T12:44:02Z</time>
      </trkpt>
      <trkpt lat="42.70013" lon="0.53747">
        <ele>3007</ele>
        <time>2020-09-14T12:44:28Z</time>
      </trkpt>
      <trkpt lat="42.70014" lon="0.53744">
        <ele>3007</ele>
        <time>2020-09-14T12:44:51Z</time>
      </trkpt>
      <trkpt lat="42.70014" lon="0.53732">
        <ele>3012.8000488281</ele>
        <time>2020-09-14T12:45:46Z</time>
      </trkpt>
      <trkpt lat="42.70018" lon="0.53718">
        <ele>3017.3999023438</ele>
        <time>2020-09-14T12:46:22Z</time>
      </trkpt>
      <trkpt lat="42.70009" lon="0.5369">
        <ele>3020.8000488281</ele>
        <time>2020-09-14T12:47:34Z</time>
      </trkpt>
      <trkpt lat="42.70007" lon="0.53686">
        <ele>3020.3999023438</ele>
        <time>2020-09-14T12:47:48Z</time>
      </trkpt>
      <trkpt lat="42.70006" lon="0.53637">
        <ele>3017</ele>
        <time>2020-09-14T12:48:59Z</time>
      </trkpt>
      <trkpt lat="42.70009" lon="0.53613">
        <ele>3012.3999023438</ele>
        <time>2020-09-14T12:49:52Z</time>
      </trkpt>
      <trkpt lat="42.69993" lon="0.53578">
        <ele>3015.3999023438</ele>
        <time>2020-09-14T12:51:38Z</time>
      </trkpt>
      <trkpt lat="42.70005" lon="0.53453">
        <ele>3022.6000976562</ele>
        <time>2020-09-14T13:22:31Z</time>
      </trkpt>
      <trkpt lat="42.70007" lon="0.53455">
        <ele>3019.6000976562</ele>
        <time>2020-09-14T13:22:44Z</time>
      </trkpt>
      <trkpt lat="42.7001" lon="0.53454">
        <ele>3016.6000976562</ele>
        <time>2020-09-14T13:22:58Z</time>
      </trkpt>
      <trkpt lat="42.70012" lon="0.53448">
        <ele>3013.3999023438</ele>
        <time>2020-09-14T13:23:12Z</time>
      </trkpt>
      <trkpt lat="42.7002" lon="0.53436">
        <ele>3008.8000488281</ele>
        <time>2020-09-14T13:23:41Z</time>
      </trkpt>
      <trkpt lat="42.7003" lon="0.53432">
        <ele>3004.1999511719</ele>
        <time>2020-09-14T13:24:08Z</time>
      </trkpt>
      <trkpt lat="42.70036" lon="0.5344">
        <ele>2999.3999023438</ele>
        <time>2020-09-14T13:24:49Z</time>
      </trkpt>
      <trkpt lat="42.7004" lon="0.53438">
        <ele>2995.8000488281</ele>
        <time>2020-09-14T13:25:17Z</time>
      </trkpt>
      <trkpt lat="42.70045" lon="0.53436">
        <ele>2992</ele>
        <time>2020-09-14T13:25:49Z</time>
      </trkpt>
      <trkpt lat="42.70054" lon="0.53421">
        <ele>2986.1999511719</ele>
        <time>2020-09-14T13:27:29Z</time>
      </trkpt>
      <trkpt lat="42.70058" lon="0.53425">
        <ele>2983</ele>
        <time>2020-09-14T13:28:02Z</time>
      </trkpt>
      <trkpt lat="42.70065" lon="0.53421">
        <ele>2979.3999023438</ele>
        <time>2020-09-14T13:28:30Z</time>
      </trkpt>
      <trkpt lat="42.70066" lon="0.53425">
        <ele>2976.3999023438</ele>
        <time>2020-09-14T13:28:43Z</time>
      </trkpt>
      <trkpt lat="42.70068" lon="0.53434">
        <ele>2973.1999511719</ele>
        <time>2020-09-14T13:28:57Z</time>
      </trkpt>
      <trkpt lat="42.70069" lon="0.53445">
        <ele>2970</ele>
        <time>2020-09-14T13:29:11Z</time>
      </trkpt>
      <trkpt lat="42.70072" lon="0.53461">
        <ele>2965.3999023438</ele>
        <time>2020-09-14T13:29:45Z</time>
      </trkpt>
      <trkpt lat="42.70073" lon="0.53472">
        <ele>2961.6000976562</ele>
        <time>2020-09-14T13:30:14Z</time>
      </trkpt>
      <trkpt lat="42.70076" lon="0.53487">
        <ele>2956.3999023438</ele>
        <time>2020-09-14T13:30:59Z</time>
      </trkpt>
      <trkpt lat="42.70077" lon="0.53499">
        <ele>2953</ele>
        <time>2020-09-14T13:31:28Z</time>
      </trkpt>
      <trkpt lat="42.7008" lon="0.53516">
        <ele>2949.1999511719</ele>
        <time>2020-09-14T13:31:58Z</time>
      </trkpt>
      <trkpt lat="42.70081" lon="0.53522">
        <ele>2945.6000976562</ele>
        <time>2020-09-14T13:32:37Z</time>
      </trkpt>
      <trkpt lat="42.70083" lon="0.53525">
        <ele>2945.6000976562</ele>
        <time>2020-09-14T13:32:59Z</time>
      </trkpt>
      <trkpt lat="42.70087" lon="0.53538">
        <ele>2940.8000488281</ele>
        <time>2020-09-14T13:33:29Z</time>
      </trkpt>
      <trkpt lat="42.7009" lon="0.53546">
        <ele>2936.1999511719</ele>
        <time>2020-09-14T13:33:57Z</time>
      </trkpt>
      <trkpt lat="42.70094" lon="0.53559">
        <ele>2932.6000976562</ele>
        <time>2020-09-14T13:34:23Z</time>
      </trkpt>
      <trkpt lat="42.70094" lon="0.53576">
        <ele>2928.8000488281</ele>
        <time>2020-09-14T13:34:53Z</time>
      </trkpt>
      <trkpt lat="42.70095" lon="0.53601">
        <ele>2925.1999511719</ele>
        <time>2020-09-14T13:35:40Z</time>
      </trkpt>
      <trkpt lat="42.70096" lon="0.53643">
        <ele>2919.3999023438</ele>
        <time>2020-09-14T13:36:28Z</time>
      </trkpt>
      <trkpt lat="42.70098" lon="0.53654">
        <ele>2916.1999511719</ele>
        <time>2020-09-14T13:36:43Z</time>
      </trkpt>
      <trkpt lat="42.70104" lon="0.53673">
        <ele>2911.8000488281</ele>
        <time>2020-09-14T13:37:06Z</time>
      </trkpt>
      <trkpt lat="42.70108" lon="0.53685">
        <ele>2908.8000488281</ele>
        <time>2020-09-14T13:38:06Z</time>
      </trkpt>
      <trkpt lat="42.70119" lon="0.53698">
        <ele>2904</ele>
        <time>2020-09-14T13:38:30Z</time>
      </trkpt>
      <trkpt lat="42.70132" lon="0.53709">
        <ele>2900</ele>
        <time>2020-09-14T13:39:03Z</time>
      </trkpt>
      <trkpt lat="42.70133" lon="0.53711">
        <ele>2899.8000488281</ele>
        <time>2020-09-14T13:39:05Z</time>
      </trkpt>
      <trkpt lat="42.70142" lon="0.53735">
        <ele>2896.6000976562</ele>
        <time>2020-09-14T13:39:46Z</time>
      </trkpt>
      <trkpt lat="42.70152" lon="0.5375">
        <ele>2893.3999023438</ele>
        <time>2020-09-14T13:40:16Z</time>
      </trkpt>
      <trkpt lat="42.70158" lon="0.53774">
        <ele>2889.8000488281</ele>
        <time>2020-09-14T13:40:55Z</time>
      </trkpt>
      <trkpt lat="42.7017" lon="0.53788">
        <ele>2885</ele>
        <time>2020-09-14T13:41:27Z</time>
      </trkpt>
      <trkpt lat="42.70174" lon="0.5379">
        <ele>2879.6000976562</ele>
        <time>2020-09-14T13:41:52Z</time>
      </trkpt>
      <trkpt lat="42.70174" lon="0.5379">
        <ele>2883.3999023438</ele>
        <time>2020-09-14T13:42:05Z</time>
      </trkpt>
      <trkpt lat="42.70184" lon="0.53802">
        <ele>2879.3999023438</ele>
        <time>2020-09-14T13:42:33Z</time>
      </trkpt>
      <trkpt lat="42.70193" lon="0.53814">
        <ele>2876</ele>
        <time>2020-09-14T13:42:51Z</time>
      </trkpt>
      <trkpt lat="42.70209" lon="0.5383">
        <ele>2876.3999023438</ele>
        <time>2020-09-14T13:43:29Z</time>
      </trkpt>
      <trkpt lat="42.70209" lon="0.53793">
        <ele>2856.8000488281</ele>
        <time>2020-09-14T13:48:26Z</time>
      </trkpt>
      <trkpt lat="42.70212" lon="0.53791">
        <ele>2853.3999023438</ele>
        <time>2020-09-14T13:48:52Z</time>
      </trkpt>
      <trkpt lat="42.70214" lon="0.53778">
        <ele>2847.3999023438</ele>
        <time>2020-09-14T13:49:16Z</time>
      </trkpt>
      <trkpt lat="42.70219" lon="0.53779">
        <ele>2844.3999023438</ele>
        <time>2020-09-14T13:49:27Z</time>
      </trkpt>
      <trkpt lat="42.70229" lon="0.53776">
        <ele>2838.3999023438</ele>
        <time>2020-09-14T13:49:53Z</time>
      </trkpt>
      <trkpt lat="42.70234" lon="0.53778">
        <ele>2835.3999023438</ele>
        <time>2020-09-14T13:50:06Z</time>
      </trkpt>
      <trkpt lat="42.70244" lon="0.53779">
        <ele>2829.8000488281</ele>
        <time>2020-09-14T13:50:36Z</time>
      </trkpt>
      <trkpt lat="42.70247" lon="0.53782">
        <ele>2826.1999511719</ele>
        <time>2020-09-14T13:50:46Z</time>
      </trkpt>
      <trkpt lat="42.70247" lon="0.53782">
        <ele>2826.1999511719</ele>
        <time>2020-09-14T13:50:47Z</time>
      </trkpt>
      <trkpt lat="42.70255" lon="0.53785">
        <ele>2822.8000488281</ele>
        <time>2020-09-14T13:51:23Z</time>
      </trkpt>
      <trkpt lat="42.70261" lon="0.53788">
        <ele>2818.1999511719</ele>
        <time>2020-09-14T13:51:49Z</time>
      </trkpt>
      <trkpt lat="42.70273" lon="0.53794">
        <ele>2812.6000976562</ele>
        <time>2020-09-14T13:52:18Z</time>
      </trkpt>
      <trkpt lat="42.70277" lon="0.53798">
        <ele>2809.6000976562</ele>
        <time>2020-09-14T13:52:30Z</time>
      </trkpt>
      <trkpt lat="42.70281" lon="0.53801">
        <ele>2806.6000976562</ele>
        <time>2020-09-14T13:52:43Z</time>
      </trkpt>
      <trkpt lat="42.70299" lon="0.53815">
        <ele>2802.6000976562</ele>
        <time>2020-09-14T13:53:11Z</time>
      </trkpt>
      <trkpt lat="42.70311" lon="0.53827">
        <ele>2805.8000488281</ele>
        <time>2020-09-14T13:53:48Z</time>
      </trkpt>
      <trkpt lat="42.7032" lon="0.53841">
        <ele>2809.8000488281</ele>
        <time>2020-09-14T13:54:31Z</time>
      </trkpt>
      <trkpt lat="42.70321" lon="0.53845">
        <ele>2809.1999511719</ele>
        <time>2020-09-14T13:54:48Z</time>
      </trkpt>
      <trkpt lat="42.70318" lon="0.53844">
        <ele>2806.1999511719</ele>
        <time>2020-09-14T13:55:39Z</time>
      </trkpt>
      <trkpt lat="42.70318" lon="0.53844">
        <ele>2806</ele>
        <time>2020-09-14T13:57:03Z</time>
      </trkpt>
      <trkpt lat="42.70302" lon="0.53851">
        <ele>2803</ele>
        <time>2020-09-14T14:01:31Z</time>
      </trkpt>
      <trkpt lat="42.70284" lon="0.5387">
        <ele>2798.6000976562</ele>
        <time>2020-09-14T14:02:40Z</time>
      </trkpt>
      <trkpt lat="42.70287" lon="0.53879">
        <ele>2794.1999511719</ele>
        <time>2020-09-14T14:03:07Z</time>
      </trkpt>
      <trkpt lat="42.70288" lon="0.53884">
        <ele>2791</ele>
        <time>2020-09-14T14:03:20Z</time>
      </trkpt>
      <trkpt lat="42.70286" lon="0.53895">
        <ele>2787.3999023438</ele>
        <time>2020-09-14T14:03:50Z</time>
      </trkpt>
      <trkpt lat="42.70284" lon="0.53911">
        <ele>2784.3999023438</ele>
        <time>2020-09-14T14:04:30Z</time>
      </trkpt>
      <trkpt lat="42.70288" lon="0.5393">
        <ele>2780.1999511719</ele>
        <time>2020-09-14T14:05:14Z</time>
      </trkpt>
      <trkpt lat="42.70291" lon="0.53939">
        <ele>2774</ele>
        <time>2020-09-14T14:05:58Z</time>
      </trkpt>
      <trkpt lat="42.70295" lon="0.53944">
        <ele>2770.8000488281</ele>
        <time>2020-09-14T14:06:14Z</time>
      </trkpt>
      <trkpt lat="42.70302" lon="0.53953">
        <ele>2765.6000976562</ele>
        <time>2020-09-14T14:06:45Z</time>
      </trkpt>
      <trkpt lat="42.70305" lon="0.53955">
        <ele>2762.6000976562</ele>
        <time>2020-09-14T14:06:58Z</time>
      </trkpt>
      <trkpt lat="42.70313" lon="0.53954">
        <ele>2759.6000976562</ele>
        <time>2020-09-14T14:07:31Z</time>
      </trkpt>
      <trkpt lat="42.70319" lon="0.53949">
        <ele>2755.8000488281</ele>
        <time>2020-09-14T14:08:16Z</time>
      </trkpt>
      <trkpt lat="42.70327" lon="0.53948">
        <ele>2752.1999511719</ele>
        <time>2020-09-14T14:08:33Z</time>
      </trkpt>
      <trkpt lat="42.70334" lon="0.53944">
        <ele>2748.8000488281</ele>
        <time>2020-09-14T14:08:47Z</time>
      </trkpt>
      <trkpt lat="42.70343" lon="0.54009">
        <ele>2745.3999023438</ele>
        <time>2020-09-14T14:10:37Z</time>
      </trkpt>
      <trkpt lat="42.70357" lon="0.54065">
        <ele>2739.8000488281</ele>
        <time>2020-09-14T14:11:49Z</time>
      </trkpt>
      <trkpt lat="42.7036" lon="0.54083">
        <ele>2735.6000976562</ele>
        <time>2020-09-14T14:12:08Z</time>
      </trkpt>
      <trkpt lat="42.70372" lon="0.54091">
        <ele>2730.1999511719</ele>
        <time>2020-09-14T14:12:36Z</time>
      </trkpt>
      <trkpt lat="42.70379" lon="0.54085">
        <ele>2725.8000488281</ele>
        <time>2020-09-14T14:13:08Z</time>
      </trkpt>
      <trkpt lat="42.70385" lon="0.54087">
        <ele>2721.6000976562</ele>
        <time>2020-09-14T14:13:30Z</time>
      </trkpt>
      <trkpt lat="42.70406" lon="0.54089">
        <ele>2716</ele>
        <time>2020-09-14T14:13:54Z</time>
      </trkpt>
      <trkpt lat="42.7042" lon="0.54097">
        <ele>2711.8000488281</ele>
        <time>2020-09-14T14:14:17Z</time>
      </trkpt>
      <trkpt lat="42.70422" lon="0.54096">
        <ele>2712</ele>
        <time>2020-09-14T14:14:40Z</time>
      </trkpt>
      <trkpt lat="42.70432" lon="0.54128">
        <ele>2707</ele>
        <time>2020-09-14T14:16:49Z</time>
      </trkpt>
      <trkpt lat="42.70448" lon="0.54153">
        <ele>2702.8000488281</ele>
        <time>2020-09-14T14:17:20Z</time>
      </trkpt>
      <trkpt lat="42.70458" lon="0.54158">
        <ele>2699.8000488281</ele>
        <time>2020-09-14T14:17:35Z</time>
      </trkpt>
      <trkpt lat="42.70468" lon="0.54159">
        <ele>2696.8000488281</ele>
        <time>2020-09-14T14:17:50Z</time>
      </trkpt>
      <trkpt lat="42.70474" lon="0.54167">
        <ele>2692</ele>
        <time>2020-09-14T14:18:15Z</time>
      </trkpt>
      <trkpt lat="42.70486" lon="0.54178">
        <ele>2687.8000488281</ele>
        <time>2020-09-14T14:18:33Z</time>
      </trkpt>
      <trkpt lat="42.70493" lon="0.54181">
        <ele>2684.6000976562</ele>
        <time>2020-09-14T14:18:53Z</time>
      </trkpt>
      <trkpt lat="42.70496" lon="0.54188">
        <ele>2679.1999511719</ele>
        <time>2020-09-14T14:19:17Z</time>
      </trkpt>
      <trkpt lat="42.70496" lon="0.54188">
        <ele>2682.6000976562</ele>
        <time>2020-09-14T14:19:26Z</time>
      </trkpt>
      <trkpt lat="42.70498" lon="0.5426">
        <ele>2677</ele>
        <time>2020-09-14T14:21:32Z</time>
      </trkpt>
      <trkpt lat="42.70498" lon="0.5426">
        <ele>2677</ele>
        <time>2020-09-14T14:21:33Z</time>
      </trkpt>
      <trkpt lat="42.7051" lon="0.54295">
        <ele>2669.6000976562</ele>
        <time>2020-09-14T14:22:24Z</time>
      </trkpt>
      <trkpt lat="42.70519" lon="0.54303">
        <ele>2665.1999511719</ele>
        <time>2020-09-14T14:22:45Z</time>
      </trkpt>
      <trkpt lat="42.70531" lon="0.54316">
        <ele>2659.3999023438</ele>
        <time>2020-09-14T14:23:29Z</time>
      </trkpt>
      <trkpt lat="42.70536" lon="0.54324">
        <ele>2656.1999511719</ele>
        <time>2020-09-14T14:23:42Z</time>
      </trkpt>
      <trkpt lat="42.70539" lon="0.54335">
        <ele>2653.1999511719</ele>
        <time>2020-09-14T14:23:56Z</time>
      </trkpt>
      <trkpt lat="42.70541" lon="0.5435">
        <ele>2648.8000488281</ele>
        <time>2020-09-14T14:24:19Z</time>
      </trkpt>
      <trkpt lat="42.7055" lon="0.54361">
        <ele>2645.8000488281</ele>
        <time>2020-09-14T14:24:33Z</time>
      </trkpt>
      <trkpt lat="42.7057" lon="0.54383">
        <ele>2639.3999023438</ele>
        <time>2020-09-14T14:25:21Z</time>
      </trkpt>
      <trkpt lat="42.70577" lon="0.5438">
        <ele>2636</ele>
        <time>2020-09-14T14:25:32Z</time>
      </trkpt>
      <trkpt lat="42.70584" lon="0.54393">
        <ele>2632.6000976562</ele>
        <time>2020-09-14T14:25:50Z</time>
      </trkpt>
      <trkpt lat="42.70593" lon="0.54413">
        <ele>2629.6000976562</ele>
        <time>2020-09-14T14:26:45Z</time>
      </trkpt>
      <trkpt lat="42.70602" lon="0.54415">
        <ele>2625.8000488281</ele>
        <time>2020-09-14T14:27:13Z</time>
      </trkpt>
      <trkpt lat="42.7061" lon="0.5442">
        <ele>2625.8000488281</ele>
        <time>2020-09-14T14:27:27Z</time>
      </trkpt>
      <trkpt lat="42.70622" lon="0.54431">
        <ele>2630</ele>
        <time>2020-09-14T14:27:52Z</time>
      </trkpt>
      <trkpt lat="42.70639" lon="0.54444">
        <ele>2633.8000488281</ele>
        <time>2020-09-14T14:28:33Z</time>
      </trkpt>
      <trkpt lat="42.70643" lon="0.54455">
        <ele>2637.6000976562</ele>
        <time>2020-09-14T14:29:04Z</time>
      </trkpt>
      <trkpt lat="42.70642" lon="0.54462">
        <ele>2640.8000488281</ele>
        <time>2020-09-14T14:29:46Z</time>
      </trkpt>
      <trkpt lat="42.70654" lon="0.54481">
        <ele>2646.3999023438</ele>
        <time>2020-09-14T14:30:26Z</time>
      </trkpt>
      <trkpt lat="42.70658" lon="0.54491">
        <ele>2649.6000976562</ele>
        <time>2020-09-14T14:30:54Z</time>
      </trkpt>
      <trkpt lat="42.70667" lon="0.54494">
        <ele>2652.6000976562</ele>
        <time>2020-09-14T14:31:11Z</time>
      </trkpt>
      <trkpt lat="42.70697" lon="0.545">
        <ele>2648.1999511719</ele>
        <time>2020-09-14T14:33:30Z</time>
      </trkpt>
      <trkpt lat="42.70702" lon="0.54507">
        <ele>2645</ele>
        <time>2020-09-14T14:33:43Z</time>
      </trkpt>
      <trkpt lat="42.70706" lon="0.5451">
        <ele>2642</ele>
        <time>2020-09-14T14:33:55Z</time>
      </trkpt>
      <trkpt lat="42.70709" lon="0.54516">
        <ele>2638.8000488281</ele>
        <time>2020-09-14T14:34:08Z</time>
      </trkpt>
      <trkpt lat="42.7071" lon="0.5453">
        <ele>2635.6000976562</ele>
        <time>2020-09-14T14:34:24Z</time>
      </trkpt>
      <trkpt lat="42.70705" lon="0.5455">
        <ele>2632.3999023438</ele>
        <time>2020-09-14T14:34:40Z</time>
      </trkpt>
      <trkpt lat="42.70712" lon="0.54582">
        <ele>2627.6000976562</ele>
        <time>2020-09-14T14:35:08Z</time>
      </trkpt>
      <trkpt lat="42.70721" lon="0.54589">
        <ele>2624.6000976562</ele>
        <time>2020-09-14T14:35:22Z</time>
      </trkpt>
      <trkpt lat="42.70729" lon="0.54608">
        <ele>2621.1999511719</ele>
        <time>2020-09-14T14:35:41Z</time>
      </trkpt>
      <trkpt lat="42.70731" lon="0.54608">
        <ele>2621</ele>
        <time>2020-09-14T14:35:43Z</time>
      </trkpt>
      <trkpt lat="42.70749" lon="0.54625">
        <ele>2615.3999023438</ele>
        <time>2020-09-14T14:36:45Z</time>
      </trkpt>
      <trkpt lat="42.70753" lon="0.54624">
        <ele>2612.3999023438</ele>
        <time>2020-09-14T14:36:58Z</time>
      </trkpt>
      <trkpt lat="42.70758" lon="0.54624">
        <ele>2609.3999023438</ele>
        <time>2020-09-14T14:37:12Z</time>
      </trkpt>
      <trkpt lat="42.70771" lon="0.54629">
        <ele>2605.8000488281</ele>
        <time>2020-09-14T14:37:33Z</time>
      </trkpt>
      <trkpt lat="42.70782" lon="0.54643">
        <ele>2602.6000976562</ele>
        <time>2020-09-14T14:37:58Z</time>
      </trkpt>
      <trkpt lat="42.70794" lon="0.54651">
        <ele>2598</ele>
        <time>2020-09-14T14:38:25Z</time>
      </trkpt>
      <trkpt lat="42.70803" lon="0.54659">
        <ele>2594</ele>
        <time>2020-09-14T14:38:52Z</time>
      </trkpt>
      <trkpt lat="42.70807" lon="0.54671">
        <ele>2591</ele>
        <time>2020-09-14T14:39:07Z</time>
      </trkpt>
      <trkpt lat="42.70813" lon="0.54675">
        <ele>2587.6000976562</ele>
        <time>2020-09-14T14:39:23Z</time>
      </trkpt>
      <trkpt lat="42.70846" lon="0.54709">
        <ele>2581.6000976562</ele>
        <time>2020-09-14T14:40:47Z</time>
      </trkpt>
      <trkpt lat="42.70858" lon="0.54708">
        <ele>2577.8000488281</ele>
        <time>2020-09-14T14:41:11Z</time>
      </trkpt>
      <trkpt lat="42.70875" lon="0.54705">
        <ele>2574.3999023438</ele>
        <time>2020-09-14T14:41:42Z</time>
      </trkpt>
      <trkpt lat="42.70881" lon="0.54702">
        <ele>2570.8000488281</ele>
        <time>2020-09-14T14:42:13Z</time>
      </trkpt>
      <trkpt lat="42.70889" lon="0.54696">
        <ele>2567</ele>
        <time>2020-09-14T14:42:35Z</time>
      </trkpt>
      <trkpt lat="42.70893" lon="0.54698">
        <ele>2564</ele>
        <time>2020-09-14T14:43:01Z</time>
      </trkpt>
      <trkpt lat="42.70925" lon="0.54732">
        <ele>2559.8000488281</ele>
        <time>2020-09-14T14:44:22Z</time>
      </trkpt>
      <trkpt lat="42.70933" lon="0.5473">
        <ele>2556.3999023438</ele>
        <time>2020-09-14T14:44:45Z</time>
      </trkpt>
      <trkpt lat="42.70945" lon="0.54742">
        <ele>2552.3999023438</ele>
        <time>2020-09-14T14:45:14Z</time>
      </trkpt>
      <trkpt lat="42.70955" lon="0.54747">
        <ele>2548.3999023438</ele>
        <time>2020-09-14T14:45:38Z</time>
      </trkpt>
      <trkpt lat="42.70993" lon="0.54769">
        <ele>2543.6000976562</ele>
        <time>2020-09-14T14:47:10Z</time>
      </trkpt>
      <trkpt lat="42.70995" lon="0.54773">
        <ele>2543.3999023438</ele>
        <time>2020-09-14T14:47:25Z</time>
      </trkpt>
      <trkpt lat="42.71012" lon="0.54797">
        <ele>2539.1999511719</ele>
        <time>2020-09-14T14:49:44Z</time>
      </trkpt>
      <trkpt lat="42.7102" lon="0.54787">
        <ele>2533.3999023438</ele>
        <time>2020-09-14T14:50:07Z</time>
      </trkpt>
      <trkpt lat="42.71027" lon="0.54776">
        <ele>2528.1999511719</ele>
        <time>2020-09-14T14:50:30Z</time>
      </trkpt>
      <trkpt lat="42.71036" lon="0.54773">
        <ele>2522.6000976562</ele>
        <time>2020-09-14T14:50:56Z</time>
      </trkpt>
      <trkpt lat="42.71039" lon="0.54776">
        <ele>2519.3999023438</ele>
        <time>2020-09-14T14:51:41Z</time>
      </trkpt>
      <trkpt lat="42.71048" lon="0.54785">
        <ele>2514.8000488281</ele>
        <time>2020-09-14T14:52:05Z</time>
      </trkpt>
      <trkpt lat="42.71048" lon="0.54785">
        <ele>2514.6000976562</ele>
        <time>2020-09-14T14:52:06Z</time>
      </trkpt>
      <trkpt lat="42.71061" lon="0.54781">
        <ele>2511</ele>
        <time>2020-09-14T14:52:24Z</time>
      </trkpt>
      <trkpt lat="42.71061" lon="0.54782">
        <ele>2510.8000488281</ele>
        <time>2020-09-14T14:52:25Z</time>
      </trkpt>
      <trkpt lat="42.7108" lon="0.54794">
        <ele>2505.3999023438</ele>
        <time>2020-09-14T14:52:56Z</time>
      </trkpt>
      <trkpt lat="42.7113" lon="0.54842">
        <ele>2511.3999023438</ele>
        <time>2020-09-14T14:56:41Z</time>
      </trkpt>
      <trkpt lat="42.71136" lon="0.54848">
        <ele>2514.6000976562</ele>
        <time>2020-09-14T14:57:15Z</time>
      </trkpt>
      <trkpt lat="42.71133" lon="0.54859">
        <ele>2519.8000488281</ele>
        <time>2020-09-14T14:57:48Z</time>
      </trkpt>
      <trkpt lat="42.71139" lon="0.54859">
        <ele>2522.8000488281</ele>
        <time>2020-09-14T14:58:02Z</time>
      </trkpt>
      <trkpt lat="42.71148" lon="0.54865">
        <ele>2526.8000488281</ele>
        <time>2020-09-14T14:58:32Z</time>
      </trkpt>
      <trkpt lat="42.71139" lon="0.54874">
        <ele>2530</ele>
        <time>2020-09-14T14:59:04Z</time>
      </trkpt>
      <trkpt lat="42.71142" lon="0.54883">
        <ele>2535.1999511719</ele>
        <time>2020-09-14T14:59:34Z</time>
      </trkpt>
      <trkpt lat="42.71145" lon="0.54892">
        <ele>2540</ele>
        <time>2020-09-14T15:00:04Z</time>
      </trkpt>
      <trkpt lat="42.71144" lon="0.54901">
        <ele>2544.8000488281</ele>
        <time>2020-09-14T15:00:34Z</time>
      </trkpt>
      <trkpt lat="42.71152" lon="0.54909">
        <ele>2550.3999023438</ele>
        <time>2020-09-14T15:01:49Z</time>
      </trkpt>
      <trkpt lat="42.71151" lon="0.5492">
        <ele>2556.1999511719</ele>
        <time>2020-09-14T15:02:19Z</time>
      </trkpt>
      <trkpt lat="42.71149" lon="0.54926">
        <ele>2559.1999511719</ele>
        <time>2020-09-14T15:02:37Z</time>
      </trkpt>
      <trkpt lat="42.71146" lon="0.54932">
        <ele>2563</ele>
        <time>2020-09-14T15:03:08Z</time>
      </trkpt>
      <trkpt lat="42.71148" lon="0.54939">
        <ele>2567.6000976562</ele>
        <time>2020-09-14T15:03:42Z</time>
      </trkpt>
      <trkpt lat="42.7114" lon="0.54945">
        <ele>2573</ele>
        <time>2020-09-14T15:04:07Z</time>
      </trkpt>
      <trkpt lat="42.71138" lon="0.54947">
        <ele>2576</ele>
        <time>2020-09-14T15:04:26Z</time>
      </trkpt>
      <trkpt lat="42.71133" lon="0.54949">
        <ele>2579.1999511719</ele>
        <time>2020-09-14T15:04:38Z</time>
      </trkpt>
      <trkpt lat="42.7113" lon="0.54954">
        <ele>2582.3999023438</ele>
        <time>2020-09-14T15:04:51Z</time>
      </trkpt>
      <trkpt lat="42.71163" lon="0.54952">
        <ele>2574.1999511719</ele>
        <time>2020-09-14T15:08:40Z</time>
      </trkpt>
      <trkpt lat="42.71168" lon="0.54949">
        <ele>2571.1999511719</ele>
        <time>2020-09-14T15:08:53Z</time>
      </trkpt>
      <trkpt lat="42.71176" lon="0.54947">
        <ele>2568</ele>
        <time>2020-09-14T15:09:05Z</time>
      </trkpt>
      <trkpt lat="42.71186" lon="0.54943">
        <ele>2564.8000488281</ele>
        <time>2020-09-14T15:09:18Z</time>
      </trkpt>
      <trkpt lat="42.71195" lon="0.5494">
        <ele>2560.8000488281</ele>
        <time>2020-09-14T15:09:37Z</time>
      </trkpt>
      <trkpt lat="42.7121" lon="0.54943">
        <ele>2556.3999023438</ele>
        <time>2020-09-14T15:10:01Z</time>
      </trkpt>
      <trkpt lat="42.7122" lon="0.54939">
        <ele>2550.6000976562</ele>
        <time>2020-09-14T15:10:26Z</time>
      </trkpt>
      <trkpt lat="42.71224" lon="0.54939">
        <ele>2547.3999023438</ele>
        <time>2020-09-14T15:10:35Z</time>
      </trkpt>
      <trkpt lat="42.71238" lon="0.54946">
        <ele>2541.3999023438</ele>
        <time>2020-09-14T15:10:58Z</time>
      </trkpt>
      <trkpt lat="42.71246" lon="0.54944">
        <ele>2536.3999023438</ele>
        <time>2020-09-14T15:11:25Z</time>
      </trkpt>
      <trkpt lat="42.71253" lon="0.54941">
        <ele>2532.1999511719</ele>
        <time>2020-09-14T15:11:51Z</time>
      </trkpt>
      <trkpt lat="42.71253" lon="0.54943">
        <ele>2532.1999511719</ele>
        <time>2020-09-14T15:11:54Z</time>
      </trkpt>
      <trkpt lat="42.71259" lon="0.54953">
        <ele>2526.6000976562</ele>
        <time>2020-09-14T15:12:42Z</time>
      </trkpt>
      <trkpt lat="42.71267" lon="0.54961">
        <ele>2520.6000976562</ele>
        <time>2020-09-14T15:13:09Z</time>
      </trkpt>
      <trkpt lat="42.71271" lon="0.54974">
        <ele>2515.6000976562</ele>
        <time>2020-09-14T15:13:28Z</time>
      </trkpt>
      <trkpt lat="42.71278" lon="0.54971">
        <ele>2512</ele>
        <time>2020-09-14T15:13:58Z</time>
      </trkpt>
      <trkpt lat="42.71285" lon="0.54971">
        <ele>2509</ele>
        <time>2020-09-14T15:14:13Z</time>
      </trkpt>
      <trkpt lat="42.71295" lon="0.54952">
        <ele>2504</ele>
        <time>2020-09-14T15:14:35Z</time>
      </trkpt>
      <trkpt lat="42.71299" lon="0.54952">
        <ele>2501</ele>
        <time>2020-09-14T15:14:46Z</time>
      </trkpt>
      <trkpt lat="42.71304" lon="0.54954">
        <ele>2496.3999023438</ele>
        <time>2020-09-14T15:15:11Z</time>
      </trkpt>
      <trkpt lat="42.71305" lon="0.54942">
        <ele>2492.8000488281</ele>
        <time>2020-09-14T15:15:34Z</time>
      </trkpt>
      <trkpt lat="42.71329" lon="0.54917">
        <ele>2488.3999023438</ele>
        <time>2020-09-14T15:16:27Z</time>
      </trkpt>
      <trkpt lat="42.71341" lon="0.54907">
        <ele>2484</ele>
        <time>2020-09-14T15:17:04Z</time>
      </trkpt>
      <trkpt lat="42.71348" lon="0.54909">
        <ele>2479</ele>
        <time>2020-09-14T15:17:31Z</time>
      </trkpt>
      <trkpt lat="42.71357" lon="0.54899">
        <ele>2474</ele>
        <time>2020-09-14T15:17:53Z</time>
      </trkpt>
      <trkpt lat="42.71377" lon="0.54896">
        <ele>2468.8000488281</ele>
        <time>2020-09-14T15:18:27Z</time>
      </trkpt>
      <trkpt lat="42.71379" lon="0.54896">
        <ele>2468.8000488281</ele>
        <time>2020-09-14T15:18:34Z</time>
      </trkpt>
      <trkpt lat="42.71389" lon="0.54901">
        <ele>2463.3999023438</ele>
        <time>2020-09-14T15:19:03Z</time>
      </trkpt>
      <trkpt lat="42.71393" lon="0.54902">
        <ele>2460.3999023438</ele>
        <time>2020-09-14T15:19:16Z</time>
      </trkpt>
      <trkpt lat="42.71395" lon="0.54906">
        <ele>2457.3999023438</ele>
        <time>2020-09-14T15:19:31Z</time>
      </trkpt>
      <trkpt lat="42.71405" lon="0.54914">
        <ele>2454.1999511719</ele>
        <time>2020-09-14T15:20:00Z</time>
      </trkpt>
      <trkpt lat="42.71408" lon="0.54914">
        <ele>2454</ele>
        <time>2020-09-14T15:20:03Z</time>
      </trkpt>
      <trkpt lat="42.71453" lon="0.54915">
        <ele>2451</ele>
        <time>2020-09-14T15:20:45Z</time>
      </trkpt>
      <trkpt lat="42.71473" lon="0.5491">
        <ele>2446.6000976562</ele>
        <time>2020-09-14T15:21:06Z</time>
      </trkpt>
      <trkpt lat="42.71485" lon="0.5491">
        <ele>2425</ele>
        <time>2020-09-15T04:24:06Z</time>
      </trkpt>
      <trkpt lat="42.71485" lon="0.5491">
        <ele>2425.1999511719</ele>
        <time>2020-09-15T04:24:07Z</time>
      </trkpt>
      <trkpt lat="42.71449" lon="0.54916">
        <ele>2428.8000488281</ele>
        <time>2020-09-15T04:25:52Z</time>
      </trkpt>
      <trkpt lat="42.71422" lon="0.5491">
        <ele>2433.3999023438</ele>
        <time>2020-09-15T04:27:19Z</time>
      </trkpt>
      <trkpt lat="42.71389" lon="0.54901">
        <ele>2438.6000976562</ele>
        <time>2020-09-15T04:28:56Z</time>
      </trkpt>
      <trkpt lat="42.71386" lon="0.54895">
        <ele>2443.6000976562</ele>
        <time>2020-09-15T04:29:28Z</time>
      </trkpt>
      <trkpt lat="42.71377" lon="0.54891">
        <ele>2448.6000976562</ele>
        <time>2020-09-15T04:29:59Z</time>
      </trkpt>
      <trkpt lat="42.71368" lon="0.54882">
        <ele>2453</ele>
        <time>2020-09-15T04:30:36Z</time>
      </trkpt>
      <trkpt lat="42.7136" lon="0.54882">
        <ele>2457.8000488281</ele>
        <time>2020-09-15T04:31:07Z</time>
      </trkpt>
      <trkpt lat="42.71352" lon="0.54883">
        <ele>2461.8000488281</ele>
        <time>2020-09-15T04:31:42Z</time>
      </trkpt>
      <trkpt lat="42.71346" lon="0.54876">
        <ele>2468</ele>
        <time>2020-09-15T04:33:11Z</time>
      </trkpt>
      <trkpt lat="42.71341" lon="0.54871">
        <ele>2472.6000976562</ele>
        <time>2020-09-15T04:33:40Z</time>
      </trkpt>
      <trkpt lat="42.71336" lon="0.54871">
        <ele>2475.8000488281</ele>
        <time>2020-09-15T04:33:57Z</time>
      </trkpt>
      <trkpt lat="42.71327" lon="0.54875">
        <ele>2479.6000976562</ele>
        <time>2020-09-15T04:34:43Z</time>
      </trkpt>
      <trkpt lat="42.71322" lon="0.54872">
        <ele>2482.6000976562</ele>
        <time>2020-09-15T04:34:57Z</time>
      </trkpt>
      <trkpt lat="42.7131" lon="0.54885">
        <ele>2486.8000488281</ele>
        <time>2020-09-15T04:35:27Z</time>
      </trkpt>
      <trkpt lat="42.71304" lon="0.54885">
        <ele>2489.8000488281</ele>
        <time>2020-09-15T04:36:04Z</time>
      </trkpt>
      <trkpt lat="42.71297" lon="0.549">
        <ele>2493</ele>
        <time>2020-09-15T04:36:47Z</time>
      </trkpt>
      <trkpt lat="42.71287" lon="0.54902">
        <ele>2497.1999511719</ele>
        <time>2020-09-15T04:37:12Z</time>
      </trkpt>
      <trkpt lat="42.71276" lon="0.54911">
        <ele>2502</ele>
        <time>2020-09-15T04:37:44Z</time>
      </trkpt>
      <trkpt lat="42.71266" lon="0.54917">
        <ele>2506</ele>
        <time>2020-09-15T04:38:13Z</time>
      </trkpt>
      <trkpt lat="42.71256" lon="0.54924">
        <ele>2509.1999511719</ele>
        <time>2020-09-15T04:39:03Z</time>
      </trkpt>
      <trkpt lat="42.71245" lon="0.54937">
        <ele>2513.1999511719</ele>
        <time>2020-09-15T04:39:35Z</time>
      </trkpt>
      <trkpt lat="42.71235" lon="0.54941">
        <ele>2518.3999023438</ele>
        <time>2020-09-15T04:40:09Z</time>
      </trkpt>
      <trkpt lat="42.71225" lon="0.54943">
        <ele>2523.6000976562</ele>
        <time>2020-09-15T04:40:40Z</time>
      </trkpt>
      <trkpt lat="42.71215" lon="0.54945">
        <ele>2527</ele>
        <time>2020-09-15T04:41:13Z</time>
      </trkpt>
      <trkpt lat="42.71205" lon="0.54948">
        <ele>2532.3999023438</ele>
        <time>2020-09-15T04:41:50Z</time>
      </trkpt>
      <trkpt lat="42.71192" lon="0.54952">
        <ele>2537.1999511719</ele>
        <time>2020-09-15T04:42:22Z</time>
      </trkpt>
      <trkpt lat="42.71181" lon="0.54957">
        <ele>2541.3999023438</ele>
        <time>2020-09-15T04:42:53Z</time>
      </trkpt>
      <trkpt lat="42.71168" lon="0.54953">
        <ele>2545.6000976562</ele>
        <time>2020-09-15T04:43:31Z</time>
      </trkpt>
      <trkpt lat="42.71158" lon="0.54955">
        <ele>2549.6000976562</ele>
        <time>2020-09-15T04:44:01Z</time>
      </trkpt>
      <trkpt lat="42.71149" lon="0.54956">
        <ele>2554</ele>
        <time>2020-09-15T04:44:30Z</time>
      </trkpt>
      <trkpt lat="42.7114" lon="0.54957">
        <ele>2557.8000488281</ele>
        <time>2020-09-15T04:44:58Z</time>
      </trkpt>
      <trkpt lat="42.71129" lon="0.54957">
        <ele>2562.6000976562</ele>
        <time>2020-09-15T04:45:29Z</time>
      </trkpt>
      <trkpt lat="42.71123" lon="0.54957">
        <ele>2565.8000488281</ele>
        <time>2020-09-15T04:47:04Z</time>
      </trkpt>
      <trkpt lat="42.71136" lon="0.54944">
        <ele>2556.3999023438</ele>
        <time>2020-09-15T04:52:22Z</time>
      </trkpt>
      <trkpt lat="42.71136" lon="0.54944">
        <ele>2556.1999511719</ele>
        <time>2020-09-15T04:52:23Z</time>
      </trkpt>
      <trkpt lat="42.71141" lon="0.54938">
        <ele>2552</ele>
        <time>2020-09-15T04:52:57Z</time>
      </trkpt>
      <trkpt lat="42.71142" lon="0.5493">
        <ele>2547.1999511719</ele>
        <time>2020-09-15T04:53:32Z</time>
      </trkpt>
      <trkpt lat="42.71142" lon="0.54926">
        <ele>2544</ele>
        <time>2020-09-15T04:54:03Z</time>
      </trkpt>
      <trkpt lat="42.71145" lon="0.5492">
        <ele>2539.3999023438</ele>
        <time>2020-09-15T04:54:32Z</time>
      </trkpt>
      <trkpt lat="42.71146" lon="0.54913">
        <ele>2534.8000488281</ele>
        <time>2020-09-15T04:55:02Z</time>
      </trkpt>
      <trkpt lat="42.71145" lon="0.54905">
        <ele>2531.8000488281</ele>
        <time>2020-09-15T04:55:19Z</time>
      </trkpt>
      <trkpt lat="42.7114" lon="0.54905">
        <ele>2528.8000488281</ele>
        <time>2020-09-15T04:55:32Z</time>
      </trkpt>
      <trkpt lat="42.71138" lon="0.54896">
        <ele>2524.8000488281</ele>
        <time>2020-09-15T04:56:01Z</time>
      </trkpt>
      <trkpt lat="42.71134" lon="0.54888">
        <ele>2520.3999023438</ele>
        <time>2020-09-15T04:56:32Z</time>
      </trkpt>
      <trkpt lat="42.71131" lon="0.54879">
        <ele>2515.3999023438</ele>
        <time>2020-09-15T04:57:02Z</time>
      </trkpt>
      <trkpt lat="42.71139" lon="0.54868">
        <ele>2510</ele>
        <time>2020-09-15T04:57:33Z</time>
      </trkpt>
      <trkpt lat="42.71129" lon="0.54865">
        <ele>2505.3999023438</ele>
        <time>2020-09-15T04:58:03Z</time>
      </trkpt>
      <trkpt lat="42.71122" lon="0.54861">
        <ele>2502.3999023438</ele>
        <time>2020-09-15T04:58:19Z</time>
      </trkpt>
      <trkpt lat="42.71129" lon="0.54847">
        <ele>2496.6000976562</ele>
        <time>2020-09-15T04:58:51Z</time>
      </trkpt>
      <trkpt lat="42.7112" lon="0.54845">
        <ele>2493.6000976562</ele>
        <time>2020-09-15T04:59:07Z</time>
      </trkpt>
      <trkpt lat="42.71104" lon="0.54835">
        <ele>2489.8000488281</ele>
        <time>2020-09-15T04:59:40Z</time>
      </trkpt>
      <trkpt lat="42.7109" lon="0.54803">
        <ele>2486</ele>
        <time>2020-09-15T05:00:21Z</time>
      </trkpt>
      <trkpt lat="42.71088" lon="0.54801">
        <ele>2485.8000488281</ele>
        <time>2020-09-15T05:00:35Z</time>
      </trkpt>
      <trkpt lat="42.71056" lon="0.54798">
        <ele>2493.6000976562</ele>
        <time>2020-09-15T05:02:50Z</time>
      </trkpt>
      <trkpt lat="42.71056" lon="0.54799">
        <ele>2493.6000976562</ele>
        <time>2020-09-15T05:02:51Z</time>
      </trkpt>
      <trkpt lat="42.71037" lon="0.5478">
        <ele>2496.8000488281</ele>
        <time>2020-09-15T05:03:51Z</time>
      </trkpt>
      <trkpt lat="42.71012" lon="0.54736">
        <ele>2502.6000976562</ele>
        <time>2020-09-15T05:06:15Z</time>
      </trkpt>
      <trkpt lat="42.71003" lon="0.54726">
        <ele>2506.6000976562</ele>
        <time>2020-09-15T05:06:56Z</time>
      </trkpt>
      <trkpt lat="42.70996" lon="0.54722">
        <ele>2510.8000488281</ele>
        <time>2020-09-15T05:07:23Z</time>
      </trkpt>
      <trkpt lat="42.7099" lon="0.54715">
        <ele>2514.3999023438</ele>
        <time>2020-09-15T05:07:49Z</time>
      </trkpt>
      <trkpt lat="42.70976" lon="0.54707">
        <ele>2518.3999023438</ele>
        <time>2020-09-15T05:08:37Z</time>
      </trkpt>
      <trkpt lat="42.70964" lon="0.547">
        <ele>2522.8000488281</ele>
        <time>2020-09-15T05:09:19Z</time>
      </trkpt>
      <trkpt lat="42.70958" lon="0.54701">
        <ele>2526.3999023438</ele>
        <time>2020-09-15T05:09:47Z</time>
      </trkpt>
      <trkpt lat="42.70947" lon="0.54691">
        <ele>2530.6000976562</ele>
        <time>2020-09-15T05:10:32Z</time>
      </trkpt>
      <trkpt lat="42.70938" lon="0.5469">
        <ele>2533.6000976562</ele>
        <time>2020-09-15T05:11:05Z</time>
      </trkpt>
      <trkpt lat="42.70931" lon="0.54686">
        <ele>2533.6000976562</ele>
        <time>2020-09-15T05:11:20Z</time>
      </trkpt>
      <trkpt lat="42.70907" lon="0.54662">
        <ele>2537.3999023438</ele>
        <time>2020-09-15T05:12:40Z</time>
      </trkpt>
      <trkpt lat="42.7089" lon="0.54661">
        <ele>2541.1999511719</ele>
        <time>2020-09-15T05:13:26Z</time>
      </trkpt>
      <trkpt lat="42.70874" lon="0.54638">
        <ele>2544.1999511719</ele>
        <time>2020-09-15T05:14:27Z</time>
      </trkpt>
      <trkpt lat="42.70874" lon="0.54639">
        <ele>2544.3999023438</ele>
        <time>2020-09-15T05:14:39Z</time>
      </trkpt>
      <trkpt lat="42.70859" lon="0.54644">
        <ele>2549.8000488281</ele>
        <time>2020-09-15T05:20:07Z</time>
      </trkpt>
      <trkpt lat="42.70858" lon="0.54645">
        <ele>2549.8000488281</ele>
        <time>2020-09-15T05:20:08Z</time>
      </trkpt>
      <trkpt lat="42.70846" lon="0.54648">
        <ele>2553.3999023438</ele>
        <time>2020-09-15T05:20:39Z</time>
      </trkpt>
      <trkpt lat="42.70837" lon="0.54648">
        <ele>2556.3999023438</ele>
        <time>2020-09-15T05:20:55Z</time>
      </trkpt>
      <trkpt lat="42.70814" lon="0.54645">
        <ele>2562.6000976562</ele>
        <time>2020-09-15T05:21:58Z</time>
      </trkpt>
      <trkpt lat="42.708" lon="0.5463">
        <ele>2567.8000488281</ele>
        <time>2020-09-15T05:22:35Z</time>
      </trkpt>
      <trkpt lat="42.70778" lon="0.54612">
        <ele>2571.8000488281</ele>
        <time>2020-09-15T05:23:23Z</time>
      </trkpt>
      <trkpt lat="42.70774" lon="0.54611">
        <ele>2571.8000488281</ele>
        <time>2020-09-15T05:23:37Z</time>
      </trkpt>
      <trkpt lat="42.7076" lon="0.54595">
        <ele>2576</ele>
        <time>2020-09-15T05:24:21Z</time>
      </trkpt>
      <trkpt lat="42.70752" lon="0.54574">
        <ele>2579.8000488281</ele>
        <time>2020-09-15T05:25:03Z</time>
      </trkpt>
      <trkpt lat="42.70748" lon="0.54558">
        <ele>2583.3999023438</ele>
        <time>2020-09-15T05:25:33Z</time>
      </trkpt>
      <trkpt lat="42.70746" lon="0.54539">
        <ele>2586.3999023438</ele>
        <time>2020-09-15T05:26:02Z</time>
      </trkpt>
      <trkpt lat="42.7074" lon="0.54511">
        <ele>2590.3999023438</ele>
        <time>2020-09-15T05:26:59Z</time>
      </trkpt>
      <trkpt lat="42.70739" lon="0.54504">
        <ele>2593.6000976562</ele>
        <time>2020-09-15T05:27:34Z</time>
      </trkpt>
      <trkpt lat="42.70736" lon="0.54499">
        <ele>2596.6000976562</ele>
        <time>2020-09-15T05:27:48Z</time>
      </trkpt>
      <trkpt lat="42.70736" lon="0.54492">
        <ele>2599.6000976562</ele>
        <time>2020-09-15T05:28:02Z</time>
      </trkpt>
      <trkpt lat="42.70737" lon="0.54474">
        <ele>2604.3999023438</ele>
        <time>2020-09-15T05:28:33Z</time>
      </trkpt>
      <trkpt lat="42.70735" lon="0.5447">
        <ele>2607.3999023438</ele>
        <time>2020-09-15T05:28:49Z</time>
      </trkpt>
      <trkpt lat="42.70577" lon="0.54386">
        <ele>2613.8000488281</ele>
        <time>2020-09-15T05:36:47Z</time>
      </trkpt>
      <trkpt lat="42.70563" lon="0.54382">
        <ele>2618.1999511719</ele>
        <time>2020-09-15T05:37:22Z</time>
      </trkpt>
      <trkpt lat="42.70554" lon="0.54367">
        <ele>2621.3999023438</ele>
        <time>2020-09-15T05:37:50Z</time>
      </trkpt>
      <trkpt lat="42.70546" lon="0.54353">
        <ele>2624.8000488281</ele>
        <time>2020-09-15T05:38:22Z</time>
      </trkpt>
      <trkpt lat="42.70541" lon="0.54347">
        <ele>2628</ele>
        <time>2020-09-15T05:38:52Z</time>
      </trkpt>
      <trkpt lat="42.70536" lon="0.54332">
        <ele>2632.6000976562</ele>
        <time>2020-09-15T05:39:19Z</time>
      </trkpt>
      <trkpt lat="42.70529" lon="0.54325">
        <ele>2636.1999511719</ele>
        <time>2020-09-15T05:39:46Z</time>
      </trkpt>
      <trkpt lat="42.70515" lon="0.54333">
        <ele>2639.8000488281</ele>
        <time>2020-09-15T05:40:17Z</time>
      </trkpt>
      <trkpt lat="42.70501" lon="0.54333">
        <ele>2644.1999511719</ele>
        <time>2020-09-15T05:40:50Z</time>
      </trkpt>
      <trkpt lat="42.70494" lon="0.54325">
        <ele>2649.3999023438</ele>
        <time>2020-09-15T05:41:22Z</time>
      </trkpt>
      <trkpt lat="42.70488" lon="0.54331">
        <ele>2652.3999023438</ele>
        <time>2020-09-15T05:41:36Z</time>
      </trkpt>
      <trkpt lat="42.70483" lon="0.54316">
        <ele>2657</ele>
        <time>2020-09-15T05:42:09Z</time>
      </trkpt>
      <trkpt lat="42.7048" lon="0.54301">
        <ele>2662</ele>
        <time>2020-09-15T05:42:39Z</time>
      </trkpt>
      <trkpt lat="42.70475" lon="0.54291">
        <ele>2665.6000976562</ele>
        <time>2020-09-15T05:43:06Z</time>
      </trkpt>
      <trkpt lat="42.70466" lon="0.54287">
        <ele>2670.1999511719</ele>
        <time>2020-09-15T05:43:39Z</time>
      </trkpt>
      <trkpt lat="42.70462" lon="0.54279">
        <ele>2674.6000976562</ele>
        <time>2020-09-15T05:44:08Z</time>
      </trkpt>
      <trkpt lat="42.70458" lon="0.54269">
        <ele>2677.8000488281</ele>
        <time>2020-09-15T05:44:34Z</time>
      </trkpt>
      <trkpt lat="42.70453" lon="0.54255">
        <ele>2681.1999511719</ele>
        <time>2020-09-15T05:45:00Z</time>
      </trkpt>
      <trkpt lat="42.70445" lon="0.54243">
        <ele>2685</ele>
        <time>2020-09-15T05:45:29Z</time>
      </trkpt>
      <trkpt lat="42.70432" lon="0.54229">
        <ele>2689</ele>
        <time>2020-09-15T05:45:59Z</time>
      </trkpt>
      <trkpt lat="42.70425" lon="0.5422">
        <ele>2692</ele>
        <time>2020-09-15T05:46:26Z</time>
      </trkpt>
      <trkpt lat="42.70407" lon="0.54171">
        <ele>2695.3999023438</ele>
        <time>2020-09-15T05:47:32Z</time>
      </trkpt>
      <trkpt lat="42.7039" lon="0.54146">
        <ele>2699</ele>
        <time>2020-09-15T05:48:30Z</time>
      </trkpt>
      <trkpt lat="42.70375" lon="0.54127">
        <ele>2703</ele>
        <time>2020-09-15T05:49:12Z</time>
      </trkpt>
      <trkpt lat="42.70362" lon="0.5411">
        <ele>2706.8000488281</ele>
        <time>2020-09-15T05:49:54Z</time>
      </trkpt>
      <trkpt lat="42.70359" lon="0.54105">
        <ele>2710.8000488281</ele>
        <time>2020-09-15T05:50:19Z</time>
      </trkpt>
      <trkpt lat="42.70358" lon="0.54081">
        <ele>2714.6000976562</ele>
        <time>2020-09-15T05:51:03Z</time>
      </trkpt>
      <trkpt lat="42.70361" lon="0.5407">
        <ele>2714.8000488281</ele>
        <time>2020-09-15T05:51:17Z</time>
      </trkpt>
      <trkpt lat="42.70353" lon="0.54068">
        <ele>2717.8000488281</ele>
        <time>2020-09-15T05:51:44Z</time>
      </trkpt>
      <trkpt lat="42.70348" lon="0.54062">
        <ele>2722.6000976562</ele>
        <time>2020-09-15T05:52:16Z</time>
      </trkpt>
      <trkpt lat="42.7034" lon="0.54048">
        <ele>2727</ele>
        <time>2020-09-15T05:52:47Z</time>
      </trkpt>
      <trkpt lat="42.70334" lon="0.54039">
        <ele>2731.6000976562</ele>
        <time>2020-09-15T05:53:18Z</time>
      </trkpt>
      <trkpt lat="42.70317" lon="0.54005">
        <ele>2734.6000976562</ele>
        <time>2020-09-15T05:54:16Z</time>
      </trkpt>
      <trkpt lat="42.70316" lon="0.53951">
        <ele>2733.8000488281</ele>
        <time>2020-09-15T05:55:47Z</time>
      </trkpt>
      <trkpt lat="42.70313" lon="0.53941">
        <ele>2737</ele>
        <time>2020-09-15T05:56:14Z</time>
      </trkpt>
      <trkpt lat="42.70309" lon="0.53931">
        <ele>2741.1999511719</ele>
        <time>2020-09-15T05:56:40Z</time>
      </trkpt>
      <trkpt lat="42.70305" lon="0.53919">
        <ele>2745.3999023438</ele>
        <time>2020-09-15T05:57:07Z</time>
      </trkpt>
      <trkpt lat="42.70298" lon="0.53909">
        <ele>2750</ele>
        <time>2020-09-15T05:57:49Z</time>
      </trkpt>
      <trkpt lat="42.70292" lon="0.53911">
        <ele>2754.6000976562</ele>
        <time>2020-09-15T05:58:15Z</time>
      </trkpt>
      <trkpt lat="42.70289" lon="0.53901">
        <ele>2758.8000488281</ele>
        <time>2020-09-15T05:58:53Z</time>
      </trkpt>
      <trkpt lat="42.70285" lon="0.53895">
        <ele>2764</ele>
        <time>2020-09-15T05:59:30Z</time>
      </trkpt>
      <trkpt lat="42.70279" lon="0.53892">
        <ele>2769.6000976562</ele>
        <time>2020-09-15T06:00:24Z</time>
      </trkpt>
      <trkpt lat="42.70276" lon="0.53881">
        <ele>2773.8000488281</ele>
        <time>2020-09-15T06:01:07Z</time>
      </trkpt>
      <trkpt lat="42.70279" lon="0.53868">
        <ele>2777.6000976562</ele>
        <time>2020-09-15T06:01:34Z</time>
      </trkpt>
      <trkpt lat="42.70282" lon="0.53856">
        <ele>2781.6000976562</ele>
        <time>2020-09-15T06:02:07Z</time>
      </trkpt>
      <trkpt lat="42.70319" lon="0.53846">
        <ele>2788.3999023438</ele>
        <time>2020-09-15T06:04:14Z</time>
      </trkpt>
      <trkpt lat="42.70318" lon="0.53839">
        <ele>2792.1999511719</ele>
        <time>2020-09-15T06:04:42Z</time>
      </trkpt>
      <trkpt lat="42.70317" lon="0.53838">
        <ele>2792.1999511719</ele>
        <time>2020-09-15T06:05:13Z</time>
      </trkpt>
      <trkpt lat="42.70317" lon="0.53831">
        <ele>2789</ele>
        <time>2020-09-15T06:14:20Z</time>
      </trkpt>
      <trkpt lat="42.70311" lon="0.53822">
        <ele>2785.3999023438</ele>
        <time>2020-09-15T06:14:47Z</time>
      </trkpt>
      <trkpt lat="42.70305" lon="0.53817">
        <ele>2781.6000976562</ele>
        <time>2020-09-15T06:15:49Z</time>
      </trkpt>
      <trkpt lat="42.70302" lon="0.53814">
        <ele>2781.3999023438</ele>
        <time>2020-09-15T06:16:05Z</time>
      </trkpt>
      <trkpt lat="42.70281" lon="0.53802">
        <ele>2785</ele>
        <time>2020-09-15T06:17:01Z</time>
      </trkpt>
      <trkpt lat="42.70276" lon="0.53799">
        <ele>2788.3999023438</ele>
        <time>2020-09-15T06:17:27Z</time>
      </trkpt>
      <trkpt lat="42.70268" lon="0.53794">
        <ele>2792.3999023438</ele>
        <time>2020-09-15T06:17:57Z</time>
      </trkpt>
      <trkpt lat="42.70263" lon="0.53791">
        <ele>2796</ele>
        <time>2020-09-15T06:18:26Z</time>
      </trkpt>
      <trkpt lat="42.70257" lon="0.53794">
        <ele>2800</ele>
        <time>2020-09-15T06:18:59Z</time>
      </trkpt>
      <trkpt lat="42.70251" lon="0.53789">
        <ele>2803.8000488281</ele>
        <time>2020-09-15T06:19:29Z</time>
      </trkpt>
      <trkpt lat="42.70244" lon="0.53782">
        <ele>2807.1999511719</ele>
        <time>2020-09-15T06:20:00Z</time>
      </trkpt>
      <trkpt lat="42.70237" lon="0.53785">
        <ele>2811.8000488281</ele>
        <time>2020-09-15T06:20:34Z</time>
      </trkpt>
      <trkpt lat="42.70229" lon="0.5378">
        <ele>2817</ele>
        <time>2020-09-15T06:21:13Z</time>
      </trkpt>
      <trkpt lat="42.70224" lon="0.53783">
        <ele>2820.3999023438</ele>
        <time>2020-09-15T06:21:41Z</time>
      </trkpt>
      <trkpt lat="42.70216" lon="0.53784">
        <ele>2825.1999511719</ele>
        <time>2020-09-15T06:22:14Z</time>
      </trkpt>
      <trkpt lat="42.70215" lon="0.53792">
        <ele>2829.8000488281</ele>
        <time>2020-09-15T06:22:49Z</time>
      </trkpt>
      <trkpt lat="42.70211" lon="0.53795">
        <ele>2834.3999023438</ele>
        <time>2020-09-15T06:23:24Z</time>
      </trkpt>
      <trkpt lat="42.70207" lon="0.538">
        <ele>2838</ele>
        <time>2020-09-15T06:24:06Z</time>
      </trkpt>
      <trkpt lat="42.70203" lon="0.53807">
        <ele>2843.6000976562</ele>
        <time>2020-09-15T06:24:40Z</time>
      </trkpt>
      <trkpt lat="42.70217" lon="0.53826">
        <ele>2848</ele>
        <time>2020-09-15T06:25:41Z</time>
      </trkpt>
      <trkpt lat="42.70209" lon="0.5383">
        <ele>2852.3999023438</ele>
        <time>2020-09-15T06:26:11Z</time>
      </trkpt>
      <trkpt lat="42.70198" lon="0.5382">
        <ele>2855.8000488281</ele>
        <time>2020-09-15T06:26:40Z</time>
      </trkpt>
      <trkpt lat="42.70183" lon="0.538">
        <ele>2860.1999511719</ele>
        <time>2020-09-15T06:27:23Z</time>
      </trkpt>
      <trkpt lat="42.70168" lon="0.53781">
        <ele>2866.3999023438</ele>
        <time>2020-09-15T06:28:26Z</time>
      </trkpt>
      <trkpt lat="42.70158" lon="0.53759">
        <ele>2870.3999023438</ele>
        <time>2020-09-15T06:29:05Z</time>
      </trkpt>
      <trkpt lat="42.70151" lon="0.53745">
        <ele>2874.1999511719</ele>
        <time>2020-09-15T06:29:33Z</time>
      </trkpt>
      <trkpt lat="42.70144" lon="0.5374">
        <ele>2878.8000488281</ele>
        <time>2020-09-15T06:30:08Z</time>
      </trkpt>
      <trkpt lat="42.70135" lon="0.5373">
        <ele>2883</ele>
        <time>2020-09-15T06:30:44Z</time>
      </trkpt>
      <trkpt lat="42.70126" lon="0.53718">
        <ele>2887.6000976562</ele>
        <time>2020-09-15T06:31:17Z</time>
      </trkpt>
      <trkpt lat="42.701" lon="0.53663">
        <ele>2892.8000488281</ele>
        <time>2020-09-15T06:32:48Z</time>
      </trkpt>
      <trkpt lat="42.70097" lon="0.53641">
        <ele>2897.8000488281</ele>
        <time>2020-09-15T06:33:33Z</time>
      </trkpt>
      <trkpt lat="42.70095" lon="0.53622">
        <ele>2901.8000488281</ele>
        <time>2020-09-15T06:34:08Z</time>
      </trkpt>
      <trkpt lat="42.70095" lon="0.53588">
        <ele>2907.1999511719</ele>
        <time>2020-09-15T06:35:01Z</time>
      </trkpt>
      <trkpt lat="42.70094" lon="0.53569">
        <ele>2910.6000976562</ele>
        <time>2020-09-15T06:35:34Z</time>
      </trkpt>
      <trkpt lat="42.70093" lon="0.53556">
        <ele>2914</ele>
        <time>2020-09-15T06:36:22Z</time>
      </trkpt>
      <trkpt lat="42.70088" lon="0.53545">
        <ele>2918.8000488281</ele>
        <time>2020-09-15T06:36:55Z</time>
      </trkpt>
      <trkpt lat="42.70085" lon="0.53531">
        <ele>2923.3999023438</ele>
        <time>2020-09-15T06:38:43Z</time>
      </trkpt>
      <trkpt lat="42.70082" lon="0.53522">
        <ele>2926.8000488281</ele>
        <time>2020-09-15T06:39:09Z</time>
      </trkpt>
      <trkpt lat="42.70078" lon="0.53514">
        <ele>2931</ele>
        <time>2020-09-15T06:39:47Z</time>
      </trkpt>
      <trkpt lat="42.70068" lon="0.53503">
        <ele>2934.8000488281</ele>
        <time>2020-09-15T06:40:23Z</time>
      </trkpt>
      <trkpt lat="42.70064" lon="0.53498">
        <ele>2938.8000488281</ele>
        <time>2020-09-15T06:40:53Z</time>
      </trkpt>
      <trkpt lat="42.70062" lon="0.53493">
        <ele>2942.6000976562</ele>
        <time>2020-09-15T06:41:26Z</time>
      </trkpt>
      <trkpt lat="42.70057" lon="0.53495">
        <ele>2946</ele>
        <time>2020-09-15T06:41:59Z</time>
      </trkpt>
      <trkpt lat="42.70053" lon="0.53494">
        <ele>2949</ele>
        <time>2020-09-15T06:42:20Z</time>
      </trkpt>
      <trkpt lat="42.70049" lon="0.53491">
        <ele>2952.1999511719</ele>
        <time>2020-09-15T06:42:51Z</time>
      </trkpt>
      <trkpt lat="42.70046" lon="0.53489">
        <ele>2955.1999511719</ele>
        <time>2020-09-15T06:43:10Z</time>
      </trkpt>
      <trkpt lat="42.70043" lon="0.53474">
        <ele>2959.1999511719</ele>
        <time>2020-09-15T06:43:55Z</time>
      </trkpt>
      <trkpt lat="42.7004" lon="0.5346">
        <ele>2962.3999023438</ele>
        <time>2020-09-15T06:44:25Z</time>
      </trkpt>
      <trkpt lat="42.70039" lon="0.53451">
        <ele>2967</ele>
        <time>2020-09-15T06:45:03Z</time>
      </trkpt>
      <trkpt lat="42.70036" lon="0.5345">
        <ele>2972.1999511719</ele>
        <time>2020-09-15T06:45:38Z</time>
      </trkpt>
      <trkpt lat="42.70035" lon="0.53446">
        <ele>2975.3999023438</ele>
        <time>2020-09-15T06:45:56Z</time>
      </trkpt>
      <trkpt lat="42.70035" lon="0.53438">
        <ele>2980.3999023438</ele>
        <time>2020-09-15T06:46:29Z</time>
      </trkpt>
      <trkpt lat="42.70063" lon="0.53375">
        <ele>2985</ele>
        <time>2020-09-15T07:03:12Z</time>
      </trkpt>
      <trkpt lat="42.70074" lon="0.53358">
        <ele>2988.1999511719</ele>
        <time>2020-09-15T07:03:50Z</time>
      </trkpt>
      <trkpt lat="42.70087" lon="0.53344">
        <ele>2991.6000976562</ele>
        <time>2020-09-15T07:04:43Z</time>
      </trkpt>
      <trkpt lat="42.70152" lon="0.53259">
        <ele>2995</ele>
        <time>2020-09-15T07:12:04Z</time>
      </trkpt>
      <trkpt lat="42.70154" lon="0.53257">
        <ele>2994.6000976562</ele>
        <time>2020-09-15T07:12:18Z</time>
      </trkpt>
      <trkpt lat="42.70165" lon="0.5324">
        <ele>2998.3999023438</ele>
        <time>2020-09-15T07:13:28Z</time>
      </trkpt>
      <trkpt lat="42.70171" lon="0.53231">
        <ele>3001.3999023438</ele>
        <time>2020-09-15T07:13:52Z</time>
      </trkpt>
      <trkpt lat="42.7019" lon="0.53185">
        <ele>2999.8000488281</ele>
        <time>2020-09-15T07:19:45Z</time>
      </trkpt>
      <trkpt lat="42.70189" lon="0.53184">
        <ele>3003.6000976562</ele>
        <time>2020-09-15T07:25:49Z</time>
      </trkpt>
      <trkpt lat="42.70189" lon="0.53184">
        <ele>3003.6000976562</ele>
        <time>2020-09-15T07:25:50Z</time>
      </trkpt>
      <trkpt lat="42.70191" lon="0.53181">
        <ele>3006.8000488281</ele>
        <time>2020-09-15T07:26:51Z</time>
      </trkpt>
      <trkpt lat="42.702" lon="0.53175">
        <ele>3003.8000488281</ele>
        <time>2020-09-15T07:32:15Z</time>
      </trkpt>
      <trkpt lat="42.70206" lon="0.53164">
        <ele>3000.1999511719</ele>
        <time>2020-09-15T07:36:42Z</time>
      </trkpt>
      <trkpt lat="42.70205" lon="0.53163">
        <ele>3000</ele>
        <time>2020-09-15T07:36:58Z</time>
      </trkpt>
      <trkpt lat="42.70208" lon="0.53154">
        <ele>3003.1999511719</ele>
        <time>2020-09-15T07:39:02Z</time>
      </trkpt>
      <trkpt lat="42.70208" lon="0.53154">
        <ele>3003.3999023438</ele>
        <time>2020-09-15T07:39:03Z</time>
      </trkpt>
      <trkpt lat="42.7021" lon="0.5315">
        <ele>3007</ele>
        <time>2020-09-15T07:39:44Z</time>
      </trkpt>
      <trkpt lat="42.70213" lon="0.53145">
        <ele>3011.1999511719</ele>
        <time>2020-09-15T07:40:38Z</time>
      </trkpt>
      <trkpt lat="42.70213" lon="0.53144">
        <ele>3014.1999511719</ele>
        <time>2020-09-15T07:41:08Z</time>
      </trkpt>
      <trkpt lat="42.70214" lon="0.53138">
        <ele>3017.3999023438</ele>
        <time>2020-09-15T07:41:38Z</time>
      </trkpt>
      <trkpt lat="42.70217" lon="0.53133">
        <ele>3021.8000488281</ele>
        <time>2020-09-15T07:42:08Z</time>
      </trkpt>
      <trkpt lat="42.70226" lon="0.53113">
        <ele>3027.8000488281</ele>
        <time>2020-09-15T07:43:36Z</time>
      </trkpt>
      <trkpt lat="42.70226" lon="0.53111">
        <ele>3028</ele>
        <time>2020-09-15T07:43:49Z</time>
      </trkpt>
      <trkpt lat="42.70228" lon="0.53105">
        <ele>3031.3999023438</ele>
        <time>2020-09-15T07:44:31Z</time>
      </trkpt>
      <trkpt lat="42.70231" lon="0.53101">
        <ele>3035.3999023438</ele>
        <time>2020-09-15T07:45:06Z</time>
      </trkpt>
      <trkpt lat="42.70236" lon="0.53091">
        <ele>3039.1999511719</ele>
        <time>2020-09-15T07:46:03Z</time>
      </trkpt>
      <trkpt lat="42.70241" lon="0.53075">
        <ele>3043</ele>
        <time>2020-09-15T07:47:36Z</time>
      </trkpt>
      <trkpt lat="42.70243" lon="0.53075">
        <ele>3042.6000976562</ele>
        <time>2020-09-15T07:47:57Z</time>
      </trkpt>
      <trkpt lat="42.70248" lon="0.53069">
        <ele>3045.6000976562</ele>
        <time>2020-09-15T07:48:59Z</time>
      </trkpt>
      <trkpt lat="42.70251" lon="0.53065">
        <ele>3049</ele>
        <time>2020-09-15T07:50:05Z</time>
      </trkpt>
      <trkpt lat="42.70254" lon="0.5306">
        <ele>3052.8000488281</ele>
        <time>2020-09-15T07:50:32Z</time>
      </trkpt>
      <trkpt lat="42.70258" lon="0.53055">
        <ele>3056.3999023438</ele>
        <time>2020-09-15T07:50:58Z</time>
      </trkpt>
      <trkpt lat="42.70265" lon="0.53045">
        <ele>3059.8000488281</ele>
        <time>2020-09-15T07:51:25Z</time>
      </trkpt>
      <trkpt lat="42.70266" lon="0.5304">
        <ele>3062.8000488281</ele>
        <time>2020-09-15T07:51:48Z</time>
      </trkpt>
      <trkpt lat="42.70269" lon="0.5302">
        <ele>3068.1999511719</ele>
        <time>2020-09-15T07:52:23Z</time>
      </trkpt>
      <trkpt lat="42.70268" lon="0.52999">
        <ele>3071.8000488281</ele>
        <time>2020-09-15T07:53:00Z</time>
      </trkpt>
      <trkpt lat="42.70267" lon="0.52992">
        <ele>3071.3999023438</ele>
        <time>2020-09-15T07:53:13Z</time>
      </trkpt>
      <trkpt lat="42.70267" lon="0.52974">
        <ele>3075</ele>
        <time>2020-09-15T07:53:48Z</time>
      </trkpt>
      <trkpt lat="42.70267" lon="0.52972">
        <ele>3075</ele>
        <time>2020-09-15T07:53:53Z</time>
      </trkpt>
      <trkpt lat="42.70262" lon="0.52904">
        <ele>3066.6000976562</ele>
        <time>2020-09-15T07:59:22Z</time>
      </trkpt>
      <trkpt lat="42.70262" lon="0.52904">
        <ele>3067.1999511719</ele>
        <time>2020-09-15T07:59:23Z</time>
      </trkpt>
      <trkpt lat="42.7026" lon="0.52899">
        <ele>3070.8000488281</ele>
        <time>2020-09-15T07:59:39Z</time>
      </trkpt>
      <trkpt lat="42.70257" lon="0.52886">
        <ele>3066.6000976562</ele>
        <time>2020-09-15T08:00:12Z</time>
      </trkpt>
      <trkpt lat="42.70257" lon="0.52876">
        <ele>3063.1999511719</ele>
        <time>2020-09-15T08:00:48Z</time>
      </trkpt>
      <trkpt lat="42.70253" lon="0.52852">
        <ele>3059.8000488281</ele>
        <time>2020-09-15T08:03:47Z</time>
      </trkpt>
      <trkpt lat="42.70259" lon="0.52813">
        <ele>3056.6000976562</ele>
        <time>2020-09-15T08:07:30Z</time>
      </trkpt>
      <trkpt lat="42.70259" lon="0.52813">
        <ele>3056.6000976562</ele>
        <time>2020-09-15T08:07:31Z</time>
      </trkpt>
      <trkpt lat="42.7026" lon="0.52804">
        <ele>3053.6000976562</ele>
        <time>2020-09-15T08:08:25Z</time>
      </trkpt>
      <trkpt lat="42.7026" lon="0.52781">
        <ele>3057</ele>
        <time>2020-09-15T08:09:45Z</time>
      </trkpt>
      <trkpt lat="42.70263" lon="0.52718">
        <ele>3062.6000976562</ele>
        <time>2020-09-15T08:13:10Z</time>
      </trkpt>
      <trkpt lat="42.70261" lon="0.52676">
        <ele>3068</ele>
        <time>2020-09-15T08:14:56Z</time>
      </trkpt>
      <trkpt lat="42.70263" lon="0.52666">
        <ele>3068</ele>
        <time>2020-09-15T08:20:07Z</time>
      </trkpt>
      <trkpt lat="42.70277" lon="0.52638">
        <ele>3064.8000488281</ele>
        <time>2020-09-15T08:31:02Z</time>
      </trkpt>
      <trkpt lat="42.70273" lon="0.52632">
        <ele>3059.6000976562</ele>
        <time>2020-09-15T08:31:31Z</time>
      </trkpt>
      <trkpt lat="42.70291" lon="0.52611">
        <ele>3054.8000488281</ele>
        <time>2020-09-15T08:34:42Z</time>
      </trkpt>
      <trkpt lat="42.70291" lon="0.52606">
        <ele>3051.6000976562</ele>
        <time>2020-09-15T08:35:29Z</time>
      </trkpt>
      <trkpt lat="42.7029" lon="0.52602">
        <ele>3048</ele>
        <time>2020-09-15T08:36:07Z</time>
      </trkpt>
      <trkpt lat="42.70286" lon="0.52605">
        <ele>3044.1999511719</ele>
        <time>2020-09-15T08:36:38Z</time>
      </trkpt>
      <trkpt lat="42.70285" lon="0.526">
        <ele>3040.1999511719</ele>
        <time>2020-09-15T08:37:09Z</time>
      </trkpt>
      <trkpt lat="42.70283" lon="0.52597">
        <ele>3036.1999511719</ele>
        <time>2020-09-15T08:37:44Z</time>
      </trkpt>
      <trkpt lat="42.7028" lon="0.52585">
        <ele>3032.8000488281</ele>
        <time>2020-09-15T08:38:22Z</time>
      </trkpt>
      <trkpt lat="42.70281" lon="0.52567">
        <ele>3032.6000976562</ele>
        <time>2020-09-15T08:41:56Z</time>
      </trkpt>
      <trkpt lat="42.70283" lon="0.52565">
        <ele>3025.6000976562</ele>
        <time>2020-09-15T08:42:12Z</time>
      </trkpt>
      <trkpt lat="42.70283" lon="0.52556">
        <ele>3021.6000976562</ele>
        <time>2020-09-15T08:42:46Z</time>
      </trkpt>
      <trkpt lat="42.7029" lon="0.5256">
        <ele>3015.6000976562</ele>
        <time>2020-09-15T08:43:08Z</time>
      </trkpt>
      <trkpt lat="42.70291" lon="0.52559">
        <ele>3017</ele>
        <time>2020-09-15T08:43:22Z</time>
      </trkpt>
      <trkpt lat="42.70291" lon="0.52557">
        <ele>3012.8000488281</ele>
        <time>2020-09-15T08:43:41Z</time>
      </trkpt>
      <trkpt lat="42.70293" lon="0.52557">
        <ele>3012.8000488281</ele>
        <time>2020-09-15T08:43:56Z</time>
      </trkpt>
      <trkpt lat="42.70294" lon="0.52554">
        <ele>3008.8000488281</ele>
        <time>2020-09-15T08:45:14Z</time>
      </trkpt>
      <trkpt lat="42.7029" lon="0.52553">
        <ele>3005.8000488281</ele>
        <time>2020-09-15T08:45:44Z</time>
      </trkpt>
      <trkpt lat="42.70294" lon="0.52544">
        <ele>3001.3999023438</ele>
        <time>2020-09-15T08:46:22Z</time>
      </trkpt>
      <trkpt lat="42.70296" lon="0.52541">
        <ele>2998.3999023438</ele>
        <time>2020-09-15T08:47:01Z</time>
      </trkpt>
      <trkpt lat="42.70296" lon="0.5254">
        <ele>2995.1999511719</ele>
        <time>2020-09-15T08:47:09Z</time>
      </trkpt>
      <trkpt lat="42.70295" lon="0.52537">
        <ele>2995.3999023438</ele>
        <time>2020-09-15T08:47:26Z</time>
      </trkpt>
      <trkpt lat="42.70293" lon="0.52534">
        <ele>2991.3999023438</ele>
        <time>2020-09-15T08:47:44Z</time>
      </trkpt>
      <trkpt lat="42.70292" lon="0.5253">
        <ele>2988</ele>
        <time>2020-09-15T08:49:26Z</time>
      </trkpt>
      <trkpt lat="42.7029" lon="0.52523">
        <ele>2984</ele>
        <time>2020-09-15T08:51:35Z</time>
      </trkpt>
      <trkpt lat="42.70286" lon="0.52514">
        <ele>2978.8000488281</ele>
        <time>2020-09-15T08:52:37Z</time>
      </trkpt>
      <trkpt lat="42.70284" lon="0.5251">
        <ele>2975.1999511719</ele>
        <time>2020-09-15T08:53:23Z</time>
      </trkpt>
      <trkpt lat="42.70287" lon="0.52501">
        <ele>2969.8000488281</ele>
        <time>2020-09-15T08:53:52Z</time>
      </trkpt>
      <trkpt lat="42.70285" lon="0.52494">
        <ele>2966.8000488281</ele>
        <time>2020-09-15T08:54:22Z</time>
      </trkpt>
      <trkpt lat="42.70288" lon="0.52488">
        <ele>2963.8000488281</ele>
        <time>2020-09-15T08:54:37Z</time>
      </trkpt>
      <trkpt lat="42.70284" lon="0.52484">
        <ele>2958.6000976562</ele>
        <time>2020-09-15T08:54:57Z</time>
      </trkpt>
      <trkpt lat="42.70285" lon="0.52479">
        <ele>2955.1999511719</ele>
        <time>2020-09-15T08:55:56Z</time>
      </trkpt>
      <trkpt lat="42.70283" lon="0.52477">
        <ele>2949.8000488281</ele>
        <time>2020-09-15T08:56:35Z</time>
      </trkpt>
      <trkpt lat="42.70279" lon="0.52479">
        <ele>2946.6000976562</ele>
        <time>2020-09-15T08:57:03Z</time>
      </trkpt>
      <trkpt lat="42.70276" lon="0.52477">
        <ele>2942.6000976562</ele>
        <time>2020-09-15T08:57:30Z</time>
      </trkpt>
      <trkpt lat="42.70281" lon="0.52462">
        <ele>2937.1999511719</ele>
        <time>2020-09-15T08:57:58Z</time>
      </trkpt>
      <trkpt lat="42.70276" lon="0.52462">
        <ele>2934.1999511719</ele>
        <time>2020-09-15T08:58:09Z</time>
      </trkpt>
      <trkpt lat="42.70276" lon="0.52461">
        <ele>2934.1999511719</ele>
        <time>2020-09-15T08:58:10Z</time>
      </trkpt>
      <trkpt lat="42.70272" lon="0.52457">
        <ele>2929.1999511719</ele>
        <time>2020-09-15T08:58:34Z</time>
      </trkpt>
      <trkpt lat="42.70268" lon="0.52449">
        <ele>2925.1999511719</ele>
        <time>2020-09-15T08:59:44Z</time>
      </trkpt>
      <trkpt lat="42.7027" lon="0.5244">
        <ele>2921.6000976562</ele>
        <time>2020-09-15T08:59:58Z</time>
      </trkpt>
      <trkpt lat="42.7027" lon="0.52439">
        <ele>2921.3999023438</ele>
        <time>2020-09-15T08:59:59Z</time>
      </trkpt>
      <trkpt lat="42.70269" lon="0.52423">
        <ele>2916</ele>
        <time>2020-09-15T09:00:23Z</time>
      </trkpt>
      <trkpt lat="42.70263" lon="0.52418">
        <ele>2912.8000488281</ele>
        <time>2020-09-15T09:00:35Z</time>
      </trkpt>
      <trkpt lat="42.70256" lon="0.52396">
        <ele>2906.8000488281</ele>
        <time>2020-09-15T09:01:02Z</time>
      </trkpt>
      <trkpt lat="42.70231" lon="0.5238">
        <ele>2903.3999023438</ele>
        <time>2020-09-15T09:01:52Z</time>
      </trkpt>
      <trkpt lat="42.7022" lon="0.52367">
        <ele>2898.6000976562</ele>
        <time>2020-09-15T09:02:18Z</time>
      </trkpt>
      <trkpt lat="42.70214" lon="0.52362">
        <ele>2895.6000976562</ele>
        <time>2020-09-15T09:02:32Z</time>
      </trkpt>
      <trkpt lat="42.70222" lon="0.52337">
        <ele>2882.1999511719</ele>
        <time>2020-09-15T09:17:52Z</time>
      </trkpt>
      <trkpt lat="42.70222" lon="0.52336">
        <ele>2882</ele>
        <time>2020-09-15T09:17:53Z</time>
      </trkpt>
      <trkpt lat="42.70223" lon="0.52322">
        <ele>2876.8000488281</ele>
        <time>2020-09-15T09:18:20Z</time>
      </trkpt>
      <trkpt lat="42.70218" lon="0.5232">
        <ele>2873.6000976562</ele>
        <time>2020-09-15T09:18:33Z</time>
      </trkpt>
      <trkpt lat="42.70213" lon="0.5231">
        <ele>2869</ele>
        <time>2020-09-15T09:18:59Z</time>
      </trkpt>
      <trkpt lat="42.70224" lon="0.52303">
        <ele>2863.1999511719</ele>
        <time>2020-09-15T09:19:31Z</time>
      </trkpt>
      <trkpt lat="42.70228" lon="0.52297">
        <ele>2860.1999511719</ele>
        <time>2020-09-15T09:19:47Z</time>
      </trkpt>
      <trkpt lat="42.7023" lon="0.52291">
        <ele>2857.1999511719</ele>
        <time>2020-09-15T09:20:01Z</time>
      </trkpt>
      <trkpt lat="42.70232" lon="0.52286">
        <ele>2854.1999511719</ele>
        <time>2020-09-15T09:20:16Z</time>
      </trkpt>
      <trkpt lat="42.70236" lon="0.52282">
        <ele>2850.8000488281</ele>
        <time>2020-09-15T09:20:31Z</time>
      </trkpt>
      <trkpt lat="42.70236" lon="0.52274">
        <ele>2847.8000488281</ele>
        <time>2020-09-15T09:20:46Z</time>
      </trkpt>
      <trkpt lat="42.70239" lon="0.5226">
        <ele>2842.3999023438</ele>
        <time>2020-09-15T09:21:16Z</time>
      </trkpt>
      <trkpt lat="42.70234" lon="0.52252">
        <ele>2839</ele>
        <time>2020-09-15T09:21:32Z</time>
      </trkpt>
      <trkpt lat="42.70232" lon="0.52238">
        <ele>2833.6000976562</ele>
        <time>2020-09-15T09:22:02Z</time>
      </trkpt>
      <trkpt lat="42.70238" lon="0.5223">
        <ele>2830.3999023438</ele>
        <time>2020-09-15T09:22:18Z</time>
      </trkpt>
      <trkpt lat="42.70247" lon="0.52217">
        <ele>2825.8000488281</ele>
        <time>2020-09-15T09:22:44Z</time>
      </trkpt>
      <trkpt lat="42.70255" lon="0.52201">
        <ele>2820.1999511719</ele>
        <time>2020-09-15T09:23:12Z</time>
      </trkpt>
      <trkpt lat="42.70256" lon="0.52185">
        <ele>2815</ele>
        <time>2020-09-15T09:23:40Z</time>
      </trkpt>
      <trkpt lat="42.70257" lon="0.52172">
        <ele>2809.3999023438</ele>
        <time>2020-09-15T09:24:07Z</time>
      </trkpt>
      <trkpt lat="42.70253" lon="0.52165">
        <ele>2806.1999511719</ele>
        <time>2020-09-15T09:24:20Z</time>
      </trkpt>
      <trkpt lat="42.70253" lon="0.52151">
        <ele>2801.1999511719</ele>
        <time>2020-09-15T09:24:46Z</time>
      </trkpt>
      <trkpt lat="42.70254" lon="0.52134">
        <ele>2796.1999511719</ele>
        <time>2020-09-15T09:25:13Z</time>
      </trkpt>
      <trkpt lat="42.70257" lon="0.52122">
        <ele>2792.1999511719</ele>
        <time>2020-09-15T09:25:32Z</time>
      </trkpt>
      <trkpt lat="42.70256" lon="0.52107">
        <ele>2788.3999023438</ele>
        <time>2020-09-15T09:25:52Z</time>
      </trkpt>
      <trkpt lat="42.70253" lon="0.52094">
        <ele>2785.3999023438</ele>
        <time>2020-09-15T09:26:23Z</time>
      </trkpt>
      <trkpt lat="42.70253" lon="0.52086">
        <ele>2785.1999511719</ele>
        <time>2020-09-15T09:26:44Z</time>
      </trkpt>
      <trkpt lat="42.7026" lon="0.52063">
        <ele>2781.1999511719</ele>
        <time>2020-09-15T09:27:20Z</time>
      </trkpt>
      <trkpt lat="42.70264" lon="0.52055">
        <ele>2779.8000488281</ele>
        <time>2020-09-15T09:27:32Z</time>
      </trkpt>
      <trkpt lat="42.70263" lon="0.52053">
        <ele>2779.6000976562</ele>
        <time>2020-09-15T09:27:34Z</time>
      </trkpt>
      <trkpt lat="42.70263" lon="0.52035">
        <ele>2775</ele>
        <time>2020-09-15T09:28:01Z</time>
      </trkpt>
      <trkpt lat="42.70266" lon="0.52014">
        <ele>2770.3999023438</ele>
        <time>2020-09-15T09:28:27Z</time>
      </trkpt>
      <trkpt lat="42.70267" lon="0.52">
        <ele>2766.3999023438</ele>
        <time>2020-09-15T09:28:58Z</time>
      </trkpt>
      <trkpt lat="42.70275" lon="0.51987">
        <ele>2761.8000488281</ele>
        <time>2020-09-15T09:29:23Z</time>
      </trkpt>
      <trkpt lat="42.70277" lon="0.51967">
        <ele>2757.1999511719</ele>
        <time>2020-09-15T09:29:51Z</time>
      </trkpt>
      <trkpt lat="42.70279" lon="0.51942">
        <ele>2753</ele>
        <time>2020-09-15T09:30:34Z</time>
      </trkpt>
      <trkpt lat="42.70277" lon="0.51923">
        <ele>2749.3999023438</ele>
        <time>2020-09-15T09:31:03Z</time>
      </trkpt>
      <trkpt lat="42.70277" lon="0.51922">
        <ele>2749.1999511719</ele>
        <time>2020-09-15T09:31:04Z</time>
      </trkpt>
      <trkpt lat="42.70285" lon="0.51844">
        <ele>2745</ele>
        <time>2020-09-15T09:32:20Z</time>
      </trkpt>
      <trkpt lat="42.7029" lon="0.51842">
        <ele>2745.6000976562</ele>
        <time>2020-09-15T09:32:32Z</time>
      </trkpt>
      <trkpt lat="42.70295" lon="0.51816">
        <ele>2741.8000488281</ele>
        <time>2020-09-15T09:35:01Z</time>
      </trkpt>
      <trkpt lat="42.70304" lon="0.51797">
        <ele>2738.3999023438</ele>
        <time>2020-09-15T09:35:22Z</time>
      </trkpt>
      <trkpt lat="42.70287" lon="0.51733">
        <ele>2731.1999511719</ele>
        <time>2020-09-15T09:36:32Z</time>
      </trkpt>
      <trkpt lat="42.70294" lon="0.51701">
        <ele>2726.6000976562</ele>
        <time>2020-09-15T09:37:03Z</time>
      </trkpt>
      <trkpt lat="42.70295" lon="0.51699">
        <ele>2726</ele>
        <time>2020-09-15T09:37:08Z</time>
      </trkpt>
      <trkpt lat="42.70295" lon="0.51695">
        <ele>2725.8000488281</ele>
        <time>2020-09-15T09:37:11Z</time>
      </trkpt>
      <trkpt lat="42.70303" lon="0.51667">
        <ele>2722.3999023438</ele>
        <time>2020-09-15T09:37:40Z</time>
      </trkpt>
      <trkpt lat="42.70318" lon="0.51636">
        <ele>2717.6000976562</ele>
        <time>2020-09-15T09:38:14Z</time>
      </trkpt>
      <trkpt lat="42.70321" lon="0.5162">
        <ele>2712.1999511719</ele>
        <time>2020-09-15T09:38:43Z</time>
      </trkpt>
      <trkpt lat="42.70315" lon="0.51609">
        <ele>2706.6000976562</ele>
        <time>2020-09-15T09:39:08Z</time>
      </trkpt>
      <trkpt lat="42.70315" lon="0.51608">
        <ele>2706.3999023438</ele>
        <time>2020-09-15T09:39:09Z</time>
      </trkpt>
      <trkpt lat="42.70319" lon="0.51599">
        <ele>2703.1999511719</ele>
        <time>2020-09-15T09:39:20Z</time>
      </trkpt>
      <trkpt lat="42.70322" lon="0.51588">
        <ele>2698.8000488281</ele>
        <time>2020-09-15T09:39:46Z</time>
      </trkpt>
      <trkpt lat="42.70313" lon="0.51583">
        <ele>2694</ele>
        <time>2020-09-15T09:40:11Z</time>
      </trkpt>
      <trkpt lat="42.70311" lon="0.51572">
        <ele>2690.8000488281</ele>
        <time>2020-09-15T09:40:27Z</time>
      </trkpt>
      <trkpt lat="42.70305" lon="0.5157">
        <ele>2687.6000976562</ele>
        <time>2020-09-15T09:40:41Z</time>
      </trkpt>
      <trkpt lat="42.703" lon="0.51564">
        <ele>2684.6000976562</ele>
        <time>2020-09-15T09:40:54Z</time>
      </trkpt>
      <trkpt lat="42.70296" lon="0.51559">
        <ele>2681.1999511719</ele>
        <time>2020-09-15T09:41:07Z</time>
      </trkpt>
      <trkpt lat="42.70288" lon="0.5155">
        <ele>2675.6000976562</ele>
        <time>2020-09-15T09:41:33Z</time>
      </trkpt>
      <trkpt lat="42.70284" lon="0.51542">
        <ele>2671.3999023438</ele>
        <time>2020-09-15T09:42:09Z</time>
      </trkpt>
      <trkpt lat="42.70283" lon="0.51531">
        <ele>2668.3999023438</ele>
        <time>2020-09-15T09:42:24Z</time>
      </trkpt>
      <trkpt lat="42.70282" lon="0.51514">
        <ele>2663</ele>
        <time>2020-09-15T09:42:52Z</time>
      </trkpt>
      <trkpt lat="42.70282" lon="0.51494">
        <ele>2659.8000488281</ele>
        <time>2020-09-15T09:43:20Z</time>
      </trkpt>
      <trkpt lat="42.70277" lon="0.51489">
        <ele>2656.6000976562</ele>
        <time>2020-09-15T09:43:36Z</time>
      </trkpt>
      <trkpt lat="42.70276" lon="0.51468">
        <ele>2651.1999511719</ele>
        <time>2020-09-15T09:44:02Z</time>
      </trkpt>
      <trkpt lat="42.70276" lon="0.51454">
        <ele>2648.1999511719</ele>
        <time>2020-09-15T09:44:16Z</time>
      </trkpt>
      <trkpt lat="42.70283" lon="0.51434">
        <ele>2643.6000976562</ele>
        <time>2020-09-15T09:44:41Z</time>
      </trkpt>
      <trkpt lat="42.70288" lon="0.51409">
        <ele>2640</ele>
        <time>2020-09-15T09:45:13Z</time>
      </trkpt>
      <trkpt lat="42.70297" lon="0.51383">
        <ele>2635.1999511719</ele>
        <time>2020-09-15T09:45:39Z</time>
      </trkpt>
      <trkpt lat="42.703" lon="0.51365">
        <ele>2631.6000976562</ele>
        <time>2020-09-15T09:45:56Z</time>
      </trkpt>
      <trkpt lat="42.70301" lon="0.51348">
        <ele>2626.6000976562</ele>
        <time>2020-09-15T09:46:56Z</time>
      </trkpt>
      <trkpt lat="42.70303" lon="0.51337">
        <ele>2623.3999023438</ele>
        <time>2020-09-15T09:47:11Z</time>
      </trkpt>
      <trkpt lat="42.70299" lon="0.51328">
        <ele>2618.6000976562</ele>
        <time>2020-09-15T09:47:41Z</time>
      </trkpt>
      <trkpt lat="42.70295" lon="0.51331">
        <ele>2614</ele>
        <time>2020-09-15T09:48:07Z</time>
      </trkpt>
      <trkpt lat="42.70289" lon="0.51326">
        <ele>2610</ele>
        <time>2020-09-15T09:48:31Z</time>
      </trkpt>
      <trkpt lat="42.70283" lon="0.51298">
        <ele>2602.3999023438</ele>
        <time>2020-09-15T09:49:38Z</time>
      </trkpt>
      <trkpt lat="42.70285" lon="0.51288">
        <ele>2598.3999023438</ele>
        <time>2020-09-15T09:50:05Z</time>
      </trkpt>
      <trkpt lat="42.70286" lon="0.51266">
        <ele>2593</ele>
        <time>2020-09-15T09:50:35Z</time>
      </trkpt>
      <trkpt lat="42.70291" lon="0.51251">
        <ele>2589</ele>
        <time>2020-09-15T09:51:02Z</time>
      </trkpt>
      <trkpt lat="42.70296" lon="0.51241">
        <ele>2586</ele>
        <time>2020-09-15T09:51:34Z</time>
      </trkpt>
      <trkpt lat="42.70294" lon="0.51226">
        <ele>2582.8000488281</ele>
        <time>2020-09-15T09:52:03Z</time>
      </trkpt>
      <trkpt lat="42.70297" lon="0.51209">
        <ele>2579.8000488281</ele>
        <time>2020-09-15T09:52:21Z</time>
      </trkpt>
      <trkpt lat="42.70299" lon="0.51197">
        <ele>2576.6000976562</ele>
        <time>2020-09-15T09:52:37Z</time>
      </trkpt>
      <trkpt lat="42.70302" lon="0.51185">
        <ele>2573.3999023438</ele>
        <time>2020-09-15T09:52:54Z</time>
      </trkpt>
      <trkpt lat="42.70291" lon="0.51186">
        <ele>2568.1999511719</ele>
        <time>2020-09-15T09:53:22Z</time>
      </trkpt>
      <trkpt lat="42.70293" lon="0.51161">
        <ele>2563.8000488281</ele>
        <time>2020-09-15T09:53:50Z</time>
      </trkpt>
      <trkpt lat="42.70295" lon="0.5113">
        <ele>2560.8000488281</ele>
        <time>2020-09-15T09:54:40Z</time>
      </trkpt>
      <trkpt lat="42.70345" lon="0.51095">
        <ele>2555.6000976562</ele>
        <time>2020-09-15T09:56:13Z</time>
      </trkpt>
      <trkpt lat="42.70355" lon="0.51089">
        <ele>2555.6000976562</ele>
        <time>2020-09-15T09:56:32Z</time>
      </trkpt>
      <trkpt lat="42.70374" lon="0.51085">
        <ele>2552.1999511719</ele>
        <time>2020-09-15T09:57:26Z</time>
      </trkpt>
      <trkpt lat="42.70369" lon="0.51088">
        <ele>2552.3999023438</ele>
        <time>2020-09-15T09:57:49Z</time>
      </trkpt>
      <trkpt lat="42.70388" lon="0.50824">
        <ele>2549.3999023438</ele>
        <time>2020-09-15T10:05:15Z</time>
      </trkpt>
      <trkpt lat="42.70393" lon="0.50815">
        <ele>2550.1999511719</ele>
        <time>2020-09-15T10:05:38Z</time>
      </trkpt>
      <trkpt lat="42.704" lon="0.50824">
        <ele>2564.6000976562</ele>
        <time>2020-09-15T12:08:25Z</time>
      </trkpt>
      <trkpt lat="42.704" lon="0.50824">
        <ele>2564.6000976562</ele>
        <time>2020-09-15T12:08:26Z</time>
      </trkpt>
      <trkpt lat="42.70394" lon="0.50785">
        <ele>2570.3999023438</ele>
        <time>2020-09-15T12:09:33Z</time>
      </trkpt>
      <trkpt lat="42.70377" lon="0.50784">
        <ele>2574.1999511719</ele>
        <time>2020-09-15T12:10:03Z</time>
      </trkpt>
      <trkpt lat="42.70364" lon="0.5078">
        <ele>2577.8000488281</ele>
        <time>2020-09-15T12:10:33Z</time>
      </trkpt>
      <trkpt lat="42.70359" lon="0.50765">
        <ele>2582</ele>
        <time>2020-09-15T12:11:03Z</time>
      </trkpt>
      <trkpt lat="42.70365" lon="0.50751">
        <ele>2585.8000488281</ele>
        <time>2020-09-15T12:11:29Z</time>
      </trkpt>
      <trkpt lat="42.70373" lon="0.50742">
        <ele>2589.6000976562</ele>
        <time>2020-09-15T12:12:00Z</time>
      </trkpt>
      <trkpt lat="42.70374" lon="0.50741">
        <ele>2589.3999023438</ele>
        <time>2020-09-15T12:12:02Z</time>
      </trkpt>
      <trkpt lat="42.70395" lon="0.50741">
        <ele>2585.8000488281</ele>
        <time>2020-09-15T12:12:34Z</time>
      </trkpt>
      <trkpt lat="42.7043" lon="0.50685">
        <ele>2589.3999023438</ele>
        <time>2020-09-15T12:14:21Z</time>
      </trkpt>
      <trkpt lat="42.70431" lon="0.50672">
        <ele>2594.1999511719</ele>
        <time>2020-09-15T12:14:51Z</time>
      </trkpt>
      <trkpt lat="42.70444" lon="0.50674">
        <ele>2598.1999511719</ele>
        <time>2020-09-15T12:15:24Z</time>
      </trkpt>
      <trkpt lat="42.70449" lon="0.50666">
        <ele>2601.1999511719</ele>
        <time>2020-09-15T12:15:39Z</time>
      </trkpt>
      <trkpt lat="42.70455" lon="0.50664">
        <ele>2600.8000488281</ele>
        <time>2020-09-15T12:15:53Z</time>
      </trkpt>
      <trkpt lat="42.70476" lon="0.50628">
        <ele>2604</ele>
        <time>2020-09-15T12:16:46Z</time>
      </trkpt>
      <trkpt lat="42.70473" lon="0.50604">
        <ele>2607.3999023438</ele>
        <time>2020-09-15T12:17:16Z</time>
      </trkpt>
      <trkpt lat="42.70479" lon="0.50555">
        <ele>2611.6000976562</ele>
        <time>2020-09-15T12:18:31Z</time>
      </trkpt>
      <trkpt lat="42.70489" lon="0.50535">
        <ele>2616</ele>
        <time>2020-09-15T12:19:32Z</time>
      </trkpt>
      <trkpt lat="42.70498" lon="0.50514">
        <ele>2619.1999511719</ele>
        <time>2020-09-15T12:20:05Z</time>
      </trkpt>
      <trkpt lat="42.70504" lon="0.505">
        <ele>2623.3999023438</ele>
        <time>2020-09-15T12:20:35Z</time>
      </trkpt>
      <trkpt lat="42.70505" lon="0.5049">
        <ele>2628.3999023438</ele>
        <time>2020-09-15T12:21:05Z</time>
      </trkpt>
      <trkpt lat="42.7051" lon="0.50481">
        <ele>2632.6000976562</ele>
        <time>2020-09-15T12:21:33Z</time>
      </trkpt>
      <trkpt lat="42.7051" lon="0.50479">
        <ele>2641.6000976562</ele>
        <time>2020-09-15T12:21:35Z</time>
      </trkpt>
      <trkpt lat="42.70511" lon="0.50477">
        <ele>2644.8000488281</ele>
        <time>2020-09-15T12:21:40Z</time>
      </trkpt>
      <trkpt lat="42.7051" lon="0.50461">
        <ele>2648.8000488281</ele>
        <time>2020-09-15T12:22:10Z</time>
      </trkpt>
      <trkpt lat="42.70501" lon="0.50461">
        <ele>2652.8000488281</ele>
        <time>2020-09-15T12:22:36Z</time>
      </trkpt>
      <trkpt lat="42.70493" lon="0.50461">
        <ele>2657.6000976562</ele>
        <time>2020-09-15T12:23:04Z</time>
      </trkpt>
      <trkpt lat="42.70484" lon="0.50463">
        <ele>2662.8000488281</ele>
        <time>2020-09-15T12:23:33Z</time>
      </trkpt>
      <trkpt lat="42.70481" lon="0.50458">
        <ele>2665.8000488281</ele>
        <time>2020-09-15T12:23:48Z</time>
      </trkpt>
      <trkpt lat="42.70474" lon="0.50458">
        <ele>2670.8000488281</ele>
        <time>2020-09-15T12:24:14Z</time>
      </trkpt>
      <trkpt lat="42.70466" lon="0.50458">
        <ele>2676</ele>
        <time>2020-09-15T12:24:39Z</time>
      </trkpt>
      <trkpt lat="42.70461" lon="0.50455">
        <ele>2679</ele>
        <time>2020-09-15T12:24:54Z</time>
      </trkpt>
      <trkpt lat="42.70446" lon="0.50459">
        <ele>2683.6000976562</ele>
        <time>2020-09-15T12:25:26Z</time>
      </trkpt>
      <trkpt lat="42.70437" lon="0.50452">
        <ele>2687.6000976562</ele>
        <time>2020-09-15T12:25:53Z</time>
      </trkpt>
      <trkpt lat="42.70431" lon="0.50439">
        <ele>2693.1999511719</ele>
        <time>2020-09-15T12:26:21Z</time>
      </trkpt>
      <trkpt lat="42.70434" lon="0.50424">
        <ele>2698.6000976562</ele>
        <time>2020-09-15T12:26:50Z</time>
      </trkpt>
      <trkpt lat="42.70434" lon="0.50413">
        <ele>2703.1999511719</ele>
        <time>2020-09-15T12:27:15Z</time>
      </trkpt>
      <trkpt lat="42.7043" lon="0.50399">
        <ele>2708.3999023438</ele>
        <time>2020-09-15T12:27:38Z</time>
      </trkpt>
      <trkpt lat="42.70434" lon="0.5038">
        <ele>2713.6000976562</ele>
        <time>2020-09-15T12:28:06Z</time>
      </trkpt>
      <trkpt lat="42.70434" lon="0.50365">
        <ele>2718.3999023438</ele>
        <time>2020-09-15T12:28:29Z</time>
      </trkpt>
      <trkpt lat="42.70436" lon="0.50347">
        <ele>2723.6000976562</ele>
        <time>2020-09-15T12:28:58Z</time>
      </trkpt>
      <trkpt lat="42.70443" lon="0.50309">
        <ele>2722.6000976562</ele>
        <time>2020-09-15T12:30:00Z</time>
      </trkpt>
      <trkpt lat="42.70443" lon="0.50296">
        <ele>2728.1999511719</ele>
        <time>2020-09-15T12:30:27Z</time>
      </trkpt>
      <trkpt lat="42.70432" lon="0.50293">
        <ele>2731.1999511719</ele>
        <time>2020-09-15T12:30:43Z</time>
      </trkpt>
      <trkpt lat="42.70436" lon="0.50277">
        <ele>2736.3999023438</ele>
        <time>2020-09-15T12:31:13Z</time>
      </trkpt>
      <trkpt lat="42.70434" lon="0.50244">
        <ele>2742</ele>
        <time>2020-09-15T12:32:12Z</time>
      </trkpt>
      <trkpt lat="42.70431" lon="0.5022">
        <ele>2747</ele>
        <time>2020-09-15T12:32:44Z</time>
      </trkpt>
      <trkpt lat="42.70437" lon="0.50199">
        <ele>2750.3999023438</ele>
        <time>2020-09-15T12:33:16Z</time>
      </trkpt>
      <trkpt lat="42.70442" lon="0.50186">
        <ele>2754.6000976562</ele>
        <time>2020-09-15T12:33:49Z</time>
      </trkpt>
      <trkpt lat="42.70446" lon="0.5018">
        <ele>2759</ele>
        <time>2020-09-15T12:34:15Z</time>
      </trkpt>
      <trkpt lat="42.70449" lon="0.50169">
        <ele>2764</ele>
        <time>2020-09-15T12:34:48Z</time>
      </trkpt>
      <trkpt lat="42.7045" lon="0.50161">
        <ele>2767</ele>
        <time>2020-09-15T12:35:02Z</time>
      </trkpt>
      <trkpt lat="42.70455" lon="0.50153">
        <ele>2771.8000488281</ele>
        <time>2020-09-15T12:35:29Z</time>
      </trkpt>
      <trkpt lat="42.70459" lon="0.50145">
        <ele>2777.3999023438</ele>
        <time>2020-09-15T12:35:59Z</time>
      </trkpt>
      <trkpt lat="42.70465" lon="0.50143">
        <ele>2783.1999511719</ele>
        <time>2020-09-15T12:36:27Z</time>
      </trkpt>
      <trkpt lat="42.7047" lon="0.50138">
        <ele>2786.3999023438</ele>
        <time>2020-09-15T12:36:42Z</time>
      </trkpt>
      <trkpt lat="42.70476" lon="0.50132">
        <ele>2789.6000976562</ele>
        <time>2020-09-15T12:36:55Z</time>
      </trkpt>
      <trkpt lat="42.70472" lon="0.5013">
        <ele>2792.6000976562</ele>
        <time>2020-09-15T12:37:08Z</time>
      </trkpt>
      <trkpt lat="42.70468" lon="0.50122">
        <ele>2797.8000488281</ele>
        <time>2020-09-15T12:37:34Z</time>
      </trkpt>
      <trkpt lat="42.70466" lon="0.50116">
        <ele>2800.8000488281</ele>
        <time>2020-09-15T12:37:47Z</time>
      </trkpt>
      <trkpt lat="42.70463" lon="0.50104">
        <ele>2804.6000976562</ele>
        <time>2020-09-15T12:38:21Z</time>
      </trkpt>
      <trkpt lat="42.7046" lon="0.50095">
        <ele>2807.6000976562</ele>
        <time>2020-09-15T12:38:36Z</time>
      </trkpt>
      <trkpt lat="42.70464" lon="0.50078">
        <ele>2813.1999511719</ele>
        <time>2020-09-15T12:39:04Z</time>
      </trkpt>
      <trkpt lat="42.70471" lon="0.50067">
        <ele>2818.6000976562</ele>
        <time>2020-09-15T12:39:29Z</time>
      </trkpt>
      <trkpt lat="42.70476" lon="0.50054">
        <ele>2823.3999023438</ele>
        <time>2020-09-15T12:39:55Z</time>
      </trkpt>
      <trkpt lat="42.70479" lon="0.50037">
        <ele>2828.8000488281</ele>
        <time>2020-09-15T12:40:22Z</time>
      </trkpt>
      <trkpt lat="42.70487" lon="0.50029">
        <ele>2831.8000488281</ele>
        <time>2020-09-15T12:40:40Z</time>
      </trkpt>
      <trkpt lat="42.7049" lon="0.50019">
        <ele>2835.3999023438</ele>
        <time>2020-09-15T12:41:06Z</time>
      </trkpt>
      <trkpt lat="42.70485" lon="0.50009">
        <ele>2839.8000488281</ele>
        <time>2020-09-15T12:41:33Z</time>
      </trkpt>
      <trkpt lat="42.70489" lon="0.50003">
        <ele>2843</ele>
        <time>2020-09-15T12:41:48Z</time>
      </trkpt>
      <trkpt lat="42.70489" lon="0.4999">
        <ele>2848.6000976562</ele>
        <time>2020-09-15T12:42:22Z</time>
      </trkpt>
      <trkpt lat="42.70494" lon="0.49976">
        <ele>2854.1999511719</ele>
        <time>2020-09-15T12:42:49Z</time>
      </trkpt>
      <trkpt lat="42.70495" lon="0.49963">
        <ele>2858.8000488281</ele>
        <time>2020-09-15T12:43:19Z</time>
      </trkpt>
      <trkpt lat="42.70498" lon="0.49956">
        <ele>2861.8000488281</ele>
        <time>2020-09-15T12:43:35Z</time>
      </trkpt>
      <trkpt lat="42.70499" lon="0.49947">
        <ele>2865.1999511719</ele>
        <time>2020-09-15T12:43:50Z</time>
      </trkpt>
      <trkpt lat="42.70493" lon="0.49948">
        <ele>2868.3999023438</ele>
        <time>2020-09-15T12:44:04Z</time>
      </trkpt>
      <trkpt lat="42.70485" lon="0.49937">
        <ele>2873.3999023438</ele>
        <time>2020-09-15T12:44:26Z</time>
      </trkpt>
      <trkpt lat="42.70471" lon="0.49935">
        <ele>2877</ele>
        <time>2020-09-15T12:44:37Z</time>
      </trkpt>
      <trkpt lat="42.70467" lon="0.49938">
        <ele>2877</ele>
        <time>2020-09-15T12:44:42Z</time>
      </trkpt>
      <trkpt lat="42.70434" lon="0.49909">
        <ele>2880.6000976562</ele>
        <time>2020-09-15T12:45:21Z</time>
      </trkpt>
      <trkpt lat="42.70384" lon="0.4988">
        <ele>2884.1999511719</ele>
        <time>2020-09-15T12:49:36Z</time>
      </trkpt>
      <trkpt lat="42.70449" lon="0.49933">
        <ele>2879.8000488281</ele>
        <time>2020-09-15T12:55:24Z</time>
      </trkpt>
      <trkpt lat="42.70491" lon="0.49944">
        <ele>2873.6000976562</ele>
        <time>2020-09-15T12:56:33Z</time>
      </trkpt>
      <trkpt lat="42.70498" lon="0.49945">
        <ele>2869.8000488281</ele>
        <time>2020-09-15T12:56:48Z</time>
      </trkpt>
      <trkpt lat="42.70528" lon="0.49925">
        <ele>2871.8000488281</ele>
        <time>2020-09-15T12:58:38Z</time>
      </trkpt>
      <trkpt lat="42.70504" lon="0.4995">
        <ele>2868</ele>
        <time>2020-09-15T12:59:37Z</time>
      </trkpt>
      <trkpt lat="42.70496" lon="0.49966">
        <ele>2862.1999511719</ele>
        <time>2020-09-15T13:00:04Z</time>
      </trkpt>
      <trkpt lat="42.70497" lon="0.49972">
        <ele>2859</ele>
        <time>2020-09-15T13:00:18Z</time>
      </trkpt>
      <trkpt lat="42.70491" lon="0.49982">
        <ele>2855.8000488281</ele>
        <time>2020-09-15T13:00:34Z</time>
      </trkpt>
      <trkpt lat="42.70488" lon="0.49988">
        <ele>2852.8000488281</ele>
        <time>2020-09-15T13:00:51Z</time>
      </trkpt>
      <trkpt lat="42.70491" lon="0.49994">
        <ele>2849.6000976562</ele>
        <time>2020-09-15T13:01:07Z</time>
      </trkpt>
      <trkpt lat="42.70488" lon="0.50003">
        <ele>2846.6000976562</ele>
        <time>2020-09-15T13:01:22Z</time>
      </trkpt>
      <trkpt lat="42.70484" lon="0.50011">
        <ele>2843.6000976562</ele>
        <time>2020-09-15T13:01:37Z</time>
      </trkpt>
      <trkpt lat="42.70489" lon="0.50022">
        <ele>2837.8000488281</ele>
        <time>2020-09-15T13:02:05Z</time>
      </trkpt>
      <trkpt lat="42.70486" lon="0.50026">
        <ele>2834.8000488281</ele>
        <time>2020-09-15T13:03:36Z</time>
      </trkpt>
      <trkpt lat="42.70476" lon="0.50039">
        <ele>2831.8000488281</ele>
        <time>2020-09-15T13:05:05Z</time>
      </trkpt>
      <trkpt lat="42.70479" lon="0.5005">
        <ele>2828.6000976562</ele>
        <time>2020-09-15T13:05:19Z</time>
      </trkpt>
      <trkpt lat="42.70472" lon="0.50064">
        <ele>2823.6000976562</ele>
        <time>2020-09-15T13:05:45Z</time>
      </trkpt>
      <trkpt lat="42.70464" lon="0.50076">
        <ele>2818.1999511719</ele>
        <time>2020-09-15T13:06:10Z</time>
      </trkpt>
      <trkpt lat="42.70462" lon="0.50089">
        <ele>2813.1999511719</ele>
        <time>2020-09-15T13:06:34Z</time>
      </trkpt>
      <trkpt lat="42.70466" lon="0.50105">
        <ele>2808.1999511719</ele>
        <time>2020-09-15T13:07:00Z</time>
      </trkpt>
      <trkpt lat="42.70467" lon="0.50114">
        <ele>2805.1999511719</ele>
        <time>2020-09-15T13:07:11Z</time>
      </trkpt>
      <trkpt lat="42.7047" lon="0.50124">
        <ele>2800.6000976562</ele>
        <time>2020-09-15T13:07:40Z</time>
      </trkpt>
      <trkpt lat="42.70471" lon="0.50127">
        <ele>2797.6000976562</ele>
        <time>2020-09-15T13:07:55Z</time>
      </trkpt>
      <trkpt lat="42.70476" lon="0.50132">
        <ele>2793.6000976562</ele>
        <time>2020-09-15T13:08:21Z</time>
      </trkpt>
      <trkpt lat="42.70466" lon="0.50137">
        <ele>2788.6000976562</ele>
        <time>2020-09-15T13:08:51Z</time>
      </trkpt>
      <trkpt lat="42.7046" lon="0.50139">
        <ele>2785.3999023438</ele>
        <time>2020-09-15T13:09:05Z</time>
      </trkpt>
      <trkpt lat="42.70458" lon="0.50143">
        <ele>2782.3999023438</ele>
        <time>2020-09-15T13:09:19Z</time>
      </trkpt>
      <trkpt lat="42.70454" lon="0.50149">
        <ele>2778</ele>
        <time>2020-09-15T13:09:42Z</time>
      </trkpt>
      <trkpt lat="42.70452" lon="0.5016">
        <ele>2773.1999511719</ele>
        <time>2020-09-15T13:10:09Z</time>
      </trkpt>
      <trkpt lat="42.70459" lon="0.50166">
        <ele>2768.6000976562</ele>
        <time>2020-09-15T13:10:41Z</time>
      </trkpt>
      <trkpt lat="42.7046" lon="0.50173">
        <ele>2765.3999023438</ele>
        <time>2020-09-15T13:10:55Z</time>
      </trkpt>
      <trkpt lat="42.7046" lon="0.5018">
        <ele>2762.3999023438</ele>
        <time>2020-09-15T13:11:09Z</time>
      </trkpt>
      <trkpt lat="42.70471" lon="0.50184">
        <ele>2757</ele>
        <time>2020-09-15T13:11:32Z</time>
      </trkpt>
      <trkpt lat="42.70474" lon="0.5019">
        <ele>2753.8000488281</ele>
        <time>2020-09-15T13:11:44Z</time>
      </trkpt>
      <trkpt lat="42.70473" lon="0.50206">
        <ele>2749</ele>
        <time>2020-09-15T13:12:19Z</time>
      </trkpt>
      <trkpt lat="42.70466" lon="0.50225">
        <ele>2745.1999511719</ele>
        <time>2020-09-15T13:13:51Z</time>
      </trkpt>
      <trkpt lat="42.70455" lon="0.50236">
        <ele>2741.1999511719</ele>
        <time>2020-09-15T13:14:25Z</time>
      </trkpt>
      <trkpt lat="42.70455" lon="0.50236">
        <ele>2741.1999511719</ele>
        <time>2020-09-15T13:15:01Z</time>
      </trkpt>
      <trkpt lat="42.70439" lon="0.50256">
        <ele>2738</ele>
        <time>2020-09-15T13:15:44Z</time>
      </trkpt>
      <trkpt lat="42.70435" lon="0.50273">
        <ele>2738</ele>
        <time>2020-09-15T13:16:00Z</time>
      </trkpt>
      <trkpt lat="42.70426" lon="0.50295">
        <ele>2734.3999023438</ele>
        <time>2020-09-15T13:16:38Z</time>
      </trkpt>
      <trkpt lat="42.70416" lon="0.50301">
        <ele>2734.6000976562</ele>
        <time>2020-09-15T13:16:53Z</time>
      </trkpt>
      <trkpt lat="42.70405" lon="0.50315">
        <ele>2729.3999023438</ele>
        <time>2020-09-15T13:17:25Z</time>
      </trkpt>
      <trkpt lat="42.70401" lon="0.50327">
        <ele>2726.3999023438</ele>
        <time>2020-09-15T13:17:42Z</time>
      </trkpt>
      <trkpt lat="42.70404" lon="0.50348">
        <ele>2723.1999511719</ele>
        <time>2020-09-15T13:18:28Z</time>
      </trkpt>
      <trkpt lat="42.70397" lon="0.50349">
        <ele>2717.8000488281</ele>
        <time>2020-09-15T13:19:27Z</time>
      </trkpt>
      <trkpt lat="42.704" lon="0.50375">
        <ele>2713.6000976562</ele>
        <time>2020-09-15T13:19:50Z</time>
      </trkpt>
      <trkpt lat="42.70392" lon="0.50397">
        <ele>2709</ele>
        <time>2020-09-15T13:20:29Z</time>
      </trkpt>
      <trkpt lat="42.70392" lon="0.50405">
        <ele>2706</ele>
        <time>2020-09-15T13:20:43Z</time>
      </trkpt>
      <trkpt lat="42.70396" lon="0.50417">
        <ele>2701.8000488281</ele>
        <time>2020-09-15T13:21:39Z</time>
      </trkpt>
      <trkpt lat="42.704" lon="0.50425">
        <ele>2698</ele>
        <time>2020-09-15T13:22:07Z</time>
      </trkpt>
      <trkpt lat="42.70402" lon="0.50438">
        <ele>2694</ele>
        <time>2020-09-15T13:22:35Z</time>
      </trkpt>
      <trkpt lat="42.70404" lon="0.5044">
        <ele>2693.8000488281</ele>
        <time>2020-09-15T13:22:37Z</time>
      </trkpt>
      <trkpt lat="42.70443" lon="0.50456">
        <ele>2690</ele>
        <time>2020-09-15T13:24:33Z</time>
      </trkpt>
      <trkpt lat="42.70462" lon="0.50455">
        <ele>2684.1999511719</ele>
        <time>2020-09-15T13:25:48Z</time>
      </trkpt>
      <trkpt lat="42.70466" lon="0.50459">
        <ele>2681</ele>
        <time>2020-09-15T13:26:03Z</time>
      </trkpt>
      <trkpt lat="42.70471" lon="0.50458">
        <ele>2676.6000976562</ele>
        <time>2020-09-15T13:26:31Z</time>
      </trkpt>
      <trkpt lat="42.70478" lon="0.50459">
        <ele>2672.3999023438</ele>
        <time>2020-09-15T13:26:55Z</time>
      </trkpt>
      <trkpt lat="42.70483" lon="0.50465">
        <ele>2667.3999023438</ele>
        <time>2020-09-15T13:27:22Z</time>
      </trkpt>
      <trkpt lat="42.70493" lon="0.50465">
        <ele>2662.1999511719</ele>
        <time>2020-09-15T13:27:53Z</time>
      </trkpt>
      <trkpt lat="42.70499" lon="0.50466">
        <ele>2659</ele>
        <time>2020-09-15T13:28:06Z</time>
      </trkpt>
      <trkpt lat="42.7051" lon="0.50464">
        <ele>2654.6000976562</ele>
        <time>2020-09-15T13:28:33Z</time>
      </trkpt>
      <trkpt lat="42.70511" lon="0.50471">
        <ele>2651.6000976562</ele>
        <time>2020-09-15T13:28:49Z</time>
      </trkpt>
      <trkpt lat="42.70506" lon="0.50488">
        <ele>2645.6000976562</ele>
        <time>2020-09-15T13:29:16Z</time>
      </trkpt>
      <trkpt lat="42.70507" lon="0.50498">
        <ele>2641.1999511719</ele>
        <time>2020-09-15T13:29:45Z</time>
      </trkpt>
      <trkpt lat="42.70499" lon="0.50512">
        <ele>2636</ele>
        <time>2020-09-15T13:30:12Z</time>
      </trkpt>
      <trkpt lat="42.70485" lon="0.50544">
        <ele>2630</ele>
        <time>2020-09-15T13:30:56Z</time>
      </trkpt>
      <trkpt lat="42.70484" lon="0.50547">
        <ele>2629.8000488281</ele>
        <time>2020-09-15T13:30:59Z</time>
      </trkpt>
      <trkpt lat="42.70486" lon="0.50569">
        <ele>2624.8000488281</ele>
        <time>2020-09-15T13:31:21Z</time>
      </trkpt>
      <trkpt lat="42.70481" lon="0.50628">
        <ele>2620.8000488281</ele>
        <time>2020-09-15T13:32:26Z</time>
      </trkpt>
      <trkpt lat="42.70476" lon="0.50646">
        <ele>2617.8000488281</ele>
        <time>2020-09-15T13:32:51Z</time>
      </trkpt>
      <trkpt lat="42.7047" lon="0.50667">
        <ele>2614.1999511719</ele>
        <time>2020-09-15T13:33:10Z</time>
      </trkpt>
      <trkpt lat="42.70461" lon="0.50689">
        <ele>2608.6000976562</ele>
        <time>2020-09-15T13:33:41Z</time>
      </trkpt>
      <trkpt lat="42.70471" lon="0.50688">
        <ele>2605.6000976562</ele>
        <time>2020-09-15T13:33:56Z</time>
      </trkpt>
      <trkpt lat="42.7047" lon="0.50698">
        <ele>2602.3999023438</ele>
        <time>2020-09-15T13:34:15Z</time>
      </trkpt>
      <trkpt lat="42.70412" lon="0.5072">
        <ele>2599</ele>
        <time>2020-09-15T13:36:12Z</time>
      </trkpt>
      <trkpt lat="42.70395" lon="0.50758">
        <ele>2595.6000976562</ele>
        <time>2020-09-15T13:37:33Z</time>
      </trkpt>
      <trkpt lat="42.70378" lon="0.50777">
        <ele>2590.6000976562</ele>
        <time>2020-09-15T13:38:15Z</time>
      </trkpt>
      <trkpt lat="42.70391" lon="0.50777">
        <ele>2586.6000976562</ele>
        <time>2020-09-15T13:38:46Z</time>
      </trkpt>
      <trkpt lat="42.70396" lon="0.50787">
        <ele>2583</ele>
        <time>2020-09-15T13:39:06Z</time>
      </trkpt>
      <trkpt lat="42.70391" lon="0.50828">
        <ele>2567</ele>
        <time>2020-09-16T05:09:32Z</time>
      </trkpt>
      <trkpt lat="42.7039" lon="0.50828">
        <ele>2567</ele>
        <time>2020-09-16T05:09:33Z</time>
      </trkpt>
      <trkpt lat="42.70346" lon="0.51094">
        <ele>2572.6000976562</ele>
        <time>2020-09-16T05:14:45Z</time>
      </trkpt>
      <trkpt lat="42.70322" lon="0.51115">
        <ele>2576.8000488281</ele>
        <time>2020-09-16T05:15:38Z</time>
      </trkpt>
      <trkpt lat="42.70319" lon="0.51118">
        <ele>2577</ele>
        <time>2020-09-16T05:15:45Z</time>
      </trkpt>
      <trkpt lat="42.70294" lon="0.51148">
        <ele>2580.6000976562</ele>
        <time>2020-09-16T05:16:58Z</time>
      </trkpt>
      <trkpt lat="42.70295" lon="0.5118">
        <ele>2585.8000488281</ele>
        <time>2020-09-16T05:18:05Z</time>
      </trkpt>
      <trkpt lat="42.70299" lon="0.5119">
        <ele>2590</ele>
        <time>2020-09-16T05:18:32Z</time>
      </trkpt>
      <trkpt lat="42.70295" lon="0.5121">
        <ele>2595</ele>
        <time>2020-09-16T05:19:04Z</time>
      </trkpt>
      <trkpt lat="42.70293" lon="0.5123">
        <ele>2599</ele>
        <time>2020-09-16T05:19:34Z</time>
      </trkpt>
      <trkpt lat="42.70292" lon="0.51246">
        <ele>2603.3999023438</ele>
        <time>2020-09-16T05:20:13Z</time>
      </trkpt>
      <trkpt lat="42.70289" lon="0.51261">
        <ele>2606.6000976562</ele>
        <time>2020-09-16T05:20:46Z</time>
      </trkpt>
      <trkpt lat="42.70285" lon="0.51282">
        <ele>2612</ele>
        <time>2020-09-16T05:21:17Z</time>
      </trkpt>
      <trkpt lat="42.7028" lon="0.513">
        <ele>2617.1999511719</ele>
        <time>2020-09-16T05:21:49Z</time>
      </trkpt>
      <trkpt lat="42.70283" lon="0.51309">
        <ele>2622</ele>
        <time>2020-09-16T05:22:14Z</time>
      </trkpt>
      <trkpt lat="42.70286" lon="0.5132">
        <ele>2625.6000976562</ele>
        <time>2020-09-16T05:22:38Z</time>
      </trkpt>
      <trkpt lat="42.70292" lon="0.5133">
        <ele>2630</ele>
        <time>2020-09-16T05:23:12Z</time>
      </trkpt>
      <trkpt lat="42.70294" lon="0.51323">
        <ele>2633</ele>
        <time>2020-09-16T05:23:27Z</time>
      </trkpt>
      <trkpt lat="42.703" lon="0.51334">
        <ele>2637.8000488281</ele>
        <time>2020-09-16T05:23:56Z</time>
      </trkpt>
      <trkpt lat="42.70298" lon="0.51349">
        <ele>2643.1999511719</ele>
        <time>2020-09-16T05:24:27Z</time>
      </trkpt>
      <trkpt lat="42.70296" lon="0.51366">
        <ele>2647.1999511719</ele>
        <time>2020-09-16T05:24:56Z</time>
      </trkpt>
      <trkpt lat="42.70293" lon="0.51389">
        <ele>2652.1999511719</ele>
        <time>2020-09-16T05:25:31Z</time>
      </trkpt>
      <trkpt lat="42.70283" lon="0.51418">
        <ele>2657.3999023438</ele>
        <time>2020-09-16T05:26:09Z</time>
      </trkpt>
      <trkpt lat="42.70278" lon="0.51442">
        <ele>2662</ele>
        <time>2020-09-16T05:26:39Z</time>
      </trkpt>
      <trkpt lat="42.70276" lon="0.51464">
        <ele>2666.1999511719</ele>
        <time>2020-09-16T05:27:10Z</time>
      </trkpt>
      <trkpt lat="42.70272" lon="0.51489">
        <ele>2670.8000488281</ele>
        <time>2020-09-16T05:27:43Z</time>
      </trkpt>
      <trkpt lat="42.70281" lon="0.51494">
        <ele>2675.6000976562</ele>
        <time>2020-09-16T05:28:11Z</time>
      </trkpt>
      <trkpt lat="42.70281" lon="0.51515">
        <ele>2679.8000488281</ele>
        <time>2020-09-16T05:28:40Z</time>
      </trkpt>
      <trkpt lat="42.70282" lon="0.51532">
        <ele>2683.3999023438</ele>
        <time>2020-09-16T05:29:08Z</time>
      </trkpt>
      <trkpt lat="42.70283" lon="0.51546">
        <ele>2688</ele>
        <time>2020-09-16T05:29:37Z</time>
      </trkpt>
      <trkpt lat="42.70283" lon="0.51548">
        <ele>2707.6000976562</ele>
        <time>2020-09-16T05:29:42Z</time>
      </trkpt>
      <trkpt lat="42.70283" lon="0.51549">
        <ele>2711.8000488281</ele>
        <time>2020-09-16T05:29:44Z</time>
      </trkpt>
      <trkpt lat="42.70287" lon="0.51554">
        <ele>2716.1999511719</ele>
        <time>2020-09-16T05:30:02Z</time>
      </trkpt>
      <trkpt lat="42.70292" lon="0.51562">
        <ele>2720.3999023438</ele>
        <time>2020-09-16T05:30:29Z</time>
      </trkpt>
      <trkpt lat="42.70297" lon="0.51569">
        <ele>2724.8000488281</ele>
        <time>2020-09-16T05:30:59Z</time>
      </trkpt>
      <trkpt lat="42.70304" lon="0.51577">
        <ele>2729</ele>
        <time>2020-09-16T05:31:26Z</time>
      </trkpt>
      <trkpt lat="42.70312" lon="0.51584">
        <ele>2733.6000976562</ele>
        <time>2020-09-16T05:31:53Z</time>
      </trkpt>
      <trkpt lat="42.7032" lon="0.51588">
        <ele>2738.6000976562</ele>
        <time>2020-09-16T05:32:22Z</time>
      </trkpt>
      <trkpt lat="42.70317" lon="0.51603">
        <ele>2743.8000488281</ele>
        <time>2020-09-16T05:32:56Z</time>
      </trkpt>
      <trkpt lat="42.70318" lon="0.51613">
        <ele>2748</ele>
        <time>2020-09-16T05:33:28Z</time>
      </trkpt>
      <trkpt lat="42.70321" lon="0.51621">
        <ele>2752.1999511719</ele>
        <time>2020-09-16T05:33:55Z</time>
      </trkpt>
      <trkpt lat="42.70322" lon="0.51628">
        <ele>2755.1999511719</ele>
        <time>2020-09-16T05:34:12Z</time>
      </trkpt>
      <trkpt lat="42.70314" lon="0.51638">
        <ele>2758.6000976562</ele>
        <time>2020-09-16T05:34:31Z</time>
      </trkpt>
      <trkpt lat="42.70302" lon="0.5166">
        <ele>2761.8000488281</ele>
        <time>2020-09-16T05:34:59Z</time>
      </trkpt>
      <trkpt lat="42.70299" lon="0.51683">
        <ele>2765.6000976562</ele>
        <time>2020-09-16T05:35:26Z</time>
      </trkpt>
      <trkpt lat="42.70292" lon="0.51711">
        <ele>2768</ele>
        <time>2020-09-16T05:35:57Z</time>
      </trkpt>
      <trkpt lat="42.70292" lon="0.51714">
        <ele>2768.1999511719</ele>
        <time>2020-09-16T05:35:59Z</time>
      </trkpt>
      <trkpt lat="42.70285" lon="0.51746">
        <ele>2773.1999511719</ele>
        <time>2020-09-16T05:36:34Z</time>
      </trkpt>
      <trkpt lat="42.70288" lon="0.51777">
        <ele>2778.3999023438</ele>
        <time>2020-09-16T05:37:07Z</time>
      </trkpt>
      <trkpt lat="42.70289" lon="0.51822">
        <ele>2782.8000488281</ele>
        <time>2020-09-16T05:37:59Z</time>
      </trkpt>
      <trkpt lat="42.70286" lon="0.51837">
        <ele>2785.8000488281</ele>
        <time>2020-09-16T05:38:16Z</time>
      </trkpt>
      <trkpt lat="42.7029" lon="0.51869">
        <ele>2790</ele>
        <time>2020-09-16T05:38:49Z</time>
      </trkpt>
      <trkpt lat="42.70285" lon="0.51899">
        <ele>2793.3999023438</ele>
        <time>2020-09-16T05:39:20Z</time>
      </trkpt>
      <trkpt lat="42.70281" lon="0.51959">
        <ele>2796.3999023438</ele>
        <time>2020-09-16T05:40:29Z</time>
      </trkpt>
      <trkpt lat="42.70273" lon="0.5198">
        <ele>2799.6000976562</ele>
        <time>2020-09-16T05:40:57Z</time>
      </trkpt>
      <trkpt lat="42.70263" lon="0.51999">
        <ele>2804</ele>
        <time>2020-09-16T05:41:27Z</time>
      </trkpt>
      <trkpt lat="42.70261" lon="0.52009">
        <ele>2807.1999511719</ele>
        <time>2020-09-16T05:41:43Z</time>
      </trkpt>
      <trkpt lat="42.70263" lon="0.52026">
        <ele>2812.3999023438</ele>
        <time>2020-09-16T05:42:11Z</time>
      </trkpt>
      <trkpt lat="42.70262" lon="0.52048">
        <ele>2818</ele>
        <time>2020-09-16T05:42:46Z</time>
      </trkpt>
      <trkpt lat="42.70264" lon="0.52059">
        <ele>2821.8000488281</ele>
        <time>2020-09-16T05:43:16Z</time>
      </trkpt>
      <trkpt lat="42.70257" lon="0.5208">
        <ele>2825</ele>
        <time>2020-09-16T05:43:44Z</time>
      </trkpt>
      <trkpt lat="42.70248" lon="0.52119">
        <ele>2831.1999511719</ele>
        <time>2020-09-16T05:44:40Z</time>
      </trkpt>
      <trkpt lat="42.70251" lon="0.52135">
        <ele>2835.8000488281</ele>
        <time>2020-09-16T05:45:10Z</time>
      </trkpt>
      <trkpt lat="42.7025" lon="0.52151">
        <ele>2840.6000976562</ele>
        <time>2020-09-16T05:45:38Z</time>
      </trkpt>
      <trkpt lat="42.70251" lon="0.52161">
        <ele>2844.3999023438</ele>
        <time>2020-09-16T05:46:03Z</time>
      </trkpt>
      <trkpt lat="42.70248" lon="0.52172">
        <ele>2849</ele>
        <time>2020-09-16T05:46:32Z</time>
      </trkpt>
      <trkpt lat="42.70251" lon="0.52184">
        <ele>2853.8000488281</ele>
        <time>2020-09-16T05:47:00Z</time>
      </trkpt>
      <trkpt lat="42.70248" lon="0.52197">
        <ele>2858.3999023438</ele>
        <time>2020-09-16T05:47:28Z</time>
      </trkpt>
      <trkpt lat="42.70245" lon="0.52212">
        <ele>2862.6000976562</ele>
        <time>2020-09-16T05:47:55Z</time>
      </trkpt>
      <trkpt lat="42.70235" lon="0.52225">
        <ele>2867.6000976562</ele>
        <time>2020-09-16T05:48:27Z</time>
      </trkpt>
      <trkpt lat="42.70227" lon="0.52236">
        <ele>2871.6000976562</ele>
        <time>2020-09-16T05:48:56Z</time>
      </trkpt>
      <trkpt lat="42.70225" lon="0.52248">
        <ele>2876</ele>
        <time>2020-09-16T05:49:26Z</time>
      </trkpt>
      <trkpt lat="42.70224" lon="0.5226">
        <ele>2881.6000976562</ele>
        <time>2020-09-16T05:49:55Z</time>
      </trkpt>
      <trkpt lat="42.70223" lon="0.5227">
        <ele>2886.1999511719</ele>
        <time>2020-09-16T05:50:25Z</time>
      </trkpt>
      <trkpt lat="42.70223" lon="0.52279">
        <ele>2891.1999511719</ele>
        <time>2020-09-16T05:50:54Z</time>
      </trkpt>
      <trkpt lat="42.70219" lon="0.52287">
        <ele>2896</ele>
        <time>2020-09-16T05:51:21Z</time>
      </trkpt>
      <trkpt lat="42.70216" lon="0.52297">
        <ele>2901.3999023438</ele>
        <time>2020-09-16T05:51:52Z</time>
      </trkpt>
      <trkpt lat="42.70213" lon="0.52309">
        <ele>2906.1999511719</ele>
        <time>2020-09-16T05:52:21Z</time>
      </trkpt>
      <trkpt lat="42.70213" lon="0.52316">
        <ele>2911</ele>
        <time>2020-09-16T05:52:49Z</time>
      </trkpt>
      <trkpt lat="42.70222" lon="0.52326">
        <ele>2916.3999023438</ele>
        <time>2020-09-16T05:53:21Z</time>
      </trkpt>
      <trkpt lat="42.70219" lon="0.52334">
        <ele>2919.3999023438</ele>
        <time>2020-09-16T05:53:39Z</time>
      </trkpt>
      <trkpt lat="42.70217" lon="0.52341">
        <ele>2922.6000976562</ele>
        <time>2020-09-16T05:53:56Z</time>
      </trkpt>
      <trkpt lat="42.70213" lon="0.52354">
        <ele>2928</ele>
        <time>2020-09-16T05:54:25Z</time>
      </trkpt>
      <trkpt lat="42.70209" lon="0.52366">
        <ele>2933.6000976562</ele>
        <time>2020-09-16T05:54:55Z</time>
      </trkpt>
      <trkpt lat="42.70196" lon="0.52433">
        <ele>2937.8000488281</ele>
        <time>2020-09-16T06:02:48Z</time>
      </trkpt>
      <trkpt lat="42.70176" lon="0.52485">
        <ele>2942.1999511719</ele>
        <time>2020-09-16T06:03:44Z</time>
      </trkpt>
      <trkpt lat="42.70162" lon="0.52513">
        <ele>2947.6000976562</ele>
        <time>2020-09-16T06:04:19Z</time>
      </trkpt>
      <trkpt lat="42.70153" lon="0.5253">
        <ele>2952.3999023438</ele>
        <time>2020-09-16T06:04:50Z</time>
      </trkpt>
      <trkpt lat="42.70145" lon="0.52552">
        <ele>2957.6000976562</ele>
        <time>2020-09-16T06:05:36Z</time>
      </trkpt>
      <trkpt lat="42.70143" lon="0.52568">
        <ele>2961.8000488281</ele>
        <time>2020-09-16T06:06:06Z</time>
      </trkpt>
      <trkpt lat="42.70137" lon="0.52586">
        <ele>2967.1999511719</ele>
        <time>2020-09-16T06:06:44Z</time>
      </trkpt>
      <trkpt lat="42.70135" lon="0.52609">
        <ele>2971.6000976562</ele>
        <time>2020-09-16T06:07:15Z</time>
      </trkpt>
      <trkpt lat="42.70128" lon="0.5262">
        <ele>2975.1999511719</ele>
        <time>2020-09-16T06:07:43Z</time>
      </trkpt>
      <trkpt lat="42.70121" lon="0.52627">
        <ele>2980.3999023438</ele>
        <time>2020-09-16T06:08:09Z</time>
      </trkpt>
      <trkpt lat="42.7012" lon="0.52638">
        <ele>2986</ele>
        <time>2020-09-16T06:08:35Z</time>
      </trkpt>
      <trkpt lat="42.70119" lon="0.52641">
        <ele>2989</ele>
        <time>2020-09-16T06:09:02Z</time>
      </trkpt>
      <trkpt lat="42.70098" lon="0.52631">
        <ele>2993.6000976562</ele>
        <time>2020-09-16T06:16:04Z</time>
      </trkpt>
      <trkpt lat="42.70098" lon="0.5263">
        <ele>2993.6000976562</ele>
        <time>2020-09-16T06:16:05Z</time>
      </trkpt>
      <trkpt lat="42.70089" lon="0.52621">
        <ele>2997.1999511719</ele>
        <time>2020-09-16T06:16:37Z</time>
      </trkpt>
      <trkpt lat="42.70077" lon="0.5261">
        <ele>3001.6000976562</ele>
        <time>2020-09-16T06:17:29Z</time>
      </trkpt>
      <trkpt lat="42.70079" lon="0.52618">
        <ele>3004.6000976562</ele>
        <time>2020-09-16T06:18:06Z</time>
      </trkpt>
      <trkpt lat="42.70076" lon="0.52621">
        <ele>3008.8000488281</ele>
        <time>2020-09-16T06:18:58Z</time>
      </trkpt>
      <trkpt lat="42.70075" lon="0.52623">
        <ele>3012.8000488281</ele>
        <time>2020-09-16T06:19:29Z</time>
      </trkpt>
      <trkpt lat="42.70073" lon="0.5263">
        <ele>3016.6000976562</ele>
        <time>2020-09-16T06:19:58Z</time>
      </trkpt>
      <trkpt lat="42.70066" lon="0.52626">
        <ele>3021.1999511719</ele>
        <time>2020-09-16T06:20:31Z</time>
      </trkpt>
      <trkpt lat="42.70062" lon="0.52622">
        <ele>3024.3999023438</ele>
        <time>2020-09-16T06:20:47Z</time>
      </trkpt>
      <trkpt lat="42.7006" lon="0.52625">
        <ele>3027.8000488281</ele>
        <time>2020-09-16T06:21:21Z</time>
      </trkpt>
      <trkpt lat="42.70056" lon="0.52615">
        <ele>3033.8000488281</ele>
        <time>2020-09-16T06:21:54Z</time>
      </trkpt>
      <trkpt lat="42.70053" lon="0.52615">
        <ele>3038.3999023438</ele>
        <time>2020-09-16T06:22:30Z</time>
      </trkpt>
      <trkpt lat="42.70052" lon="0.52618">
        <ele>3042.6000976562</ele>
        <time>2020-09-16T06:23:28Z</time>
      </trkpt>
      <trkpt lat="42.70051" lon="0.52622">
        <ele>3041.8000488281</ele>
        <time>2020-09-16T06:24:45Z</time>
      </trkpt>
      <trkpt lat="42.70041" lon="0.52608">
        <ele>3038.1999511719</ele>
        <time>2020-09-16T06:25:56Z</time>
      </trkpt>
      <trkpt lat="42.70026" lon="0.52588">
        <ele>3039.8000488281</ele>
        <time>2020-09-16T06:30:35Z</time>
      </trkpt>
      <trkpt lat="42.70022" lon="0.52586">
        <ele>3036.8000488281</ele>
        <time>2020-09-16T06:31:31Z</time>
      </trkpt>
      <trkpt lat="42.70003" lon="0.52545">
        <ele>3048.6000976562</ele>
        <time>2020-09-16T06:33:05Z</time>
      </trkpt>
      <trkpt lat="42.69999" lon="0.52537">
        <ele>3052.3999023438</ele>
        <time>2020-09-16T06:33:38Z</time>
      </trkpt>
      <trkpt lat="42.69994" lon="0.52515">
        <ele>3056.8000488281</ele>
        <time>2020-09-16T06:34:26Z</time>
      </trkpt>
      <trkpt lat="42.6999" lon="0.52502">
        <ele>3059.8000488281</ele>
        <time>2020-09-16T06:34:57Z</time>
      </trkpt>
      <trkpt lat="42.69978" lon="0.52475">
        <ele>3064.1999511719</ele>
        <time>2020-09-16T06:36:02Z</time>
      </trkpt>
      <trkpt lat="42.69968" lon="0.5246">
        <ele>3068.1999511719</ele>
        <time>2020-09-16T06:36:45Z</time>
      </trkpt>
      <trkpt lat="42.69959" lon="0.52443">
        <ele>3071.6000976562</ele>
        <time>2020-09-16T06:37:17Z</time>
      </trkpt>
      <trkpt lat="42.69949" lon="0.52426">
        <ele>3074.8000488281</ele>
        <time>2020-09-16T06:37:49Z</time>
      </trkpt>
      <trkpt lat="42.69944" lon="0.52419">
        <ele>3078</ele>
        <time>2020-09-16T06:38:10Z</time>
      </trkpt>
      <trkpt lat="42.69944" lon="0.52406">
        <ele>3083</ele>
        <time>2020-09-16T06:39:38Z</time>
      </trkpt>
      <trkpt lat="42.69943" lon="0.52393">
        <ele>3088.8000488281</ele>
        <time>2020-09-16T06:40:13Z</time>
      </trkpt>
      <trkpt lat="42.69941" lon="0.5238">
        <ele>3092.8000488281</ele>
        <time>2020-09-16T06:40:42Z</time>
      </trkpt>
      <trkpt lat="42.69943" lon="0.52371">
        <ele>3098</ele>
        <time>2020-09-16T06:41:14Z</time>
      </trkpt>
      <trkpt lat="42.69944" lon="0.52369">
        <ele>3101.1999511719</ele>
        <time>2020-09-16T06:41:32Z</time>
      </trkpt>
      <trkpt lat="42.69944" lon="0.52362">
        <ele>3104.1999511719</ele>
        <time>2020-09-16T06:41:46Z</time>
      </trkpt>
      <trkpt lat="42.69931" lon="0.52349">
        <ele>3107.6000976562</ele>
        <time>2020-09-16T06:42:13Z</time>
      </trkpt>
      <trkpt lat="42.69935" lon="0.52343">
        <ele>3111.1999511719</ele>
        <time>2020-09-16T06:42:46Z</time>
      </trkpt>
      <trkpt lat="42.69935" lon="0.52339">
        <ele>3114.1999511719</ele>
        <time>2020-09-16T06:42:58Z</time>
      </trkpt>
      <trkpt lat="42.69932" lon="0.52334">
        <ele>3117.1999511719</ele>
        <time>2020-09-16T06:43:12Z</time>
      </trkpt>
      <trkpt lat="42.69927" lon="0.52327">
        <ele>3120.3999023438</ele>
        <time>2020-09-16T06:43:27Z</time>
      </trkpt>
      <trkpt lat="42.69926" lon="0.52326">
        <ele>3123.3999023438</ele>
        <time>2020-09-16T06:43:46Z</time>
      </trkpt>
      <trkpt lat="42.69922" lon="0.5232">
        <ele>3123.1999511719</ele>
        <time>2020-09-16T06:44:00Z</time>
      </trkpt>
      <trkpt lat="42.69906" lon="0.52305">
        <ele>3128.3999023438</ele>
        <time>2020-09-16T06:44:41Z</time>
      </trkpt>
      <trkpt lat="42.699" lon="0.52295">
        <ele>3131.8000488281</ele>
        <time>2020-09-16T06:45:12Z</time>
      </trkpt>
      <trkpt lat="42.6987" lon="0.52245">
        <ele>3128.6000976562</ele>
        <time>2020-09-16T06:52:25Z</time>
      </trkpt>
      <trkpt lat="42.69868" lon="0.52234">
        <ele>3125.1999511719</ele>
        <time>2020-09-16T06:52:59Z</time>
      </trkpt>
      <trkpt lat="42.6986" lon="0.52224">
        <ele>3120.8000488281</ele>
        <time>2020-09-16T06:53:30Z</time>
      </trkpt>
      <trkpt lat="42.69855" lon="0.52218">
        <ele>3116.3999023438</ele>
        <time>2020-09-16T06:53:56Z</time>
      </trkpt>
      <trkpt lat="42.69847" lon="0.52208">
        <ele>3112.1999511719</ele>
        <time>2020-09-16T06:54:25Z</time>
      </trkpt>
      <trkpt lat="42.6984" lon="0.52205">
        <ele>3109</ele>
        <time>2020-09-16T06:54:44Z</time>
      </trkpt>
      <trkpt lat="42.69826" lon="0.52188">
        <ele>3105.3999023438</ele>
        <time>2020-09-16T06:55:18Z</time>
      </trkpt>
      <trkpt lat="42.69819" lon="0.52178">
        <ele>3105.3999023438</ele>
        <time>2020-09-16T06:55:31Z</time>
      </trkpt>
      <trkpt lat="42.69804" lon="0.52148">
        <ele>3108.8000488281</ele>
        <time>2020-09-16T06:56:37Z</time>
      </trkpt>
      <trkpt lat="42.698" lon="0.52144">
        <ele>3112.3999023438</ele>
        <time>2020-09-16T06:57:09Z</time>
      </trkpt>
      <trkpt lat="42.69797" lon="0.52136">
        <ele>3115.6000976562</ele>
        <time>2020-09-16T06:57:24Z</time>
      </trkpt>
      <trkpt lat="42.69789" lon="0.52118">
        <ele>3119.3999023438</ele>
        <time>2020-09-16T06:57:59Z</time>
      </trkpt>
      <trkpt lat="42.69792" lon="0.52121">
        <ele>3119.6000976562</ele>
        <time>2020-09-16T06:58:03Z</time>
      </trkpt>
      <trkpt lat="42.69778" lon="0.521">
        <ele>3122.6000976562</ele>
        <time>2020-09-16T06:58:40Z</time>
      </trkpt>
      <trkpt lat="42.6974" lon="0.52068">
        <ele>3116.8000488281</ele>
        <time>2020-09-16T07:03:41Z</time>
      </trkpt>
      <trkpt lat="42.69716" lon="0.52078">
        <ele>3107.8000488281</ele>
        <time>2020-09-16T07:04:10Z</time>
      </trkpt>
      <trkpt lat="42.69702" lon="0.52088">
        <ele>3104.3999023438</ele>
        <time>2020-09-16T07:04:52Z</time>
      </trkpt>
      <trkpt lat="42.69684" lon="0.52094">
        <ele>3100.3999023438</ele>
        <time>2020-09-16T07:05:15Z</time>
      </trkpt>
      <trkpt lat="42.69674" lon="0.52092">
        <ele>3106</ele>
        <time>2020-09-16T07:05:42Z</time>
      </trkpt>
      <trkpt lat="42.69662" lon="0.52094">
        <ele>3100.6000976562</ele>
        <time>2020-09-16T07:06:24Z</time>
      </trkpt>
      <trkpt lat="42.69651" lon="0.52096">
        <ele>3095.8000488281</ele>
        <time>2020-09-16T07:06:51Z</time>
      </trkpt>
      <trkpt lat="42.69646" lon="0.52098">
        <ele>3092.3999023438</ele>
        <time>2020-09-16T07:07:06Z</time>
      </trkpt>
      <trkpt lat="42.69646" lon="0.52098">
        <ele>3092.1999511719</ele>
        <time>2020-09-16T07:07:07Z</time>
      </trkpt>
      <trkpt lat="42.69639" lon="0.52098">
        <ele>3089.1999511719</ele>
        <time>2020-09-16T07:07:22Z</time>
      </trkpt>
      <trkpt lat="42.69627" lon="0.52099">
        <ele>3086</ele>
        <time>2020-09-16T07:07:48Z</time>
      </trkpt>
      <trkpt lat="42.69617" lon="0.521">
        <ele>3083</ele>
        <time>2020-09-16T07:08:11Z</time>
      </trkpt>
      <trkpt lat="42.69606" lon="0.52102">
        <ele>3082.8000488281</ele>
        <time>2020-09-16T07:08:24Z</time>
      </trkpt>
      <trkpt lat="42.69563" lon="0.52111">
        <ele>3088.3999023438</ele>
        <time>2020-09-16T07:09:35Z</time>
      </trkpt>
      <trkpt lat="42.69556" lon="0.52118">
        <ele>3091.3999023438</ele>
        <time>2020-09-16T07:09:47Z</time>
      </trkpt>
      <trkpt lat="42.69545" lon="0.5212">
        <ele>3095.6000976562</ele>
        <time>2020-09-16T07:10:02Z</time>
      </trkpt>
      <trkpt lat="42.6953" lon="0.52098">
        <ele>3090.3999023438</ele>
        <time>2020-09-16T07:21:20Z</time>
      </trkpt>
      <trkpt lat="42.69524" lon="0.52095">
        <ele>3085.1999511719</ele>
        <time>2020-09-16T07:21:59Z</time>
      </trkpt>
      <trkpt lat="42.6952" lon="0.52091">
        <ele>3080.6000976562</ele>
        <time>2020-09-16T07:22:27Z</time>
      </trkpt>
      <trkpt lat="42.69517" lon="0.52087">
        <ele>3077.6000976562</ele>
        <time>2020-09-16T07:22:44Z</time>
      </trkpt>
      <trkpt lat="42.69513" lon="0.52089">
        <ele>3074.6000976562</ele>
        <time>2020-09-16T07:22:56Z</time>
      </trkpt>
      <trkpt lat="42.6951" lon="0.52089">
        <ele>3071.6000976562</ele>
        <time>2020-09-16T07:23:08Z</time>
      </trkpt>
      <trkpt lat="42.69505" lon="0.52093">
        <ele>3066.1999511719</ele>
        <time>2020-09-16T07:23:33Z</time>
      </trkpt>
      <trkpt lat="42.69501" lon="0.52097">
        <ele>3062.8000488281</ele>
        <time>2020-09-16T07:23:46Z</time>
      </trkpt>
      <trkpt lat="42.69495" lon="0.52098">
        <ele>3059.8000488281</ele>
        <time>2020-09-16T07:23:57Z</time>
      </trkpt>
      <trkpt lat="42.69465" lon="0.52087">
        <ele>3051.3999023438</ele>
        <time>2020-09-16T07:27:49Z</time>
      </trkpt>
      <trkpt lat="42.69456" lon="0.52088">
        <ele>3056.1999511719</ele>
        <time>2020-09-16T07:28:17Z</time>
      </trkpt>
      <trkpt lat="42.69451" lon="0.5209">
        <ele>3059.3999023438</ele>
        <time>2020-09-16T07:28:33Z</time>
      </trkpt>
      <trkpt lat="42.69445" lon="0.52079">
        <ele>3064.3999023438</ele>
        <time>2020-09-16T07:29:07Z</time>
      </trkpt>
      <trkpt lat="42.6944" lon="0.52077">
        <ele>3067.6000976562</ele>
        <time>2020-09-16T07:29:35Z</time>
      </trkpt>
      <trkpt lat="42.69438" lon="0.52072">
        <ele>3072.3999023438</ele>
        <time>2020-09-16T07:30:09Z</time>
      </trkpt>
      <trkpt lat="42.69432" lon="0.52059">
        <ele>3076</ele>
        <time>2020-09-16T07:31:10Z</time>
      </trkpt>
      <trkpt lat="42.6943" lon="0.52057">
        <ele>3080.6000976562</ele>
        <time>2020-09-16T07:31:48Z</time>
      </trkpt>
      <trkpt lat="42.69427" lon="0.52055">
        <ele>3083.6000976562</ele>
        <time>2020-09-16T07:32:04Z</time>
      </trkpt>
      <trkpt lat="42.6942" lon="0.52055">
        <ele>3088.6000976562</ele>
        <time>2020-09-16T07:32:34Z</time>
      </trkpt>
      <trkpt lat="42.69418" lon="0.52055">
        <ele>3091.6000976562</ele>
        <time>2020-09-16T07:32:51Z</time>
      </trkpt>
      <trkpt lat="42.69414" lon="0.52054">
        <ele>3094.6000976562</ele>
        <time>2020-09-16T07:33:08Z</time>
      </trkpt>
      <trkpt lat="42.69401" lon="0.5202">
        <ele>3099.1999511719</ele>
        <time>2020-09-16T07:34:15Z</time>
      </trkpt>
      <trkpt lat="42.69391" lon="0.52014">
        <ele>3104.3999023438</ele>
        <time>2020-09-16T07:34:43Z</time>
      </trkpt>
      <trkpt lat="42.69361" lon="0.51977">
        <ele>3109</ele>
        <time>2020-09-16T07:36:09Z</time>
      </trkpt>
      <trkpt lat="42.69357" lon="0.51967">
        <ele>3108.8000488281</ele>
        <time>2020-09-16T07:36:24Z</time>
      </trkpt>
      <trkpt lat="42.69349" lon="0.5196">
        <ele>3112.3999023438</ele>
        <time>2020-09-16T07:36:55Z</time>
      </trkpt>
      <trkpt lat="42.69346" lon="0.5196">
        <ele>3115.6000976562</ele>
        <time>2020-09-16T07:37:11Z</time>
      </trkpt>
      <trkpt lat="42.69341" lon="0.51954">
        <ele>3119.3999023438</ele>
        <time>2020-09-16T07:37:42Z</time>
      </trkpt>
      <trkpt lat="42.69337" lon="0.5195">
        <ele>3122.6000976562</ele>
        <time>2020-09-16T07:37:56Z</time>
      </trkpt>
      <trkpt lat="42.69332" lon="0.5194">
        <ele>3128</ele>
        <time>2020-09-16T07:38:26Z</time>
      </trkpt>
      <trkpt lat="42.69326" lon="0.51934">
        <ele>3132.3999023438</ele>
        <time>2020-09-16T07:39:00Z</time>
      </trkpt>
      <trkpt lat="42.69319" lon="0.51926">
        <ele>3137.6000976562</ele>
        <time>2020-09-16T07:39:29Z</time>
      </trkpt>
      <trkpt lat="42.69315" lon="0.51926">
        <ele>3140.6000976562</ele>
        <time>2020-09-16T07:39:43Z</time>
      </trkpt>
      <trkpt lat="42.6931" lon="0.51922">
        <ele>3144.3999023438</ele>
        <time>2020-09-16T07:40:13Z</time>
      </trkpt>
      <trkpt lat="42.69306" lon="0.5192">
        <ele>3147.3999023438</ele>
        <time>2020-09-16T07:40:31Z</time>
      </trkpt>
      <trkpt lat="42.69301" lon="0.51914">
        <ele>3152</ele>
        <time>2020-09-16T07:40:59Z</time>
      </trkpt>
      <trkpt lat="42.69297" lon="0.51912">
        <ele>3155</ele>
        <time>2020-09-16T07:41:13Z</time>
      </trkpt>
      <trkpt lat="42.69295" lon="0.5191">
        <ele>3159.1999511719</ele>
        <time>2020-09-16T07:41:43Z</time>
      </trkpt>
      <trkpt lat="42.69288" lon="0.51915">
        <ele>3162.6000976562</ele>
        <time>2020-09-16T07:42:13Z</time>
      </trkpt>
      <trkpt lat="42.69281" lon="0.51912">
        <ele>3167.6000976562</ele>
        <time>2020-09-16T07:42:42Z</time>
      </trkpt>
      <trkpt lat="42.69275" lon="0.51908">
        <ele>3171.1999511719</ele>
        <time>2020-09-16T07:43:13Z</time>
      </trkpt>
      <trkpt lat="42.69269" lon="0.51905">
        <ele>3176.1999511719</ele>
        <time>2020-09-16T07:43:45Z</time>
      </trkpt>
      <trkpt lat="42.69265" lon="0.519">
        <ele>3179.3999023438</ele>
        <time>2020-09-16T07:44:21Z</time>
      </trkpt>
      <trkpt lat="42.69256" lon="0.51895">
        <ele>3184.1999511719</ele>
        <time>2020-09-16T07:44:54Z</time>
      </trkpt>
      <trkpt lat="42.69251" lon="0.51894">
        <ele>3187.1999511719</ele>
        <time>2020-09-16T07:45:13Z</time>
      </trkpt>
      <trkpt lat="42.69243" lon="0.5189">
        <ele>3192.1999511719</ele>
        <time>2020-09-16T07:45:45Z</time>
      </trkpt>
      <trkpt lat="42.69239" lon="0.51888">
        <ele>3195.8000488281</ele>
        <time>2020-09-16T07:46:13Z</time>
      </trkpt>
      <trkpt lat="42.69237" lon="0.51893">
        <ele>3200</ele>
        <time>2020-09-16T07:46:40Z</time>
      </trkpt>
      <trkpt lat="42.69232" lon="0.51893">
        <ele>3203.1999511719</ele>
        <time>2020-09-16T07:46:53Z</time>
      </trkpt>
      <trkpt lat="42.69225" lon="0.51893">
        <ele>3206.1999511719</ele>
        <time>2020-09-16T07:47:07Z</time>
      </trkpt>
      <trkpt lat="42.69212" lon="0.51888">
        <ele>3209.1999511719</ele>
        <time>2020-09-16T07:47:34Z</time>
      </trkpt>
      <trkpt lat="42.69185" lon="0.5191">
        <ele>3206.1999511719</ele>
        <time>2020-09-16T07:55:24Z</time>
      </trkpt>
      <trkpt lat="42.69175" lon="0.5191">
        <ele>3201.3999023438</ele>
        <time>2020-09-16T07:55:51Z</time>
      </trkpt>
      <trkpt lat="42.6917" lon="0.51911">
        <ele>3198.1999511719</ele>
        <time>2020-09-16T07:56:05Z</time>
      </trkpt>
      <trkpt lat="42.69161" lon="0.51918">
        <ele>3193</ele>
        <time>2020-09-16T07:56:30Z</time>
      </trkpt>
      <trkpt lat="42.69157" lon="0.51928">
        <ele>3190</ele>
        <time>2020-09-16T07:56:43Z</time>
      </trkpt>
      <trkpt lat="42.69156" lon="0.51949">
        <ele>3186</ele>
        <time>2020-09-16T07:57:01Z</time>
      </trkpt>
      <trkpt lat="42.69156" lon="0.51965">
        <ele>3183</ele>
        <time>2020-09-16T07:57:17Z</time>
      </trkpt>
      <trkpt lat="42.69152" lon="0.51977">
        <ele>3180</ele>
        <time>2020-09-16T07:57:33Z</time>
      </trkpt>
      <trkpt lat="42.69149" lon="0.52009">
        <ele>3175.3999023438</ele>
        <time>2020-09-16T07:58:25Z</time>
      </trkpt>
      <trkpt lat="42.69141" lon="0.52026">
        <ele>3170.6000976562</ele>
        <time>2020-09-16T07:58:53Z</time>
      </trkpt>
      <trkpt lat="42.69137" lon="0.52045">
        <ele>3167.1999511719</ele>
        <time>2020-09-16T07:59:21Z</time>
      </trkpt>
      <trkpt lat="42.69137" lon="0.52049">
        <ele>3167</ele>
        <time>2020-09-16T07:59:36Z</time>
      </trkpt>
      <trkpt lat="42.69123" lon="0.52099">
        <ele>3163</ele>
        <time>2020-09-16T08:01:08Z</time>
      </trkpt>
      <trkpt lat="42.691" lon="0.5219">
        <ele>3165.1999511719</ele>
        <time>2020-09-16T08:03:19Z</time>
      </trkpt>
      <trkpt lat="42.69078" lon="0.52292">
        <ele>3162.1999511719</ele>
        <time>2020-09-16T08:05:53Z</time>
      </trkpt>
      <trkpt lat="42.69078" lon="0.52292">
        <ele>3165.6000976562</ele>
        <time>2020-09-16T08:06:01Z</time>
      </trkpt>
      <trkpt lat="42.69111" lon="0.52121">
        <ele>3160</ele>
        <time>2020-09-16T08:21:43Z</time>
      </trkpt>
      <trkpt lat="42.69115" lon="0.52113">
        <ele>3159.8000488281</ele>
        <time>2020-09-16T08:21:55Z</time>
      </trkpt>
      <trkpt lat="42.69122" lon="0.52101">
        <ele>3164</ele>
        <time>2020-09-16T08:22:17Z</time>
      </trkpt>
      <trkpt lat="42.69129" lon="0.52071">
        <ele>3167.3999023438</ele>
        <time>2020-09-16T08:22:56Z</time>
      </trkpt>
      <trkpt lat="42.69142" lon="0.52023">
        <ele>3170.8000488281</ele>
        <time>2020-09-16T08:23:51Z</time>
      </trkpt>
      <trkpt lat="42.69148" lon="0.51994">
        <ele>3175.3999023438</ele>
        <time>2020-09-16T08:24:31Z</time>
      </trkpt>
      <trkpt lat="42.69153" lon="0.5197">
        <ele>3179.6000976562</ele>
        <time>2020-09-16T08:25:01Z</time>
      </trkpt>
      <trkpt lat="42.69158" lon="0.51954">
        <ele>3183.1999511719</ele>
        <time>2020-09-16T08:25:31Z</time>
      </trkpt>
      <trkpt lat="42.69159" lon="0.51935">
        <ele>3187.3999023438</ele>
        <time>2020-09-16T08:26:00Z</time>
      </trkpt>
      <trkpt lat="42.69164" lon="0.51914">
        <ele>3192.8000488281</ele>
        <time>2020-09-16T08:26:30Z</time>
      </trkpt>
      <trkpt lat="42.69174" lon="0.51909">
        <ele>3197.6000976562</ele>
        <time>2020-09-16T08:26:56Z</time>
      </trkpt>
      <trkpt lat="42.69185" lon="0.5191">
        <ele>3203</ele>
        <time>2020-09-16T08:27:24Z</time>
      </trkpt>
      <trkpt lat="42.6919" lon="0.51897">
        <ele>3208.6000976562</ele>
        <time>2020-09-16T08:27:54Z</time>
      </trkpt>
      <trkpt lat="42.69193" lon="0.51877">
        <ele>3213.8000488281</ele>
        <time>2020-09-16T08:28:24Z</time>
      </trkpt>
      <trkpt lat="42.69178" lon="0.51828">
        <ele>3207.8000488281</ele>
        <time>2020-09-16T08:29:49Z</time>
      </trkpt>
      <trkpt lat="42.69172" lon="0.51818">
        <ele>3204.1999511719</ele>
        <time>2020-09-16T08:30:14Z</time>
      </trkpt>
      <trkpt lat="42.69167" lon="0.51807">
        <ele>3200.1999511719</ele>
        <time>2020-09-16T08:30:40Z</time>
      </trkpt>
      <trkpt lat="42.69164" lon="0.51794">
        <ele>3195.8000488281</ele>
        <time>2020-09-16T08:31:08Z</time>
      </trkpt>
      <trkpt lat="42.69161" lon="0.51784">
        <ele>3191.3999023438</ele>
        <time>2020-09-16T08:31:34Z</time>
      </trkpt>
      <trkpt lat="42.69147" lon="0.51753">
        <ele>3186.3999023438</ele>
        <time>2020-09-16T08:32:33Z</time>
      </trkpt>
      <trkpt lat="42.69144" lon="0.51745">
        <ele>3183.1999511719</ele>
        <time>2020-09-16T08:32:51Z</time>
      </trkpt>
      <trkpt lat="42.69141" lon="0.51729">
        <ele>3180.1999511719</ele>
        <time>2020-09-16T08:33:20Z</time>
      </trkpt>
      <trkpt lat="42.6914" lon="0.51721">
        <ele>3177.1999511719</ele>
        <time>2020-09-16T08:33:38Z</time>
      </trkpt>
      <trkpt lat="42.69136" lon="0.51702">
        <ele>3173.6000976562</ele>
        <time>2020-09-16T08:34:08Z</time>
      </trkpt>
      <trkpt lat="42.69136" lon="0.51688">
        <ele>3168.8000488281</ele>
        <time>2020-09-16T08:34:37Z</time>
      </trkpt>
      <trkpt lat="42.69129" lon="0.51618">
        <ele>3168.6000976562</ele>
        <time>2020-09-16T08:48:22Z</time>
      </trkpt>
      <trkpt lat="42.69131" lon="0.51642">
        <ele>3165.1999511719</ele>
        <time>2020-09-16T08:48:52Z</time>
      </trkpt>
      <trkpt lat="42.69139" lon="0.51708">
        <ele>3170.8000488281</ele>
        <time>2020-09-16T08:50:19Z</time>
      </trkpt>
      <trkpt lat="42.69142" lon="0.51729">
        <ele>3176.3999023438</ele>
        <time>2020-09-16T08:51:05Z</time>
      </trkpt>
      <trkpt lat="42.69143" lon="0.51748">
        <ele>3182.3999023438</ele>
        <time>2020-09-16T08:51:37Z</time>
      </trkpt>
      <trkpt lat="42.69152" lon="0.51766">
        <ele>3188</ele>
        <time>2020-09-16T08:52:09Z</time>
      </trkpt>
      <trkpt lat="42.69162" lon="0.5179">
        <ele>3191.1999511719</ele>
        <time>2020-09-16T08:52:51Z</time>
      </trkpt>
      <trkpt lat="42.69167" lon="0.51802">
        <ele>3195.8000488281</ele>
        <time>2020-09-16T08:53:19Z</time>
      </trkpt>
      <trkpt lat="42.6917" lon="0.5182">
        <ele>3201</ele>
        <time>2020-09-16T08:53:49Z</time>
      </trkpt>
      <trkpt lat="42.69176" lon="0.51831">
        <ele>3205</ele>
        <time>2020-09-16T08:54:17Z</time>
      </trkpt>
      <trkpt lat="42.69184" lon="0.51841">
        <ele>3208</ele>
        <time>2020-09-16T08:54:43Z</time>
      </trkpt>
      <trkpt lat="42.69187" lon="0.51855">
        <ele>3212.1999511719</ele>
        <time>2020-09-16T08:55:16Z</time>
      </trkpt>
      <trkpt lat="42.69208" lon="0.51886">
        <ele>3209</ele>
        <time>2020-09-16T09:27:16Z</time>
      </trkpt>
      <trkpt lat="42.69225" lon="0.51891">
        <ele>3205.6000976562</ele>
        <time>2020-09-16T09:27:57Z</time>
      </trkpt>
      <trkpt lat="42.69233" lon="0.51891">
        <ele>3202.1999511719</ele>
        <time>2020-09-16T09:28:43Z</time>
      </trkpt>
      <trkpt lat="42.69239" lon="0.51892">
        <ele>3198.6000976562</ele>
        <time>2020-09-16T09:29:27Z</time>
      </trkpt>
      <trkpt lat="42.69241" lon="0.51887">
        <ele>3194</ele>
        <time>2020-09-16T09:29:55Z</time>
      </trkpt>
      <trkpt lat="42.69248" lon="0.51891">
        <ele>3189.8000488281</ele>
        <time>2020-09-16T09:30:49Z</time>
      </trkpt>
      <trkpt lat="42.69249" lon="0.51884">
        <ele>3185.8000488281</ele>
        <time>2020-09-16T09:31:17Z</time>
      </trkpt>
      <trkpt lat="42.69244" lon="0.51871">
        <ele>3182.3999023438</ele>
        <time>2020-09-16T09:32:15Z</time>
      </trkpt>
      <trkpt lat="42.69248" lon="0.51871">
        <ele>3179</ele>
        <time>2020-09-16T09:32:40Z</time>
      </trkpt>
      <trkpt lat="42.69251" lon="0.51869">
        <ele>3174.6000976562</ele>
        <time>2020-09-16T09:33:08Z</time>
      </trkpt>
      <trkpt lat="42.69256" lon="0.51869">
        <ele>3171.6000976562</ele>
        <time>2020-09-16T09:33:59Z</time>
      </trkpt>
      <trkpt lat="42.69269" lon="0.51876">
        <ele>3167</ele>
        <time>2020-09-16T09:35:50Z</time>
      </trkpt>
      <trkpt lat="42.69279" lon="0.51885">
        <ele>3163.1999511719</ele>
        <time>2020-09-16T09:36:47Z</time>
      </trkpt>
      <trkpt lat="42.69281" lon="0.51887">
        <ele>3163</ele>
        <time>2020-09-16T09:36:59Z</time>
      </trkpt>
      <trkpt lat="42.69293" lon="0.51906">
        <ele>3158.8000488281</ele>
        <time>2020-09-16T09:38:07Z</time>
      </trkpt>
      <trkpt lat="42.69299" lon="0.5191">
        <ele>3154.3999023438</ele>
        <time>2020-09-16T09:39:06Z</time>
      </trkpt>
      <trkpt lat="42.69304" lon="0.51917">
        <ele>3149.6000976562</ele>
        <time>2020-09-16T09:39:35Z</time>
      </trkpt>
      <trkpt lat="42.69309" lon="0.51923">
        <ele>3145.3999023438</ele>
        <time>2020-09-16T09:40:02Z</time>
      </trkpt>
      <trkpt lat="42.69313" lon="0.5192">
        <ele>3141.3999023438</ele>
        <time>2020-09-16T09:40:30Z</time>
      </trkpt>
      <trkpt lat="42.69318" lon="0.51924">
        <ele>3137.8000488281</ele>
        <time>2020-09-16T09:40:58Z</time>
      </trkpt>
      <trkpt lat="42.69324" lon="0.51927">
        <ele>3134.3999023438</ele>
        <time>2020-09-16T09:41:24Z</time>
      </trkpt>
      <trkpt lat="42.69329" lon="0.51935">
        <ele>3130</ele>
        <time>2020-09-16T09:41:53Z</time>
      </trkpt>
      <trkpt lat="42.69335" lon="0.5194">
        <ele>3126.1999511719</ele>
        <time>2020-09-16T09:42:17Z</time>
      </trkpt>
      <trkpt lat="42.69337" lon="0.51951">
        <ele>3122.3999023438</ele>
        <time>2020-09-16T09:42:41Z</time>
      </trkpt>
      <trkpt lat="42.69343" lon="0.51956">
        <ele>3118.6000976562</ele>
        <time>2020-09-16T09:43:11Z</time>
      </trkpt>
      <trkpt lat="42.69347" lon="0.51961">
        <ele>3114.6000976562</ele>
        <time>2020-09-16T09:43:36Z</time>
      </trkpt>
      <trkpt lat="42.69352" lon="0.51959">
        <ele>3109.6000976562</ele>
        <time>2020-09-16T09:44:09Z</time>
      </trkpt>
      <trkpt lat="42.69358" lon="0.51971">
        <ele>3106.3999023438</ele>
        <time>2020-09-16T09:44:36Z</time>
      </trkpt>
      <trkpt lat="42.69377" lon="0.52002">
        <ele>3103.1999511719</ele>
        <time>2020-09-16T09:45:42Z</time>
      </trkpt>
      <trkpt lat="42.69406" lon="0.52026">
        <ele>3096.6000976562</ele>
        <time>2020-09-16T09:47:34Z</time>
      </trkpt>
      <trkpt lat="42.69414" lon="0.52051">
        <ele>3093.1999511719</ele>
        <time>2020-09-16T09:48:04Z</time>
      </trkpt>
      <trkpt lat="42.69419" lon="0.52053">
        <ele>3088.1999511719</ele>
        <time>2020-09-16T09:48:30Z</time>
      </trkpt>
      <trkpt lat="42.69427" lon="0.52051">
        <ele>3083.1999511719</ele>
        <time>2020-09-16T09:49:11Z</time>
      </trkpt>
      <trkpt lat="42.69429" lon="0.52056">
        <ele>3078.8000488281</ele>
        <time>2020-09-16T09:49:37Z</time>
      </trkpt>
      <trkpt lat="42.69432" lon="0.52062">
        <ele>3075</ele>
        <time>2020-09-16T09:50:22Z</time>
      </trkpt>
      <trkpt lat="42.69434" lon="0.52061">
        <ele>3072</ele>
        <time>2020-09-16T09:50:50Z</time>
      </trkpt>
      <trkpt lat="42.6944" lon="0.52063">
        <ele>3068</ele>
        <time>2020-09-16T09:51:18Z</time>
      </trkpt>
      <trkpt lat="42.69443" lon="0.52073">
        <ele>3064.6000976562</ele>
        <time>2020-09-16T09:51:48Z</time>
      </trkpt>
      <trkpt lat="42.69451" lon="0.52069">
        <ele>3058.8000488281</ele>
        <time>2020-09-16T09:52:14Z</time>
      </trkpt>
      <trkpt lat="42.69454" lon="0.52073">
        <ele>3055.6000976562</ele>
        <time>2020-09-16T09:52:27Z</time>
      </trkpt>
      <trkpt lat="42.69462" lon="0.5207">
        <ele>3051</ele>
        <time>2020-09-16T09:52:52Z</time>
      </trkpt>
      <trkpt lat="42.69474" lon="0.52072">
        <ele>3046.8000488281</ele>
        <time>2020-09-16T09:57:24Z</time>
      </trkpt>
      <trkpt lat="42.69491" lon="0.52048">
        <ele>3042.8000488281</ele>
        <time>2020-09-16T10:10:12Z</time>
      </trkpt>
      <trkpt lat="42.69494" lon="0.52036">
        <ele>3038.1999511719</ele>
        <time>2020-09-16T10:10:44Z</time>
      </trkpt>
      <trkpt lat="42.69492" lon="0.52025">
        <ele>3032.8000488281</ele>
        <time>2020-09-16T10:11:15Z</time>
      </trkpt>
      <trkpt lat="42.69492" lon="0.52017">
        <ele>3028</ele>
        <time>2020-09-16T10:11:50Z</time>
      </trkpt>
      <trkpt lat="42.69491" lon="0.52007">
        <ele>3025</ele>
        <time>2020-09-16T10:12:09Z</time>
      </trkpt>
      <trkpt lat="42.69492" lon="0.51998">
        <ele>3021.8000488281</ele>
        <time>2020-09-16T10:12:22Z</time>
      </trkpt>
      <trkpt lat="42.69491" lon="0.51991">
        <ele>3018.8000488281</ele>
        <time>2020-09-16T10:12:37Z</time>
      </trkpt>
      <trkpt lat="42.69491" lon="0.51981">
        <ele>3015.8000488281</ele>
        <time>2020-09-16T10:12:54Z</time>
      </trkpt>
      <trkpt lat="42.69493" lon="0.51969">
        <ele>3012</ele>
        <time>2020-09-16T10:13:19Z</time>
      </trkpt>
      <trkpt lat="42.69493" lon="0.51962">
        <ele>3009</ele>
        <time>2020-09-16T10:13:32Z</time>
      </trkpt>
      <trkpt lat="42.69492" lon="0.51955">
        <ele>3006</ele>
        <time>2020-09-16T10:13:51Z</time>
      </trkpt>
      <trkpt lat="42.69494" lon="0.51947">
        <ele>3002.8000488281</ele>
        <time>2020-09-16T10:14:07Z</time>
      </trkpt>
      <trkpt lat="42.69499" lon="0.51921">
        <ele>2997</ele>
        <time>2020-09-16T10:14:44Z</time>
      </trkpt>
      <trkpt lat="42.69503" lon="0.51915">
        <ele>2994</ele>
        <time>2020-09-16T10:15:02Z</time>
      </trkpt>
      <trkpt lat="42.69505" lon="0.5191">
        <ele>2991</ele>
        <time>2020-09-16T10:15:22Z</time>
      </trkpt>
      <trkpt lat="42.6951" lon="0.51906">
        <ele>2988</ele>
        <time>2020-09-16T10:15:40Z</time>
      </trkpt>
      <trkpt lat="42.69513" lon="0.51895">
        <ele>2984.8000488281</ele>
        <time>2020-09-16T10:15:59Z</time>
      </trkpt>
      <trkpt lat="42.69525" lon="0.51846">
        <ele>2981.1999511719</ele>
        <time>2020-09-16T10:17:32Z</time>
      </trkpt>
      <trkpt lat="42.69526" lon="0.51812">
        <ele>2973.1999511719</ele>
        <time>2020-09-16T10:18:29Z</time>
      </trkpt>
      <trkpt lat="42.69527" lon="0.51794">
        <ele>2968.1999511719</ele>
        <time>2020-09-16T10:18:56Z</time>
      </trkpt>
      <trkpt lat="42.69531" lon="0.51775">
        <ele>2962.1999511719</ele>
        <time>2020-09-16T10:19:23Z</time>
      </trkpt>
      <trkpt lat="42.69535" lon="0.51757">
        <ele>2956.6000976562</ele>
        <time>2020-09-16T10:19:50Z</time>
      </trkpt>
      <trkpt lat="42.69539" lon="0.5174">
        <ele>2951.6000976562</ele>
        <time>2020-09-16T10:20:22Z</time>
      </trkpt>
      <trkpt lat="42.69539" lon="0.51732">
        <ele>2948.6000976562</ele>
        <time>2020-09-16T10:20:38Z</time>
      </trkpt>
      <trkpt lat="42.69539" lon="0.51724">
        <ele>2945.6000976562</ele>
        <time>2020-09-16T10:20:55Z</time>
      </trkpt>
      <trkpt lat="42.69541" lon="0.51712">
        <ele>2941.3999023438</ele>
        <time>2020-09-16T10:21:22Z</time>
      </trkpt>
      <trkpt lat="42.69546" lon="0.51698">
        <ele>2937.8000488281</ele>
        <time>2020-09-16T10:21:48Z</time>
      </trkpt>
      <trkpt lat="42.69548" lon="0.51686">
        <ele>2934.8000488281</ele>
        <time>2020-09-16T10:22:05Z</time>
      </trkpt>
      <trkpt lat="42.69552" lon="0.51667">
        <ele>2931.1999511719</ele>
        <time>2020-09-16T10:22:34Z</time>
      </trkpt>
      <trkpt lat="42.69544" lon="0.51623">
        <ele>2926.8000488281</ele>
        <time>2020-09-16T10:23:37Z</time>
      </trkpt>
      <trkpt lat="42.69523" lon="0.51572">
        <ele>2920.1999511719</ele>
        <time>2020-09-16T10:29:42Z</time>
      </trkpt>
      <trkpt lat="42.69514" lon="0.51545">
        <ele>2915</ele>
        <time>2020-09-16T10:30:09Z</time>
      </trkpt>
      <trkpt lat="42.69516" lon="0.51536">
        <ele>2912</ele>
        <time>2020-09-16T10:30:22Z</time>
      </trkpt>
      <trkpt lat="42.69512" lon="0.51526">
        <ele>2909</ele>
        <time>2020-09-16T10:30:37Z</time>
      </trkpt>
      <trkpt lat="42.69509" lon="0.51519">
        <ele>2906</ele>
        <time>2020-09-16T10:30:51Z</time>
      </trkpt>
      <trkpt lat="42.69512" lon="0.51509">
        <ele>2902.8000488281</ele>
        <time>2020-09-16T10:31:05Z</time>
      </trkpt>
      <trkpt lat="42.69511" lon="0.51494">
        <ele>2898.6000976562</ele>
        <time>2020-09-16T10:31:25Z</time>
      </trkpt>
      <trkpt lat="42.69511" lon="0.51479">
        <ele>2893.1999511719</ele>
        <time>2020-09-16T10:31:47Z</time>
      </trkpt>
      <trkpt lat="42.69515" lon="0.51464">
        <ele>2887.1999511719</ele>
        <time>2020-09-16T10:32:11Z</time>
      </trkpt>
      <trkpt lat="42.69516" lon="0.51454">
        <ele>2884.1999511719</ele>
        <time>2020-09-16T10:32:24Z</time>
      </trkpt>
      <trkpt lat="42.69521" lon="0.51452">
        <ele>2881</ele>
        <time>2020-09-16T10:32:35Z</time>
      </trkpt>
      <trkpt lat="42.69529" lon="0.51455">
        <ele>2878</ele>
        <time>2020-09-16T10:32:50Z</time>
      </trkpt>
      <trkpt lat="42.6954" lon="0.51449">
        <ele>2872.3999023438</ele>
        <time>2020-09-16T10:33:18Z</time>
      </trkpt>
      <trkpt lat="42.69541" lon="0.51431">
        <ele>2867.6000976562</ele>
        <time>2020-09-16T10:33:37Z</time>
      </trkpt>
      <trkpt lat="42.69509" lon="0.51338">
        <ele>2863.1999511719</ele>
        <time>2020-09-16T10:35:14Z</time>
      </trkpt>
      <trkpt lat="42.69513" lon="0.51319">
        <ele>2859.1999511719</ele>
        <time>2020-09-16T10:35:40Z</time>
      </trkpt>
      <trkpt lat="42.69513" lon="0.5131">
        <ele>2855</ele>
        <time>2020-09-16T10:36:05Z</time>
      </trkpt>
      <trkpt lat="42.69518" lon="0.51295">
        <ele>2851.8000488281</ele>
        <time>2020-09-16T10:36:19Z</time>
      </trkpt>
      <trkpt lat="42.69521" lon="0.51289">
        <ele>2850.6000976562</ele>
        <time>2020-09-16T10:36:29Z</time>
      </trkpt>
      <trkpt lat="42.69522" lon="0.51286">
        <ele>2850.3999023438</ele>
        <time>2020-09-16T10:36:31Z</time>
      </trkpt>
      <trkpt lat="42.69529" lon="0.51272">
        <ele>2846.3999023438</ele>
        <time>2020-09-16T10:36:52Z</time>
      </trkpt>
      <trkpt lat="42.69528" lon="0.51264">
        <ele>2843.1999511719</ele>
        <time>2020-09-16T10:37:04Z</time>
      </trkpt>
      <trkpt lat="42.69535" lon="0.5126">
        <ele>2840</ele>
        <time>2020-09-16T10:37:17Z</time>
      </trkpt>
      <trkpt lat="42.69543" lon="0.51252">
        <ele>2835</ele>
        <time>2020-09-16T10:37:44Z</time>
      </trkpt>
      <trkpt lat="42.69549" lon="0.51251">
        <ele>2831.8000488281</ele>
        <time>2020-09-16T10:37:56Z</time>
      </trkpt>
      <trkpt lat="42.69556" lon="0.51249">
        <ele>2827</ele>
        <time>2020-09-16T10:38:20Z</time>
      </trkpt>
      <trkpt lat="42.69568" lon="0.51242">
        <ele>2821.6000976562</ele>
        <time>2020-09-16T10:38:46Z</time>
      </trkpt>
      <trkpt lat="42.69572" lon="0.51232">
        <ele>2818</ele>
        <time>2020-09-16T10:39:07Z</time>
      </trkpt>
      <trkpt lat="42.69573" lon="0.51211">
        <ele>2812.3999023438</ele>
        <time>2020-09-16T10:39:39Z</time>
      </trkpt>
      <trkpt lat="42.69573" lon="0.51201">
        <ele>2808.8000488281</ele>
        <time>2020-09-16T10:40:04Z</time>
      </trkpt>
      <trkpt lat="42.69574" lon="0.51193">
        <ele>2805.6000976562</ele>
        <time>2020-09-16T10:40:16Z</time>
      </trkpt>
      <trkpt lat="42.6958" lon="0.51193">
        <ele>2802.1999511719</ele>
        <time>2020-09-16T10:40:28Z</time>
      </trkpt>
      <trkpt lat="42.69582" lon="0.51189">
        <ele>2799</ele>
        <time>2020-09-16T10:40:40Z</time>
      </trkpt>
      <trkpt lat="42.69587" lon="0.5119">
        <ele>2796</ele>
        <time>2020-09-16T10:40:52Z</time>
      </trkpt>
      <trkpt lat="42.69591" lon="0.51193">
        <ele>2793</ele>
        <time>2020-09-16T10:41:05Z</time>
      </trkpt>
      <trkpt lat="42.69594" lon="0.51197">
        <ele>2789.8000488281</ele>
        <time>2020-09-16T10:41:18Z</time>
      </trkpt>
      <trkpt lat="42.69599" lon="0.51197">
        <ele>2786.3999023438</ele>
        <time>2020-09-16T10:41:30Z</time>
      </trkpt>
      <trkpt lat="42.69602" lon="0.51203">
        <ele>2781.1999511719</ele>
        <time>2020-09-16T10:41:51Z</time>
      </trkpt>
      <trkpt lat="42.69605" lon="0.51208">
        <ele>2777.8000488281</ele>
        <time>2020-09-16T10:42:10Z</time>
      </trkpt>
      <trkpt lat="42.69614" lon="0.51216">
        <ele>2772.3999023438</ele>
        <time>2020-09-16T10:42:31Z</time>
      </trkpt>
      <trkpt lat="42.69615" lon="0.51216">
        <ele>2772.1999511719</ele>
        <time>2020-09-16T10:42:32Z</time>
      </trkpt>
      <trkpt lat="42.69616" lon="0.51216">
        <ele>2772</ele>
        <time>2020-09-16T10:42:35Z</time>
      </trkpt>
      <trkpt lat="42.69625" lon="0.51213">
        <ele>2768.6000976562</ele>
        <time>2020-09-16T10:42:42Z</time>
      </trkpt>
      <trkpt lat="42.69632" lon="0.51207">
        <ele>2762.6000976562</ele>
        <time>2020-09-16T10:42:56Z</time>
      </trkpt>
      <trkpt lat="42.69637" lon="0.5121">
        <ele>2758.1999511719</ele>
        <time>2020-09-16T10:43:22Z</time>
      </trkpt>
      <trkpt lat="42.69644" lon="0.51207">
        <ele>2754</ele>
        <time>2020-09-16T10:43:49Z</time>
      </trkpt>
      <trkpt lat="42.69653" lon="0.51201">
        <ele>2751</ele>
        <time>2020-09-16T10:44:17Z</time>
      </trkpt>
      <trkpt lat="42.69657" lon="0.51198">
        <ele>2746.6000976562</ele>
        <time>2020-09-16T10:44:39Z</time>
      </trkpt>
      <trkpt lat="42.69669" lon="0.51204">
        <ele>2741</ele>
        <time>2020-09-16T10:45:04Z</time>
      </trkpt>
      <trkpt lat="42.69678" lon="0.51217">
        <ele>2736</ele>
        <time>2020-09-16T10:45:29Z</time>
      </trkpt>
      <trkpt lat="42.69692" lon="0.51226">
        <ele>2731.6000976562</ele>
        <time>2020-09-16T10:45:54Z</time>
      </trkpt>
      <trkpt lat="42.69736" lon="0.51235">
        <ele>2723.3999023438</ele>
        <time>2020-09-16T10:47:00Z</time>
      </trkpt>
      <trkpt lat="42.69746" lon="0.51241">
        <ele>2719.1999511719</ele>
        <time>2020-09-16T10:48:00Z</time>
      </trkpt>
      <trkpt lat="42.69763" lon="0.51244">
        <ele>2715.8000488281</ele>
        <time>2020-09-16T10:56:03Z</time>
      </trkpt>
      <trkpt lat="42.6977" lon="0.51258">
        <ele>2711.1999511719</ele>
        <time>2020-09-16T10:56:29Z</time>
      </trkpt>
      <trkpt lat="42.69773" lon="0.51266">
        <ele>2708.1999511719</ele>
        <time>2020-09-16T10:56:43Z</time>
      </trkpt>
      <trkpt lat="42.6978" lon="0.51266">
        <ele>2705.1999511719</ele>
        <time>2020-09-16T10:56:58Z</time>
      </trkpt>
      <trkpt lat="42.69876" lon="0.51316">
        <ele>2699.8000488281</ele>
        <time>2020-09-16T10:59:28Z</time>
      </trkpt>
      <trkpt lat="42.69891" lon="0.51321">
        <ele>2695.6000976562</ele>
        <time>2020-09-16T10:59:53Z</time>
      </trkpt>
      <trkpt lat="42.69903" lon="0.51329">
        <ele>2692</ele>
        <time>2020-09-16T11:00:07Z</time>
      </trkpt>
      <trkpt lat="42.69917" lon="0.51335">
        <ele>2688.3999023438</ele>
        <time>2020-09-16T11:00:21Z</time>
      </trkpt>
      <trkpt lat="42.69933" lon="0.51345">
        <ele>2685.1999511719</ele>
        <time>2020-09-16T11:00:38Z</time>
      </trkpt>
      <trkpt lat="42.69966" lon="0.5137">
        <ele>2681.3999023438</ele>
        <time>2020-09-16T11:01:18Z</time>
      </trkpt>
      <trkpt lat="42.69982" lon="0.51377">
        <ele>2678.3999023438</ele>
        <time>2020-09-16T11:01:32Z</time>
      </trkpt>
      <trkpt lat="42.70009" lon="0.51394">
        <ele>2675</ele>
        <time>2020-09-16T11:02:16Z</time>
      </trkpt>
      <trkpt lat="42.70014" lon="0.514">
        <ele>2672</ele>
        <time>2020-09-16T11:02:30Z</time>
      </trkpt>
      <trkpt lat="42.70023" lon="0.51406">
        <ele>2666.3999023438</ele>
        <time>2020-09-16T11:02:55Z</time>
      </trkpt>
      <trkpt lat="42.70028" lon="0.51404">
        <ele>2663.1999511719</ele>
        <time>2020-09-16T11:03:10Z</time>
      </trkpt>
      <trkpt lat="42.70033" lon="0.51409">
        <ele>2660.1999511719</ele>
        <time>2020-09-16T11:03:23Z</time>
      </trkpt>
      <trkpt lat="42.70039" lon="0.51406">
        <ele>2654.3999023438</ele>
        <time>2020-09-16T11:03:50Z</time>
      </trkpt>
      <trkpt lat="42.7004" lon="0.51407">
        <ele>2654.1999511719</ele>
        <time>2020-09-16T11:03:51Z</time>
      </trkpt>
      <trkpt lat="42.70049" lon="0.51418">
        <ele>2650.8000488281</ele>
        <time>2020-09-16T11:04:20Z</time>
      </trkpt>
      <trkpt lat="42.70049" lon="0.51419">
        <ele>2650.6000976562</ele>
        <time>2020-09-16T11:04:21Z</time>
      </trkpt>
      <trkpt lat="42.70073" lon="0.51447">
        <ele>2646.8000488281</ele>
        <time>2020-09-16T11:04:57Z</time>
      </trkpt>
      <trkpt lat="42.70077" lon="0.51457">
        <ele>2648</ele>
        <time>2020-09-16T11:05:11Z</time>
      </trkpt>
      <trkpt lat="42.7008" lon="0.51466">
        <ele>2651.1999511719</ele>
        <time>2020-09-16T11:05:30Z</time>
      </trkpt>
      <trkpt lat="42.70087" lon="0.51469">
        <ele>2651.1999511719</ele>
        <time>2020-09-16T11:05:45Z</time>
      </trkpt>
      <trkpt lat="42.70097" lon="0.51485">
        <ele>2647.8000488281</ele>
        <time>2020-09-16T11:06:06Z</time>
      </trkpt>
      <trkpt lat="42.70151" lon="0.51497">
        <ele>2653.3999023438</ele>
        <time>2020-09-16T11:07:19Z</time>
      </trkpt>
      <trkpt lat="42.70284" lon="0.51305">
        <ele>2644.6000976562</ele>
        <time>2020-09-16T11:13:08Z</time>
      </trkpt>
      <trkpt lat="42.70284" lon="0.51296">
        <ele>2639.8000488281</ele>
        <time>2020-09-16T11:13:36Z</time>
      </trkpt>
      <trkpt lat="42.70286" lon="0.51276">
        <ele>2635.3999023438</ele>
        <time>2020-09-16T11:13:56Z</time>
      </trkpt>
      <trkpt lat="42.7029" lon="0.51253">
        <ele>2630</ele>
        <time>2020-09-16T11:14:19Z</time>
      </trkpt>
      <trkpt lat="42.70295" lon="0.51239">
        <ele>2625.3999023438</ele>
        <time>2020-09-16T11:14:48Z</time>
      </trkpt>
      <trkpt lat="42.70298" lon="0.51209">
        <ele>2619.1999511719</ele>
        <time>2020-09-16T11:15:13Z</time>
      </trkpt>
      <trkpt lat="42.70298" lon="0.51196">
        <ele>2616.1999511719</ele>
        <time>2020-09-16T11:15:25Z</time>
      </trkpt>
      <trkpt lat="42.70299" lon="0.51179">
        <ele>2611</ele>
        <time>2020-09-16T11:15:46Z</time>
      </trkpt>
      <trkpt lat="42.70289" lon="0.51184">
        <ele>2607.3999023438</ele>
        <time>2020-09-16T11:16:00Z</time>
      </trkpt>
      <trkpt lat="42.70293" lon="0.51169">
        <ele>2604.3999023438</ele>
        <time>2020-09-16T11:16:10Z</time>
      </trkpt>
      <trkpt lat="42.70296" lon="0.5115">
        <ele>2601.3999023438</ele>
        <time>2020-09-16T11:16:24Z</time>
      </trkpt>
      <trkpt lat="42.70339" lon="0.51098">
        <ele>2595.3999023438</ele>
        <time>2020-09-16T11:17:44Z</time>
      </trkpt>
      <trkpt lat="42.70368" lon="0.51088">
        <ele>2589.3999023438</ele>
        <time>2020-09-16T11:18:46Z</time>
      </trkpt>
      <trkpt lat="42.70367" lon="0.51087">
        <ele>2589.1999511719</ele>
        <time>2020-09-16T11:19:07Z</time>
      </trkpt>
      <trkpt lat="42.70391" lon="0.50826">
        <ele>2585.1999511719</ele>
        <time>2020-09-16T11:26:03Z</time>
      </trkpt>
      <trkpt lat="42.70395" lon="0.50822">
        <ele>2567</ele>
        <time>2020-09-17T04:59:11Z</time>
      </trkpt>
      <trkpt lat="42.70362" lon="0.51096">
        <ele>2571.6000976562</ele>
        <time>2020-09-17T05:03:48Z</time>
      </trkpt>
      <trkpt lat="42.70321" lon="0.51115">
        <ele>2577</ele>
        <time>2020-09-17T05:05:05Z</time>
      </trkpt>
      <trkpt lat="42.70296" lon="0.51148">
        <ele>2581.6000976562</ele>
        <time>2020-09-17T05:06:25Z</time>
      </trkpt>
      <trkpt lat="42.70292" lon="0.5115">
        <ele>2581.8000488281</ele>
        <time>2020-09-17T05:06:37Z</time>
      </trkpt>
      <trkpt lat="42.70292" lon="0.51185">
        <ele>2585</ele>
        <time>2020-09-17T05:07:26Z</time>
      </trkpt>
      <trkpt lat="42.70301" lon="0.51187">
        <ele>2589.3999023438</ele>
        <time>2020-09-17T05:07:50Z</time>
      </trkpt>
      <trkpt lat="42.70296" lon="0.51206">
        <ele>2593.6000976562</ele>
        <time>2020-09-17T05:08:18Z</time>
      </trkpt>
      <trkpt lat="42.70294" lon="0.51228">
        <ele>2598.8000488281</ele>
        <time>2020-09-17T05:08:51Z</time>
      </trkpt>
      <trkpt lat="42.7029" lon="0.51245">
        <ele>2602.6000976562</ele>
        <time>2020-09-17T05:09:20Z</time>
      </trkpt>
      <trkpt lat="42.70289" lon="0.51253">
        <ele>2606.3999023438</ele>
        <time>2020-09-17T05:09:52Z</time>
      </trkpt>
      <trkpt lat="42.70284" lon="0.51276">
        <ele>2610.6000976562</ele>
        <time>2020-09-17T05:10:25Z</time>
      </trkpt>
      <trkpt lat="42.70284" lon="0.51294">
        <ele>2615.1999511719</ele>
        <time>2020-09-17T05:10:52Z</time>
      </trkpt>
      <trkpt lat="42.70281" lon="0.51305">
        <ele>2620.6000976562</ele>
        <time>2020-09-17T05:11:22Z</time>
      </trkpt>
      <trkpt lat="42.70285" lon="0.51317">
        <ele>2625.1999511719</ele>
        <time>2020-09-17T05:11:51Z</time>
      </trkpt>
      <trkpt lat="42.7029" lon="0.51328">
        <ele>2628.3999023438</ele>
        <time>2020-09-17T05:12:19Z</time>
      </trkpt>
      <trkpt lat="42.70294" lon="0.51327">
        <ele>2632</ele>
        <time>2020-09-17T05:12:50Z</time>
      </trkpt>
      <trkpt lat="42.70301" lon="0.51336">
        <ele>2637.6000976562</ele>
        <time>2020-09-17T05:13:21Z</time>
      </trkpt>
      <trkpt lat="42.70302" lon="0.51345">
        <ele>2640.8000488281</ele>
        <time>2020-09-17T05:13:36Z</time>
      </trkpt>
      <trkpt lat="42.70297" lon="0.51361">
        <ele>2646</ele>
        <time>2020-09-17T05:14:05Z</time>
      </trkpt>
      <trkpt lat="42.70296" lon="0.51381">
        <ele>2651.1999511719</ele>
        <time>2020-09-17T05:14:39Z</time>
      </trkpt>
      <trkpt lat="42.70287" lon="0.51406">
        <ele>2655.8000488281</ele>
        <time>2020-09-17T05:15:16Z</time>
      </trkpt>
      <trkpt lat="42.70282" lon="0.51433">
        <ele>2660.3999023438</ele>
        <time>2020-09-17T05:15:53Z</time>
      </trkpt>
      <trkpt lat="42.70276" lon="0.51452">
        <ele>2664</ele>
        <time>2020-09-17T05:16:21Z</time>
      </trkpt>
      <trkpt lat="42.70275" lon="0.51471">
        <ele>2667.8000488281</ele>
        <time>2020-09-17T05:16:52Z</time>
      </trkpt>
      <trkpt lat="42.70276" lon="0.51491">
        <ele>2673</ele>
        <time>2020-09-17T05:17:28Z</time>
      </trkpt>
      <trkpt lat="42.70281" lon="0.51502">
        <ele>2677.8000488281</ele>
        <time>2020-09-17T05:17:57Z</time>
      </trkpt>
      <trkpt lat="42.70285" lon="0.51515">
        <ele>2682</ele>
        <time>2020-09-17T05:18:27Z</time>
      </trkpt>
      <trkpt lat="42.70285" lon="0.51536">
        <ele>2685.6000976562</ele>
        <time>2020-09-17T05:18:57Z</time>
      </trkpt>
      <trkpt lat="42.70287" lon="0.51549">
        <ele>2690.1999511719</ele>
        <time>2020-09-17T05:19:24Z</time>
      </trkpt>
      <trkpt lat="42.70288" lon="0.51556">
        <ele>2693.1999511719</ele>
        <time>2020-09-17T05:19:39Z</time>
      </trkpt>
      <trkpt lat="42.70293" lon="0.51561">
        <ele>2696.3999023438</ele>
        <time>2020-09-17T05:19:57Z</time>
      </trkpt>
      <trkpt lat="42.70298" lon="0.51569">
        <ele>2701</ele>
        <time>2020-09-17T05:20:28Z</time>
      </trkpt>
      <trkpt lat="42.70292" lon="0.51579">
        <ele>2705.1999511719</ele>
        <time>2020-09-17T05:20:59Z</time>
      </trkpt>
      <trkpt lat="42.70278" lon="0.51596">
        <ele>2708.3999023438</ele>
        <time>2020-09-17T05:21:49Z</time>
      </trkpt>
      <trkpt lat="42.70283" lon="0.51604">
        <ele>2713.8000488281</ele>
        <time>2020-09-17T05:22:15Z</time>
      </trkpt>
      <trkpt lat="42.70299" lon="0.51607">
        <ele>2718.1999511719</ele>
        <time>2020-09-17T05:22:45Z</time>
      </trkpt>
      <trkpt lat="42.70309" lon="0.51615">
        <ele>2722.6000976562</ele>
        <time>2020-09-17T05:23:13Z</time>
      </trkpt>
      <trkpt lat="42.70316" lon="0.51616">
        <ele>2725.6000976562</ele>
        <time>2020-09-17T05:23:28Z</time>
      </trkpt>
      <trkpt lat="42.70317" lon="0.51616">
        <ele>2725.8000488281</ele>
        <time>2020-09-17T05:23:29Z</time>
      </trkpt>
      <trkpt lat="42.70321" lon="0.51625">
        <ele>2729.8000488281</ele>
        <time>2020-09-17T05:24:03Z</time>
      </trkpt>
      <trkpt lat="42.70321" lon="0.5163">
        <ele>2733</ele>
        <time>2020-09-17T05:24:17Z</time>
      </trkpt>
      <trkpt lat="42.70306" lon="0.51647">
        <ele>2736.8000488281</ele>
        <time>2020-09-17T05:24:48Z</time>
      </trkpt>
      <trkpt lat="42.70299" lon="0.51669">
        <ele>2740.6000976562</ele>
        <time>2020-09-17T05:25:16Z</time>
      </trkpt>
      <trkpt lat="42.70298" lon="0.51687">
        <ele>2744.3999023438</ele>
        <time>2020-09-17T05:25:45Z</time>
      </trkpt>
      <trkpt lat="42.70298" lon="0.51689">
        <ele>2744.3999023438</ele>
        <time>2020-09-17T05:25:48Z</time>
      </trkpt>
      <trkpt lat="42.70285" lon="0.51733">
        <ele>2748.1999511719</ele>
        <time>2020-09-17T05:26:38Z</time>
      </trkpt>
      <trkpt lat="42.70287" lon="0.51749">
        <ele>2751.1999511719</ele>
        <time>2020-09-17T05:26:58Z</time>
      </trkpt>
      <trkpt lat="42.70289" lon="0.51776">
        <ele>2755.3999023438</ele>
        <time>2020-09-17T05:27:30Z</time>
      </trkpt>
      <trkpt lat="42.7029" lon="0.5182">
        <ele>2760</ele>
        <time>2020-09-17T05:28:27Z</time>
      </trkpt>
      <trkpt lat="42.70288" lon="0.51846">
        <ele>2764.6000976562</ele>
        <time>2020-09-17T05:28:58Z</time>
      </trkpt>
      <trkpt lat="42.70287" lon="0.51889">
        <ele>2769.3999023438</ele>
        <time>2020-09-17T05:29:47Z</time>
      </trkpt>
      <trkpt lat="42.70276" lon="0.51954">
        <ele>2797.6000976562</ele>
        <time>2020-09-17T05:31:07Z</time>
      </trkpt>
      <trkpt lat="42.70276" lon="0.51954">
        <ele>2797.6000976562</ele>
        <time>2020-09-17T05:31:08Z</time>
      </trkpt>
      <trkpt lat="42.70273" lon="0.51974">
        <ele>2800.8000488281</ele>
        <time>2020-09-17T05:31:38Z</time>
      </trkpt>
      <trkpt lat="42.7027" lon="0.5199">
        <ele>2804.1999511719</ele>
        <time>2020-09-17T05:32:06Z</time>
      </trkpt>
      <trkpt lat="42.70262" lon="0.52013">
        <ele>2809.8000488281</ele>
        <time>2020-09-17T05:32:40Z</time>
      </trkpt>
      <trkpt lat="42.70264" lon="0.52032">
        <ele>2815.1999511719</ele>
        <time>2020-09-17T05:33:08Z</time>
      </trkpt>
      <trkpt lat="42.70264" lon="0.52052">
        <ele>2820.6000976562</ele>
        <time>2020-09-17T05:33:36Z</time>
      </trkpt>
      <trkpt lat="42.70263" lon="0.52063">
        <ele>2823.6000976562</ele>
        <time>2020-09-17T05:33:54Z</time>
      </trkpt>
      <trkpt lat="42.70253" lon="0.5209">
        <ele>2828.1999511719</ele>
        <time>2020-09-17T05:34:25Z</time>
      </trkpt>
      <trkpt lat="42.70253" lon="0.52113">
        <ele>2831.1999511719</ele>
        <time>2020-09-17T05:34:55Z</time>
      </trkpt>
      <trkpt lat="42.70255" lon="0.52131">
        <ele>2836.1999511719</ele>
        <time>2020-09-17T05:35:23Z</time>
      </trkpt>
      <trkpt lat="42.70254" lon="0.52148">
        <ele>2841</ele>
        <time>2020-09-17T05:35:53Z</time>
      </trkpt>
      <trkpt lat="42.70251" lon="0.52161">
        <ele>2845.8000488281</ele>
        <time>2020-09-17T05:36:22Z</time>
      </trkpt>
      <trkpt lat="42.70253" lon="0.52174">
        <ele>2850.8000488281</ele>
        <time>2020-09-17T05:36:52Z</time>
      </trkpt>
      <trkpt lat="42.70252" lon="0.52188">
        <ele>2855.8000488281</ele>
        <time>2020-09-17T05:37:21Z</time>
      </trkpt>
      <trkpt lat="42.70251" lon="0.52201">
        <ele>2860.6000976562</ele>
        <time>2020-09-17T05:37:51Z</time>
      </trkpt>
      <trkpt lat="42.70246" lon="0.52218">
        <ele>2865.8000488281</ele>
        <time>2020-09-17T05:38:23Z</time>
      </trkpt>
      <trkpt lat="42.70236" lon="0.52229">
        <ele>2870.6000976562</ele>
        <time>2020-09-17T05:38:57Z</time>
      </trkpt>
      <trkpt lat="42.7023" lon="0.52243">
        <ele>2875.3999023438</ele>
        <time>2020-09-17T05:39:27Z</time>
      </trkpt>
      <trkpt lat="42.70224" lon="0.52253">
        <ele>2880.3999023438</ele>
        <time>2020-09-17T05:40:01Z</time>
      </trkpt>
      <trkpt lat="42.70223" lon="0.52264">
        <ele>2885.3999023438</ele>
        <time>2020-09-17T05:40:31Z</time>
      </trkpt>
      <trkpt lat="42.70222" lon="0.52273">
        <ele>2889.6000976562</ele>
        <time>2020-09-17T05:40:58Z</time>
      </trkpt>
      <trkpt lat="42.70224" lon="0.5228">
        <ele>2892.8000488281</ele>
        <time>2020-09-17T05:41:14Z</time>
      </trkpt>
      <trkpt lat="42.70219" lon="0.52288">
        <ele>2896.8000488281</ele>
        <time>2020-09-17T05:41:41Z</time>
      </trkpt>
      <trkpt lat="42.70218" lon="0.52293">
        <ele>2899.8000488281</ele>
        <time>2020-09-17T05:41:57Z</time>
      </trkpt>
      <trkpt lat="42.70216" lon="0.52304">
        <ele>2904.6000976562</ele>
        <time>2020-09-17T05:42:25Z</time>
      </trkpt>
      <trkpt lat="42.70214" lon="0.52312">
        <ele>2907.6000976562</ele>
        <time>2020-09-17T05:42:42Z</time>
      </trkpt>
      <trkpt lat="42.7021" lon="0.52313">
        <ele>2911</ele>
        <time>2020-09-17T05:43:00Z</time>
      </trkpt>
      <trkpt lat="42.70219" lon="0.52323">
        <ele>2915.6000976562</ele>
        <time>2020-09-17T05:43:31Z</time>
      </trkpt>
      <trkpt lat="42.7022" lon="0.52335">
        <ele>2921</ele>
        <time>2020-09-17T05:44:08Z</time>
      </trkpt>
      <trkpt lat="42.70218" lon="0.52343">
        <ele>2924.1999511719</ele>
        <time>2020-09-17T05:44:25Z</time>
      </trkpt>
      <trkpt lat="42.70216" lon="0.52349">
        <ele>2927.1999511719</ele>
        <time>2020-09-17T05:44:43Z</time>
      </trkpt>
      <trkpt lat="42.70213" lon="0.52357">
        <ele>2930.3999023438</ele>
        <time>2020-09-17T05:45:01Z</time>
      </trkpt>
      <trkpt lat="42.70213" lon="0.52364">
        <ele>2933.3999023438</ele>
        <time>2020-09-17T05:45:17Z</time>
      </trkpt>
      <trkpt lat="42.70217" lon="0.5237">
        <ele>2938.1999511719</ele>
        <time>2020-09-17T05:45:43Z</time>
      </trkpt>
      <trkpt lat="42.70231" lon="0.52376">
        <ele>2943</ele>
        <time>2020-09-17T05:46:15Z</time>
      </trkpt>
      <trkpt lat="42.70244" lon="0.52388">
        <ele>2946</ele>
        <time>2020-09-17T05:46:43Z</time>
      </trkpt>
      <trkpt lat="42.70258" lon="0.52415">
        <ele>2951.3999023438</ele>
        <time>2020-09-17T05:54:04Z</time>
      </trkpt>
      <trkpt lat="42.70266" lon="0.52428">
        <ele>2956</ele>
        <time>2020-09-17T05:54:36Z</time>
      </trkpt>
      <trkpt lat="42.70263" lon="0.52441">
        <ele>2960.3999023438</ele>
        <time>2020-09-17T05:55:05Z</time>
      </trkpt>
      <trkpt lat="42.70275" lon="0.52444">
        <ele>2965.1999511719</ele>
        <time>2020-09-17T05:55:36Z</time>
      </trkpt>
      <trkpt lat="42.70275" lon="0.52452">
        <ele>2969.6000976562</ele>
        <time>2020-09-17T05:56:04Z</time>
      </trkpt>
      <trkpt lat="42.70275" lon="0.52456">
        <ele>2973.8000488281</ele>
        <time>2020-09-17T05:56:41Z</time>
      </trkpt>
      <trkpt lat="42.70279" lon="0.52462">
        <ele>2977.1999511719</ele>
        <time>2020-09-17T05:57:08Z</time>
      </trkpt>
      <trkpt lat="42.70277" lon="0.52476">
        <ele>2984.6000976562</ele>
        <time>2020-09-17T05:58:17Z</time>
      </trkpt>
      <trkpt lat="42.70288" lon="0.52472">
        <ele>2989.6000976562</ele>
        <time>2020-09-17T05:58:53Z</time>
      </trkpt>
      <trkpt lat="42.70292" lon="0.52472">
        <ele>2992.6000976562</ele>
        <time>2020-09-17T05:59:33Z</time>
      </trkpt>
      <trkpt lat="42.70288" lon="0.5248">
        <ele>2997.1999511719</ele>
        <time>2020-09-17T06:00:01Z</time>
      </trkpt>
      <trkpt lat="42.70285" lon="0.5249">
        <ele>3003</ele>
        <time>2020-09-17T06:00:36Z</time>
      </trkpt>
      <trkpt lat="42.70286" lon="0.52493">
        <ele>3006.1999511719</ele>
        <time>2020-09-17T06:00:54Z</time>
      </trkpt>
      <trkpt lat="42.70284" lon="0.52498">
        <ele>3009.1999511719</ele>
        <time>2020-09-17T06:01:10Z</time>
      </trkpt>
      <trkpt lat="42.70287" lon="0.52505">
        <ele>3013.3999023438</ele>
        <time>2020-09-17T06:01:53Z</time>
      </trkpt>
      <trkpt lat="42.70283" lon="0.52511">
        <ele>3017.1999511719</ele>
        <time>2020-09-17T06:02:31Z</time>
      </trkpt>
      <trkpt lat="42.70288" lon="0.52518">
        <ele>3022</ele>
        <time>2020-09-17T06:03:08Z</time>
      </trkpt>
      <trkpt lat="42.7029" lon="0.52526">
        <ele>3028</ele>
        <time>2020-09-17T06:03:44Z</time>
      </trkpt>
      <trkpt lat="42.7029" lon="0.52534">
        <ele>3033.6000976562</ele>
        <time>2020-09-17T06:04:40Z</time>
      </trkpt>
      <trkpt lat="42.70292" lon="0.5254">
        <ele>3038.1999511719</ele>
        <time>2020-09-17T06:05:31Z</time>
      </trkpt>
      <trkpt lat="42.70296" lon="0.52544">
        <ele>3041.1999511719</ele>
        <time>2020-09-17T06:05:50Z</time>
      </trkpt>
      <trkpt lat="42.70299" lon="0.52537">
        <ele>3049.3999023438</ele>
        <time>2020-09-17T06:14:52Z</time>
      </trkpt>
      <trkpt lat="42.70299" lon="0.52537">
        <ele>3049.3999023438</ele>
        <time>2020-09-17T06:14:53Z</time>
      </trkpt>
      <trkpt lat="42.70301" lon="0.5253">
        <ele>3053.6000976562</ele>
        <time>2020-09-17T06:16:29Z</time>
      </trkpt>
      <trkpt lat="42.70306" lon="0.52521">
        <ele>3049.1999511719</ele>
        <time>2020-09-17T06:18:22Z</time>
      </trkpt>
      <trkpt lat="42.70307" lon="0.52516">
        <ele>3046.1999511719</ele>
        <time>2020-09-17T06:18:58Z</time>
      </trkpt>
      <trkpt lat="42.70321" lon="0.52467">
        <ele>3039</ele>
        <time>2020-09-17T06:23:00Z</time>
      </trkpt>
      <trkpt lat="42.70321" lon="0.52467">
        <ele>3039</ele>
        <time>2020-09-17T06:23:01Z</time>
      </trkpt>
      <trkpt lat="42.70329" lon="0.52453">
        <ele>3035.8000488281</ele>
        <time>2020-09-17T06:23:57Z</time>
      </trkpt>
      <trkpt lat="42.70335" lon="0.52442">
        <ele>3032.1999511719</ele>
        <time>2020-09-17T06:25:46Z</time>
      </trkpt>
      <trkpt lat="42.70337" lon="0.52439">
        <ele>3028.1999511719</ele>
        <time>2020-09-17T06:26:43Z</time>
      </trkpt>
      <trkpt lat="42.70337" lon="0.52436">
        <ele>3024.8000488281</ele>
        <time>2020-09-17T06:27:18Z</time>
      </trkpt>
      <trkpt lat="42.70339" lon="0.52434">
        <ele>3020.8000488281</ele>
        <time>2020-09-17T06:29:17Z</time>
      </trkpt>
      <trkpt lat="42.70343" lon="0.52428">
        <ele>3016.3999023438</ele>
        <time>2020-09-17T06:32:15Z</time>
      </trkpt>
      <trkpt lat="42.70352" lon="0.52417">
        <ele>3012.6000976562</ele>
        <time>2020-09-17T06:37:14Z</time>
      </trkpt>
      <trkpt lat="42.70353" lon="0.52417">
        <ele>3012.3999023438</ele>
        <time>2020-09-17T06:37:15Z</time>
      </trkpt>
      <trkpt lat="42.70362" lon="0.52406">
        <ele>3009.3999023438</ele>
        <time>2020-09-17T06:39:05Z</time>
      </trkpt>
      <trkpt lat="42.70365" lon="0.52402">
        <ele>3006.3999023438</ele>
        <time>2020-09-17T06:39:56Z</time>
      </trkpt>
      <trkpt lat="42.70387" lon="0.52369">
        <ele>3010</ele>
        <time>2020-09-17T06:43:22Z</time>
      </trkpt>
      <trkpt lat="42.70398" lon="0.52345">
        <ele>3017.3999023438</ele>
        <time>2020-09-17T06:45:22Z</time>
      </trkpt>
      <trkpt lat="42.70398" lon="0.52344">
        <ele>3017.6000976562</ele>
        <time>2020-09-17T06:45:23Z</time>
      </trkpt>
      <trkpt lat="42.704" lon="0.52327">
        <ele>3012</ele>
        <time>2020-09-17T06:47:24Z</time>
      </trkpt>
      <trkpt lat="42.704" lon="0.52327">
        <ele>3012</ele>
        <time>2020-09-17T06:47:25Z</time>
      </trkpt>
      <trkpt lat="42.70399" lon="0.52318">
        <ele>3009</ele>
        <time>2020-09-17T06:48:26Z</time>
      </trkpt>
      <trkpt lat="42.70398" lon="0.52309">
        <ele>3004.8000488281</ele>
        <time>2020-09-17T06:49:16Z</time>
      </trkpt>
      <trkpt lat="42.70399" lon="0.52304">
        <ele>3001.6000976562</ele>
        <time>2020-09-17T06:49:49Z</time>
      </trkpt>
      <trkpt lat="42.70399" lon="0.52287">
        <ele>2996</ele>
        <time>2020-09-17T06:51:19Z</time>
      </trkpt>
      <trkpt lat="42.704" lon="0.52282">
        <ele>2991.8000488281</ele>
        <time>2020-09-17T06:52:03Z</time>
      </trkpt>
      <trkpt lat="42.70402" lon="0.52276">
        <ele>2987.6000976562</ele>
        <time>2020-09-17T06:53:26Z</time>
      </trkpt>
      <trkpt lat="42.70402" lon="0.52273">
        <ele>2984.1999511719</ele>
        <time>2020-09-17T06:53:57Z</time>
      </trkpt>
      <trkpt lat="42.70402" lon="0.52273">
        <ele>2984.8000488281</ele>
        <time>2020-09-17T06:54:19Z</time>
      </trkpt>
      <trkpt lat="42.70402" lon="0.52265">
        <ele>2980.8000488281</ele>
        <time>2020-09-17T06:55:12Z</time>
      </trkpt>
      <trkpt lat="42.70401" lon="0.5226">
        <ele>2977</ele>
        <time>2020-09-17T06:55:50Z</time>
      </trkpt>
      <trkpt lat="42.70401" lon="0.52258">
        <ele>2977.3999023438</ele>
        <time>2020-09-17T06:56:22Z</time>
      </trkpt>
      <trkpt lat="42.70433" lon="0.52149">
        <ele>2972.1999511719</ele>
        <time>2020-09-17T07:15:23Z</time>
      </trkpt>
      <trkpt lat="42.70441" lon="0.52137">
        <ele>2977.6000976562</ele>
        <time>2020-09-17T07:18:31Z</time>
      </trkpt>
      <trkpt lat="42.70454" lon="0.52122">
        <ele>2974</ele>
        <time>2020-09-17T07:20:57Z</time>
      </trkpt>
      <trkpt lat="42.70459" lon="0.52113">
        <ele>2968</ele>
        <time>2020-09-17T07:26:39Z</time>
      </trkpt>
      <trkpt lat="42.7046" lon="0.52109">
        <ele>2972.3999023438</ele>
        <time>2020-09-17T07:39:15Z</time>
      </trkpt>
      <trkpt lat="42.70466" lon="0.52104">
        <ele>2977.1999511719</ele>
        <time>2020-09-17T07:40:36Z</time>
      </trkpt>
      <trkpt lat="42.70475" lon="0.5209">
        <ele>2981.3999023438</ele>
        <time>2020-09-17T07:43:19Z</time>
      </trkpt>
      <trkpt lat="42.70475" lon="0.5209">
        <ele>2981.1999511719</ele>
        <time>2020-09-17T07:43:20Z</time>
      </trkpt>
      <trkpt lat="42.70477" lon="0.52086">
        <ele>2985.1999511719</ele>
        <time>2020-09-17T07:44:04Z</time>
      </trkpt>
      <trkpt lat="42.70478" lon="0.52082">
        <ele>2988.6000976562</ele>
        <time>2020-09-17T07:44:21Z</time>
      </trkpt>
      <trkpt lat="42.7048" lon="0.5208">
        <ele>2992.1999511719</ele>
        <time>2020-09-17T07:45:16Z</time>
      </trkpt>
      <trkpt lat="42.70482" lon="0.52076">
        <ele>2996</ele>
        <time>2020-09-17T07:46:13Z</time>
      </trkpt>
      <trkpt lat="42.70483" lon="0.52074">
        <ele>2999.1999511719</ele>
        <time>2020-09-17T07:46:30Z</time>
      </trkpt>
      <trkpt lat="42.70485" lon="0.5207">
        <ele>3003.3999023438</ele>
        <time>2020-09-17T07:47:18Z</time>
      </trkpt>
      <trkpt lat="42.70485" lon="0.52066">
        <ele>3007</ele>
        <time>2020-09-17T07:47:46Z</time>
      </trkpt>
      <trkpt lat="42.70484" lon="0.52063">
        <ele>3010</ele>
        <time>2020-09-17T07:48:21Z</time>
      </trkpt>
      <trkpt lat="42.70489" lon="0.52054">
        <ele>3015.1999511719</ele>
        <time>2020-09-17T07:49:00Z</time>
      </trkpt>
      <trkpt lat="42.70489" lon="0.52049">
        <ele>3014.6000976562</ele>
        <time>2020-09-17T07:49:16Z</time>
      </trkpt>
      <trkpt lat="42.70499" lon="0.52032">
        <ele>3018.1999511719</ele>
        <time>2020-09-17T07:50:12Z</time>
      </trkpt>
      <trkpt lat="42.70514" lon="0.52023">
        <ele>3014.3999023438</ele>
        <time>2020-09-17T07:51:57Z</time>
      </trkpt>
      <trkpt lat="42.70516" lon="0.5202">
        <ele>3010.8000488281</ele>
        <time>2020-09-17T07:52:45Z</time>
      </trkpt>
      <trkpt lat="42.70516" lon="0.5202">
        <ele>3010.6000976562</ele>
        <time>2020-09-17T07:54:01Z</time>
      </trkpt>
      <trkpt lat="42.70524" lon="0.52009">
        <ele>3014.8000488281</ele>
        <time>2020-09-17T07:57:33Z</time>
      </trkpt>
      <trkpt lat="42.70524" lon="0.52009">
        <ele>3015</ele>
        <time>2020-09-17T07:57:34Z</time>
      </trkpt>
      <trkpt lat="42.70525" lon="0.52007">
        <ele>3018.1999511719</ele>
        <time>2020-09-17T07:57:49Z</time>
      </trkpt>
      <trkpt lat="42.70528" lon="0.51999">
        <ele>3022.3999023438</ele>
        <time>2020-09-17T07:58:25Z</time>
      </trkpt>
      <trkpt lat="42.70531" lon="0.51999">
        <ele>3022.6000976562</ele>
        <time>2020-09-17T07:58:44Z</time>
      </trkpt>
      <trkpt lat="42.70534" lon="0.51991">
        <ele>3029.1999511719</ele>
        <time>2020-09-17T08:01:37Z</time>
      </trkpt>
      <trkpt lat="42.70534" lon="0.51991">
        <ele>3028.6000976562</ele>
        <time>2020-09-17T08:01:38Z</time>
      </trkpt>
      <trkpt lat="42.70548" lon="0.51985">
        <ele>3035.1999511719</ele>
        <time>2020-09-17T08:08:49Z</time>
      </trkpt>
      <trkpt lat="42.70554" lon="0.51973">
        <ele>3031</ele>
        <time>2020-09-17T08:14:07Z</time>
      </trkpt>
      <trkpt lat="42.70555" lon="0.51966">
        <ele>3026.3999023438</ele>
        <time>2020-09-17T08:14:35Z</time>
      </trkpt>
      <trkpt lat="42.70563" lon="0.51961">
        <ele>3023.3999023438</ele>
        <time>2020-09-17T08:15:39Z</time>
      </trkpt>
      <trkpt lat="42.70567" lon="0.51961">
        <ele>3019.3999023438</ele>
        <time>2020-09-17T08:16:20Z</time>
      </trkpt>
      <trkpt lat="42.70574" lon="0.51956">
        <ele>3015.1999511719</ele>
        <time>2020-09-17T08:19:15Z</time>
      </trkpt>
      <trkpt lat="42.70575" lon="0.51955">
        <ele>3012.1999511719</ele>
        <time>2020-09-17T08:19:37Z</time>
      </trkpt>
      <trkpt lat="42.70578" lon="0.5194">
        <ele>3014.3999023438</ele>
        <time>2020-09-17T08:23:56Z</time>
      </trkpt>
      <trkpt lat="42.70577" lon="0.51933">
        <ele>3020</ele>
        <time>2020-09-17T08:25:00Z</time>
      </trkpt>
      <trkpt lat="42.70575" lon="0.5193">
        <ele>3024</ele>
        <time>2020-09-17T08:25:35Z</time>
      </trkpt>
      <trkpt lat="42.70573" lon="0.51927">
        <ele>3028</ele>
        <time>2020-09-17T08:26:51Z</time>
      </trkpt>
      <trkpt lat="42.70568" lon="0.51917">
        <ele>3034.3999023438</ele>
        <time>2020-09-17T08:28:48Z</time>
      </trkpt>
      <trkpt lat="42.70569" lon="0.51916">
        <ele>3037.3999023438</ele>
        <time>2020-09-17T08:29:04Z</time>
      </trkpt>
      <trkpt lat="42.70569" lon="0.51915">
        <ele>3037.3999023438</ele>
        <time>2020-09-17T08:29:27Z</time>
      </trkpt>
      <trkpt lat="42.70571" lon="0.51914">
        <ele>3041.6000976562</ele>
        <time>2020-09-17T08:29:51Z</time>
      </trkpt>
      <trkpt lat="42.70571" lon="0.51913">
        <ele>3041.6000976562</ele>
        <time>2020-09-17T08:29:52Z</time>
      </trkpt>
      <trkpt lat="42.70571" lon="0.51915">
        <ele>3046.6000976562</ele>
        <time>2020-09-17T08:30:42Z</time>
      </trkpt>
      <trkpt lat="42.7058" lon="0.51914">
        <ele>3051.3999023438</ele>
        <time>2020-09-17T08:31:14Z</time>
      </trkpt>
      <trkpt lat="42.70582" lon="0.51915">
        <ele>3055.3999023438</ele>
        <time>2020-09-17T08:31:27Z</time>
      </trkpt>
      <trkpt lat="42.70584" lon="0.5191">
        <ele>3051.6000976562</ele>
        <time>2020-09-17T08:33:28Z</time>
      </trkpt>
      <trkpt lat="42.70594" lon="0.51904">
        <ele>3048.1999511719</ele>
        <time>2020-09-17T08:34:16Z</time>
      </trkpt>
      <trkpt lat="42.70606" lon="0.51884">
        <ele>3048.3999023438</ele>
        <time>2020-09-17T08:35:28Z</time>
      </trkpt>
      <trkpt lat="42.70612" lon="0.51882">
        <ele>3056.8000488281</ele>
        <time>2020-09-17T08:36:11Z</time>
      </trkpt>
      <trkpt lat="42.70614" lon="0.51881">
        <ele>3056.8000488281</ele>
        <time>2020-09-17T08:36:28Z</time>
      </trkpt>
      <trkpt lat="42.70619" lon="0.51879">
        <ele>3060.1999511719</ele>
        <time>2020-09-17T08:37:09Z</time>
      </trkpt>
      <trkpt lat="42.7062" lon="0.51875">
        <ele>3064.8000488281</ele>
        <time>2020-09-17T08:37:38Z</time>
      </trkpt>
      <trkpt lat="42.70621" lon="0.51874">
        <ele>3065</ele>
        <time>2020-09-17T08:37:57Z</time>
      </trkpt>
      <trkpt lat="42.70622" lon="0.51871">
        <ele>3060.6000976562</ele>
        <time>2020-09-17T08:38:43Z</time>
      </trkpt>
      <trkpt lat="42.70624" lon="0.51866">
        <ele>3057</ele>
        <time>2020-09-17T08:39:11Z</time>
      </trkpt>
      <trkpt lat="42.70635" lon="0.51858">
        <ele>3061.1999511719</ele>
        <time>2020-09-17T08:41:14Z</time>
      </trkpt>
      <trkpt lat="42.70636" lon="0.51858">
        <ele>3064.3999023438</ele>
        <time>2020-09-17T08:41:33Z</time>
      </trkpt>
      <trkpt lat="42.70659" lon="0.5184">
        <ele>3072</ele>
        <time>2020-09-17T08:45:17Z</time>
      </trkpt>
      <trkpt lat="42.7066" lon="0.51834">
        <ele>3075.3999023438</ele>
        <time>2020-09-17T08:45:42Z</time>
      </trkpt>
      <trkpt lat="42.7066" lon="0.51835">
        <ele>3074.8000488281</ele>
        <time>2020-09-17T08:46:02Z</time>
      </trkpt>
      <trkpt lat="42.70658" lon="0.51831">
        <ele>3071.8000488281</ele>
        <time>2020-09-17T08:46:41Z</time>
      </trkpt>
      <trkpt lat="42.70666" lon="0.51827">
        <ele>3067.1999511719</ele>
        <time>2020-09-17T08:47:38Z</time>
      </trkpt>
      <trkpt lat="42.70666" lon="0.51817">
        <ele>3063</ele>
        <time>2020-09-17T08:48:04Z</time>
      </trkpt>
      <trkpt lat="42.70672" lon="0.51813">
        <ele>3068.1999511719</ele>
        <time>2020-09-17T08:51:26Z</time>
      </trkpt>
      <trkpt lat="42.70673" lon="0.51811">
        <ele>3071.8000488281</ele>
        <time>2020-09-17T08:53:07Z</time>
      </trkpt>
      <trkpt lat="42.70675" lon="0.5181">
        <ele>3076.3999023438</ele>
        <time>2020-09-17T08:54:22Z</time>
      </trkpt>
      <trkpt lat="42.70677" lon="0.51809">
        <ele>3079.8000488281</ele>
        <time>2020-09-17T08:54:47Z</time>
      </trkpt>
      <trkpt lat="42.70683" lon="0.51804">
        <ele>3084.8000488281</ele>
        <time>2020-09-17T08:55:34Z</time>
      </trkpt>
      <trkpt lat="42.70683" lon="0.51803">
        <ele>3081.6000976562</ele>
        <time>2020-09-17T08:55:45Z</time>
      </trkpt>
      <trkpt lat="42.70684" lon="0.51798">
        <ele>3085.6000976562</ele>
        <time>2020-09-17T08:56:20Z</time>
      </trkpt>
      <trkpt lat="42.70688" lon="0.51788">
        <ele>3090.1999511719</ele>
        <time>2020-09-17T08:57:55Z</time>
      </trkpt>
      <trkpt lat="42.7069" lon="0.51787">
        <ele>3093.3999023438</ele>
        <time>2020-09-17T08:58:05Z</time>
      </trkpt>
      <trkpt lat="42.70696" lon="0.51782">
        <ele>3096.8000488281</ele>
        <time>2020-09-17T08:58:34Z</time>
      </trkpt>
      <trkpt lat="42.70696" lon="0.51782">
        <ele>3095.6000976562</ele>
        <time>2020-09-17T08:58:43Z</time>
      </trkpt>
      <trkpt lat="42.70706" lon="0.51766">
        <ele>3098.8000488281</ele>
        <time>2020-09-17T08:59:30Z</time>
      </trkpt>
      <trkpt lat="42.7072" lon="0.51725">
        <ele>3104.3999023438</ele>
        <time>2020-09-17T09:00:53Z</time>
      </trkpt>
      <trkpt lat="42.70737" lon="0.51668">
        <ele>3106.3999023438</ele>
        <time>2020-09-17T10:02:47Z</time>
      </trkpt>
      <trkpt lat="42.70717" lon="0.51747">
        <ele>3102.8000488281</ele>
        <time>2020-09-17T10:04:51Z</time>
      </trkpt>
      <trkpt lat="42.70697" lon="0.51778">
        <ele>3099.6000976562</ele>
        <time>2020-09-17T10:05:49Z</time>
      </trkpt>
      <trkpt lat="42.70688" lon="0.51787">
        <ele>3095.3999023438</ele>
        <time>2020-09-17T10:06:32Z</time>
      </trkpt>
      <trkpt lat="42.70682" lon="0.51795">
        <ele>3092.1999511719</ele>
        <time>2020-09-17T10:07:36Z</time>
      </trkpt>
      <trkpt lat="42.70683" lon="0.51799">
        <ele>3087.3999023438</ele>
        <time>2020-09-17T10:08:25Z</time>
      </trkpt>
      <trkpt lat="42.70682" lon="0.51803">
        <ele>3083.1999511719</ele>
        <time>2020-09-17T10:08:56Z</time>
      </trkpt>
      <trkpt lat="42.70678" lon="0.51802">
        <ele>3078.1999511719</ele>
        <time>2020-09-17T10:09:24Z</time>
      </trkpt>
      <trkpt lat="42.70677" lon="0.518">
        <ele>3075.1999511719</ele>
        <time>2020-09-17T10:09:40Z</time>
      </trkpt>
      <trkpt lat="42.70674" lon="0.51798">
        <ele>3071.1999511719</ele>
        <time>2020-09-17T10:10:14Z</time>
      </trkpt>
      <trkpt lat="42.70671" lon="0.51797">
        <ele>3066.8000488281</ele>
        <time>2020-09-17T10:10:44Z</time>
      </trkpt>
      <trkpt lat="42.70668" lon="0.51789">
        <ele>3063</ele>
        <time>2020-09-17T10:11:15Z</time>
      </trkpt>
      <trkpt lat="42.70667" lon="0.51786">
        <ele>3063.1999511719</ele>
        <time>2020-09-17T10:11:29Z</time>
      </trkpt>
      <trkpt lat="42.70666" lon="0.51789">
        <ele>3060.1999511719</ele>
        <time>2020-09-17T10:11:43Z</time>
      </trkpt>
      <trkpt lat="42.70666" lon="0.5179">
        <ele>3057.1999511719</ele>
        <time>2020-09-17T10:12:05Z</time>
      </trkpt>
      <trkpt lat="42.70662" lon="0.51794">
        <ele>3053.3999023438</ele>
        <time>2020-09-17T10:12:58Z</time>
      </trkpt>
      <trkpt lat="42.70658" lon="0.51795">
        <ele>3050.1999511719</ele>
        <time>2020-09-17T10:13:30Z</time>
      </trkpt>
      <trkpt lat="42.70657" lon="0.51795">
        <ele>3047</ele>
        <time>2020-09-17T10:14:09Z</time>
      </trkpt>
      <trkpt lat="42.70651" lon="0.51789">
        <ele>3043.6000976562</ele>
        <time>2020-09-17T10:15:21Z</time>
      </trkpt>
      <trkpt lat="42.7065" lon="0.51788">
        <ele>3039.8000488281</ele>
        <time>2020-09-17T10:15:32Z</time>
      </trkpt>
      <trkpt lat="42.70647" lon="0.51792">
        <ele>3036</ele>
        <time>2020-09-17T10:16:09Z</time>
      </trkpt>
      <trkpt lat="42.70643" lon="0.51798">
        <ele>3032</ele>
        <time>2020-09-17T10:17:15Z</time>
      </trkpt>
      <trkpt lat="42.70624" lon="0.51815">
        <ele>3028.1999511719</ele>
        <time>2020-09-17T10:17:55Z</time>
      </trkpt>
      <trkpt lat="42.70624" lon="0.51814">
        <ele>3028.3999023438</ele>
        <time>2020-09-17T10:18:17Z</time>
      </trkpt>
      <trkpt lat="42.70618" lon="0.51818">
        <ele>3025</ele>
        <time>2020-09-17T10:18:59Z</time>
      </trkpt>
      <trkpt lat="42.70615" lon="0.51816">
        <ele>3021</ele>
        <time>2020-09-17T10:19:29Z</time>
      </trkpt>
      <trkpt lat="42.70609" lon="0.51816">
        <ele>3017</ele>
        <time>2020-09-17T10:20:00Z</time>
      </trkpt>
      <trkpt lat="42.7061" lon="0.51817">
        <ele>3016.8000488281</ele>
        <time>2020-09-17T10:20:17Z</time>
      </trkpt>
      <trkpt lat="42.70606" lon="0.5181">
        <ele>3013.6000976562</ele>
        <time>2020-09-17T10:23:50Z</time>
      </trkpt>
      <trkpt lat="42.70601" lon="0.51803">
        <ele>3008.6000976562</ele>
        <time>2020-09-17T10:24:20Z</time>
      </trkpt>
      <trkpt lat="42.70598" lon="0.51802">
        <ele>3005.1999511719</ele>
        <time>2020-09-17T10:24:32Z</time>
      </trkpt>
      <trkpt lat="42.70592" lon="0.51801">
        <ele>2999.8000488281</ele>
        <time>2020-09-17T10:25:28Z</time>
      </trkpt>
      <trkpt lat="42.70592" lon="0.51798">
        <ele>2996.8000488281</ele>
        <time>2020-09-17T10:25:43Z</time>
      </trkpt>
      <trkpt lat="42.7059" lon="0.51796">
        <ele>2992.8000488281</ele>
        <time>2020-09-17T10:26:17Z</time>
      </trkpt>
      <trkpt lat="42.70587" lon="0.51793">
        <ele>2989.8000488281</ele>
        <time>2020-09-17T10:26:39Z</time>
      </trkpt>
      <trkpt lat="42.70584" lon="0.51793">
        <ele>2986.8000488281</ele>
        <time>2020-09-17T10:26:53Z</time>
      </trkpt>
      <trkpt lat="42.70576" lon="0.51787">
        <ele>2980.3999023438</ele>
        <time>2020-09-17T10:27:55Z</time>
      </trkpt>
      <trkpt lat="42.70568" lon="0.51785">
        <ele>2977.3999023438</ele>
        <time>2020-09-17T10:28:12Z</time>
      </trkpt>
      <trkpt lat="42.70563" lon="0.51781">
        <ele>2974</ele>
        <time>2020-09-17T10:28:37Z</time>
      </trkpt>
      <trkpt lat="42.70569" lon="0.51773">
        <ele>2970.1999511719</ele>
        <time>2020-09-17T10:29:13Z</time>
      </trkpt>
      <trkpt lat="42.70569" lon="0.51768">
        <ele>2967</ele>
        <time>2020-09-17T10:29:26Z</time>
      </trkpt>
      <trkpt lat="42.70572" lon="0.51763">
        <ele>2963.8000488281</ele>
        <time>2020-09-17T10:29:40Z</time>
      </trkpt>
      <trkpt lat="42.70573" lon="0.51759">
        <ele>2960.6000976562</ele>
        <time>2020-09-17T10:29:53Z</time>
      </trkpt>
      <trkpt lat="42.70578" lon="0.5175">
        <ele>2954.6000976562</ele>
        <time>2020-09-17T10:30:21Z</time>
      </trkpt>
      <trkpt lat="42.70572" lon="0.51714">
        <ele>2948.1999511719</ele>
        <time>2020-09-17T10:31:20Z</time>
      </trkpt>
      <trkpt lat="42.70569" lon="0.51703">
        <ele>2944</ele>
        <time>2020-09-17T10:31:43Z</time>
      </trkpt>
      <trkpt lat="42.70567" lon="0.51695">
        <ele>2940.8000488281</ele>
        <time>2020-09-17T10:31:57Z</time>
      </trkpt>
      <trkpt lat="42.70563" lon="0.51689">
        <ele>2937.8000488281</ele>
        <time>2020-09-17T10:32:10Z</time>
      </trkpt>
      <trkpt lat="42.70556" lon="0.51682">
        <ele>2934</ele>
        <time>2020-09-17T10:32:28Z</time>
      </trkpt>
      <trkpt lat="42.7055" lon="0.51681">
        <ele>2931</ele>
        <time>2020-09-17T10:32:51Z</time>
      </trkpt>
      <trkpt lat="42.70545" lon="0.51659">
        <ele>2927.3999023438</ele>
        <time>2020-09-17T10:33:16Z</time>
      </trkpt>
      <trkpt lat="42.70541" lon="0.51637">
        <ele>2922.3999023438</ele>
        <time>2020-09-17T10:33:40Z</time>
      </trkpt>
      <trkpt lat="42.7054" lon="0.51631">
        <ele>2919.1999511719</ele>
        <time>2020-09-17T10:33:52Z</time>
      </trkpt>
      <trkpt lat="42.70539" lon="0.51614">
        <ele>2916</ele>
        <time>2020-09-17T10:34:22Z</time>
      </trkpt>
      <trkpt lat="42.70536" lon="0.51583">
        <ele>2910.6000976562</ele>
        <time>2020-09-17T10:35:12Z</time>
      </trkpt>
      <trkpt lat="42.70532" lon="0.51582">
        <ele>2907.3999023438</ele>
        <time>2020-09-17T10:35:21Z</time>
      </trkpt>
      <trkpt lat="42.70531" lon="0.51575">
        <ele>2904.3999023438</ele>
        <time>2020-09-17T10:35:32Z</time>
      </trkpt>
      <trkpt lat="42.70526" lon="0.51569">
        <ele>2899.6000976562</ele>
        <time>2020-09-17T10:35:59Z</time>
      </trkpt>
      <trkpt lat="42.70523" lon="0.51569">
        <ele>2896.6000976562</ele>
        <time>2020-09-17T10:36:32Z</time>
      </trkpt>
      <trkpt lat="42.70518" lon="0.51566">
        <ele>2891.6000976562</ele>
        <time>2020-09-17T10:36:57Z</time>
      </trkpt>
      <trkpt lat="42.70515" lon="0.51562">
        <ele>2887.6000976562</ele>
        <time>2020-09-17T10:37:26Z</time>
      </trkpt>
      <trkpt lat="42.70511" lon="0.51564">
        <ele>2884.3999023438</ele>
        <time>2020-09-17T10:37:40Z</time>
      </trkpt>
      <trkpt lat="42.70509" lon="0.51557">
        <ele>2879.6000976562</ele>
        <time>2020-09-17T10:38:11Z</time>
      </trkpt>
      <trkpt lat="42.70507" lon="0.51555">
        <ele>2876.3999023438</ele>
        <time>2020-09-17T10:38:27Z</time>
      </trkpt>
      <trkpt lat="42.70506" lon="0.51552">
        <ele>2873.1999511719</ele>
        <time>2020-09-17T10:38:36Z</time>
      </trkpt>
      <trkpt lat="42.70496" lon="0.51543">
        <ele>2869.8000488281</ele>
        <time>2020-09-17T10:39:08Z</time>
      </trkpt>
      <trkpt lat="42.70494" lon="0.51543">
        <ele>2866.6000976562</ele>
        <time>2020-09-17T10:39:22Z</time>
      </trkpt>
      <trkpt lat="42.70492" lon="0.51548">
        <ele>2862.8000488281</ele>
        <time>2020-09-17T10:39:53Z</time>
      </trkpt>
      <trkpt lat="42.70483" lon="0.51536">
        <ele>2858.6000976562</ele>
        <time>2020-09-17T10:40:35Z</time>
      </trkpt>
      <trkpt lat="42.70477" lon="0.51523">
        <ele>2853.6000976562</ele>
        <time>2020-09-17T10:41:01Z</time>
      </trkpt>
      <trkpt lat="42.7047" lon="0.51529">
        <ele>2847.3999023438</ele>
        <time>2020-09-17T10:41:28Z</time>
      </trkpt>
      <trkpt lat="42.70468" lon="0.5153">
        <ele>2844.3999023438</ele>
        <time>2020-09-17T10:41:38Z</time>
      </trkpt>
      <trkpt lat="42.70465" lon="0.51534">
        <ele>2841.1999511719</ele>
        <time>2020-09-17T10:41:53Z</time>
      </trkpt>
      <trkpt lat="42.70459" lon="0.51534">
        <ele>2836.1999511719</ele>
        <time>2020-09-17T10:42:19Z</time>
      </trkpt>
      <trkpt lat="42.70454" lon="0.5153">
        <ele>2831.1999511719</ele>
        <time>2020-09-17T10:43:07Z</time>
      </trkpt>
      <trkpt lat="42.7045" lon="0.51521">
        <ele>2824.8000488281</ele>
        <time>2020-09-17T10:43:31Z</time>
      </trkpt>
      <trkpt lat="42.70446" lon="0.51514">
        <ele>2821.8000488281</ele>
        <time>2020-09-17T10:43:47Z</time>
      </trkpt>
      <trkpt lat="42.70443" lon="0.51519">
        <ele>2818.6000976562</ele>
        <time>2020-09-17T10:44:01Z</time>
      </trkpt>
      <trkpt lat="42.70439" lon="0.51527">
        <ele>2815.6000976562</ele>
        <time>2020-09-17T10:44:15Z</time>
      </trkpt>
      <trkpt lat="42.70435" lon="0.51535">
        <ele>2812.3999023438</ele>
        <time>2020-09-17T10:44:31Z</time>
      </trkpt>
      <trkpt lat="42.7043" lon="0.5155">
        <ele>2808.8000488281</ele>
        <time>2020-09-17T10:44:50Z</time>
      </trkpt>
      <trkpt lat="42.70426" lon="0.51552">
        <ele>2805.8000488281</ele>
        <time>2020-09-17T10:44:59Z</time>
      </trkpt>
      <trkpt lat="42.70422" lon="0.51553">
        <ele>2802.6000976562</ele>
        <time>2020-09-17T10:45:09Z</time>
      </trkpt>
      <trkpt lat="42.70412" lon="0.51568">
        <ele>2796.6000976562</ele>
        <time>2020-09-17T10:45:32Z</time>
      </trkpt>
      <trkpt lat="42.70405" lon="0.51574">
        <ele>2793.1999511719</ele>
        <time>2020-09-17T10:45:46Z</time>
      </trkpt>
      <trkpt lat="42.70398" lon="0.51586">
        <ele>2789.1999511719</ele>
        <time>2020-09-17T10:46:02Z</time>
      </trkpt>
      <trkpt lat="42.70385" lon="0.51588">
        <ele>2783.3999023438</ele>
        <time>2020-09-17T10:46:28Z</time>
      </trkpt>
      <trkpt lat="42.70379" lon="0.51584">
        <ele>2780.1999511719</ele>
        <time>2020-09-17T10:46:57Z</time>
      </trkpt>
      <trkpt lat="42.70374" lon="0.51595">
        <ele>2777.1999511719</ele>
        <time>2020-09-17T10:47:11Z</time>
      </trkpt>
      <trkpt lat="42.70371" lon="0.51593">
        <ele>2774.1999511719</ele>
        <time>2020-09-17T10:47:24Z</time>
      </trkpt>
      <trkpt lat="42.70366" lon="0.51595">
        <ele>2771</ele>
        <time>2020-09-17T10:47:36Z</time>
      </trkpt>
      <trkpt lat="42.70361" lon="0.51595">
        <ele>2767.6000976562</ele>
        <time>2020-09-17T10:47:48Z</time>
      </trkpt>
      <trkpt lat="42.70356" lon="0.51589">
        <ele>2764.3999023438</ele>
        <time>2020-09-17T10:47:59Z</time>
      </trkpt>
      <trkpt lat="42.70347" lon="0.51593">
        <ele>2758.8000488281</ele>
        <time>2020-09-17T10:48:13Z</time>
      </trkpt>
      <trkpt lat="42.70345" lon="0.51594">
        <ele>2755.8000488281</ele>
        <time>2020-09-17T10:48:24Z</time>
      </trkpt>
      <trkpt lat="42.70337" lon="0.51588">
        <ele>2751.3999023438</ele>
        <time>2020-09-17T10:48:58Z</time>
      </trkpt>
      <trkpt lat="42.70328" lon="0.51583">
        <ele>2746</ele>
        <time>2020-09-17T10:49:32Z</time>
      </trkpt>
      <trkpt lat="42.70322" lon="0.51583">
        <ele>2742.6000976562</ele>
        <time>2020-09-17T10:49:41Z</time>
      </trkpt>
      <trkpt lat="42.70318" lon="0.51586">
        <ele>2739.3999023438</ele>
        <time>2020-09-17T10:49:57Z</time>
      </trkpt>
      <trkpt lat="42.70318" lon="0.51585">
        <ele>2739.3999023438</ele>
        <time>2020-09-17T10:50:20Z</time>
      </trkpt>
      <trkpt lat="42.703" lon="0.51567">
        <ele>2734.6000976562</ele>
        <time>2020-09-17T10:55:25Z</time>
      </trkpt>
      <trkpt lat="42.70294" lon="0.51566">
        <ele>2731.6000976562</ele>
        <time>2020-09-17T10:55:35Z</time>
      </trkpt>
      <trkpt lat="42.70288" lon="0.51564">
        <ele>2728</ele>
        <time>2020-09-17T10:55:45Z</time>
      </trkpt>
      <trkpt lat="42.70286" lon="0.51555">
        <ele>2724.8000488281</ele>
        <time>2020-09-17T10:55:58Z</time>
      </trkpt>
      <trkpt lat="42.70282" lon="0.51551">
        <ele>2721.6000976562</ele>
        <time>2020-09-17T10:56:09Z</time>
      </trkpt>
      <trkpt lat="42.70281" lon="0.51544">
        <ele>2718.6000976562</ele>
        <time>2020-09-17T10:56:20Z</time>
      </trkpt>
      <trkpt lat="42.7028" lon="0.51534">
        <ele>2715</ele>
        <time>2020-09-17T10:56:31Z</time>
      </trkpt>
      <trkpt lat="42.70276" lon="0.51528">
        <ele>2711.8000488281</ele>
        <time>2020-09-17T10:56:42Z</time>
      </trkpt>
      <trkpt lat="42.70279" lon="0.51515">
        <ele>2708</ele>
        <time>2020-09-17T10:56:54Z</time>
      </trkpt>
      <trkpt lat="42.7028" lon="0.5149">
        <ele>2702.1999511719</ele>
        <time>2020-09-17T10:57:21Z</time>
      </trkpt>
      <trkpt lat="42.70272" lon="0.51487">
        <ele>2699.1999511719</ele>
        <time>2020-09-17T10:57:35Z</time>
      </trkpt>
      <trkpt lat="42.70274" lon="0.5147">
        <ele>2695.8000488281</ele>
        <time>2020-09-17T10:57:51Z</time>
      </trkpt>
      <trkpt lat="42.70274" lon="0.51449">
        <ele>2692</ele>
        <time>2020-09-17T10:58:18Z</time>
      </trkpt>
      <trkpt lat="42.70281" lon="0.51425">
        <ele>2686.6000976562</ele>
        <time>2020-09-17T10:58:45Z</time>
      </trkpt>
      <trkpt lat="42.70286" lon="0.51405">
        <ele>2682.1999511719</ele>
        <time>2020-09-17T10:59:08Z</time>
      </trkpt>
      <trkpt lat="42.70296" lon="0.51375">
        <ele>2677</ele>
        <time>2020-09-17T10:59:35Z</time>
      </trkpt>
      <trkpt lat="42.70296" lon="0.5136">
        <ele>2674</ele>
        <time>2020-09-17T10:59:53Z</time>
      </trkpt>
      <trkpt lat="42.70299" lon="0.51347">
        <ele>2670.8000488281</ele>
        <time>2020-09-17T11:00:08Z</time>
      </trkpt>
      <trkpt lat="42.703" lon="0.51337">
        <ele>2667.8000488281</ele>
        <time>2020-09-17T11:00:20Z</time>
      </trkpt>
      <trkpt lat="42.70298" lon="0.51331">
        <ele>2664.8000488281</ele>
        <time>2020-09-17T11:00:30Z</time>
      </trkpt>
      <trkpt lat="42.70292" lon="0.51324">
        <ele>2660</ele>
        <time>2020-09-17T11:00:57Z</time>
      </trkpt>
      <trkpt lat="42.70288" lon="0.51332">
        <ele>2656.8000488281</ele>
        <time>2020-09-17T11:01:12Z</time>
      </trkpt>
      <trkpt lat="42.70287" lon="0.51329">
        <ele>2655.8000488281</ele>
        <time>2020-09-17T11:01:24Z</time>
      </trkpt>
      <trkpt lat="42.70287" lon="0.51327">
        <ele>2655.6000976562</ele>
        <time>2020-09-17T11:01:25Z</time>
      </trkpt>
      <trkpt lat="42.70284" lon="0.5131">
        <ele>2652.6000976562</ele>
        <time>2020-09-17T11:01:39Z</time>
      </trkpt>
      <trkpt lat="42.70281" lon="0.51304">
        <ele>2649.3999023438</ele>
        <time>2020-09-17T11:01:50Z</time>
      </trkpt>
      <trkpt lat="42.70282" lon="0.51298">
        <ele>2646.3999023438</ele>
        <time>2020-09-17T11:02:02Z</time>
      </trkpt>
      <trkpt lat="42.70285" lon="0.51289">
        <ele>2643.3999023438</ele>
        <time>2020-09-17T11:02:11Z</time>
      </trkpt>
      <trkpt lat="42.70285" lon="0.51279">
        <ele>2640.1999511719</ele>
        <time>2020-09-17T11:02:19Z</time>
      </trkpt>
      <trkpt lat="42.70286" lon="0.51269">
        <ele>2637</ele>
        <time>2020-09-17T11:02:28Z</time>
      </trkpt>
      <trkpt lat="42.7029" lon="0.51255">
        <ele>2633.3999023438</ele>
        <time>2020-09-17T11:02:40Z</time>
      </trkpt>
      <trkpt lat="42.70292" lon="0.51238">
        <ele>2629.6000976562</ele>
        <time>2020-09-17T11:03:04Z</time>
      </trkpt>
      <trkpt lat="42.70291" lon="0.51228">
        <ele>2627.1999511719</ele>
        <time>2020-09-17T11:03:13Z</time>
      </trkpt>
      <trkpt lat="42.70295" lon="0.51212">
        <ele>2623.8000488281</ele>
        <time>2020-09-17T11:03:24Z</time>
      </trkpt>
      <trkpt lat="42.70296" lon="0.51197">
        <ele>2620.8000488281</ele>
        <time>2020-09-17T11:03:39Z</time>
      </trkpt>
      <trkpt lat="42.70301" lon="0.51187">
        <ele>2617.6000976562</ele>
        <time>2020-09-17T11:03:51Z</time>
      </trkpt>
      <trkpt lat="42.70293" lon="0.5117">
        <ele>2609.1999511719</ele>
        <time>2020-09-17T11:04:25Z</time>
      </trkpt>
      <trkpt lat="42.70303" lon="0.51126">
        <ele>2606</ele>
        <time>2020-09-17T11:05:08Z</time>
      </trkpt>
      <trkpt lat="42.70335" lon="0.51099">
        <ele>2602.3999023438</ele>
        <time>2020-09-17T11:05:59Z</time>
      </trkpt>
      <trkpt lat="42.70368" lon="0.51066">
        <ele>2595.8000488281</ele>
        <time>2020-09-17T11:07:07Z</time>
      </trkpt>
      <trkpt lat="42.7036" lon="0.51039">
        <ele>2596</ele>
        <time>2020-09-17T11:07:22Z</time>
      </trkpt>
      <trkpt lat="42.70386" lon="0.50802">
        <ele>2594</ele>
        <time>2020-09-17T11:15:19Z</time>
      </trkpt>
      <trkpt lat="42.70397" lon="0.50821">
        <ele>2566.1999511719</ele>
        <time>2020-09-18T05:12:31Z</time>
      </trkpt>
      <trkpt lat="42.70397" lon="0.50821">
        <ele>2566.1999511719</ele>
        <time>2020-09-18T05:12:32Z</time>
      </trkpt>
      <trkpt lat="42.70403" lon="0.50801">
        <ele>2571.3999023438</ele>
        <time>2020-09-18T05:13:14Z</time>
      </trkpt>
      <trkpt lat="42.70404" lon="0.50798">
        <ele>2571.3999023438</ele>
        <time>2020-09-18T05:13:16Z</time>
      </trkpt>
      <trkpt lat="42.70416" lon="0.5079">
        <ele>2571.8000488281</ele>
        <time>2020-09-18T05:13:30Z</time>
      </trkpt>
      <trkpt lat="42.70427" lon="0.50785">
        <ele>2568.8000488281</ele>
        <time>2020-09-18T05:13:40Z</time>
      </trkpt>
      <trkpt lat="42.70439" lon="0.50784">
        <ele>2563.8000488281</ele>
        <time>2020-09-18T05:14:14Z</time>
      </trkpt>
      <trkpt lat="42.70434" lon="0.50786">
        <ele>2560.8000488281</ele>
        <time>2020-09-18T05:14:32Z</time>
      </trkpt>
      <trkpt lat="42.70435" lon="0.50794">
        <ele>2555.6000976562</ele>
        <time>2020-09-18T05:14:56Z</time>
      </trkpt>
      <trkpt lat="42.70436" lon="0.50797">
        <ele>2552.6000976562</ele>
        <time>2020-09-18T05:15:03Z</time>
      </trkpt>
      <trkpt lat="42.70443" lon="0.5079">
        <ele>2549.3999023438</ele>
        <time>2020-09-18T05:15:20Z</time>
      </trkpt>
      <trkpt lat="42.70454" lon="0.50793">
        <ele>2544.1999511719</ele>
        <time>2020-09-18T05:15:42Z</time>
      </trkpt>
      <trkpt lat="42.70492" lon="0.50807">
        <ele>2540.3999023438</ele>
        <time>2020-09-18T05:16:41Z</time>
      </trkpt>
      <trkpt lat="42.70519" lon="0.50827">
        <ele>2535.3999023438</ele>
        <time>2020-09-18T05:17:22Z</time>
      </trkpt>
      <trkpt lat="42.70538" lon="0.5085">
        <ele>2528.3999023438</ele>
        <time>2020-09-18T05:18:06Z</time>
      </trkpt>
      <trkpt lat="42.70553" lon="0.50858">
        <ele>2524.6000976562</ele>
        <time>2020-09-18T05:18:29Z</time>
      </trkpt>
      <trkpt lat="42.70593" lon="0.50882">
        <ele>2521.3999023438</ele>
        <time>2020-09-18T05:19:47Z</time>
      </trkpt>
      <trkpt lat="42.70629" lon="0.50889">
        <ele>2518.1999511719</ele>
        <time>2020-09-18T05:20:29Z</time>
      </trkpt>
      <trkpt lat="42.70627" lon="0.50892">
        <ele>2515</ele>
        <time>2020-09-18T05:20:40Z</time>
      </trkpt>
      <trkpt lat="42.70625" lon="0.50897">
        <ele>2512</ele>
        <time>2020-09-18T05:20:50Z</time>
      </trkpt>
      <trkpt lat="42.70629" lon="0.50897">
        <ele>2508.3999023438</ele>
        <time>2020-09-18T05:21:20Z</time>
      </trkpt>
      <trkpt lat="42.70646" lon="0.50894">
        <ele>2511.3999023438</ele>
        <time>2020-09-18T05:21:52Z</time>
      </trkpt>
      <trkpt lat="42.70679" lon="0.50884">
        <ele>2508</ele>
        <time>2020-09-18T05:22:50Z</time>
      </trkpt>
      <trkpt lat="42.70683" lon="0.50891">
        <ele>2502.3999023438</ele>
        <time>2020-09-18T05:23:15Z</time>
      </trkpt>
      <trkpt lat="42.70683" lon="0.50894">
        <ele>2499.1999511719</ele>
        <time>2020-09-18T05:23:26Z</time>
      </trkpt>
      <trkpt lat="42.70687" lon="0.50898">
        <ele>2496.1999511719</ele>
        <time>2020-09-18T05:23:38Z</time>
      </trkpt>
      <trkpt lat="42.70688" lon="0.50905">
        <ele>2492.8000488281</ele>
        <time>2020-09-18T05:23:57Z</time>
      </trkpt>
      <trkpt lat="42.7069" lon="0.50913">
        <ele>2489.8000488281</ele>
        <time>2020-09-18T05:24:08Z</time>
      </trkpt>
      <trkpt lat="42.70701" lon="0.50906">
        <ele>2490.3999023438</ele>
        <time>2020-09-18T05:24:25Z</time>
      </trkpt>
      <trkpt lat="42.7072" lon="0.5091">
        <ele>2487.1999511719</ele>
        <time>2020-09-18T05:25:02Z</time>
      </trkpt>
      <trkpt lat="42.70726" lon="0.50913">
        <ele>2484</ele>
        <time>2020-09-18T05:25:17Z</time>
      </trkpt>
      <trkpt lat="42.70735" lon="0.50928">
        <ele>2477.8000488281</ele>
        <time>2020-09-18T05:25:40Z</time>
      </trkpt>
      <trkpt lat="42.70752" lon="0.50923">
        <ele>2473.6000976562</ele>
        <time>2020-09-18T05:26:09Z</time>
      </trkpt>
      <trkpt lat="42.70786" lon="0.50917">
        <ele>2469.1999511719</ele>
        <time>2020-09-18T05:26:46Z</time>
      </trkpt>
      <trkpt lat="42.70822" lon="0.50915">
        <ele>2463</ele>
        <time>2020-09-18T05:27:19Z</time>
      </trkpt>
      <trkpt lat="42.70826" lon="0.50916">
        <ele>2459</ele>
        <time>2020-09-18T05:27:46Z</time>
      </trkpt>
      <trkpt lat="42.70832" lon="0.5091">
        <ele>2460.1999511719</ele>
        <time>2020-09-18T05:27:55Z</time>
      </trkpt>
      <trkpt lat="42.70868" lon="0.50924">
        <ele>2452.1999511719</ele>
        <time>2020-09-18T05:30:02Z</time>
      </trkpt>
      <trkpt lat="42.7089" lon="0.50931">
        <ele>2447.3999023438</ele>
        <time>2020-09-18T05:30:46Z</time>
      </trkpt>
      <trkpt lat="42.70893" lon="0.50925">
        <ele>2444.1999511719</ele>
        <time>2020-09-18T05:31:23Z</time>
      </trkpt>
      <trkpt lat="42.70929" lon="0.50915">
        <ele>2441.1999511719</ele>
        <time>2020-09-18T05:32:44Z</time>
      </trkpt>
      <trkpt lat="42.70958" lon="0.50913">
        <ele>2437</ele>
        <time>2020-09-18T05:33:19Z</time>
      </trkpt>
      <trkpt lat="42.71055" lon="0.50905">
        <ele>2431</ele>
        <time>2020-09-18T05:35:24Z</time>
      </trkpt>
      <trkpt lat="42.71116" lon="0.50907">
        <ele>2430.8000488281</ele>
        <time>2020-09-18T05:37:26Z</time>
      </trkpt>
      <trkpt lat="42.71124" lon="0.50907">
        <ele>2434</ele>
        <time>2020-09-18T05:37:48Z</time>
      </trkpt>
      <trkpt lat="42.7113" lon="0.50906">
        <ele>2437</ele>
        <time>2020-09-18T05:37:59Z</time>
      </trkpt>
      <trkpt lat="42.71134" lon="0.50908">
        <ele>2437.1999511719</ele>
        <time>2020-09-18T05:38:18Z</time>
      </trkpt>
      <trkpt lat="42.71142" lon="0.50911">
        <ele>2440.1999511719</ele>
        <time>2020-09-18T05:38:41Z</time>
      </trkpt>
      <trkpt lat="42.7118" lon="0.50905">
        <ele>2445</ele>
        <time>2020-09-18T05:39:46Z</time>
      </trkpt>
      <trkpt lat="42.71185" lon="0.50903">
        <ele>2448</ele>
        <time>2020-09-18T05:40:13Z</time>
      </trkpt>
      <trkpt lat="42.71185" lon="0.50901">
        <ele>2447.8000488281</ele>
        <time>2020-09-18T05:40:35Z</time>
      </trkpt>
      <trkpt lat="42.71196" lon="0.50902">
        <ele>2444.3999023438</ele>
        <time>2020-09-18T05:42:13Z</time>
      </trkpt>
      <trkpt lat="42.71197" lon="0.50902">
        <ele>2444.3999023438</ele>
        <time>2020-09-18T05:42:14Z</time>
      </trkpt>
      <trkpt lat="42.71223" lon="0.50888">
        <ele>2449.3999023438</ele>
        <time>2020-09-18T05:42:47Z</time>
      </trkpt>
      <trkpt lat="42.71241" lon="0.50893">
        <ele>2445.1999511719</ele>
        <time>2020-09-18T05:43:10Z</time>
      </trkpt>
      <trkpt lat="42.71248" lon="0.50893">
        <ele>2442.1999511719</ele>
        <time>2020-09-18T05:43:21Z</time>
      </trkpt>
      <trkpt lat="42.71261" lon="0.50897">
        <ele>2436.3999023438</ele>
        <time>2020-09-18T05:43:54Z</time>
      </trkpt>
      <trkpt lat="42.71266" lon="0.50894">
        <ele>2433.1999511719</ele>
        <time>2020-09-18T05:44:07Z</time>
      </trkpt>
      <trkpt lat="42.71282" lon="0.509">
        <ele>2428</ele>
        <time>2020-09-18T05:44:41Z</time>
      </trkpt>
      <trkpt lat="42.71289" lon="0.50901">
        <ele>2424.8000488281</ele>
        <time>2020-09-18T05:44:58Z</time>
      </trkpt>
      <trkpt lat="42.71296" lon="0.50901">
        <ele>2421.6000976562</ele>
        <time>2020-09-18T05:45:13Z</time>
      </trkpt>
      <trkpt lat="42.71304" lon="0.509">
        <ele>2418.6000976562</ele>
        <time>2020-09-18T05:45:31Z</time>
      </trkpt>
      <trkpt lat="42.71306" lon="0.50896">
        <ele>2415.3999023438</ele>
        <time>2020-09-18T05:45:41Z</time>
      </trkpt>
      <trkpt lat="42.71322" lon="0.50889">
        <ele>2410.1999511719</ele>
        <time>2020-09-18T05:46:11Z</time>
      </trkpt>
      <trkpt lat="42.71334" lon="0.5089">
        <ele>2407.1999511719</ele>
        <time>2020-09-18T05:46:27Z</time>
      </trkpt>
      <trkpt lat="42.7134" lon="0.50881">
        <ele>2403.3999023438</ele>
        <time>2020-09-18T05:46:43Z</time>
      </trkpt>
      <trkpt lat="42.71348" lon="0.50876">
        <ele>2400.3999023438</ele>
        <time>2020-09-18T05:46:56Z</time>
      </trkpt>
      <trkpt lat="42.71378" lon="0.50867">
        <ele>2396.6000976562</ele>
        <time>2020-09-18T05:47:37Z</time>
      </trkpt>
      <trkpt lat="42.71393" lon="0.50859">
        <ele>2393.6000976562</ele>
        <time>2020-09-18T05:48:11Z</time>
      </trkpt>
      <trkpt lat="42.71398" lon="0.50858">
        <ele>2390.6000976562</ele>
        <time>2020-09-18T05:48:18Z</time>
      </trkpt>
      <trkpt lat="42.71404" lon="0.50854">
        <ele>2387.3999023438</ele>
        <time>2020-09-18T05:48:27Z</time>
      </trkpt>
      <trkpt lat="42.71414" lon="0.50853">
        <ele>2384.1999511719</ele>
        <time>2020-09-18T05:48:44Z</time>
      </trkpt>
      <trkpt lat="42.71425" lon="0.50853">
        <ele>2381.1999511719</ele>
        <time>2020-09-18T05:48:58Z</time>
      </trkpt>
      <trkpt lat="42.71432" lon="0.50847">
        <ele>2377.8000488281</ele>
        <time>2020-09-18T05:49:14Z</time>
      </trkpt>
      <trkpt lat="42.71437" lon="0.50844">
        <ele>2374.8000488281</ele>
        <time>2020-09-18T05:49:22Z</time>
      </trkpt>
      <trkpt lat="42.71464" lon="0.50839">
        <ele>2370.1999511719</ele>
        <time>2020-09-18T05:50:09Z</time>
      </trkpt>
      <trkpt lat="42.71465" lon="0.5084">
        <ele>2370.3999023438</ele>
        <time>2020-09-18T05:50:24Z</time>
      </trkpt>
      <trkpt lat="42.71478" lon="0.50837">
        <ele>2367.1999511719</ele>
        <time>2020-09-18T05:51:14Z</time>
      </trkpt>
      <trkpt lat="42.71487" lon="0.50835">
        <ele>2364</ele>
        <time>2020-09-18T05:51:29Z</time>
      </trkpt>
      <trkpt lat="42.71512" lon="0.50831">
        <ele>2360</ele>
        <time>2020-09-18T05:52:21Z</time>
      </trkpt>
      <trkpt lat="42.71529" lon="0.50819">
        <ele>2356</ele>
        <time>2020-09-18T05:53:08Z</time>
      </trkpt>
      <trkpt lat="42.71549" lon="0.50794">
        <ele>2351</ele>
        <time>2020-09-18T05:53:43Z</time>
      </trkpt>
      <trkpt lat="42.71557" lon="0.50784">
        <ele>2346.6000976562</ele>
        <time>2020-09-18T05:54:00Z</time>
      </trkpt>
      <trkpt lat="42.71568" lon="0.50771">
        <ele>2341</ele>
        <time>2020-09-18T05:54:22Z</time>
      </trkpt>
      <trkpt lat="42.71575" lon="0.50764">
        <ele>2338</ele>
        <time>2020-09-18T05:54:33Z</time>
      </trkpt>
      <trkpt lat="42.71576" lon="0.50763">
        <ele>2337.8000488281</ele>
        <time>2020-09-18T05:54:34Z</time>
      </trkpt>
      <trkpt lat="42.71588" lon="0.5073">
        <ele>2331</ele>
        <time>2020-09-18T05:55:07Z</time>
      </trkpt>
      <trkpt lat="42.71612" lon="0.5072">
        <ele>2327.3999023438</ele>
        <time>2020-09-18T05:55:40Z</time>
      </trkpt>
      <trkpt lat="42.71625" lon="0.50727">
        <ele>2323.6000976562</ele>
        <time>2020-09-18T05:56:02Z</time>
      </trkpt>
      <trkpt lat="42.71632" lon="0.5072">
        <ele>2320.3999023438</ele>
        <time>2020-09-18T05:56:21Z</time>
      </trkpt>
      <trkpt lat="42.71637" lon="0.5072">
        <ele>2317.3999023438</ele>
        <time>2020-09-18T05:56:38Z</time>
      </trkpt>
      <trkpt lat="42.71652" lon="0.50718">
        <ele>2312.1999511719</ele>
        <time>2020-09-18T05:57:12Z</time>
      </trkpt>
      <trkpt lat="42.71667" lon="0.50717">
        <ele>2308.6000976562</ele>
        <time>2020-09-18T05:58:15Z</time>
      </trkpt>
      <trkpt lat="42.71676" lon="0.50715">
        <ele>2305</ele>
        <time>2020-09-18T05:58:51Z</time>
      </trkpt>
      <trkpt lat="42.7168" lon="0.5071">
        <ele>2300</ele>
        <time>2020-09-18T05:59:16Z</time>
      </trkpt>
      <trkpt lat="42.71683" lon="0.50708">
        <ele>2297</ele>
        <time>2020-09-18T05:59:28Z</time>
      </trkpt>
      <trkpt lat="42.71692" lon="0.50707">
        <ele>2292.3999023438</ele>
        <time>2020-09-18T05:59:58Z</time>
      </trkpt>
      <trkpt lat="42.71693" lon="0.50706">
        <ele>2288.8000488281</ele>
        <time>2020-09-18T06:00:10Z</time>
      </trkpt>
      <trkpt lat="42.717" lon="0.50696">
        <ele>2283.8000488281</ele>
        <time>2020-09-18T06:00:39Z</time>
      </trkpt>
      <trkpt lat="42.71704" lon="0.50697">
        <ele>2280.3999023438</ele>
        <time>2020-09-18T06:00:47Z</time>
      </trkpt>
      <trkpt lat="42.71727" lon="0.50688">
        <ele>2275.3999023438</ele>
        <time>2020-09-18T06:01:15Z</time>
      </trkpt>
      <trkpt lat="42.71742" lon="0.50687">
        <ele>2275.3999023438</ele>
        <time>2020-09-18T06:01:33Z</time>
      </trkpt>
      <trkpt lat="42.71757" lon="0.50695">
        <ele>2280.3999023438</ele>
        <time>2020-09-18T06:02:21Z</time>
      </trkpt>
      <trkpt lat="42.71764" lon="0.50694">
        <ele>2283.3999023438</ele>
        <time>2020-09-18T06:02:42Z</time>
      </trkpt>
      <trkpt lat="42.71765" lon="0.50695">
        <ele>2288</ele>
        <time>2020-09-18T06:03:13Z</time>
      </trkpt>
      <trkpt lat="42.71792" lon="0.50705">
        <ele>2295</ele>
        <time>2020-09-18T06:04:49Z</time>
      </trkpt>
      <trkpt lat="42.71797" lon="0.5071">
        <ele>2298.1999511719</ele>
        <time>2020-09-18T06:05:01Z</time>
      </trkpt>
      <trkpt lat="42.71839" lon="0.5072">
        <ele>2303.3999023438</ele>
        <time>2020-09-18T06:08:54Z</time>
      </trkpt>
      <trkpt lat="42.71855" lon="0.50733">
        <ele>2308.6000976562</ele>
        <time>2020-09-18T06:09:30Z</time>
      </trkpt>
      <trkpt lat="42.7189" lon="0.50757">
        <ele>2314.6000976562</ele>
        <time>2020-09-18T06:10:53Z</time>
      </trkpt>
      <trkpt lat="42.71896" lon="0.50759">
        <ele>2317.6000976562</ele>
        <time>2020-09-18T06:11:07Z</time>
      </trkpt>
      <trkpt lat="42.71915" lon="0.50784">
        <ele>2321.1999511719</ele>
        <time>2020-09-18T06:12:29Z</time>
      </trkpt>
      <trkpt lat="42.71927" lon="0.50807">
        <ele>2324.3999023438</ele>
        <time>2020-09-18T06:13:08Z</time>
      </trkpt>
      <trkpt lat="42.71946" lon="0.50823">
        <ele>2329.6000976562</ele>
        <time>2020-09-18T06:13:45Z</time>
      </trkpt>
      <trkpt lat="42.71958" lon="0.5084">
        <ele>2333.8000488281</ele>
        <time>2020-09-18T06:14:20Z</time>
      </trkpt>
      <trkpt lat="42.71966" lon="0.5086">
        <ele>2337</ele>
        <time>2020-09-18T06:14:55Z</time>
      </trkpt>
      <trkpt lat="42.71973" lon="0.50871">
        <ele>2340.1999511719</ele>
        <time>2020-09-18T06:15:15Z</time>
      </trkpt>
      <trkpt lat="42.72042" lon="0.50976">
        <ele>2344.3999023438</ele>
        <time>2020-09-18T06:17:55Z</time>
      </trkpt>
      <trkpt lat="42.72061" lon="0.50984">
        <ele>2349</ele>
        <time>2020-09-18T06:18:31Z</time>
      </trkpt>
      <trkpt lat="42.72073" lon="0.50997">
        <ele>2354.3999023438</ele>
        <time>2020-09-18T06:19:22Z</time>
      </trkpt>
      <trkpt lat="42.72076" lon="0.51006">
        <ele>2357.3999023438</ele>
        <time>2020-09-18T06:19:43Z</time>
      </trkpt>
      <trkpt lat="42.72078" lon="0.51026">
        <ele>2363</ele>
        <time>2020-09-18T06:20:24Z</time>
      </trkpt>
      <trkpt lat="42.72081" lon="0.51031">
        <ele>2366.1999511719</ele>
        <time>2020-09-18T06:20:34Z</time>
      </trkpt>
      <trkpt lat="42.72083" lon="0.51047">
        <ele>2371.1999511719</ele>
        <time>2020-09-18T06:21:11Z</time>
      </trkpt>
      <trkpt lat="42.72084" lon="0.51055">
        <ele>2374.1999511719</ele>
        <time>2020-09-18T06:21:26Z</time>
      </trkpt>
      <trkpt lat="42.72084" lon="0.51063">
        <ele>2377.6000976562</ele>
        <time>2020-09-18T06:21:42Z</time>
      </trkpt>
      <trkpt lat="42.72086" lon="0.51072">
        <ele>2380.8000488281</ele>
        <time>2020-09-18T06:22:02Z</time>
      </trkpt>
      <trkpt lat="42.72083" lon="0.51085">
        <ele>2386.6000976562</ele>
        <time>2020-09-18T06:22:45Z</time>
      </trkpt>
      <trkpt lat="42.72084" lon="0.51088">
        <ele>2389.8000488281</ele>
        <time>2020-09-18T06:22:58Z</time>
      </trkpt>
      <trkpt lat="42.72078" lon="0.5111">
        <ele>2392.8000488281</ele>
        <time>2020-09-18T06:23:53Z</time>
      </trkpt>
      <trkpt lat="42.72077" lon="0.51114">
        <ele>2395.8000488281</ele>
        <time>2020-09-18T06:24:06Z</time>
      </trkpt>
      <trkpt lat="42.72075" lon="0.51117">
        <ele>2398.8000488281</ele>
        <time>2020-09-18T06:24:21Z</time>
      </trkpt>
      <trkpt lat="42.7207" lon="0.51133">
        <ele>2404.6000976562</ele>
        <time>2020-09-18T06:25:01Z</time>
      </trkpt>
      <trkpt lat="42.72067" lon="0.5114">
        <ele>2407.8000488281</ele>
        <time>2020-09-18T06:25:25Z</time>
      </trkpt>
      <trkpt lat="42.72069" lon="0.51152">
        <ele>2411.1999511719</ele>
        <time>2020-09-18T06:26:00Z</time>
      </trkpt>
      <trkpt lat="42.72073" lon="0.51163">
        <ele>2415.6000976562</ele>
        <time>2020-09-18T06:26:25Z</time>
      </trkpt>
      <trkpt lat="42.72071" lon="0.51166">
        <ele>2418.6000976562</ele>
        <time>2020-09-18T06:26:36Z</time>
      </trkpt>
      <trkpt lat="42.72071" lon="0.5117">
        <ele>2421.6000976562</ele>
        <time>2020-09-18T06:26:49Z</time>
      </trkpt>
      <trkpt lat="42.72072" lon="0.5118">
        <ele>2424.8000488281</ele>
        <time>2020-09-18T06:27:09Z</time>
      </trkpt>
      <trkpt lat="42.72072" lon="0.51184">
        <ele>2427.8000488281</ele>
        <time>2020-09-18T06:27:30Z</time>
      </trkpt>
      <trkpt lat="42.72069" lon="0.51193">
        <ele>2432.3999023438</ele>
        <time>2020-09-18T06:28:00Z</time>
      </trkpt>
      <trkpt lat="42.72066" lon="0.51201">
        <ele>2435.3999023438</ele>
        <time>2020-09-18T06:28:24Z</time>
      </trkpt>
      <trkpt lat="42.72066" lon="0.51211">
        <ele>2440.6000976562</ele>
        <time>2020-09-18T06:28:59Z</time>
      </trkpt>
      <trkpt lat="42.72063" lon="0.51227">
        <ele>2445.3999023438</ele>
        <time>2020-09-18T06:29:42Z</time>
      </trkpt>
      <trkpt lat="42.72059" lon="0.51232">
        <ele>2448.8000488281</ele>
        <time>2020-09-18T06:29:55Z</time>
      </trkpt>
      <trkpt lat="42.72059" lon="0.51234">
        <ele>2452</ele>
        <time>2020-09-18T06:30:00Z</time>
      </trkpt>
      <trkpt lat="42.72056" lon="0.51241">
        <ele>2455</ele>
        <time>2020-09-18T06:30:19Z</time>
      </trkpt>
      <trkpt lat="42.72048" lon="0.51241">
        <ele>2455.1999511719</ele>
        <time>2020-09-18T06:30:41Z</time>
      </trkpt>
      <trkpt lat="42.72033" lon="0.51246">
        <ele>2460.1999511719</ele>
        <time>2020-09-18T06:31:19Z</time>
      </trkpt>
      <trkpt lat="42.72018" lon="0.51254">
        <ele>2465.8000488281</ele>
        <time>2020-09-18T06:31:54Z</time>
      </trkpt>
      <trkpt lat="42.72015" lon="0.51252">
        <ele>2469</ele>
        <time>2020-09-18T06:32:14Z</time>
      </trkpt>
      <trkpt lat="42.72009" lon="0.51248">
        <ele>2472</ele>
        <time>2020-09-18T06:32:34Z</time>
      </trkpt>
      <trkpt lat="42.72007" lon="0.51249">
        <ele>2475.1999511719</ele>
        <time>2020-09-18T06:32:45Z</time>
      </trkpt>
      <trkpt lat="42.72003" lon="0.51252">
        <ele>2478.3999023438</ele>
        <time>2020-09-18T06:33:01Z</time>
      </trkpt>
      <trkpt lat="42.71994" lon="0.51253">
        <ele>2481.6000976562</ele>
        <time>2020-09-18T06:33:33Z</time>
      </trkpt>
      <trkpt lat="42.71986" lon="0.51252">
        <ele>2486.6000976562</ele>
        <time>2020-09-18T06:33:55Z</time>
      </trkpt>
      <trkpt lat="42.71964" lon="0.51263">
        <ele>2490.6000976562</ele>
        <time>2020-09-18T06:34:40Z</time>
      </trkpt>
      <trkpt lat="42.7194" lon="0.51263">
        <ele>2495</ele>
        <time>2020-09-18T06:35:32Z</time>
      </trkpt>
      <trkpt lat="42.71941" lon="0.51272">
        <ele>2498.1999511719</ele>
        <time>2020-09-18T06:35:53Z</time>
      </trkpt>
      <trkpt lat="42.71939" lon="0.51277">
        <ele>2501.1999511719</ele>
        <time>2020-09-18T06:36:14Z</time>
      </trkpt>
      <trkpt lat="42.71937" lon="0.51283">
        <ele>2504.3999023438</ele>
        <time>2020-09-18T06:36:27Z</time>
      </trkpt>
      <trkpt lat="42.71934" lon="0.51292">
        <ele>2507.3999023438</ele>
        <time>2020-09-18T06:36:55Z</time>
      </trkpt>
      <trkpt lat="42.71926" lon="0.513">
        <ele>2510.3999023438</ele>
        <time>2020-09-18T06:37:21Z</time>
      </trkpt>
      <trkpt lat="42.71924" lon="0.51304">
        <ele>2513.6000976562</ele>
        <time>2020-09-18T06:37:36Z</time>
      </trkpt>
      <trkpt lat="42.71921" lon="0.51308">
        <ele>2516.8000488281</ele>
        <time>2020-09-18T06:37:47Z</time>
      </trkpt>
      <trkpt lat="42.71917" lon="0.51314">
        <ele>2519.8000488281</ele>
        <time>2020-09-18T06:38:04Z</time>
      </trkpt>
      <trkpt lat="42.71914" lon="0.51316">
        <ele>2523</ele>
        <time>2020-09-18T06:38:18Z</time>
      </trkpt>
      <trkpt lat="42.71904" lon="0.51316">
        <ele>2522.1999511719</ele>
        <time>2020-09-18T06:38:37Z</time>
      </trkpt>
      <trkpt lat="42.71875" lon="0.51308">
        <ele>2525.8000488281</ele>
        <time>2020-09-18T06:39:41Z</time>
      </trkpt>
      <trkpt lat="42.71878" lon="0.51314">
        <ele>2529</ele>
        <time>2020-09-18T06:40:36Z</time>
      </trkpt>
      <trkpt lat="42.71869" lon="0.51314">
        <ele>2532</ele>
        <time>2020-09-18T06:41:06Z</time>
      </trkpt>
      <trkpt lat="42.71869" lon="0.5132">
        <ele>2536.6000976562</ele>
        <time>2020-09-18T06:42:06Z</time>
      </trkpt>
      <trkpt lat="42.71869" lon="0.51325">
        <ele>2540.3999023438</ele>
        <time>2020-09-18T06:42:42Z</time>
      </trkpt>
      <trkpt lat="42.71871" lon="0.51331">
        <ele>2543.6000976562</ele>
        <time>2020-09-18T06:42:53Z</time>
      </trkpt>
      <trkpt lat="42.71882" lon="0.5135">
        <ele>2547.8000488281</ele>
        <time>2020-09-18T06:43:57Z</time>
      </trkpt>
      <trkpt lat="42.71897" lon="0.51374">
        <ele>2551.1999511719</ele>
        <time>2020-09-18T06:44:35Z</time>
      </trkpt>
      <trkpt lat="42.71895" lon="0.51372">
        <ele>2554.3999023438</ele>
        <time>2020-09-18T06:44:42Z</time>
      </trkpt>
      <trkpt lat="42.71895" lon="0.51372">
        <ele>2554.3999023438</ele>
        <time>2020-09-18T06:44:43Z</time>
      </trkpt>
      <trkpt lat="42.71905" lon="0.51383">
        <ele>2558.3999023438</ele>
        <time>2020-09-18T06:45:21Z</time>
      </trkpt>
      <trkpt lat="42.71916" lon="0.51377">
        <ele>2562.8000488281</ele>
        <time>2020-09-18T06:45:53Z</time>
      </trkpt>
      <trkpt lat="42.71938" lon="0.51375">
        <ele>2567.8000488281</ele>
        <time>2020-09-18T06:46:30Z</time>
      </trkpt>
      <trkpt lat="42.71946" lon="0.51371">
        <ele>2572.1999511719</ele>
        <time>2020-09-18T06:47:05Z</time>
      </trkpt>
      <trkpt lat="42.71946" lon="0.51372">
        <ele>2575.1999511719</ele>
        <time>2020-09-18T06:47:19Z</time>
      </trkpt>
      <trkpt lat="42.71954" lon="0.51368">
        <ele>2580.1999511719</ele>
        <time>2020-09-18T06:48:06Z</time>
      </trkpt>
      <trkpt lat="42.71955" lon="0.51367">
        <ele>2584.8000488281</ele>
        <time>2020-09-18T06:48:45Z</time>
      </trkpt>
      <trkpt lat="42.71954" lon="0.51369">
        <ele>2588</ele>
        <time>2020-09-18T06:48:51Z</time>
      </trkpt>
      <trkpt lat="42.71954" lon="0.51369">
        <ele>2588.1999511719</ele>
        <time>2020-09-18T06:48:52Z</time>
      </trkpt>
      <trkpt lat="42.71955" lon="0.51372">
        <ele>2593</ele>
        <time>2020-09-18T06:49:31Z</time>
      </trkpt>
      <trkpt lat="42.71954" lon="0.51375">
        <ele>2596.6000976562</ele>
        <time>2020-09-18T06:49:53Z</time>
      </trkpt>
      <trkpt lat="42.71955" lon="0.51387">
        <ele>2600.1999511719</ele>
        <time>2020-09-18T06:50:38Z</time>
      </trkpt>
      <trkpt lat="42.71956" lon="0.51388">
        <ele>2603.6000976562</ele>
        <time>2020-09-18T06:50:53Z</time>
      </trkpt>
      <trkpt lat="42.71957" lon="0.51388">
        <ele>2603.8000488281</ele>
        <time>2020-09-18T06:50:54Z</time>
      </trkpt>
      <trkpt lat="42.71959" lon="0.51389">
        <ele>2607</ele>
        <time>2020-09-18T06:51:07Z</time>
      </trkpt>
      <trkpt lat="42.71949" lon="0.51399">
        <ele>2610</ele>
        <time>2020-09-18T06:52:13Z</time>
      </trkpt>
      <trkpt lat="42.71945" lon="0.51408">
        <ele>2613.1999511719</ele>
        <time>2020-09-18T06:52:31Z</time>
      </trkpt>
      <trkpt lat="42.71939" lon="0.51414">
        <ele>2616.1999511719</ele>
        <time>2020-09-18T06:52:50Z</time>
      </trkpt>
      <trkpt lat="42.71934" lon="0.51418">
        <ele>2619.3999023438</ele>
        <time>2020-09-18T06:53:07Z</time>
      </trkpt>
      <trkpt lat="42.71933" lon="0.51423">
        <ele>2622.6000976562</ele>
        <time>2020-09-18T06:53:19Z</time>
      </trkpt>
      <trkpt lat="42.71931" lon="0.51435">
        <ele>2627.8000488281</ele>
        <time>2020-09-18T06:53:56Z</time>
      </trkpt>
      <trkpt lat="42.71926" lon="0.51438">
        <ele>2630.8000488281</ele>
        <time>2020-09-18T06:54:28Z</time>
      </trkpt>
      <trkpt lat="42.71924" lon="0.51444">
        <ele>2634</ele>
        <time>2020-09-18T06:54:44Z</time>
      </trkpt>
      <trkpt lat="42.7192" lon="0.51446">
        <ele>2637</ele>
        <time>2020-09-18T06:54:53Z</time>
      </trkpt>
      <trkpt lat="42.71915" lon="0.51447">
        <ele>2636</ele>
        <time>2020-09-18T06:55:03Z</time>
      </trkpt>
      <trkpt lat="42.71898" lon="0.51455">
        <ele>2641.6000976562</ele>
        <time>2020-09-18T06:55:48Z</time>
      </trkpt>
      <trkpt lat="42.71898" lon="0.51457">
        <ele>2645.1999511719</ele>
        <time>2020-09-18T06:55:54Z</time>
      </trkpt>
      <trkpt lat="42.71893" lon="0.51463">
        <ele>2648.8000488281</ele>
        <time>2020-09-18T06:56:25Z</time>
      </trkpt>
      <trkpt lat="42.71887" lon="0.51468">
        <ele>2651.8000488281</ele>
        <time>2020-09-18T06:56:54Z</time>
      </trkpt>
      <trkpt lat="42.71865" lon="0.51465">
        <ele>2656.3999023438</ele>
        <time>2020-09-18T06:57:35Z</time>
      </trkpt>
      <trkpt lat="42.71855" lon="0.5147">
        <ele>2659.6000976562</ele>
        <time>2020-09-18T06:58:02Z</time>
      </trkpt>
      <trkpt lat="42.7185" lon="0.51474">
        <ele>2662.6000976562</ele>
        <time>2020-09-18T06:58:24Z</time>
      </trkpt>
      <trkpt lat="42.71848" lon="0.51477">
        <ele>2662.6000976562</ele>
        <time>2020-09-18T06:58:44Z</time>
      </trkpt>
      <trkpt lat="42.71845" lon="0.51475">
        <ele>2665.6000976562</ele>
        <time>2020-09-18T06:59:05Z</time>
      </trkpt>
      <trkpt lat="42.71841" lon="0.51482">
        <ele>2670.3999023438</ele>
        <time>2020-09-18T06:59:31Z</time>
      </trkpt>
      <trkpt lat="42.71842" lon="0.51493">
        <ele>2676.1999511719</ele>
        <time>2020-09-18T07:00:12Z</time>
      </trkpt>
      <trkpt lat="42.71838" lon="0.51495">
        <ele>2679.3999023438</ele>
        <time>2020-09-18T07:00:31Z</time>
      </trkpt>
      <trkpt lat="42.71836" lon="0.51493">
        <ele>2682.6000976562</ele>
        <time>2020-09-18T07:00:44Z</time>
      </trkpt>
      <trkpt lat="42.71836" lon="0.51495">
        <ele>2685.8000488281</ele>
        <time>2020-09-18T07:00:59Z</time>
      </trkpt>
      <trkpt lat="42.71831" lon="0.51498">
        <ele>2689.1999511719</ele>
        <time>2020-09-18T07:01:20Z</time>
      </trkpt>
      <trkpt lat="42.71831" lon="0.51503">
        <ele>2692.1999511719</ele>
        <time>2020-09-18T07:01:41Z</time>
      </trkpt>
      <trkpt lat="42.71829" lon="0.51512">
        <ele>2695.3999023438</ele>
        <time>2020-09-18T07:02:04Z</time>
      </trkpt>
      <trkpt lat="42.71827" lon="0.51512">
        <ele>2698.6000976562</ele>
        <time>2020-09-18T07:02:21Z</time>
      </trkpt>
      <trkpt lat="42.71819" lon="0.51515">
        <ele>2705</ele>
        <time>2020-09-18T07:02:53Z</time>
      </trkpt>
      <trkpt lat="42.71814" lon="0.51523">
        <ele>2709.8000488281</ele>
        <time>2020-09-18T07:04:16Z</time>
      </trkpt>
      <trkpt lat="42.71816" lon="0.51528">
        <ele>2712.8000488281</ele>
        <time>2020-09-18T07:04:26Z</time>
      </trkpt>
      <trkpt lat="42.71816" lon="0.51542">
        <ele>2716.8000488281</ele>
        <time>2020-09-18T07:05:02Z</time>
      </trkpt>
      <trkpt lat="42.71814" lon="0.51543">
        <ele>2716.8000488281</ele>
        <time>2020-09-18T07:05:27Z</time>
      </trkpt>
      <trkpt lat="42.71815" lon="0.51546">
        <ele>2720.8000488281</ele>
        <time>2020-09-18T07:06:16Z</time>
      </trkpt>
      <trkpt lat="42.71816" lon="0.51549">
        <ele>2720</ele>
        <time>2020-09-18T07:06:42Z</time>
      </trkpt>
      <trkpt lat="42.71815" lon="0.51559">
        <ele>2724.6000976562</ele>
        <time>2020-09-18T07:07:59Z</time>
      </trkpt>
      <trkpt lat="42.71812" lon="0.51559">
        <ele>2727.8000488281</ele>
        <time>2020-09-18T07:08:18Z</time>
      </trkpt>
      <trkpt lat="42.7181" lon="0.51562">
        <ele>2732</ele>
        <time>2020-09-18T07:09:05Z</time>
      </trkpt>
      <trkpt lat="42.71805" lon="0.5156">
        <ele>2731.8000488281</ele>
        <time>2020-09-18T07:09:31Z</time>
      </trkpt>
      <trkpt lat="42.71804" lon="0.51561">
        <ele>2734.8000488281</ele>
        <time>2020-09-18T07:09:39Z</time>
      </trkpt>
      <trkpt lat="42.71803" lon="0.51562">
        <ele>2737.8000488281</ele>
        <time>2020-09-18T07:09:46Z</time>
      </trkpt>
      <trkpt lat="42.718" lon="0.51564">
        <ele>2742.8000488281</ele>
        <time>2020-09-18T07:10:22Z</time>
      </trkpt>
      <trkpt lat="42.71801" lon="0.51589">
        <ele>2751.3999023438</ele>
        <time>2020-09-18T07:11:41Z</time>
      </trkpt>
      <trkpt lat="42.71792" lon="0.51612">
        <ele>2767.1999511719</ele>
        <time>2020-09-18T07:14:20Z</time>
      </trkpt>
      <trkpt lat="42.71803" lon="0.51601">
        <ele>2760</ele>
        <time>2020-09-18T07:23:13Z</time>
      </trkpt>
      <trkpt lat="42.71805" lon="0.51598">
        <ele>2757</ele>
        <time>2020-09-18T07:23:23Z</time>
      </trkpt>
      <trkpt lat="42.71813" lon="0.51595">
        <ele>2760</ele>
        <time>2020-09-18T07:23:42Z</time>
      </trkpt>
      <trkpt lat="42.71817" lon="0.51596">
        <ele>2756</ele>
        <time>2020-09-18T07:23:51Z</time>
      </trkpt>
      <trkpt lat="42.71827" lon="0.51581">
        <ele>2743.6000976562</ele>
        <time>2020-09-18T07:25:42Z</time>
      </trkpt>
      <trkpt lat="42.71833" lon="0.51574">
        <ele>2739.1999511719</ele>
        <time>2020-09-18T07:26:28Z</time>
      </trkpt>
      <trkpt lat="42.71852" lon="0.51577">
        <ele>2746</ele>
        <time>2020-09-18T07:27:41Z</time>
      </trkpt>
      <trkpt lat="42.71864" lon="0.51585">
        <ele>2753</ele>
        <time>2020-09-18T07:28:32Z</time>
      </trkpt>
      <trkpt lat="42.7187" lon="0.51588">
        <ele>2762.3999023438</ele>
        <time>2020-09-18T07:32:11Z</time>
      </trkpt>
      <trkpt lat="42.71875" lon="0.51591">
        <ele>2762.3999023438</ele>
        <time>2020-09-18T07:32:45Z</time>
      </trkpt>
      <trkpt lat="42.7188" lon="0.51591">
        <ele>2753.3999023438</ele>
        <time>2020-09-18T07:33:41Z</time>
      </trkpt>
      <trkpt lat="42.71891" lon="0.51594">
        <ele>2747.3999023438</ele>
        <time>2020-09-18T07:34:20Z</time>
      </trkpt>
      <trkpt lat="42.71891" lon="0.51594">
        <ele>2747.1999511719</ele>
        <time>2020-09-18T07:34:21Z</time>
      </trkpt>
      <trkpt lat="42.71894" lon="0.51595">
        <ele>2744.1999511719</ele>
        <time>2020-09-18T07:34:39Z</time>
      </trkpt>
      <trkpt lat="42.71897" lon="0.51596">
        <ele>2741.1999511719</ele>
        <time>2020-09-18T07:34:57Z</time>
      </trkpt>
      <trkpt lat="42.71899" lon="0.51596">
        <ele>2738</ele>
        <time>2020-09-18T07:35:03Z</time>
      </trkpt>
      <trkpt lat="42.71905" lon="0.516">
        <ele>2728.6000976562</ele>
        <time>2020-09-18T07:35:49Z</time>
      </trkpt>
      <trkpt lat="42.71914" lon="0.51599">
        <ele>2733</ele>
        <time>2020-09-18T07:42:01Z</time>
      </trkpt>
      <trkpt lat="42.71908" lon="0.51612">
        <ele>2738.8000488281</ele>
        <time>2020-09-18T07:44:59Z</time>
      </trkpt>
      <trkpt lat="42.71901" lon="0.51638">
        <ele>2719</ele>
        <time>2020-09-18T07:46:50Z</time>
      </trkpt>
      <trkpt lat="42.71908" lon="0.51652">
        <ele>2719.3999023438</ele>
        <time>2020-09-18T07:47:38Z</time>
      </trkpt>
      <trkpt lat="42.71908" lon="0.51661">
        <ele>2713</ele>
        <time>2020-09-18T07:48:03Z</time>
      </trkpt>
      <trkpt lat="42.71903" lon="0.51678">
        <ele>2709.6000976562</ele>
        <time>2020-09-18T07:49:02Z</time>
      </trkpt>
      <trkpt lat="42.71903" lon="0.51681">
        <ele>2706.6000976562</ele>
        <time>2020-09-18T07:49:08Z</time>
      </trkpt>
      <trkpt lat="42.71907" lon="0.51684">
        <ele>2703.6000976562</ele>
        <time>2020-09-18T07:49:19Z</time>
      </trkpt>
      <trkpt lat="42.71916" lon="0.51691">
        <ele>2699.3999023438</ele>
        <time>2020-09-18T07:49:47Z</time>
      </trkpt>
      <trkpt lat="42.71921" lon="0.517">
        <ele>2702.3999023438</ele>
        <time>2020-09-18T07:50:15Z</time>
      </trkpt>
      <trkpt lat="42.71922" lon="0.51703">
        <ele>2705.3999023438</ele>
        <time>2020-09-18T07:50:20Z</time>
      </trkpt>
      <trkpt lat="42.71922" lon="0.51706">
        <ele>2702.3999023438</ele>
        <time>2020-09-18T07:50:33Z</time>
      </trkpt>
      <trkpt lat="42.71924" lon="0.51707">
        <ele>2699.3999023438</ele>
        <time>2020-09-18T07:50:39Z</time>
      </trkpt>
      <trkpt lat="42.71924" lon="0.51712">
        <ele>2696.1999511719</ele>
        <time>2020-09-18T07:50:47Z</time>
      </trkpt>
      <trkpt lat="42.71925" lon="0.51717">
        <ele>2692.8000488281</ele>
        <time>2020-09-18T07:51:00Z</time>
      </trkpt>
      <trkpt lat="42.71926" lon="0.51717">
        <ele>2692.6000976562</ele>
        <time>2020-09-18T07:51:01Z</time>
      </trkpt>
      <trkpt lat="42.71924" lon="0.51727">
        <ele>2688</ele>
        <time>2020-09-18T07:51:24Z</time>
      </trkpt>
      <trkpt lat="42.71925" lon="0.51733">
        <ele>2688</ele>
        <time>2020-09-18T07:51:37Z</time>
      </trkpt>
      <trkpt lat="42.71918" lon="0.51754">
        <ele>2682.6000976562</ele>
        <time>2020-09-18T07:52:47Z</time>
      </trkpt>
      <trkpt lat="42.71918" lon="0.51763">
        <ele>2677</ele>
        <time>2020-09-18T07:53:00Z</time>
      </trkpt>
      <trkpt lat="42.7192" lon="0.51771">
        <ele>2673.8000488281</ele>
        <time>2020-09-18T07:53:10Z</time>
      </trkpt>
      <trkpt lat="42.71919" lon="0.51792">
        <ele>2677</ele>
        <time>2020-09-18T07:53:41Z</time>
      </trkpt>
      <trkpt lat="42.71928" lon="0.51816">
        <ele>2683</ele>
        <time>2020-09-18T07:55:33Z</time>
      </trkpt>
      <trkpt lat="42.71929" lon="0.51826">
        <ele>2678.6000976562</ele>
        <time>2020-09-18T07:55:55Z</time>
      </trkpt>
      <trkpt lat="42.7193" lon="0.5183">
        <ele>2675.6000976562</ele>
        <time>2020-09-18T07:56:02Z</time>
      </trkpt>
      <trkpt lat="42.71931" lon="0.51845">
        <ele>2670.6000976562</ele>
        <time>2020-09-18T07:56:29Z</time>
      </trkpt>
      <trkpt lat="42.71931" lon="0.51863">
        <ele>2665</ele>
        <time>2020-09-18T07:56:56Z</time>
      </trkpt>
      <trkpt lat="42.71931" lon="0.51868">
        <ele>2661.8000488281</ele>
        <time>2020-09-18T07:57:04Z</time>
      </trkpt>
      <trkpt lat="42.71932" lon="0.51871">
        <ele>2658.1999511719</ele>
        <time>2020-09-18T07:57:08Z</time>
      </trkpt>
      <trkpt lat="42.71934" lon="0.51877">
        <ele>2654.8000488281</ele>
        <time>2020-09-18T07:57:19Z</time>
      </trkpt>
      <trkpt lat="42.71935" lon="0.51897">
        <ele>2646.3999023438</ele>
        <time>2020-09-18T07:58:03Z</time>
      </trkpt>
      <trkpt lat="42.7194" lon="0.51933">
        <ele>2641.3999023438</ele>
        <time>2020-09-18T07:58:55Z</time>
      </trkpt>
      <trkpt lat="42.71938" lon="0.51939">
        <ele>2638</ele>
        <time>2020-09-18T07:59:04Z</time>
      </trkpt>
      <trkpt lat="42.71938" lon="0.51943">
        <ele>2635</ele>
        <time>2020-09-18T07:59:11Z</time>
      </trkpt>
      <trkpt lat="42.7194" lon="0.51949">
        <ele>2632</ele>
        <time>2020-09-18T07:59:20Z</time>
      </trkpt>
      <trkpt lat="42.71939" lon="0.51954">
        <ele>2628.6000976562</ele>
        <time>2020-09-18T07:59:26Z</time>
      </trkpt>
      <trkpt lat="42.71941" lon="0.5197">
        <ele>2623.1999511719</ele>
        <time>2020-09-18T07:59:48Z</time>
      </trkpt>
      <trkpt lat="42.7194" lon="0.51974">
        <ele>2620</ele>
        <time>2020-09-18T07:59:55Z</time>
      </trkpt>
      <trkpt lat="42.71938" lon="0.51975">
        <ele>2616.8000488281</ele>
        <time>2020-09-18T07:59:59Z</time>
      </trkpt>
      <trkpt lat="42.71938" lon="0.51977">
        <ele>2613.3999023438</ele>
        <time>2020-09-18T08:00:03Z</time>
      </trkpt>
      <trkpt lat="42.71942" lon="0.51991">
        <ele>2606.3999023438</ele>
        <time>2020-09-18T08:00:25Z</time>
      </trkpt>
      <trkpt lat="42.71941" lon="0.52049">
        <ele>2603</ele>
        <time>2020-09-18T08:01:38Z</time>
      </trkpt>
      <trkpt lat="42.71938" lon="0.52083">
        <ele>2589.6000976562</ele>
        <time>2020-09-18T08:11:13Z</time>
      </trkpt>
      <trkpt lat="42.71937" lon="0.52097">
        <ele>2589.6000976562</ele>
        <time>2020-09-18T08:11:22Z</time>
      </trkpt>
      <trkpt lat="42.71931" lon="0.52151">
        <ele>2583.8000488281</ele>
        <time>2020-09-18T08:12:00Z</time>
      </trkpt>
      <trkpt lat="42.71931" lon="0.52153">
        <ele>2583.6000976562</ele>
        <time>2020-09-18T08:12:01Z</time>
      </trkpt>
      <trkpt lat="42.71931" lon="0.52172">
        <ele>2586.8000488281</ele>
        <time>2020-09-18T08:12:13Z</time>
      </trkpt>
      <trkpt lat="42.71924" lon="0.52184">
        <ele>2590.3999023438</ele>
        <time>2020-09-18T08:12:26Z</time>
      </trkpt>
      <trkpt lat="42.71927" lon="0.52197">
        <ele>2587.3999023438</ele>
        <time>2020-09-18T08:12:41Z</time>
      </trkpt>
      <trkpt lat="42.71924" lon="0.52253">
        <ele>2584.1999511719</ele>
        <time>2020-09-18T08:13:32Z</time>
      </trkpt>
      <trkpt lat="42.71923" lon="0.52265">
        <ele>2584</ele>
        <time>2020-09-18T08:13:45Z</time>
      </trkpt>
      <trkpt lat="42.71925" lon="0.52286">
        <ele>2591.8000488281</ele>
        <time>2020-09-18T08:15:07Z</time>
      </trkpt>
      <trkpt lat="42.71908" lon="0.52303">
        <ele>2586.6000976562</ele>
        <time>2020-09-18T08:15:31Z</time>
      </trkpt>
      <trkpt lat="42.71908" lon="0.52323">
        <ele>2581.8000488281</ele>
        <time>2020-09-18T08:15:51Z</time>
      </trkpt>
      <trkpt lat="42.71911" lon="0.52325">
        <ele>2578.8000488281</ele>
        <time>2020-09-18T08:15:56Z</time>
      </trkpt>
      <trkpt lat="42.71914" lon="0.52329">
        <ele>2574.6000976562</ele>
        <time>2020-09-18T08:16:01Z</time>
      </trkpt>
      <trkpt lat="42.71918" lon="0.52347">
        <ele>2570</ele>
        <time>2020-09-18T08:16:20Z</time>
      </trkpt>
      <trkpt lat="42.7192" lon="0.52354">
        <ele>2566.8000488281</ele>
        <time>2020-09-18T08:16:27Z</time>
      </trkpt>
      <trkpt lat="42.71927" lon="0.5237">
        <ele>2562.6000976562</ele>
        <time>2020-09-18T08:16:44Z</time>
      </trkpt>
      <trkpt lat="42.71929" lon="0.5238">
        <ele>2562.3999023438</ele>
        <time>2020-09-18T08:16:58Z</time>
      </trkpt>
      <trkpt lat="42.71931" lon="0.52383">
        <ele>2558.3999023438</ele>
        <time>2020-09-18T08:17:04Z</time>
      </trkpt>
      <trkpt lat="42.71941" lon="0.524">
        <ele>2553.6000976562</ele>
        <time>2020-09-18T08:17:28Z</time>
      </trkpt>
      <trkpt lat="42.71944" lon="0.52407">
        <ele>2550.3999023438</ele>
        <time>2020-09-18T08:17:42Z</time>
      </trkpt>
      <trkpt lat="42.71933" lon="0.52421">
        <ele>2545.6000976562</ele>
        <time>2020-09-18T08:18:04Z</time>
      </trkpt>
      <trkpt lat="42.71931" lon="0.52425">
        <ele>2542.1999511719</ele>
        <time>2020-09-18T08:18:08Z</time>
      </trkpt>
      <trkpt lat="42.7193" lon="0.52426">
        <ele>2539</ele>
        <time>2020-09-18T08:18:14Z</time>
      </trkpt>
      <trkpt lat="42.71928" lon="0.52435">
        <ele>2533.3999023438</ele>
        <time>2020-09-18T08:18:27Z</time>
      </trkpt>
      <trkpt lat="42.71926" lon="0.52444">
        <ele>2536.6000976562</ele>
        <time>2020-09-18T08:18:35Z</time>
      </trkpt>
      <trkpt lat="42.71924" lon="0.52466">
        <ele>2533.1999511719</ele>
        <time>2020-09-18T08:18:49Z</time>
      </trkpt>
      <trkpt lat="42.71923" lon="0.52484">
        <ele>2529.8000488281</ele>
        <time>2020-09-18T08:19:02Z</time>
      </trkpt>
      <trkpt lat="42.7192" lon="0.52497">
        <ele>2526.3999023438</ele>
        <time>2020-09-18T08:19:13Z</time>
      </trkpt>
      <trkpt lat="42.71916" lon="0.52524">
        <ele>2521.1999511719</ele>
        <time>2020-09-18T08:19:44Z</time>
      </trkpt>
      <trkpt lat="42.71915" lon="0.52532">
        <ele>2518</ele>
        <time>2020-09-18T08:19:52Z</time>
      </trkpt>
      <trkpt lat="42.71911" lon="0.52535">
        <ele>2514.1999511719</ele>
        <time>2020-09-18T08:19:59Z</time>
      </trkpt>
      <trkpt lat="42.7191" lon="0.5254">
        <ele>2511</ele>
        <time>2020-09-18T08:20:03Z</time>
      </trkpt>
      <trkpt lat="42.71903" lon="0.52552">
        <ele>2506</ele>
        <time>2020-09-18T08:20:24Z</time>
      </trkpt>
      <trkpt lat="42.71894" lon="0.52575">
        <ele>2502.8000488281</ele>
        <time>2020-09-18T08:21:06Z</time>
      </trkpt>
      <trkpt lat="42.71892" lon="0.52578">
        <ele>2498.1999511719</ele>
        <time>2020-09-18T08:22:28Z</time>
      </trkpt>
      <trkpt lat="42.71892" lon="0.52595">
        <ele>2494.6000976562</ele>
        <time>2020-09-18T08:22:47Z</time>
      </trkpt>
      <trkpt lat="42.71888" lon="0.52601">
        <ele>2489</ele>
        <time>2020-09-18T08:23:20Z</time>
      </trkpt>
      <trkpt lat="42.71885" lon="0.52609">
        <ele>2486</ele>
        <time>2020-09-18T08:23:34Z</time>
      </trkpt>
      <trkpt lat="42.71868" lon="0.52633">
        <ele>2478.8000488281</ele>
        <time>2020-09-18T08:24:09Z</time>
      </trkpt>
      <trkpt lat="42.71864" lon="0.52637">
        <ele>2474.3999023438</ele>
        <time>2020-09-18T08:24:17Z</time>
      </trkpt>
      <trkpt lat="42.71864" lon="0.52637">
        <ele>2474.1999511719</ele>
        <time>2020-09-18T08:24:18Z</time>
      </trkpt>
      <trkpt lat="42.71871" lon="0.5265">
        <ele>2471</ele>
        <time>2020-09-18T08:24:45Z</time>
      </trkpt>
      <trkpt lat="42.71871" lon="0.52662">
        <ele>2465</ele>
        <time>2020-09-18T08:25:09Z</time>
      </trkpt>
      <trkpt lat="42.71868" lon="0.52663">
        <ele>2462</ele>
        <time>2020-09-18T08:25:15Z</time>
      </trkpt>
      <trkpt lat="42.7187" lon="0.52671">
        <ele>2458.8000488281</ele>
        <time>2020-09-18T08:25:26Z</time>
      </trkpt>
      <trkpt lat="42.71873" lon="0.52676">
        <ele>2455.8000488281</ele>
        <time>2020-09-18T08:25:35Z</time>
      </trkpt>
      <trkpt lat="42.71867" lon="0.52686">
        <ele>2452.6000976562</ele>
        <time>2020-09-18T08:25:55Z</time>
      </trkpt>
      <trkpt lat="42.71864" lon="0.52689">
        <ele>2452.6000976562</ele>
        <time>2020-09-18T08:25:58Z</time>
      </trkpt>
      <trkpt lat="42.71843" lon="0.52701">
        <ele>2448.3999023438</ele>
        <time>2020-09-18T08:26:26Z</time>
      </trkpt>
      <trkpt lat="42.71824" lon="0.52699">
        <ele>2442.3999023438</ele>
        <time>2020-09-18T08:26:55Z</time>
      </trkpt>
      <trkpt lat="42.71823" lon="0.52698">
        <ele>2438</ele>
        <time>2020-09-18T08:27:13Z</time>
      </trkpt>
      <trkpt lat="42.71827" lon="0.52706">
        <ele>2434.1999511719</ele>
        <time>2020-09-18T08:27:27Z</time>
      </trkpt>
      <trkpt lat="42.71859" lon="0.52749">
        <ele>2425.1999511719</ele>
        <time>2020-09-18T08:29:25Z</time>
      </trkpt>
      <trkpt lat="42.71861" lon="0.52752">
        <ele>2421.8000488281</ele>
        <time>2020-09-18T08:29:37Z</time>
      </trkpt>
      <trkpt lat="42.71856" lon="0.52779">
        <ele>2414.8000488281</ele>
        <time>2020-09-18T08:30:06Z</time>
      </trkpt>
      <trkpt lat="42.71857" lon="0.52787">
        <ele>2411.6000976562</ele>
        <time>2020-09-18T08:30:18Z</time>
      </trkpt>
      <trkpt lat="42.71854" lon="0.52796">
        <ele>2407.8000488281</ele>
        <time>2020-09-18T08:30:40Z</time>
      </trkpt>
      <trkpt lat="42.71853" lon="0.528">
        <ele>2403.3999023438</ele>
        <time>2020-09-18T08:30:53Z</time>
      </trkpt>
      <trkpt lat="42.71852" lon="0.52806">
        <ele>2400</ele>
        <time>2020-09-18T08:31:02Z</time>
      </trkpt>
      <trkpt lat="42.71852" lon="0.52816">
        <ele>2395</ele>
        <time>2020-09-18T08:31:28Z</time>
      </trkpt>
      <trkpt lat="42.71855" lon="0.52821">
        <ele>2394.8000488281</ele>
        <time>2020-09-18T08:31:34Z</time>
      </trkpt>
      <trkpt lat="42.7186" lon="0.52838">
        <ele>2390.8000488281</ele>
        <time>2020-09-18T08:32:13Z</time>
      </trkpt>
      <trkpt lat="42.71861" lon="0.5284">
        <ele>2387.8000488281</ele>
        <time>2020-09-18T08:32:25Z</time>
      </trkpt>
      <trkpt lat="42.71863" lon="0.52839">
        <ele>2387.8000488281</ele>
        <time>2020-09-18T08:32:44Z</time>
      </trkpt>
      <trkpt lat="42.71861" lon="0.52845">
        <ele>2384</ele>
        <time>2020-09-18T08:33:36Z</time>
      </trkpt>
      <trkpt lat="42.7186" lon="0.52851">
        <ele>2378.3999023438</ele>
        <time>2020-09-18T08:34:52Z</time>
      </trkpt>
      <trkpt lat="42.71858" lon="0.52853">
        <ele>2375</ele>
        <time>2020-09-18T08:35:07Z</time>
      </trkpt>
      <trkpt lat="42.71856" lon="0.52862">
        <ele>2369.1999511719</ele>
        <time>2020-09-18T08:36:08Z</time>
      </trkpt>
      <trkpt lat="42.71853" lon="0.52869">
        <ele>2366</ele>
        <time>2020-09-18T08:36:24Z</time>
      </trkpt>
      <trkpt lat="42.71855" lon="0.52872">
        <ele>2362.8000488281</ele>
        <time>2020-09-18T08:36:34Z</time>
      </trkpt>
      <trkpt lat="42.71853" lon="0.52878">
        <ele>2358.8000488281</ele>
        <time>2020-09-18T08:37:03Z</time>
      </trkpt>
      <trkpt lat="42.71854" lon="0.52884">
        <ele>2355.3999023438</ele>
        <time>2020-09-18T08:37:18Z</time>
      </trkpt>
      <trkpt lat="42.71855" lon="0.52887">
        <ele>2351.1999511719</ele>
        <time>2020-09-18T08:37:28Z</time>
      </trkpt>
      <trkpt lat="42.71857" lon="0.52888">
        <ele>2351</ele>
        <time>2020-09-18T08:37:43Z</time>
      </trkpt>
      <trkpt lat="42.7187" lon="0.52879">
        <ele>2350</ele>
        <time>2020-09-18T08:38:49Z</time>
      </trkpt>
      <trkpt lat="42.71886" lon="0.52872">
        <ele>2345.8000488281</ele>
        <time>2020-09-18T08:39:05Z</time>
      </trkpt>
      <trkpt lat="42.719" lon="0.52884">
        <ele>2341.3999023438</ele>
        <time>2020-09-18T08:40:01Z</time>
      </trkpt>
      <trkpt lat="42.71938" lon="0.52924">
        <ele>2335.8000488281</ele>
        <time>2020-09-18T08:41:28Z</time>
      </trkpt>
      <trkpt lat="42.71942" lon="0.52923">
        <ele>2334.8000488281</ele>
        <time>2020-09-18T08:41:32Z</time>
      </trkpt>
      <trkpt lat="42.71964" lon="0.52932">
        <ele>2331.1999511719</ele>
        <time>2020-09-18T08:41:54Z</time>
      </trkpt>
      <trkpt lat="42.7198" lon="0.52931">
        <ele>2328</ele>
        <time>2020-09-18T08:42:10Z</time>
      </trkpt>
      <trkpt lat="42.72" lon="0.5293">
        <ele>2324</ele>
        <time>2020-09-18T08:42:31Z</time>
      </trkpt>
      <trkpt lat="42.72017" lon="0.52938">
        <ele>2321</ele>
        <time>2020-09-18T08:42:51Z</time>
      </trkpt>
      <trkpt lat="42.7203" lon="0.52933">
        <ele>2318</ele>
        <time>2020-09-18T08:43:10Z</time>
      </trkpt>
      <trkpt lat="42.72032" lon="0.52933">
        <ele>2318</ele>
        <time>2020-09-18T08:43:12Z</time>
      </trkpt>
      <trkpt lat="42.72073" lon="0.52942">
        <ele>2314.6000976562</ele>
        <time>2020-09-18T08:44:08Z</time>
      </trkpt>
      <trkpt lat="42.72081" lon="0.52942">
        <ele>2311.3999023438</ele>
        <time>2020-09-18T08:44:26Z</time>
      </trkpt>
      <trkpt lat="42.7208" lon="0.52946">
        <ele>2308.1999511719</ele>
        <time>2020-09-18T08:44:35Z</time>
      </trkpt>
      <trkpt lat="42.7208" lon="0.52946">
        <ele>2305.1999511719</ele>
        <time>2020-09-18T08:44:38Z</time>
      </trkpt>
      <trkpt lat="42.72099" lon="0.52947">
        <ele>2299.6000976562</ele>
        <time>2020-09-18T08:45:39Z</time>
      </trkpt>
      <trkpt lat="42.7209" lon="0.52966">
        <ele>2295.3999023438</ele>
        <time>2020-09-18T08:46:22Z</time>
      </trkpt>
      <trkpt lat="42.72082" lon="0.52982">
        <ele>2290.1999511719</ele>
        <time>2020-09-18T08:46:35Z</time>
      </trkpt>
      <trkpt lat="42.72085" lon="0.52985">
        <ele>2287</ele>
        <time>2020-09-18T08:46:39Z</time>
      </trkpt>
      <trkpt lat="42.72088" lon="0.52988">
        <ele>2283.6000976562</ele>
        <time>2020-09-18T08:46:46Z</time>
      </trkpt>
      <trkpt lat="42.72091" lon="0.52986">
        <ele>2280.3999023438</ele>
        <time>2020-09-18T08:46:53Z</time>
      </trkpt>
      <trkpt lat="42.72094" lon="0.52995">
        <ele>2277.3999023438</ele>
        <time>2020-09-18T08:47:07Z</time>
      </trkpt>
      <trkpt lat="42.72094" lon="0.52996">
        <ele>2277.1999511719</ele>
        <time>2020-09-18T08:47:08Z</time>
      </trkpt>
      <trkpt lat="42.72085" lon="0.53018">
        <ele>2272.6000976562</ele>
        <time>2020-09-18T08:47:37Z</time>
      </trkpt>
      <trkpt lat="42.72091" lon="0.53026">
        <ele>2268.8000488281</ele>
        <time>2020-09-18T08:47:50Z</time>
      </trkpt>
      <trkpt lat="42.72092" lon="0.53027">
        <ele>2265.6000976562</ele>
        <time>2020-09-18T08:47:58Z</time>
      </trkpt>
      <trkpt lat="42.72092" lon="0.53027">
        <ele>2262.6000976562</ele>
        <time>2020-09-18T08:48:21Z</time>
      </trkpt>
      <trkpt lat="42.72103" lon="0.53015">
        <ele>2256</ele>
        <time>2020-09-18T08:49:13Z</time>
      </trkpt>
      <trkpt lat="42.72105" lon="0.53008">
        <ele>2253</ele>
        <time>2020-09-18T08:49:26Z</time>
      </trkpt>
      <trkpt lat="42.72109" lon="0.53005">
        <ele>2250</ele>
        <time>2020-09-18T08:49:36Z</time>
      </trkpt>
      <trkpt lat="42.72136" lon="0.52992">
        <ele>2246.8000488281</ele>
        <time>2020-09-18T08:50:28Z</time>
      </trkpt>
      <trkpt lat="42.72158" lon="0.53007">
        <ele>2243.3999023438</ele>
        <time>2020-09-18T08:51:26Z</time>
      </trkpt>
      <trkpt lat="42.72157" lon="0.5303">
        <ele>2239.3999023438</ele>
        <time>2020-09-18T08:53:06Z</time>
      </trkpt>
      <trkpt lat="42.72153" lon="0.53044">
        <ele>2233</ele>
        <time>2020-09-18T08:53:45Z</time>
      </trkpt>
      <trkpt lat="42.72184" lon="0.52992">
        <ele>2238</ele>
        <time>2020-09-18T09:01:59Z</time>
      </trkpt>
      <trkpt lat="42.72191" lon="0.5298">
        <ele>2241</ele>
        <time>2020-09-18T09:02:15Z</time>
      </trkpt>
      <trkpt lat="42.72195" lon="0.5297">
        <ele>2244.1999511719</ele>
        <time>2020-09-18T09:02:27Z</time>
      </trkpt>
      <trkpt lat="42.72203" lon="0.52945">
        <ele>2248</ele>
        <time>2020-09-18T09:02:48Z</time>
      </trkpt>
      <trkpt lat="42.72213" lon="0.52932">
        <ele>2251</ele>
        <time>2020-09-18T09:03:03Z</time>
      </trkpt>
      <trkpt lat="42.72222" lon="0.5292">
        <ele>2251.1999511719</ele>
        <time>2020-09-18T09:03:18Z</time>
      </trkpt>
      <trkpt lat="42.72244" lon="0.52887">
        <ele>2248.1999511719</ele>
        <time>2020-09-18T09:04:07Z</time>
      </trkpt>
      <trkpt lat="42.7225" lon="0.52884">
        <ele>2245.1999511719</ele>
        <time>2020-09-18T09:04:19Z</time>
      </trkpt>
      <trkpt lat="42.72308" lon="0.529">
        <ele>2249.1999511719</ele>
        <time>2020-09-18T09:05:45Z</time>
      </trkpt>
      <trkpt lat="42.72325" lon="0.52884">
        <ele>2243</ele>
        <time>2020-09-18T09:06:45Z</time>
      </trkpt>
      <trkpt lat="42.72333" lon="0.52877">
        <ele>2238.1999511719</ele>
        <time>2020-09-18T09:06:57Z</time>
      </trkpt>
      <trkpt lat="42.72365" lon="0.52849">
        <ele>2235.1999511719</ele>
        <time>2020-09-18T09:07:47Z</time>
      </trkpt>
      <trkpt lat="42.7239" lon="0.5287">
        <ele>2239.1999511719</ele>
        <time>2020-09-18T09:08:24Z</time>
      </trkpt>
      <trkpt lat="42.72404" lon="0.52914">
        <ele>2242.6000976562</ele>
        <time>2020-09-18T09:09:09Z</time>
      </trkpt>
      <trkpt lat="42.72406" lon="0.52916">
        <ele>2242</ele>
        <time>2020-09-18T09:09:16Z</time>
      </trkpt>
      <trkpt lat="42.72437" lon="0.52926">
        <ele>2237.3999023438</ele>
        <time>2020-09-18T09:09:55Z</time>
      </trkpt>
      <trkpt lat="42.72448" lon="0.52978">
        <ele>2240.3999023438</ele>
        <time>2020-09-18T09:10:35Z</time>
      </trkpt>
      <trkpt lat="42.72467" lon="0.53085">
        <ele>2233</ele>
        <time>2020-09-18T09:42:59Z</time>
      </trkpt>
      <trkpt lat="42.72466" lon="0.53088">
        <ele>2236.3999023438</ele>
        <time>2020-09-18T09:43:02Z</time>
      </trkpt>
      <trkpt lat="42.72465" lon="0.53091">
        <ele>2236.3999023438</ele>
        <time>2020-09-18T09:43:06Z</time>
      </trkpt>
      <trkpt lat="42.72465" lon="0.53103">
        <ele>2232.3999023438</ele>
        <time>2020-09-18T09:43:13Z</time>
      </trkpt>
      <trkpt lat="42.72465" lon="0.53104">
        <ele>2229.1999511719</ele>
        <time>2020-09-18T09:43:14Z</time>
      </trkpt>
      <trkpt lat="42.72466" lon="0.53117">
        <ele>2225</ele>
        <time>2020-09-18T09:43:28Z</time>
      </trkpt>
      <trkpt lat="42.72477" lon="0.53177">
        <ele>2217.8000488281</ele>
        <time>2020-09-18T09:44:26Z</time>
      </trkpt>
      <trkpt lat="42.72488" lon="0.5319">
        <ele>2214.3999023438</ele>
        <time>2020-09-18T09:44:50Z</time>
      </trkpt>
      <trkpt lat="42.7249" lon="0.53198">
        <ele>2214.1999511719</ele>
        <time>2020-09-18T09:44:56Z</time>
      </trkpt>
      <trkpt lat="42.72509" lon="0.53237">
        <ele>2210.1999511719</ele>
        <time>2020-09-18T09:45:26Z</time>
      </trkpt>
      <trkpt lat="42.72514" lon="0.53261">
        <ele>2207</ele>
        <time>2020-09-18T09:45:40Z</time>
      </trkpt>
      <trkpt lat="42.72519" lon="0.53299">
        <ele>2203.3999023438</ele>
        <time>2020-09-18T09:46:35Z</time>
      </trkpt>
      <trkpt lat="42.7252" lon="0.53307">
        <ele>2200.1999511719</ele>
        <time>2020-09-18T09:46:42Z</time>
      </trkpt>
      <trkpt lat="42.7252" lon="0.53308">
        <ele>2200</ele>
        <time>2020-09-18T09:46:43Z</time>
      </trkpt>
      <trkpt lat="42.72524" lon="0.53342">
        <ele>2195.1999511719</ele>
        <time>2020-09-18T09:47:15Z</time>
      </trkpt>
      <trkpt lat="42.72531" lon="0.53369">
        <ele>2192.1999511719</ele>
        <time>2020-09-18T09:47:44Z</time>
      </trkpt>
      <trkpt lat="42.72532" lon="0.53376">
        <ele>2192</ele>
        <time>2020-09-18T09:47:50Z</time>
      </trkpt>
      <trkpt lat="42.72522" lon="0.53388">
        <ele>2187.3999023438</ele>
        <time>2020-09-18T09:48:18Z</time>
      </trkpt>
      <trkpt lat="42.72519" lon="0.53397">
        <ele>2184</ele>
        <time>2020-09-18T09:48:28Z</time>
      </trkpt>
      <trkpt lat="42.7251" lon="0.53415">
        <ele>2180.1999511719</ele>
        <time>2020-09-18T09:48:52Z</time>
      </trkpt>
      <trkpt lat="42.7251" lon="0.5344">
        <ele>2174.3999023438</ele>
        <time>2020-09-18T09:49:15Z</time>
      </trkpt>
      <trkpt lat="42.72507" lon="0.53454">
        <ele>2170.3999023438</ele>
        <time>2020-09-18T09:49:26Z</time>
      </trkpt>
      <trkpt lat="42.72501" lon="0.53469">
        <ele>2164.6000976562</ele>
        <time>2020-09-18T09:49:48Z</time>
      </trkpt>
      <trkpt lat="42.72497" lon="0.53477">
        <ele>2160.6000976562</ele>
        <time>2020-09-18T09:50:00Z</time>
      </trkpt>
      <trkpt lat="42.72496" lon="0.53494">
        <ele>2155.8000488281</ele>
        <time>2020-09-18T09:50:11Z</time>
      </trkpt>
      <trkpt lat="42.72492" lon="0.53511">
        <ele>2152.8000488281</ele>
        <time>2020-09-18T09:50:24Z</time>
      </trkpt>
      <trkpt lat="42.72489" lon="0.53522">
        <ele>2149.6000976562</ele>
        <time>2020-09-18T09:50:35Z</time>
      </trkpt>
      <trkpt lat="42.72486" lon="0.53537">
        <ele>2144</ele>
        <time>2020-09-18T09:50:57Z</time>
      </trkpt>
      <trkpt lat="42.72482" lon="0.5354">
        <ele>2143.8000488281</ele>
        <time>2020-09-18T09:51:09Z</time>
      </trkpt>
      <trkpt lat="42.72479" lon="0.53549">
        <ele>2140.6000976562</ele>
        <time>2020-09-18T09:51:20Z</time>
      </trkpt>
      <trkpt lat="42.72475" lon="0.5356">
        <ele>2137.1999511719</ele>
        <time>2020-09-18T09:51:31Z</time>
      </trkpt>
      <trkpt lat="42.72463" lon="0.53558">
        <ele>2132.6000976562</ele>
        <time>2020-09-18T09:51:51Z</time>
      </trkpt>
      <trkpt lat="42.7246" lon="0.53555">
        <ele>2132.6000976562</ele>
        <time>2020-09-18T09:51:54Z</time>
      </trkpt>
      <trkpt lat="42.72446" lon="0.53535">
        <ele>2129.6000976562</ele>
        <time>2020-09-18T09:52:16Z</time>
      </trkpt>
      <trkpt lat="42.7243" lon="0.5352">
        <ele>2125.6000976562</ele>
        <time>2020-09-18T09:52:47Z</time>
      </trkpt>
      <trkpt lat="42.72431" lon="0.53528">
        <ele>2122.3999023438</ele>
        <time>2020-09-18T09:52:55Z</time>
      </trkpt>
      <trkpt lat="42.72429" lon="0.53533">
        <ele>2119.1999511719</ele>
        <time>2020-09-18T09:53:07Z</time>
      </trkpt>
      <trkpt lat="42.72426" lon="0.53538">
        <ele>2116</ele>
        <time>2020-09-18T09:53:13Z</time>
      </trkpt>
      <trkpt lat="42.72423" lon="0.53539">
        <ele>2113</ele>
        <time>2020-09-18T09:53:24Z</time>
      </trkpt>
      <trkpt lat="42.72424" lon="0.53545">
        <ele>2112.8000488281</ele>
        <time>2020-09-18T09:53:31Z</time>
      </trkpt>
      <trkpt lat="42.72425" lon="0.53563">
        <ele>2109.6000976562</ele>
        <time>2020-09-18T09:53:44Z</time>
      </trkpt>
      <trkpt lat="42.72425" lon="0.53574">
        <ele>2106.3999023438</ele>
        <time>2020-09-18T09:53:51Z</time>
      </trkpt>
      <trkpt lat="42.72426" lon="0.53619">
        <ele>2100.1999511719</ele>
        <time>2020-09-18T09:54:52Z</time>
      </trkpt>
      <trkpt lat="42.72418" lon="0.53621">
        <ele>2095.1999511719</ele>
        <time>2020-09-18T09:55:05Z</time>
      </trkpt>
      <trkpt lat="42.72416" lon="0.53635">
        <ele>2089.8000488281</ele>
        <time>2020-09-18T09:55:19Z</time>
      </trkpt>
      <trkpt lat="42.72414" lon="0.53646">
        <ele>2086</ele>
        <time>2020-09-18T09:55:33Z</time>
      </trkpt>
      <trkpt lat="42.72404" lon="0.53635">
        <ele>2081</ele>
        <time>2020-09-18T09:56:00Z</time>
      </trkpt>
      <trkpt lat="42.72403" lon="0.53634">
        <ele>2081.1999511719</ele>
        <time>2020-09-18T09:56:09Z</time>
      </trkpt>
      <trkpt lat="42.72387" lon="0.53643">
        <ele>2078</ele>
        <time>2020-09-18T09:56:31Z</time>
      </trkpt>
      <trkpt lat="42.72385" lon="0.53646">
        <ele>2078</ele>
        <time>2020-09-18T09:56:34Z</time>
      </trkpt>
      <trkpt lat="42.7236" lon="0.53649">
        <ele>2072.3999023438</ele>
        <time>2020-09-18T09:57:05Z</time>
      </trkpt>
      <trkpt lat="42.72357" lon="0.53646">
        <ele>2072.6000976562</ele>
        <time>2020-09-18T09:57:09Z</time>
      </trkpt>
      <trkpt lat="42.72341" lon="0.53642">
        <ele>2069.1999511719</ele>
        <time>2020-09-18T09:57:33Z</time>
      </trkpt>
      <trkpt lat="42.72338" lon="0.53648">
        <ele>2065</ele>
        <time>2020-09-18T09:57:41Z</time>
      </trkpt>
      <trkpt lat="42.72334" lon="0.53655">
        <ele>2061.1999511719</ele>
        <time>2020-09-18T09:57:48Z</time>
      </trkpt>
      <trkpt lat="42.72324" lon="0.5366">
        <ele>2057.3999023438</ele>
        <time>2020-09-18T09:58:01Z</time>
      </trkpt>
      <trkpt lat="42.72314" lon="0.53676">
        <ele>2054</ele>
        <time>2020-09-18T09:58:19Z</time>
      </trkpt>
      <trkpt lat="42.72317" lon="0.5371">
        <ele>2049</ele>
        <time>2020-09-18T09:58:42Z</time>
      </trkpt>
      <trkpt lat="42.72318" lon="0.53715">
        <ele>2046.4000244141</ele>
        <time>2020-09-18T09:58:46Z</time>
      </trkpt>
      <trkpt lat="42.72324" lon="0.53728">
        <ele>2042.1999511719</ele>
        <time>2020-09-18T09:58:56Z</time>
      </trkpt>
      <trkpt lat="42.72335" lon="0.53763">
        <ele>2037.5999755859</ele>
        <time>2020-09-18T09:59:21Z</time>
      </trkpt>
      <trkpt lat="42.72341" lon="0.53769">
        <ele>2038.4000244141</ele>
        <time>2020-09-18T09:59:35Z</time>
      </trkpt>
      <trkpt lat="42.72344" lon="0.53768">
        <ele>2036.5999755859</ele>
        <time>2020-09-18T09:59:39Z</time>
      </trkpt>
      <trkpt lat="42.72354" lon="0.5376">
        <ele>2033.4000244141</ele>
        <time>2020-09-18T09:59:49Z</time>
      </trkpt>
      <trkpt lat="42.72361" lon="0.53784">
        <ele>2028.1999511719</ele>
        <time>2020-09-18T10:00:11Z</time>
      </trkpt>
      <trkpt lat="42.72375" lon="0.53805">
        <ele>2024.8000488281</ele>
        <time>2020-09-18T10:00:31Z</time>
      </trkpt>
      <trkpt lat="42.72372" lon="0.53827">
        <ele>2019</ele>
        <time>2020-09-18T10:00:58Z</time>
      </trkpt>
      <trkpt lat="42.72372" lon="0.53835">
        <ele>2016.4000244141</ele>
        <time>2020-09-18T10:01:06Z</time>
      </trkpt>
      <trkpt lat="42.72375" lon="0.53847">
        <ele>2012.5999755859</ele>
        <time>2020-09-18T10:01:15Z</time>
      </trkpt>
      <trkpt lat="42.72368" lon="0.53847">
        <ele>2007.5999755859</ele>
        <time>2020-09-18T10:01:32Z</time>
      </trkpt>
      <trkpt lat="42.72362" lon="0.5385">
        <ele>2005.5999755859</ele>
        <time>2020-09-18T10:01:46Z</time>
      </trkpt>
      <trkpt lat="42.72347" lon="0.53852">
        <ele>2002.1999511719</ele>
        <time>2020-09-18T10:01:58Z</time>
      </trkpt>
      <trkpt lat="42.72337" lon="0.53847">
        <ele>1998.8000488281</ele>
        <time>2020-09-18T10:02:09Z</time>
      </trkpt>
      <trkpt lat="42.72342" lon="0.53863">
        <ele>1992.1999511719</ele>
        <time>2020-09-18T10:02:38Z</time>
      </trkpt>
      <trkpt lat="42.72341" lon="0.53864">
        <ele>1992.1999511719</ele>
        <time>2020-09-18T10:02:42Z</time>
      </trkpt>
      <trkpt lat="42.72333" lon="0.53863">
        <ele>1989.1999511719</ele>
        <time>2020-09-18T10:02:52Z</time>
      </trkpt>
      <trkpt lat="42.72306" lon="0.5387">
        <ele>1982.8000488281</ele>
        <time>2020-09-18T10:03:21Z</time>
      </trkpt>
      <trkpt lat="42.72296" lon="0.53869">
        <ele>1979.1999511719</ele>
        <time>2020-09-18T10:03:32Z</time>
      </trkpt>
      <trkpt lat="42.72276" lon="0.53868">
        <ele>1975.8000488281</ele>
        <time>2020-09-18T10:03:55Z</time>
      </trkpt>
      <trkpt lat="42.72264" lon="0.53882">
        <ele>1972.1999511719</ele>
        <time>2020-09-18T10:04:09Z</time>
      </trkpt>
      <trkpt lat="42.7226" lon="0.5389">
        <ele>1972.1999511719</ele>
        <time>2020-09-18T10:04:28Z</time>
      </trkpt>
      <trkpt lat="42.72223" lon="0.53907">
        <ele>1967</ele>
        <time>2020-09-18T10:05:38Z</time>
      </trkpt>
      <trkpt lat="42.72208" lon="0.53912">
        <ele>1963.5999755859</ele>
        <time>2020-09-18T10:05:57Z</time>
      </trkpt>
      <trkpt lat="42.7219" lon="0.53907">
        <ele>1959.1999511719</ele>
        <time>2020-09-18T10:06:18Z</time>
      </trkpt>
      <trkpt lat="42.72175" lon="0.53909">
        <ele>1953.4000244141</ele>
        <time>2020-09-18T10:06:51Z</time>
      </trkpt>
      <trkpt lat="42.72175" lon="0.5391">
        <ele>1953</ele>
        <time>2020-09-18T10:06:53Z</time>
      </trkpt>
      <trkpt lat="42.72187" lon="0.53926">
        <ele>1950</ele>
        <time>2020-09-18T10:07:08Z</time>
      </trkpt>
      <trkpt lat="42.72197" lon="0.5394">
        <ele>1946.8000488281</ele>
        <time>2020-09-18T10:07:20Z</time>
      </trkpt>
      <trkpt lat="42.72205" lon="0.53953">
        <ele>1943.8000488281</ele>
        <time>2020-09-18T10:07:33Z</time>
      </trkpt>
      <trkpt lat="42.72193" lon="0.53953">
        <ele>1940.8000488281</ele>
        <time>2020-09-18T10:07:49Z</time>
      </trkpt>
      <trkpt lat="42.7219" lon="0.53963">
        <ele>1937.1999511719</ele>
        <time>2020-09-18T10:08:05Z</time>
      </trkpt>
      <trkpt lat="42.72174" lon="0.53955">
        <ele>1931.8000488281</ele>
        <time>2020-09-18T10:08:25Z</time>
      </trkpt>
      <trkpt lat="42.7218" lon="0.53975">
        <ele>1926.1999511719</ele>
        <time>2020-09-18T10:08:43Z</time>
      </trkpt>
      <trkpt lat="42.72168" lon="0.53975">
        <ele>1922.5999755859</ele>
        <time>2020-09-18T10:08:56Z</time>
      </trkpt>
      <trkpt lat="42.72173" lon="0.53993">
        <ele>1917.5999755859</ele>
        <time>2020-09-18T10:09:16Z</time>
      </trkpt>
      <trkpt lat="42.72166" lon="0.53995">
        <ele>1914.5999755859</ele>
        <time>2020-09-18T10:09:30Z</time>
      </trkpt>
      <trkpt lat="42.72183" lon="0.5401">
        <ele>1910.1999511719</ele>
        <time>2020-09-18T10:09:50Z</time>
      </trkpt>
      <trkpt lat="42.72206" lon="0.54003">
        <ele>1904.5999755859</ele>
        <time>2020-09-18T10:10:11Z</time>
      </trkpt>
      <trkpt lat="42.72223" lon="0.53994">
        <ele>1900</ele>
        <time>2020-09-18T10:10:31Z</time>
      </trkpt>
      <trkpt lat="42.7223" lon="0.53996">
        <ele>1897.4000244141</ele>
        <time>2020-09-18T10:10:39Z</time>
      </trkpt>
      <trkpt lat="42.72247" lon="0.54002">
        <ele>1894</ele>
        <time>2020-09-18T10:10:55Z</time>
      </trkpt>
      <trkpt lat="42.72257" lon="0.54006">
        <ele>1891</ele>
        <time>2020-09-18T10:11:05Z</time>
      </trkpt>
      <trkpt lat="42.72257" lon="0.54007">
        <ele>1890.8000488281</ele>
        <time>2020-09-18T10:11:06Z</time>
      </trkpt>
      <trkpt lat="42.72283" lon="0.54029">
        <ele>1884.8000488281</ele>
        <time>2020-09-18T10:11:36Z</time>
      </trkpt>
      <trkpt lat="42.72311" lon="0.54027">
        <ele>1878.5999755859</ele>
        <time>2020-09-18T10:12:07Z</time>
      </trkpt>
      <trkpt lat="42.72328" lon="0.54028">
        <ele>1874.8000488281</ele>
        <time>2020-09-18T10:12:27Z</time>
      </trkpt>
      <trkpt lat="42.72341" lon="0.54036">
        <ele>1871.4000244141</ele>
        <time>2020-09-18T10:12:39Z</time>
      </trkpt>
      <trkpt lat="42.72354" lon="0.54041">
        <ele>1868.1999511719</ele>
        <time>2020-09-18T10:12:50Z</time>
      </trkpt>
      <trkpt lat="42.72378" lon="0.54043">
        <ele>1863.8000488281</ele>
        <time>2020-09-18T10:13:13Z</time>
      </trkpt>
      <trkpt lat="42.72396" lon="0.54052">
        <ele>1860.5999755859</ele>
        <time>2020-09-18T10:13:30Z</time>
      </trkpt>
      <trkpt lat="42.72406" lon="0.5407">
        <ele>1857</ele>
        <time>2020-09-18T10:14:26Z</time>
      </trkpt>
      <trkpt lat="42.72406" lon="0.5407">
        <ele>1853.8000488281</ele>
        <time>2020-09-18T10:14:45Z</time>
      </trkpt>
      <trkpt lat="42.72422" lon="0.54079">
        <ele>1855</ele>
        <time>2020-09-18T10:15:25Z</time>
      </trkpt>
      <trkpt lat="42.72433" lon="0.54091">
        <ele>1851.5999755859</ele>
        <time>2020-09-18T10:15:38Z</time>
      </trkpt>
      <trkpt lat="42.72441" lon="0.54097">
        <ele>1848.4000244141</ele>
        <time>2020-09-18T10:15:47Z</time>
      </trkpt>
      <trkpt lat="42.72457" lon="0.54104">
        <ele>1845.1999511719</ele>
        <time>2020-09-18T10:16:02Z</time>
      </trkpt>
      <trkpt lat="42.72476" lon="0.54114">
        <ele>1840.8000488281</ele>
        <time>2020-09-18T10:16:21Z</time>
      </trkpt>
      <trkpt lat="42.72481" lon="0.5413">
        <ele>1833.8000488281</ele>
        <time>2020-09-18T10:16:54Z</time>
      </trkpt>
      <trkpt lat="42.72459" lon="0.5414">
        <ele>1828.5999755859</ele>
        <time>2020-09-18T10:17:17Z</time>
      </trkpt>
      <trkpt lat="42.72467" lon="0.54148">
        <ele>1825.1999511719</ele>
        <time>2020-09-18T10:17:30Z</time>
      </trkpt>
      <trkpt lat="42.72493" lon="0.54163">
        <ele>1819</ele>
        <time>2020-09-18T10:17:56Z</time>
      </trkpt>
      <trkpt lat="42.72511" lon="0.54172">
        <ele>1814.5999755859</ele>
        <time>2020-09-18T10:18:16Z</time>
      </trkpt>
      <trkpt lat="42.72529" lon="0.5416">
        <ele>1810.1999511719</ele>
        <time>2020-09-18T10:18:38Z</time>
      </trkpt>
      <trkpt lat="42.72534" lon="0.54163">
        <ele>1808.8000488281</ele>
        <time>2020-09-18T10:18:45Z</time>
      </trkpt>
      <trkpt lat="42.72543" lon="0.54185">
        <ele>1805.5999755859</ele>
        <time>2020-09-18T10:19:02Z</time>
      </trkpt>
      <trkpt lat="42.72543" lon="0.54186">
        <ele>1805.4000244141</ele>
        <time>2020-09-18T10:19:03Z</time>
      </trkpt>
      <trkpt lat="42.72555" lon="0.54191">
        <ele>1801.4000244141</ele>
        <time>2020-09-18T10:19:15Z</time>
      </trkpt>
      <trkpt lat="42.7256" lon="0.54195">
        <ele>1798.4000244141</ele>
        <time>2020-09-18T10:19:24Z</time>
      </trkpt>
      <trkpt lat="42.72561" lon="0.54196">
        <ele>1798.1999511719</ele>
        <time>2020-09-18T10:19:25Z</time>
      </trkpt>
      <trkpt lat="42.72577" lon="0.54201">
        <ele>1795.1999511719</ele>
        <time>2020-09-18T10:19:39Z</time>
      </trkpt>
      <trkpt lat="42.72592" lon="0.54209">
        <ele>1792.1999511719</ele>
        <time>2020-09-18T10:19:54Z</time>
      </trkpt>
      <trkpt lat="42.726" lon="0.54215">
        <ele>1789.1999511719</ele>
        <time>2020-09-18T10:20:07Z</time>
      </trkpt>
      <trkpt lat="42.72618" lon="0.54234">
        <ele>1784.8000488281</ele>
        <time>2020-09-18T10:20:29Z</time>
      </trkpt>
      <trkpt lat="42.72632" lon="0.5424">
        <ele>1780.1999511719</ele>
        <time>2020-09-18T10:20:46Z</time>
      </trkpt>
      <trkpt lat="42.72648" lon="0.54246">
        <ele>1775.5999755859</ele>
        <time>2020-09-18T10:21:09Z</time>
      </trkpt>
      <trkpt lat="42.7266" lon="0.54253">
        <ele>1772.4000244141</ele>
        <time>2020-09-18T10:21:31Z</time>
      </trkpt>
      <trkpt lat="42.7267" lon="0.54253">
        <ele>1769</ele>
        <time>2020-09-18T10:21:42Z</time>
      </trkpt>
      <trkpt lat="42.72696" lon="0.54236">
        <ele>1767</ele>
        <time>2020-09-18T10:22:17Z</time>
      </trkpt>
      <trkpt lat="42.72711" lon="0.54241">
        <ele>1763.5999755859</ele>
        <time>2020-09-18T10:22:31Z</time>
      </trkpt>
      <trkpt lat="42.72723" lon="0.54241">
        <ele>1759</ele>
        <time>2020-09-18T10:22:52Z</time>
      </trkpt>
      <trkpt lat="42.72749" lon="0.54246">
        <ele>1754.5999755859</ele>
        <time>2020-09-18T10:23:35Z</time>
      </trkpt>
      <trkpt lat="42.72749" lon="0.54248">
        <ele>1754.4000244141</ele>
        <time>2020-09-18T10:23:40Z</time>
      </trkpt>
      <trkpt lat="42.72751" lon="0.54274">
        <ele>1751.8000488281</ele>
        <time>2020-09-18T10:24:00Z</time>
      </trkpt>
      <trkpt lat="42.72757" lon="0.54295">
        <ele>1748</ele>
        <time>2020-09-18T10:24:16Z</time>
      </trkpt>
      <trkpt lat="42.72779" lon="0.54332">
        <ele>1743.4000244141</ele>
        <time>2020-09-18T10:24:49Z</time>
      </trkpt>
      <trkpt lat="42.72791" lon="0.54344">
        <ele>1739.8000488281</ele>
        <time>2020-09-18T10:25:06Z</time>
      </trkpt>
      <trkpt lat="42.72795" lon="0.54354">
        <ele>1734</ele>
        <time>2020-09-18T10:25:37Z</time>
      </trkpt>
      <trkpt lat="42.72781" lon="0.5435">
        <ele>1730.5999755859</ele>
        <time>2020-09-18T10:25:53Z</time>
      </trkpt>
      <trkpt lat="42.7278" lon="0.54354">
        <ele>1727.5999755859</ele>
        <time>2020-09-18T10:26:04Z</time>
      </trkpt>
      <trkpt lat="42.72784" lon="0.54365">
        <ele>1724.1999511719</ele>
        <time>2020-09-18T10:26:17Z</time>
      </trkpt>
      <trkpt lat="42.72784" lon="0.54365">
        <ele>1723.8000488281</ele>
        <time>2020-09-18T10:26:18Z</time>
      </trkpt>
      <trkpt lat="42.72762" lon="0.54357">
        <ele>1718.8000488281</ele>
        <time>2020-09-18T10:26:38Z</time>
      </trkpt>
      <trkpt lat="42.72753" lon="0.54353">
        <ele>1715.8000488281</ele>
        <time>2020-09-18T10:26:50Z</time>
      </trkpt>
      <trkpt lat="42.72728" lon="0.54349">
        <ele>1710.4000244141</ele>
        <time>2020-09-18T10:27:16Z</time>
      </trkpt>
      <trkpt lat="42.72735" lon="0.54367">
        <ele>1707.1999511719</ele>
        <time>2020-09-18T10:27:29Z</time>
      </trkpt>
      <trkpt lat="42.72745" lon="0.5437">
        <ele>1704.1999511719</ele>
        <time>2020-09-18T10:27:40Z</time>
      </trkpt>
      <trkpt lat="42.72754" lon="0.54375">
        <ele>1701</ele>
        <time>2020-09-18T10:27:50Z</time>
      </trkpt>
      <trkpt lat="42.72757" lon="0.54384">
        <ele>1696.8000488281</ele>
        <time>2020-09-18T10:28:06Z</time>
      </trkpt>
      <trkpt lat="42.7274" lon="0.5439">
        <ele>1692.8000488281</ele>
        <time>2020-09-18T10:28:23Z</time>
      </trkpt>
      <trkpt lat="42.72752" lon="0.54398">
        <ele>1686.8000488281</ele>
        <time>2020-09-18T10:28:50Z</time>
      </trkpt>
      <trkpt lat="42.72745" lon="0.54407">
        <ele>1683.4000244141</ele>
        <time>2020-09-18T10:29:04Z</time>
      </trkpt>
      <trkpt lat="42.72734" lon="0.5441">
        <ele>1678.1999511719</ele>
        <time>2020-09-18T10:29:26Z</time>
      </trkpt>
      <trkpt lat="42.72746" lon="0.54418">
        <ele>1674.8000488281</ele>
        <time>2020-09-18T10:29:39Z</time>
      </trkpt>
      <trkpt lat="42.72738" lon="0.54428">
        <ele>1670.1999511719</ele>
        <time>2020-09-18T10:29:54Z</time>
      </trkpt>
      <trkpt lat="42.72737" lon="0.54433">
        <ele>1665.5999755859</ele>
        <time>2020-09-18T10:30:09Z</time>
      </trkpt>
      <trkpt lat="42.72744" lon="0.54439">
        <ele>1662.4000244141</ele>
        <time>2020-09-18T10:30:19Z</time>
      </trkpt>
      <trkpt lat="42.72759" lon="0.54445">
        <ele>1659</ele>
        <time>2020-09-18T10:30:32Z</time>
      </trkpt>
      <trkpt lat="42.72762" lon="0.54451">
        <ele>1655.8000488281</ele>
        <time>2020-09-18T10:30:42Z</time>
      </trkpt>
      <trkpt lat="42.72751" lon="0.54458">
        <ele>1652.5999755859</ele>
        <time>2020-09-18T10:30:54Z</time>
      </trkpt>
      <trkpt lat="42.72736" lon="0.54466">
        <ele>1648.1999511719</ele>
        <time>2020-09-18T10:31:14Z</time>
      </trkpt>
      <trkpt lat="42.72745" lon="0.54472">
        <ele>1646.4000244141</ele>
        <time>2020-09-18T10:34:08Z</time>
      </trkpt>
      <trkpt lat="42.72758" lon="0.54478">
        <ele>1644.1999511719</ele>
        <time>2020-09-18T10:34:22Z</time>
      </trkpt>
      <trkpt lat="42.72773" lon="0.54485">
        <ele>1641</ele>
        <time>2020-09-18T10:34:35Z</time>
      </trkpt>
      <trkpt lat="42.72784" lon="0.54494">
        <ele>1637.8000488281</ele>
        <time>2020-09-18T10:34:46Z</time>
      </trkpt>
      <trkpt lat="42.72803" lon="0.54506">
        <ele>1634</ele>
        <time>2020-09-18T10:34:59Z</time>
      </trkpt>
      <trkpt lat="42.72814" lon="0.54519">
        <ele>1630.8000488281</ele>
        <time>2020-09-18T10:35:10Z</time>
      </trkpt>
      <trkpt lat="42.72813" lon="0.5452">
        <ele>1630.5999755859</ele>
        <time>2020-09-18T10:35:11Z</time>
      </trkpt>
      <trkpt lat="42.72811" lon="0.54529">
        <ele>1628.4000244141</ele>
        <time>2020-09-18T10:35:18Z</time>
      </trkpt>
      <trkpt lat="42.72809" lon="0.54541">
        <ele>1624.5999755859</ele>
        <time>2020-09-18T10:35:26Z</time>
      </trkpt>
      <trkpt lat="42.728" lon="0.54552">
        <ele>1619.5999755859</ele>
        <time>2020-09-18T10:35:38Z</time>
      </trkpt>
      <trkpt lat="42.72794" lon="0.54561">
        <ele>1616.4000244141</ele>
        <time>2020-09-18T10:35:48Z</time>
      </trkpt>
      <trkpt lat="42.72783" lon="0.54579">
        <ele>1611.5999755859</ele>
        <time>2020-09-18T10:36:03Z</time>
      </trkpt>
      <trkpt lat="42.72777" lon="0.54623">
        <ele>1606</ele>
        <time>2020-09-18T10:36:28Z</time>
      </trkpt>
      <trkpt lat="42.72785" lon="0.54646">
        <ele>1603.4000244141</ele>
        <time>2020-09-18T10:36:51Z</time>
      </trkpt>
      <trkpt lat="42.72799" lon="0.54654">
        <ele>1599</ele>
        <time>2020-09-18T10:37:04Z</time>
      </trkpt>
      <trkpt lat="42.72807" lon="0.54657">
        <ele>1596</ele>
        <time>2020-09-18T10:37:32Z</time>
      </trkpt>
      <trkpt lat="42.72817" lon="0.54647">
        <ele>1595.8000488281</ele>
        <time>2020-09-18T10:37:49Z</time>
      </trkpt>
      <trkpt lat="42.72825" lon="0.54634">
        <ele>1597.1999511719</ele>
        <time>2020-09-18T10:38:03Z</time>
      </trkpt>
      <trkpt lat="42.72871" lon="0.54578">
        <ele>1592.1999511719</ele>
        <time>2020-09-18T10:38:50Z</time>
      </trkpt>
      <trkpt lat="42.72905" lon="0.54591">
        <ele>1588</ele>
        <time>2020-09-18T10:39:18Z</time>
      </trkpt>
      <trkpt lat="42.72931" lon="0.54608">
        <ele>1583.5999755859</ele>
        <time>2020-09-18T10:39:42Z</time>
      </trkpt>
      <trkpt lat="42.72936" lon="0.54609">
        <ele>1582.8000488281</ele>
        <time>2020-09-18T10:39:46Z</time>
      </trkpt>
      <trkpt lat="42.72953" lon="0.54613">
        <ele>1579.8000488281</ele>
        <time>2020-09-18T10:40:02Z</time>
      </trkpt>
      <trkpt lat="42.72971" lon="0.54627">
        <ele>1575.8000488281</ele>
        <time>2020-09-18T10:40:20Z</time>
      </trkpt>
      <trkpt lat="42.72968" lon="0.54634">
        <ele>1572.4000244141</ele>
        <time>2020-09-18T10:40:38Z</time>
      </trkpt>
      <trkpt lat="42.7295" lon="0.5463">
        <ele>1569.4000244141</ele>
        <time>2020-09-18T10:40:53Z</time>
      </trkpt>
      <trkpt lat="42.72949" lon="0.5463">
        <ele>1569.1999511719</ele>
        <time>2020-09-18T10:40:54Z</time>
      </trkpt>
      <trkpt lat="42.7294" lon="0.54638">
        <ele>1565.1999511719</ele>
        <time>2020-09-18T10:41:11Z</time>
      </trkpt>
      <trkpt lat="42.72955" lon="0.54655">
        <ele>1559.5999755859</ele>
        <time>2020-09-18T10:41:38Z</time>
      </trkpt>
      <trkpt lat="42.72951" lon="0.54665">
        <ele>1554.5999755859</ele>
        <time>2020-09-18T10:42:00Z</time>
      </trkpt>
      <trkpt lat="42.72968" lon="0.5467">
        <ele>1551</ele>
        <time>2020-09-18T10:42:16Z</time>
      </trkpt>
      <trkpt lat="42.72994" lon="0.54682">
        <ele>1545</ele>
        <time>2020-09-18T10:42:39Z</time>
      </trkpt>
      <trkpt lat="42.73009" lon="0.54694">
        <ele>1541.8000488281</ele>
        <time>2020-09-18T10:42:53Z</time>
      </trkpt>
      <trkpt lat="42.73021" lon="0.54707">
        <ele>1538.5999755859</ele>
        <time>2020-09-18T10:43:05Z</time>
      </trkpt>
      <trkpt lat="42.73008" lon="0.54723">
        <ele>1532</ele>
        <time>2020-09-18T10:43:39Z</time>
      </trkpt>
      <trkpt lat="42.72978" lon="0.54724">
        <ele>1525</ele>
        <time>2020-09-18T10:44:12Z</time>
      </trkpt>
      <trkpt lat="42.72967" lon="0.54733">
        <ele>1517.5999755859</ele>
        <time>2020-09-18T10:44:46Z</time>
      </trkpt>
      <trkpt lat="42.72981" lon="0.54754">
        <ele>1512.8000488281</ele>
        <time>2020-09-18T10:45:06Z</time>
      </trkpt>
      <trkpt lat="42.72976" lon="0.54765">
        <ele>1507</ele>
        <time>2020-09-18T10:45:31Z</time>
      </trkpt>
      <trkpt lat="42.72961" lon="0.54762">
        <ele>1504</ele>
        <time>2020-09-18T10:45:44Z</time>
      </trkpt>
      <trkpt lat="42.7297" lon="0.54782">
        <ele>1500.1999511719</ele>
        <time>2020-09-18T10:46:00Z</time>
      </trkpt>
      <trkpt lat="42.72983" lon="0.54805">
        <ele>1496.1999511719</ele>
        <time>2020-09-18T10:46:17Z</time>
      </trkpt>
      <trkpt lat="42.73005" lon="0.54828">
        <ele>1491</ele>
        <time>2020-09-18T10:46:52Z</time>
      </trkpt>
      <trkpt lat="42.73026" lon="0.54807">
        <ele>1486.8000488281</ele>
        <time>2020-09-18T10:47:18Z</time>
      </trkpt>
      <trkpt lat="42.73028" lon="0.54803">
        <ele>1486.5999755859</ele>
        <time>2020-09-18T10:47:21Z</time>
      </trkpt>
      <trkpt lat="42.73035" lon="0.54794">
        <ele>1485</ele>
        <time>2020-09-18T10:47:30Z</time>
      </trkpt>
      <trkpt lat="42.73055" lon="0.54799">
        <ele>1482</ele>
        <time>2020-09-18T10:47:44Z</time>
      </trkpt>
      <trkpt lat="42.73043" lon="0.54807">
        <ele>1477.1999511719</ele>
        <time>2020-09-18T10:48:07Z</time>
      </trkpt>
      <trkpt lat="42.73043" lon="0.54809">
        <ele>1476.5999755859</ele>
        <time>2020-09-18T10:48:10Z</time>
      </trkpt>
      <trkpt lat="42.7306" lon="0.54829">
        <ele>1473.1999511719</ele>
        <time>2020-09-18T10:48:28Z</time>
      </trkpt>
      <trkpt lat="42.73065" lon="0.54837">
        <ele>1470.4000244141</ele>
        <time>2020-09-18T10:48:41Z</time>
      </trkpt>
      <trkpt lat="42.73049" lon="0.54832">
        <ele>1467.1999511719</ele>
        <time>2020-09-18T10:48:57Z</time>
      </trkpt>
      <trkpt lat="42.73032" lon="0.54835">
        <ele>1464</ele>
        <time>2020-09-18T10:49:17Z</time>
      </trkpt>
      <trkpt lat="42.73041" lon="0.5484">
        <ele>1460.8000488281</ele>
        <time>2020-09-18T10:49:34Z</time>
      </trkpt>
      <trkpt lat="42.73034" lon="0.54843">
        <ele>1457.4000244141</ele>
        <time>2020-09-18T10:49:53Z</time>
      </trkpt>
      <trkpt lat="42.73031" lon="0.54851">
        <ele>1452.4000244141</ele>
        <time>2020-09-18T10:50:14Z</time>
      </trkpt>
      <trkpt lat="42.73032" lon="0.54851">
        <ele>1452.1999511719</ele>
        <time>2020-09-18T10:50:15Z</time>
      </trkpt>
      <trkpt lat="42.73025" lon="0.54867">
        <ele>1447.5999755859</ele>
        <time>2020-09-18T10:50:36Z</time>
      </trkpt>
      <trkpt lat="42.73019" lon="0.54889">
        <ele>1444.1999511719</ele>
        <time>2020-09-18T10:50:52Z</time>
      </trkpt>
      <trkpt lat="42.73014" lon="0.54931">
        <ele>1438.5999755859</ele>
        <time>2020-09-18T10:51:18Z</time>
      </trkpt>
      <trkpt lat="42.72983" lon="0.54954">
        <ele>1434.5999755859</ele>
        <time>2020-09-18T10:52:07Z</time>
      </trkpt>
      <trkpt lat="42.72967" lon="0.54942">
        <ele>1430.1999511719</ele>
        <time>2020-09-18T10:52:30Z</time>
      </trkpt>
      <trkpt lat="42.7296" lon="0.54953">
        <ele>1423.4000244141</ele>
        <time>2020-09-18T10:53:01Z</time>
      </trkpt>
      <trkpt lat="42.72958" lon="0.54966">
        <ele>1419.1999511719</ele>
        <time>2020-09-18T10:53:40Z</time>
      </trkpt>
      <trkpt lat="42.72966" lon="0.54972">
        <ele>1419.5999755859</ele>
        <time>2020-09-18T10:53:54Z</time>
      </trkpt>
      <trkpt lat="42.72961" lon="0.54996">
        <ele>1416.1999511719</ele>
        <time>2020-09-18T10:54:19Z</time>
      </trkpt>
      <trkpt lat="42.72958" lon="0.55041">
        <ele>1412.4000244141</ele>
        <time>2020-09-18T10:54:50Z</time>
      </trkpt>
      <trkpt lat="42.72964" lon="0.55071">
        <ele>1409.4000244141</ele>
        <time>2020-09-18T10:55:13Z</time>
      </trkpt>
      <trkpt lat="42.72964" lon="0.55055">
        <ele>1406.4000244141</ele>
        <time>2020-09-18T10:55:24Z</time>
      </trkpt>
      <trkpt lat="42.72983" lon="0.55068">
        <ele>1400.1999511719</ele>
        <time>2020-09-18T10:55:58Z</time>
      </trkpt>
      <trkpt lat="42.72984" lon="0.55049">
        <ele>1397</ele>
        <time>2020-09-18T10:56:12Z</time>
      </trkpt>
      <trkpt lat="42.72978" lon="0.55016">
        <ele>1392.8000488281</ele>
        <time>2020-09-18T10:56:40Z</time>
      </trkpt>
      <trkpt lat="42.7298" lon="0.55009">
        <ele>1388</ele>
        <time>2020-09-18T10:57:13Z</time>
      </trkpt>
      <trkpt lat="42.72984" lon="0.55007">
        <ele>1382.1999511719</ele>
        <time>2020-09-18T10:57:45Z</time>
      </trkpt>
      <trkpt lat="42.7298" lon="0.5501">
        <ele>1387.4000244141</ele>
        <time>2020-09-18T10:58:26Z</time>
      </trkpt>
      <trkpt lat="42.72986" lon="0.55036">
        <ele>1391.1999511719</ele>
        <time>2020-09-18T10:58:49Z</time>
      </trkpt>
      <trkpt lat="42.72995" lon="0.55084">
        <ele>1396</ele>
        <time>2020-09-18T10:59:30Z</time>
      </trkpt>
      <trkpt lat="42.73012" lon="0.55136">
        <ele>1394.1999511719</ele>
        <time>2020-09-18T11:00:16Z</time>
      </trkpt>
      <trkpt lat="42.73033" lon="0.55146">
        <ele>1397.8000488281</ele>
        <time>2020-09-18T11:00:39Z</time>
      </trkpt>
      <trkpt lat="42.73049" lon="0.5518">
        <ele>1393</ele>
        <time>2020-09-18T11:01:09Z</time>
      </trkpt>
      <trkpt lat="42.73058" lon="0.55177">
        <ele>1387.8000488281</ele>
        <time>2020-09-18T11:01:34Z</time>
      </trkpt>
      <trkpt lat="42.73044" lon="0.55158">
        <ele>1382.8000488281</ele>
        <time>2020-09-18T11:01:58Z</time>
      </trkpt>
      <trkpt lat="42.73051" lon="0.55159">
        <ele>1379.5999755859</ele>
        <time>2020-09-18T11:02:11Z</time>
      </trkpt>
      <trkpt lat="42.73051" lon="0.55143">
        <ele>1374</ele>
        <time>2020-09-18T11:02:32Z</time>
      </trkpt>
      <trkpt lat="42.73054" lon="0.55138">
        <ele>1370.8000488281</ele>
        <time>2020-09-18T11:02:45Z</time>
      </trkpt>
      <trkpt lat="42.73059" lon="0.55129">
        <ele>1365.4000244141</ele>
        <time>2020-09-18T11:03:07Z</time>
      </trkpt>
      <trkpt lat="42.73056" lon="0.5512">
        <ele>1362.1999511719</ele>
        <time>2020-09-18T11:03:19Z</time>
      </trkpt>
      <trkpt lat="42.73054" lon="0.55104">
        <ele>1357.8000488281</ele>
        <time>2020-09-18T11:03:38Z</time>
      </trkpt>
      <trkpt lat="42.73049" lon="0.55088">
        <ele>1353.8000488281</ele>
        <time>2020-09-18T11:03:50Z</time>
      </trkpt>
      <trkpt lat="42.7305" lon="0.55077">
        <ele>1350.5999755859</ele>
        <time>2020-09-18T11:04:09Z</time>
      </trkpt>
      <trkpt lat="42.73053" lon="0.55075">
        <ele>1350.8000488281</ele>
        <time>2020-09-18T11:04:16Z</time>
      </trkpt>
      <trkpt lat="42.73063" lon="0.55079">
        <ele>1347.8000488281</ele>
        <time>2020-09-18T11:04:35Z</time>
      </trkpt>
      <trkpt lat="42.73064" lon="0.55075">
        <ele>1347.5999755859</ele>
        <time>2020-09-18T11:04:38Z</time>
      </trkpt>
      <trkpt lat="42.73081" lon="0.55074">
        <ele>1343.1999511719</ele>
        <time>2020-09-18T11:04:59Z</time>
      </trkpt>
      <trkpt lat="42.73087" lon="0.55058">
        <ele>1337.5999755859</ele>
        <time>2020-09-18T11:05:21Z</time>
      </trkpt>
      <trkpt lat="42.73089" lon="0.5505">
        <ele>1334.4000244141</ele>
        <time>2020-09-18T11:05:25Z</time>
      </trkpt>
      <trkpt lat="42.7309" lon="0.55047">
        <ele>1336.5999755859</ele>
        <time>2020-09-18T11:05:27Z</time>
      </trkpt>
      <trkpt lat="42.73094" lon="0.55033">
        <ele>1337.5999755859</ele>
        <time>2020-09-18T11:05:49Z</time>
      </trkpt>
      <trkpt lat="42.73101" lon="0.55028">
        <ele>1337.4000244141</ele>
        <time>2020-09-18T11:05:55Z</time>
      </trkpt>
      <trkpt lat="42.73113" lon="0.5501">
        <ele>1343.4000244141</ele>
        <time>2020-09-18T11:06:32Z</time>
      </trkpt>
      <trkpt lat="42.73127" lon="0.55004">
        <ele>1346.4000244141</ele>
        <time>2020-09-18T11:06:47Z</time>
      </trkpt>
      <trkpt lat="42.7314" lon="0.55004">
        <ele>1349.4000244141</ele>
        <time>2020-09-18T11:07:02Z</time>
      </trkpt>
      <trkpt lat="42.73178" lon="0.54995">
        <ele>1353.1999511719</ele>
        <time>2020-09-18T11:07:38Z</time>
      </trkpt>
      <trkpt lat="42.73232" lon="0.54995">
        <ele>1356.5999755859</ele>
        <time>2020-09-18T11:08:24Z</time>
      </trkpt>
      <trkpt lat="42.73237" lon="0.54987">
        <ele>1356.4000244141</ele>
        <time>2020-09-18T11:08:30Z</time>
      </trkpt>
      <trkpt lat="42.7328" lon="0.54993">
        <ele>1349</ele>
        <time>2020-09-18T11:09:16Z</time>
      </trkpt>
      <trkpt lat="42.73289" lon="0.55005">
        <ele>1345.8000488281</ele>
        <time>2020-09-18T11:09:27Z</time>
      </trkpt>
      <trkpt lat="42.733" lon="0.55021">
        <ele>1342</ele>
        <time>2020-09-18T11:09:44Z</time>
      </trkpt>
      <trkpt lat="42.73311" lon="0.55034">
        <ele>1338.8000488281</ele>
        <time>2020-09-18T11:09:55Z</time>
      </trkpt>
      <trkpt lat="42.73322" lon="0.55022">
        <ele>1337</ele>
        <time>2020-09-18T11:10:11Z</time>
      </trkpt>
      <trkpt lat="42.73324" lon="0.55019">
        <ele>1337</ele>
        <time>2020-09-18T11:10:13Z</time>
      </trkpt>
      <trkpt lat="42.73336" lon="0.55011">
        <ele>1336.4000244141</ele>
        <time>2020-09-18T11:10:27Z</time>
      </trkpt>
      <trkpt lat="42.73347" lon="0.55019">
        <ele>1335.4000244141</ele>
        <time>2020-09-18T11:10:38Z</time>
      </trkpt>
      <trkpt lat="42.73366" lon="0.55033">
        <ele>1332.1999511719</ele>
        <time>2020-09-18T11:10:58Z</time>
      </trkpt>
      <trkpt lat="42.73379" lon="0.55032">
        <ele>1329</ele>
        <time>2020-09-18T11:11:10Z</time>
      </trkpt>
      <trkpt lat="42.73397" lon="0.5504">
        <ele>1326</ele>
        <time>2020-09-18T11:11:25Z</time>
      </trkpt>
      <trkpt lat="42.73412" lon="0.55051">
        <ele>1322.8000488281</ele>
        <time>2020-09-18T11:11:39Z</time>
      </trkpt>
      <trkpt lat="42.73416" lon="0.55054">
        <ele>1321.8000488281</ele>
        <time>2020-09-18T11:11:44Z</time>
      </trkpt>
      <trkpt lat="42.73407" lon="0.55064">
        <ele>1318.4000244141</ele>
        <time>2020-09-18T11:11:55Z</time>
      </trkpt>
      <trkpt lat="42.73395" lon="0.55065">
        <ele>1315.4000244141</ele>
        <time>2020-09-18T11:12:07Z</time>
      </trkpt>
      <trkpt lat="42.73376" lon="0.55066">
        <ele>1310</ele>
        <time>2020-09-18T11:12:27Z</time>
      </trkpt>
      <trkpt lat="42.73378" lon="0.55073">
        <ele>1306.8000488281</ele>
        <time>2020-09-18T11:12:39Z</time>
      </trkpt>
      <trkpt lat="42.73374" lon="0.55078">
        <ele>1303.4000244141</ele>
        <time>2020-09-18T11:12:50Z</time>
      </trkpt>
      <trkpt lat="42.73366" lon="0.55083">
        <ele>1300</ele>
        <time>2020-09-18T11:13:02Z</time>
      </trkpt>
      <trkpt lat="42.73382" lon="0.55093">
        <ele>1293.8000488281</ele>
        <time>2020-09-18T11:13:29Z</time>
      </trkpt>
      <trkpt lat="42.7338" lon="0.55095">
        <ele>1293.8000488281</ele>
        <time>2020-09-18T11:13:53Z</time>
      </trkpt>
      <trkpt lat="42.7338" lon="0.55096">
        <ele>1293.8000488281</ele>
        <time>2020-09-18T11:13:54Z</time>
      </trkpt>
      <trkpt lat="42.73394" lon="0.55104">
        <ele>1289.5999755859</ele>
        <time>2020-09-18T11:14:09Z</time>
      </trkpt>
      <trkpt lat="42.73396" lon="0.55103">
        <ele>1289.1999511719</ele>
        <time>2020-09-18T11:14:11Z</time>
      </trkpt>
      <trkpt lat="42.73412" lon="0.55097">
        <ele>1285.8000488281</ele>
        <time>2020-09-18T11:14:24Z</time>
      </trkpt>
      <trkpt lat="42.73434" lon="0.55099">
        <ele>1282.5999755859</ele>
        <time>2020-09-18T11:14:42Z</time>
      </trkpt>
      <trkpt lat="42.7345" lon="0.55103">
        <ele>1279.4000244141</ele>
        <time>2020-09-18T11:14:55Z</time>
      </trkpt>
      <trkpt lat="42.73467" lon="0.55107">
        <ele>1276.4000244141</ele>
        <time>2020-09-18T11:15:08Z</time>
      </trkpt>
      <trkpt lat="42.73484" lon="0.55108">
        <ele>1273.1999511719</ele>
        <time>2020-09-18T11:15:21Z</time>
      </trkpt>
      <trkpt lat="42.73499" lon="0.5511">
        <ele>1270</ele>
        <time>2020-09-18T11:15:34Z</time>
      </trkpt>
      <trkpt lat="42.73505" lon="0.5511">
        <ele>1268.4000244141</ele>
        <time>2020-09-18T11:15:39Z</time>
      </trkpt>
      <trkpt lat="42.73525" lon="0.55145">
        <ele>1265.1999511719</ele>
        <time>2020-09-18T11:16:02Z</time>
      </trkpt>
      <trkpt lat="42.73522" lon="0.55163">
        <ele>1262</ele>
        <time>2020-09-18T11:16:13Z</time>
      </trkpt>
      <trkpt lat="42.73512" lon="0.55179">
        <ele>1257.1999511719</ele>
        <time>2020-09-18T11:16:27Z</time>
      </trkpt>
      <trkpt lat="42.73509" lon="0.55183">
        <ele>1255.5999755859</ele>
        <time>2020-09-18T11:16:32Z</time>
      </trkpt>
      <trkpt lat="42.73515" lon="0.5521">
        <ele>1250.4000244141</ele>
        <time>2020-09-18T11:16:49Z</time>
      </trkpt>
      <trkpt lat="42.73505" lon="0.55214">
        <ele>1247.4000244141</ele>
        <time>2020-09-18T11:17:01Z</time>
      </trkpt>
      <trkpt lat="42.73505" lon="0.55236">
        <ele>1243.4000244141</ele>
        <time>2020-09-18T11:17:16Z</time>
      </trkpt>
      <trkpt lat="42.73503" lon="0.55242">
        <ele>1242.1999511719</ele>
        <time>2020-09-18T11:17:20Z</time>
      </trkpt>
      <trkpt lat="42.735" lon="0.5525">
        <ele>1240.5999755859</ele>
        <time>2020-09-18T11:17:25Z</time>
      </trkpt>
      <trkpt lat="42.73487" lon="0.55257">
        <ele>1237</ele>
        <time>2020-09-18T11:17:37Z</time>
      </trkpt>
      <trkpt lat="42.73486" lon="0.55274">
        <ele>1233.5999755859</ele>
        <time>2020-09-18T11:17:49Z</time>
      </trkpt>
      <trkpt lat="42.73476" lon="0.5529">
        <ele>1229</ele>
        <time>2020-09-18T11:18:06Z</time>
      </trkpt>
      <trkpt lat="42.73458" lon="0.55298">
        <ele>1223.1999511719</ele>
        <time>2020-09-18T11:18:26Z</time>
      </trkpt>
      <trkpt lat="42.73437" lon="0.55285">
        <ele>1220.1999511719</ele>
        <time>2020-09-18T11:18:44Z</time>
      </trkpt>
      <trkpt lat="42.73418" lon="0.55272">
        <ele>1219.4000244141</ele>
        <time>2020-09-18T11:19:01Z</time>
      </trkpt>
      <trkpt lat="42.73411" lon="0.55298">
        <ele>1216.1999511719</ele>
        <time>2020-09-18T11:19:19Z</time>
      </trkpt>
      <trkpt lat="42.73388" lon="0.5529">
        <ele>1212.1999511719</ele>
        <time>2020-09-18T11:19:40Z</time>
      </trkpt>
      <trkpt lat="42.73356" lon="0.55301">
        <ele>1206.8000488281</ele>
        <time>2020-09-18T11:20:05Z</time>
      </trkpt>
      <trkpt lat="42.73351" lon="0.5533">
        <ele>1202.4000244141</ele>
        <time>2020-09-18T11:20:22Z</time>
      </trkpt>
      <trkpt lat="42.7338" lon="0.55379">
        <ele>1198.8000488281</ele>
        <time>2020-09-18T11:20:56Z</time>
      </trkpt>
      <trkpt lat="42.73417" lon="0.55416">
        <ele>1195.8000488281</ele>
        <time>2020-09-18T11:21:29Z</time>
      </trkpt>
      <trkpt lat="42.73476" lon="0.55463">
        <ele>1192.4000244141</ele>
        <time>2020-09-18T11:22:17Z</time>
      </trkpt>
      <trkpt lat="42.73514" lon="0.55483">
        <ele>1187.1999511719</ele>
        <time>2020-09-18T11:22:47Z</time>
      </trkpt>
      <trkpt lat="42.73531" lon="0.55502">
        <ele>1185.5999755859</ele>
        <time>2020-09-18T11:23:03Z</time>
      </trkpt>
      <trkpt lat="42.7356" lon="0.55538">
        <ele>1182.1999511719</ele>
        <time>2020-09-18T11:23:36Z</time>
      </trkpt>
      <trkpt lat="42.73565" lon="0.55549">
        <ele>1181.4000244141</ele>
        <time>2020-09-18T11:23:58Z</time>
      </trkpt>
    </trkseg>
  </trk>
</gpx>